<?xml version="1.0" encoding="UTF-8" standalone="no" ?>
<gpx xmlns="http://www.topografix.com/GPX/1/1" xmlns:xsi="http://www.w3.org/2001/XMLSchema-instance" xsi:schemaLocation="http://www.topografix.com/GPX/1/1 http://www.topografix.com/GPX/1/1/gpx.xsd" version="1.1" creator="VisuGPX - https://www.visugpx.com">
  <metadata>
    <name>Sortie Ski du 31</name>
    <desc><![CDATA[Pour skier comme une machine.]]></desc>
  </metadata>
  <trk>
    <name><![CDATA[Downhill Skiing 12/31/12 12:14 pm]]></name>
    <trkseg>
      <trkpt lat="45.91023" lon="6.46732">
        <ele>1292.6</ele>
        <time>2012-12-31T20:14:24Z</time>
      </trkpt>
      <trkpt lat="45.91031" lon="6.46731">
        <ele>1292.6</ele>
        <time>2012-12-31T20:14:31Z</time>
      </trkpt>
      <trkpt lat="45.91039" lon="6.46727">
        <ele>1292.6</ele>
        <time>2012-12-31T20:14:40Z</time>
      </trkpt>
      <trkpt lat="45.91048" lon="6.46723">
        <ele>1292.6</ele>
        <time>2012-12-31T20:14:58Z</time>
      </trkpt>
      <trkpt lat="45.91046" lon="6.46724">
        <ele>1292.6</ele>
        <time>2012-12-31T20:15:03Z</time>
      </trkpt>
      <trkpt lat="45.91036" lon="6.46726">
        <ele>1291</ele>
        <time>2012-12-31T20:15:08Z</time>
      </trkpt>
      <trkpt lat="45.91036" lon="6.46726">
        <ele>1291</ele>
        <time>2012-12-31T20:15:08Z</time>
      </trkpt>
      <trkpt lat="45.91044" lon="6.46723">
        <ele>1291</ele>
        <time>2012-12-31T20:15:33Z</time>
      </trkpt>
      <trkpt lat="45.91044" lon="6.46723">
        <ele>1291</ele>
        <time>2012-12-31T20:15:39Z</time>
      </trkpt>
      <trkpt lat="45.91035" lon="6.46727">
        <ele>1291</ele>
        <time>2012-12-31T20:19:08Z</time>
      </trkpt>
      <trkpt lat="45.91035" lon="6.46727">
        <ele>1291</ele>
        <time>2012-12-31T20:19:08Z</time>
      </trkpt>
      <trkpt lat="45.91034" lon="6.46728">
        <ele>1291</ele>
        <time>2012-12-31T20:19:19Z</time>
      </trkpt>
      <trkpt lat="45.9103" lon="6.46737">
        <ele>1289.8</ele>
        <time>2012-12-31T20:20:58Z</time>
      </trkpt>
      <trkpt lat="45.9103" lon="6.46737">
        <ele>1289</ele>
        <time>2012-12-31T20:20:58Z</time>
      </trkpt>
      <trkpt lat="45.91021" lon="6.46734">
        <ele>1288.4</ele>
        <time>2012-12-31T20:21:05Z</time>
      </trkpt>
      <trkpt lat="45.91015" lon="6.46726">
        <ele>1287.9</ele>
        <time>2012-12-31T20:21:11Z</time>
      </trkpt>
      <trkpt lat="45.91007" lon="6.46722">
        <ele>1288.2</ele>
        <time>2012-12-31T20:21:15Z</time>
      </trkpt>
      <trkpt lat="45.91003" lon="6.4671">
        <ele>1288.5</ele>
        <time>2012-12-31T20:21:29Z</time>
      </trkpt>
      <trkpt lat="45.91" lon="6.46697">
        <ele>1288.5</ele>
        <time>2012-12-31T20:21:34Z</time>
      </trkpt>
      <trkpt lat="45.91008" lon="6.46706">
        <ele>1288.5</ele>
        <time>2012-12-31T20:21:42Z</time>
      </trkpt>
      <trkpt lat="45.91011" lon="6.46717">
        <ele>1288.2</ele>
        <time>2012-12-31T20:21:45Z</time>
      </trkpt>
      <trkpt lat="45.91015" lon="6.46729">
        <ele>1287.9</ele>
        <time>2012-12-31T20:21:48Z</time>
      </trkpt>
      <trkpt lat="45.9102" lon="6.4674">
        <ele>1287.5</ele>
        <time>2012-12-31T20:21:52Z</time>
      </trkpt>
      <trkpt lat="45.91013" lon="6.46747">
        <ele>1288</ele>
        <time>2012-12-31T20:22:04Z</time>
      </trkpt>
      <trkpt lat="45.91009" lon="6.46744">
        <ele>1288.7</ele>
        <time>2012-12-31T20:22:21Z</time>
      </trkpt>
      <trkpt lat="45.91009" lon="6.46736">
        <ele>1291</ele>
        <time>2012-12-31T20:22:32Z</time>
      </trkpt>
      <trkpt lat="45.91009" lon="6.46736">
        <ele>1291</ele>
        <time>2012-12-31T20:22:32Z</time>
      </trkpt>
      <trkpt lat="45.91006" lon="6.46724">
        <ele>1291</ele>
        <time>2012-12-31T20:22:37Z</time>
      </trkpt>
      <trkpt lat="45.90996" lon="6.46723">
        <ele>1291</ele>
        <time>2012-12-31T20:22:42Z</time>
      </trkpt>
      <trkpt lat="45.90998" lon="6.46723">
        <ele>1291</ele>
        <time>2012-12-31T20:23:06Z</time>
      </trkpt>
      <trkpt lat="45.91004" lon="6.46719">
        <ele>1286.3</ele>
        <time>2012-12-31T20:23:42Z</time>
      </trkpt>
      <trkpt lat="45.91004" lon="6.46719">
        <ele>1286</ele>
        <time>2012-12-31T20:23:42Z</time>
      </trkpt>
      <trkpt lat="45.91007" lon="6.46731">
        <ele>1286</ele>
        <time>2012-12-31T20:23:55Z</time>
      </trkpt>
      <trkpt lat="45.90999" lon="6.46732">
        <ele>1286</ele>
        <time>2012-12-31T20:24:04Z</time>
      </trkpt>
      <trkpt lat="45.91002" lon="6.4672">
        <ele>1286</ele>
        <time>2012-12-31T20:24:11Z</time>
      </trkpt>
      <trkpt lat="45.9101" lon="6.4672">
        <ele>1286</ele>
        <time>2012-12-31T20:24:16Z</time>
      </trkpt>
      <trkpt lat="45.91013" lon="6.46719">
        <ele>1286.3</ele>
        <time>2012-12-31T20:24:36Z</time>
      </trkpt>
      <trkpt lat="45.9101" lon="6.46733">
        <ele>1291</ele>
        <time>2012-12-31T20:25:26Z</time>
      </trkpt>
      <trkpt lat="45.9101" lon="6.46733">
        <ele>1291</ele>
        <time>2012-12-31T20:25:26Z</time>
      </trkpt>
      <trkpt lat="45.91008" lon="6.46733">
        <ele>1291</ele>
        <time>2012-12-31T20:25:37Z</time>
      </trkpt>
      <trkpt lat="45.91004" lon="6.46744">
        <ele>1292.2</ele>
        <time>2012-12-31T20:26:49Z</time>
      </trkpt>
      <trkpt lat="45.91004" lon="6.46744">
        <ele>1293</ele>
        <time>2012-12-31T20:26:49Z</time>
      </trkpt>
      <trkpt lat="45.90998" lon="6.46757">
        <ele>1297.5</ele>
        <time>2012-12-31T20:26:52Z</time>
      </trkpt>
      <trkpt lat="45.90994" lon="6.4677">
        <ele>1301</ele>
        <time>2012-12-31T20:26:54Z</time>
      </trkpt>
      <trkpt lat="45.9099" lon="6.46784">
        <ele>1303.8</ele>
        <time>2012-12-31T20:26:58Z</time>
      </trkpt>
      <trkpt lat="45.90976" lon="6.46804">
        <ele>1306.1</ele>
        <time>2012-12-31T20:26:59Z</time>
      </trkpt>
      <trkpt lat="45.90967" lon="6.46813">
        <ele>1309.5</ele>
        <time>2012-12-31T20:27:01Z</time>
      </trkpt>
      <trkpt lat="45.90959" lon="6.46822">
        <ele>1313</ele>
        <time>2012-12-31T20:27:03Z</time>
      </trkpt>
      <trkpt lat="45.9095" lon="6.46833">
        <ele>1316.5</ele>
        <time>2012-12-31T20:27:06Z</time>
      </trkpt>
      <trkpt lat="45.90942" lon="6.46841">
        <ele>1320.6</ele>
        <time>2012-12-31T20:27:08Z</time>
      </trkpt>
      <trkpt lat="45.90934" lon="6.46847">
        <ele>1324.8</ele>
        <time>2012-12-31T20:27:10Z</time>
      </trkpt>
      <trkpt lat="45.90924" lon="6.46854">
        <ele>1328.4</ele>
        <time>2012-12-31T20:27:13Z</time>
      </trkpt>
      <trkpt lat="45.90916" lon="6.46864">
        <ele>1331.9</ele>
        <time>2012-12-31T20:27:16Z</time>
      </trkpt>
      <trkpt lat="45.9091" lon="6.46876">
        <ele>1336.3</ele>
        <time>2012-12-31T20:27:19Z</time>
      </trkpt>
      <trkpt lat="45.90905" lon="6.46889">
        <ele>1340.6</ele>
        <time>2012-12-31T20:27:22Z</time>
      </trkpt>
      <trkpt lat="45.90898" lon="6.46902">
        <ele>1345</ele>
        <time>2012-12-31T20:27:25Z</time>
      </trkpt>
      <trkpt lat="45.9089" lon="6.46913">
        <ele>1349.4</ele>
        <time>2012-12-31T20:27:28Z</time>
      </trkpt>
      <trkpt lat="45.90883" lon="6.46923">
        <ele>1353.6</ele>
        <time>2012-12-31T20:27:31Z</time>
      </trkpt>
      <trkpt lat="45.90876" lon="6.46929">
        <ele>1357.9</ele>
        <time>2012-12-31T20:27:34Z</time>
      </trkpt>
      <trkpt lat="45.9087" lon="6.46939">
        <ele>1362.2</ele>
        <time>2012-12-31T20:27:39Z</time>
      </trkpt>
      <trkpt lat="45.90862" lon="6.46951">
        <ele>1365.7</ele>
        <time>2012-12-31T20:27:42Z</time>
      </trkpt>
      <trkpt lat="45.90856" lon="6.46959">
        <ele>1369.3</ele>
        <time>2012-12-31T20:27:44Z</time>
      </trkpt>
      <trkpt lat="45.90849" lon="6.46969">
        <ele>1372.8</ele>
        <time>2012-12-31T20:27:46Z</time>
      </trkpt>
      <trkpt lat="45.90842" lon="6.4698">
        <ele>1376.4</ele>
        <time>2012-12-31T20:27:48Z</time>
      </trkpt>
      <trkpt lat="45.90835" lon="6.46991">
        <ele>1376.3</ele>
        <time>2012-12-31T20:27:50Z</time>
      </trkpt>
      <trkpt lat="45.90828" lon="6.47001">
        <ele>1373.7</ele>
        <time>2012-12-31T20:27:52Z</time>
      </trkpt>
      <trkpt lat="45.90821" lon="6.4701">
        <ele>1375.1</ele>
        <time>2012-12-31T20:27:54Z</time>
      </trkpt>
      <trkpt lat="45.90814" lon="6.47022">
        <ele>1376.5</ele>
        <time>2012-12-31T20:27:57Z</time>
      </trkpt>
      <trkpt lat="45.90807" lon="6.47033">
        <ele>1377.9</ele>
        <time>2012-12-31T20:28:00Z</time>
      </trkpt>
      <trkpt lat="45.90799" lon="6.47045">
        <ele>1379.4</ele>
        <time>2012-12-31T20:28:03Z</time>
      </trkpt>
      <trkpt lat="45.90792" lon="6.47057">
        <ele>1380.8</ele>
        <time>2012-12-31T20:28:06Z</time>
      </trkpt>
      <trkpt lat="45.90785" lon="6.47069">
        <ele>1382.3</ele>
        <time>2012-12-31T20:28:09Z</time>
      </trkpt>
      <trkpt lat="45.90779" lon="6.47078">
        <ele>1383.7</ele>
        <time>2012-12-31T20:28:11Z</time>
      </trkpt>
      <trkpt lat="45.90772" lon="6.47086">
        <ele>1385.2</ele>
        <time>2012-12-31T20:28:13Z</time>
      </trkpt>
      <trkpt lat="45.90765" lon="6.47095">
        <ele>1385.1</ele>
        <time>2012-12-31T20:28:15Z</time>
      </trkpt>
      <trkpt lat="45.90759" lon="6.47103">
        <ele>1385</ele>
        <time>2012-12-31T20:28:17Z</time>
      </trkpt>
      <trkpt lat="45.90753" lon="6.47111">
        <ele>1387.4</ele>
        <time>2012-12-31T20:28:19Z</time>
      </trkpt>
      <trkpt lat="45.90746" lon="6.47119">
        <ele>1385.8</ele>
        <time>2012-12-31T20:28:21Z</time>
      </trkpt>
      <trkpt lat="45.90741" lon="6.47128">
        <ele>1384.3</ele>
        <time>2012-12-31T20:28:23Z</time>
      </trkpt>
      <trkpt lat="45.90735" lon="6.47137">
        <ele>1386.4</ele>
        <time>2012-12-31T20:28:25Z</time>
      </trkpt>
      <trkpt lat="45.90728" lon="6.47147">
        <ele>1388.5</ele>
        <time>2012-12-31T20:28:27Z</time>
      </trkpt>
      <trkpt lat="45.90723" lon="6.47156">
        <ele>1390.5</ele>
        <time>2012-12-31T20:28:29Z</time>
      </trkpt>
      <trkpt lat="45.90717" lon="6.47166">
        <ele>1392.6</ele>
        <time>2012-12-31T20:28:31Z</time>
      </trkpt>
      <trkpt lat="45.90711" lon="6.47175">
        <ele>1395.5</ele>
        <time>2012-12-31T20:28:33Z</time>
      </trkpt>
      <trkpt lat="45.90706" lon="6.47185">
        <ele>1398.5</ele>
        <time>2012-12-31T20:28:35Z</time>
      </trkpt>
      <trkpt lat="45.907" lon="6.47194">
        <ele>1402.9</ele>
        <time>2012-12-31T20:28:37Z</time>
      </trkpt>
      <trkpt lat="45.90695" lon="6.47203">
        <ele>1407.4</ele>
        <time>2012-12-31T20:28:39Z</time>
      </trkpt>
      <trkpt lat="45.90689" lon="6.47215">
        <ele>1411.8</ele>
        <time>2012-12-31T20:28:42Z</time>
      </trkpt>
      <trkpt lat="45.90682" lon="6.47226">
        <ele>1416.3</ele>
        <time>2012-12-31T20:28:45Z</time>
      </trkpt>
      <trkpt lat="45.90674" lon="6.47237">
        <ele>1420.7</ele>
        <time>2012-12-31T20:28:48Z</time>
      </trkpt>
      <trkpt lat="45.90668" lon="6.47246">
        <ele>1421.5</ele>
        <time>2012-12-31T20:28:50Z</time>
      </trkpt>
      <trkpt lat="45.90662" lon="6.47255">
        <ele>1425.3</ele>
        <time>2012-12-31T20:28:52Z</time>
      </trkpt>
      <trkpt lat="45.90654" lon="6.47266">
        <ele>1429</ele>
        <time>2012-12-31T20:28:55Z</time>
      </trkpt>
      <trkpt lat="45.90645" lon="6.47277">
        <ele>1432.7</ele>
        <time>2012-12-31T20:28:58Z</time>
      </trkpt>
      <trkpt lat="45.90639" lon="6.47285">
        <ele>1435.6</ele>
        <time>2012-12-31T20:29:00Z</time>
      </trkpt>
      <trkpt lat="45.90633" lon="6.47293">
        <ele>1438.5</ele>
        <time>2012-12-31T20:29:02Z</time>
      </trkpt>
      <trkpt lat="45.90627" lon="6.47301">
        <ele>1441.5</ele>
        <time>2012-12-31T20:29:04Z</time>
      </trkpt>
      <trkpt lat="45.90619" lon="6.47314">
        <ele>1444.4</ele>
        <time>2012-12-31T20:29:07Z</time>
      </trkpt>
      <trkpt lat="45.90611" lon="6.47326">
        <ele>1447.3</ele>
        <time>2012-12-31T20:29:10Z</time>
      </trkpt>
      <trkpt lat="45.90605" lon="6.47335">
        <ele>1452.3</ele>
        <time>2012-12-31T20:29:12Z</time>
      </trkpt>
      <trkpt lat="45.906" lon="6.47344">
        <ele>1457.3</ele>
        <time>2012-12-31T20:29:14Z</time>
      </trkpt>
      <trkpt lat="45.90592" lon="6.47354">
        <ele>1462.3</ele>
        <time>2012-12-31T20:29:17Z</time>
      </trkpt>
      <trkpt lat="45.90585" lon="6.47363">
        <ele>1464.4</ele>
        <time>2012-12-31T20:29:20Z</time>
      </trkpt>
      <trkpt lat="45.90578" lon="6.47374">
        <ele>1468.7</ele>
        <time>2012-12-31T20:29:23Z</time>
      </trkpt>
      <trkpt lat="45.90571" lon="6.47387">
        <ele>1473.1</ele>
        <time>2012-12-31T20:29:26Z</time>
      </trkpt>
      <trkpt lat="45.90562" lon="6.47397">
        <ele>1477.5</ele>
        <time>2012-12-31T20:29:29Z</time>
      </trkpt>
      <trkpt lat="45.90554" lon="6.47407">
        <ele>1481.8</ele>
        <time>2012-12-31T20:29:32Z</time>
      </trkpt>
      <trkpt lat="45.90546" lon="6.47417">
        <ele>1487.7</ele>
        <time>2012-12-31T20:29:35Z</time>
      </trkpt>
      <trkpt lat="45.90538" lon="6.47429">
        <ele>1493.6</ele>
        <time>2012-12-31T20:29:38Z</time>
      </trkpt>
      <trkpt lat="45.90531" lon="6.47439">
        <ele>1499.5</ele>
        <time>2012-12-31T20:29:41Z</time>
      </trkpt>
      <trkpt lat="45.90523" lon="6.47447">
        <ele>1503.4</ele>
        <time>2012-12-31T20:29:44Z</time>
      </trkpt>
      <trkpt lat="45.90517" lon="6.47456">
        <ele>1507.2</ele>
        <time>2012-12-31T20:29:47Z</time>
      </trkpt>
      <trkpt lat="45.9051" lon="6.47465">
        <ele>1511</ele>
        <time>2012-12-31T20:29:50Z</time>
      </trkpt>
      <trkpt lat="45.90504" lon="6.47474">
        <ele>1514.8</ele>
        <time>2012-12-31T20:29:53Z</time>
      </trkpt>
      <trkpt lat="45.90497" lon="6.47484">
        <ele>1518.5</ele>
        <time>2012-12-31T20:29:56Z</time>
      </trkpt>
      <trkpt lat="45.90489" lon="6.47494">
        <ele>1522.3</ele>
        <time>2012-12-31T20:29:59Z</time>
      </trkpt>
      <trkpt lat="45.90481" lon="6.47503">
        <ele>1528.5</ele>
        <time>2012-12-31T20:30:02Z</time>
      </trkpt>
      <trkpt lat="45.90475" lon="6.47511">
        <ele>1534.8</ele>
        <time>2012-12-31T20:30:04Z</time>
      </trkpt>
      <trkpt lat="45.90468" lon="6.4752">
        <ele>1539.5</ele>
        <time>2012-12-31T20:30:06Z</time>
      </trkpt>
      <trkpt lat="45.90463" lon="6.47529">
        <ele>1544.3</ele>
        <time>2012-12-31T20:30:08Z</time>
      </trkpt>
      <trkpt lat="45.90457" lon="6.47538">
        <ele>1549</ele>
        <time>2012-12-31T20:30:10Z</time>
      </trkpt>
      <trkpt lat="45.90452" lon="6.47549">
        <ele>1553.7</ele>
        <time>2012-12-31T20:30:13Z</time>
      </trkpt>
      <trkpt lat="45.90448" lon="6.4756">
        <ele>1558.5</ele>
        <time>2012-12-31T20:30:16Z</time>
      </trkpt>
      <trkpt lat="45.90444" lon="6.47573">
        <ele>1563.2</ele>
        <time>2012-12-31T20:30:19Z</time>
      </trkpt>
      <trkpt lat="45.90439" lon="6.47583">
        <ele>1568.9</ele>
        <time>2012-12-31T20:30:21Z</time>
      </trkpt>
      <trkpt lat="45.90431" lon="6.47595">
        <ele>1572.5</ele>
        <time>2012-12-31T20:30:24Z</time>
      </trkpt>
      <trkpt lat="45.90423" lon="6.47604">
        <ele>1576</ele>
        <time>2012-12-31T20:30:27Z</time>
      </trkpt>
      <trkpt lat="45.90414" lon="6.47615">
        <ele>1581.1</ele>
        <time>2012-12-31T20:30:30Z</time>
      </trkpt>
      <trkpt lat="45.90407" lon="6.47622">
        <ele>1586.2</ele>
        <time>2012-12-31T20:30:32Z</time>
      </trkpt>
      <trkpt lat="45.904" lon="6.47633">
        <ele>1591.3</ele>
        <time>2012-12-31T20:30:35Z</time>
      </trkpt>
      <trkpt lat="45.90392" lon="6.47645">
        <ele>1596.4</ele>
        <time>2012-12-31T20:30:38Z</time>
      </trkpt>
      <trkpt lat="45.90384" lon="6.47654">
        <ele>1601.5</ele>
        <time>2012-12-31T20:30:41Z</time>
      </trkpt>
      <trkpt lat="45.90377" lon="6.47661">
        <ele>1606.5</ele>
        <time>2012-12-31T20:30:44Z</time>
      </trkpt>
      <trkpt lat="45.9037" lon="6.47671">
        <ele>1611.6</ele>
        <time>2012-12-31T20:30:47Z</time>
      </trkpt>
      <trkpt lat="45.90364" lon="6.4768">
        <ele>1617.8</ele>
        <time>2012-12-31T20:30:49Z</time>
      </trkpt>
      <trkpt lat="45.90358" lon="6.47688">
        <ele>1623</ele>
        <time>2012-12-31T20:30:51Z</time>
      </trkpt>
      <trkpt lat="45.90351" lon="6.47699">
        <ele>1628.2</ele>
        <time>2012-12-31T20:30:53Z</time>
      </trkpt>
      <trkpt lat="45.90344" lon="6.47707">
        <ele>1633.4</ele>
        <time>2012-12-31T20:30:55Z</time>
      </trkpt>
      <trkpt lat="45.90337" lon="6.47717">
        <ele>1634.5</ele>
        <time>2012-12-31T20:30:57Z</time>
      </trkpt>
      <trkpt lat="45.9033" lon="6.47726">
        <ele>1635.5</ele>
        <time>2012-12-31T20:30:59Z</time>
      </trkpt>
      <trkpt lat="45.90322" lon="6.47735">
        <ele>1639.3</ele>
        <time>2012-12-31T20:31:01Z</time>
      </trkpt>
      <trkpt lat="45.90314" lon="6.47748">
        <ele>1645.2</ele>
        <time>2012-12-31T20:31:04Z</time>
      </trkpt>
      <trkpt lat="45.90307" lon="6.47759">
        <ele>1651.1</ele>
        <time>2012-12-31T20:31:07Z</time>
      </trkpt>
      <trkpt lat="45.903" lon="6.4777">
        <ele>1657</ele>
        <time>2012-12-31T20:31:10Z</time>
      </trkpt>
      <trkpt lat="45.90294" lon="6.47782">
        <ele>1662.9</ele>
        <time>2012-12-31T20:31:13Z</time>
      </trkpt>
      <trkpt lat="45.90288" lon="6.47794">
        <ele>1667.7</ele>
        <time>2012-12-31T20:31:16Z</time>
      </trkpt>
      <trkpt lat="45.90282" lon="6.47806">
        <ele>1672.5</ele>
        <time>2012-12-31T20:31:19Z</time>
      </trkpt>
      <trkpt lat="45.90275" lon="6.47816">
        <ele>1677.4</ele>
        <time>2012-12-31T20:31:22Z</time>
      </trkpt>
      <trkpt lat="45.90267" lon="6.47827">
        <ele>1682.2</ele>
        <time>2012-12-31T20:31:25Z</time>
      </trkpt>
      <trkpt lat="45.90259" lon="6.47838">
        <ele>1687</ele>
        <time>2012-12-31T20:31:28Z</time>
      </trkpt>
      <trkpt lat="45.90252" lon="6.47849">
        <ele>1693.4</ele>
        <time>2012-12-31T20:31:31Z</time>
      </trkpt>
      <trkpt lat="45.90246" lon="6.47859">
        <ele>1697.1</ele>
        <time>2012-12-31T20:31:34Z</time>
      </trkpt>
      <trkpt lat="45.90239" lon="6.47869">
        <ele>1703.5</ele>
        <time>2012-12-31T20:31:37Z</time>
      </trkpt>
      <trkpt lat="45.90232" lon="6.47878">
        <ele>1709.8</ele>
        <time>2012-12-31T20:31:40Z</time>
      </trkpt>
      <trkpt lat="45.90224" lon="6.47885">
        <ele>1716.2</ele>
        <time>2012-12-31T20:31:43Z</time>
      </trkpt>
      <trkpt lat="45.90218" lon="6.47893">
        <ele>1722.5</ele>
        <time>2012-12-31T20:31:46Z</time>
      </trkpt>
      <trkpt lat="45.90211" lon="6.47903">
        <ele>1728.9</ele>
        <time>2012-12-31T20:31:49Z</time>
      </trkpt>
      <trkpt lat="45.90204" lon="6.47914">
        <ele>1735.3</ele>
        <time>2012-12-31T20:31:52Z</time>
      </trkpt>
      <trkpt lat="45.90198" lon="6.47925">
        <ele>1743</ele>
        <time>2012-12-31T20:31:55Z</time>
      </trkpt>
      <trkpt lat="45.90191" lon="6.47936">
        <ele>1750.7</ele>
        <time>2012-12-31T20:31:58Z</time>
      </trkpt>
      <trkpt lat="45.90186" lon="6.47945">
        <ele>1758.5</ele>
        <time>2012-12-31T20:32:01Z</time>
      </trkpt>
      <trkpt lat="45.90179" lon="6.47955">
        <ele>1764.6</ele>
        <time>2012-12-31T20:32:05Z</time>
      </trkpt>
      <trkpt lat="45.9017" lon="6.47966">
        <ele>1770.8</ele>
        <time>2012-12-31T20:32:08Z</time>
      </trkpt>
      <trkpt lat="45.90164" lon="6.47975">
        <ele>1776.2</ele>
        <time>2012-12-31T20:32:10Z</time>
      </trkpt>
      <trkpt lat="45.90154" lon="6.47987">
        <ele>1781.5</ele>
        <time>2012-12-31T20:32:13Z</time>
      </trkpt>
      <trkpt lat="45.90146" lon="6.47995">
        <ele>1786.9</ele>
        <time>2012-12-31T20:32:15Z</time>
      </trkpt>
      <trkpt lat="45.90137" lon="6.48004">
        <ele>1794.8</ele>
        <time>2012-12-31T20:32:17Z</time>
      </trkpt>
      <trkpt lat="45.90128" lon="6.48012">
        <ele>1802.7</ele>
        <time>2012-12-31T20:32:19Z</time>
      </trkpt>
      <trkpt lat="45.9012" lon="6.48021">
        <ele>1810.6</ele>
        <time>2012-12-31T20:32:21Z</time>
      </trkpt>
      <trkpt lat="45.90113" lon="6.48031">
        <ele>1817.2</ele>
        <time>2012-12-31T20:32:23Z</time>
      </trkpt>
      <trkpt lat="45.90106" lon="6.48042">
        <ele>1823.7</ele>
        <time>2012-12-31T20:32:25Z</time>
      </trkpt>
      <trkpt lat="45.90099" lon="6.48053">
        <ele>1830.3</ele>
        <time>2012-12-31T20:32:27Z</time>
      </trkpt>
      <trkpt lat="45.90092" lon="6.48063">
        <ele>1836.8</ele>
        <time>2012-12-31T20:32:29Z</time>
      </trkpt>
      <trkpt lat="45.90087" lon="6.48072">
        <ele>1843.4</ele>
        <time>2012-12-31T20:32:31Z</time>
      </trkpt>
      <trkpt lat="45.90079" lon="6.48085">
        <ele>1849.4</ele>
        <time>2012-12-31T20:32:34Z</time>
      </trkpt>
      <trkpt lat="45.90073" lon="6.48094">
        <ele>1856.5</ele>
        <time>2012-12-31T20:32:37Z</time>
      </trkpt>
      <trkpt lat="45.90064" lon="6.48103">
        <ele>1863.5</ele>
        <time>2012-12-31T20:32:41Z</time>
      </trkpt>
      <trkpt lat="45.90057" lon="6.48111">
        <ele>1868.1</ele>
        <time>2012-12-31T20:32:43Z</time>
      </trkpt>
      <trkpt lat="45.90051" lon="6.4812">
        <ele>1872.6</ele>
        <time>2012-12-31T20:32:45Z</time>
      </trkpt>
      <trkpt lat="45.90044" lon="6.48133">
        <ele>1877.2</ele>
        <time>2012-12-31T20:32:48Z</time>
      </trkpt>
      <trkpt lat="45.9004" lon="6.48144">
        <ele>1881.7</ele>
        <time>2012-12-31T20:32:51Z</time>
      </trkpt>
      <trkpt lat="45.90031" lon="6.48147">
        <ele>1884.8</ele>
        <time>2012-12-31T20:32:58Z</time>
      </trkpt>
      <trkpt lat="45.90026" lon="6.48138">
        <ele>1888.6</ele>
        <time>2012-12-31T20:33:03Z</time>
      </trkpt>
      <trkpt lat="45.90035" lon="6.48133">
        <ele>1893.2</ele>
        <time>2012-12-31T20:33:10Z</time>
      </trkpt>
      <trkpt lat="45.90043" lon="6.48139">
        <ele>1899.3</ele>
        <time>2012-12-31T20:33:15Z</time>
      </trkpt>
      <trkpt lat="45.90041" lon="6.4815">
        <ele>1901</ele>
        <time>2012-12-31T20:33:39Z</time>
      </trkpt>
      <trkpt lat="45.90043" lon="6.48152">
        <ele>1880</ele>
        <time>2012-12-31T20:33:58Z</time>
      </trkpt>
      <trkpt lat="45.90043" lon="6.48152">
        <ele>1880</ele>
        <time>2012-12-31T20:33:58Z</time>
      </trkpt>
      <trkpt lat="45.90051" lon="6.4815">
        <ele>1880</ele>
        <time>2012-12-31T20:34:10Z</time>
      </trkpt>
      <trkpt lat="45.90051" lon="6.48151">
        <ele>1880</ele>
        <time>2012-12-31T20:34:15Z</time>
      </trkpt>
      <trkpt lat="45.9006" lon="6.48151">
        <ele>1859</ele>
        <time>2012-12-31T20:35:22Z</time>
      </trkpt>
      <trkpt lat="45.9006" lon="6.48151">
        <ele>1859</ele>
        <time>2012-12-31T20:35:22Z</time>
      </trkpt>
      <trkpt lat="45.90068" lon="6.48147">
        <ele>1859</ele>
        <time>2012-12-31T20:35:26Z</time>
      </trkpt>
      <trkpt lat="45.90076" lon="6.48143">
        <ele>1859</ele>
        <time>2012-12-31T20:35:33Z</time>
      </trkpt>
      <trkpt lat="45.90083" lon="6.48141">
        <ele>1859</ele>
        <time>2012-12-31T20:35:50Z</time>
      </trkpt>
      <trkpt lat="45.90084" lon="6.4814">
        <ele>1859</ele>
        <time>2012-12-31T20:36:05Z</time>
      </trkpt>
      <trkpt lat="45.90084" lon="6.4814">
        <ele>1859</ele>
        <time>2012-12-31T20:36:05Z</time>
      </trkpt>
      <trkpt lat="45.90084" lon="6.48139">
        <ele>1859</ele>
        <time>2012-12-31T20:36:06Z</time>
      </trkpt>
      <trkpt lat="45.90092" lon="6.48136">
        <ele>1859</ele>
        <time>2012-12-31T20:37:09Z</time>
      </trkpt>
      <trkpt lat="45.90092" lon="6.48136">
        <ele>1859</ele>
        <time>2012-12-31T20:37:09Z</time>
      </trkpt>
      <trkpt lat="45.90089" lon="6.48135">
        <ele>1859</ele>
        <time>2012-12-31T20:37:22Z</time>
      </trkpt>
      <trkpt lat="45.90096" lon="6.48125">
        <ele>1851</ele>
        <time>2012-12-31T20:39:43Z</time>
      </trkpt>
      <trkpt lat="45.90096" lon="6.48125">
        <ele>1851</ele>
        <time>2012-12-31T20:39:43Z</time>
      </trkpt>
      <trkpt lat="45.90098" lon="6.48126">
        <ele>1851</ele>
        <time>2012-12-31T20:39:54Z</time>
      </trkpt>
      <trkpt lat="45.90094" lon="6.48139">
        <ele>1859</ele>
        <time>2012-12-31T20:41:16Z</time>
      </trkpt>
      <trkpt lat="45.90094" lon="6.48139">
        <ele>1859</ele>
        <time>2012-12-31T20:41:16Z</time>
      </trkpt>
      <trkpt lat="45.90094" lon="6.48152">
        <ele>1859</ele>
        <time>2012-12-31T20:41:20Z</time>
      </trkpt>
      <trkpt lat="45.90093" lon="6.48165">
        <ele>1860.9</ele>
        <time>2012-12-31T20:41:23Z</time>
      </trkpt>
      <trkpt lat="45.90091" lon="6.48177">
        <ele>1862.4</ele>
        <time>2012-12-31T20:41:26Z</time>
      </trkpt>
      <trkpt lat="45.90086" lon="6.48187">
        <ele>1863.6</ele>
        <time>2012-12-31T20:41:29Z</time>
      </trkpt>
      <trkpt lat="45.90083" lon="6.48198">
        <ele>1865.2</ele>
        <time>2012-12-31T20:41:32Z</time>
      </trkpt>
      <trkpt lat="45.9008" lon="6.48211">
        <ele>1866.7</ele>
        <time>2012-12-31T20:41:36Z</time>
      </trkpt>
      <trkpt lat="45.90077" lon="6.48223">
        <ele>1868.3</ele>
        <time>2012-12-31T20:41:40Z</time>
      </trkpt>
      <trkpt lat="45.90073" lon="6.48235">
        <ele>1869.8</ele>
        <time>2012-12-31T20:41:45Z</time>
      </trkpt>
      <trkpt lat="45.90071" lon="6.48246">
        <ele>1873.5</ele>
        <time>2012-12-31T20:41:51Z</time>
      </trkpt>
      <trkpt lat="45.90068" lon="6.48258">
        <ele>1877.1</ele>
        <time>2012-12-31T20:41:55Z</time>
      </trkpt>
      <trkpt lat="45.90066" lon="6.48271">
        <ele>1880.7</ele>
        <time>2012-12-31T20:41:58Z</time>
      </trkpt>
      <trkpt lat="45.90062" lon="6.48282">
        <ele>1884.4</ele>
        <time>2012-12-31T20:42:02Z</time>
      </trkpt>
      <trkpt lat="45.90058" lon="6.48293">
        <ele>1886.5</ele>
        <time>2012-12-31T20:42:06Z</time>
      </trkpt>
      <trkpt lat="45.90055" lon="6.48304">
        <ele>1888.5</ele>
        <time>2012-12-31T20:42:09Z</time>
      </trkpt>
      <trkpt lat="45.90053" lon="6.48317">
        <ele>1894.5</ele>
        <time>2012-12-31T20:42:13Z</time>
      </trkpt>
      <trkpt lat="45.90051" lon="6.48329">
        <ele>1900.5</ele>
        <time>2012-12-31T20:42:19Z</time>
      </trkpt>
      <trkpt lat="45.90049" lon="6.48342">
        <ele>1906.5</ele>
        <time>2012-12-31T20:42:22Z</time>
      </trkpt>
      <trkpt lat="45.90049" lon="6.48355">
        <ele>1912.5</ele>
        <time>2012-12-31T20:42:25Z</time>
      </trkpt>
      <trkpt lat="45.90047" lon="6.4837">
        <ele>1918.5</ele>
        <time>2012-12-31T20:42:29Z</time>
      </trkpt>
      <trkpt lat="45.90044" lon="6.48382">
        <ele>1922.5</ele>
        <time>2012-12-31T20:42:33Z</time>
      </trkpt>
      <trkpt lat="45.90043" lon="6.48394">
        <ele>1926.4</ele>
        <time>2012-12-31T20:42:37Z</time>
      </trkpt>
      <trkpt lat="45.90043" lon="6.48406">
        <ele>1933.1</ele>
        <time>2012-12-31T20:42:43Z</time>
      </trkpt>
      <trkpt lat="45.9004" lon="6.48418">
        <ele>1939.8</ele>
        <time>2012-12-31T20:42:46Z</time>
      </trkpt>
      <trkpt lat="45.90037" lon="6.4843">
        <ele>1946.5</ele>
        <time>2012-12-31T20:42:50Z</time>
      </trkpt>
      <trkpt lat="45.90034" lon="6.48442">
        <ele>1953.3</ele>
        <time>2012-12-31T20:42:54Z</time>
      </trkpt>
      <trkpt lat="45.90034" lon="6.48454">
        <ele>1956.1</ele>
        <time>2012-12-31T20:43:02Z</time>
      </trkpt>
      <trkpt lat="45.9003" lon="6.48466">
        <ele>1958.9</ele>
        <time>2012-12-31T20:43:05Z</time>
      </trkpt>
      <trkpt lat="45.90026" lon="6.48478">
        <ele>1961.7</ele>
        <time>2012-12-31T20:43:10Z</time>
      </trkpt>
      <trkpt lat="45.90024" lon="6.4849">
        <ele>1967.2</ele>
        <time>2012-12-31T20:43:16Z</time>
      </trkpt>
      <trkpt lat="45.90023" lon="6.48502">
        <ele>1972.6</ele>
        <time>2012-12-31T20:43:24Z</time>
      </trkpt>
      <trkpt lat="45.90023" lon="6.48514">
        <ele>1978.1</ele>
        <time>2012-12-31T20:43:33Z</time>
      </trkpt>
      <trkpt lat="45.90021" lon="6.48526">
        <ele>1983.5</ele>
        <time>2012-12-31T20:43:39Z</time>
      </trkpt>
      <trkpt lat="45.90018" lon="6.48537">
        <ele>1986.2</ele>
        <time>2012-12-31T20:43:43Z</time>
      </trkpt>
      <trkpt lat="45.90016" lon="6.48549">
        <ele>1988.8</ele>
        <time>2012-12-31T20:43:47Z</time>
      </trkpt>
      <trkpt lat="45.90013" lon="6.48561">
        <ele>1991.5</ele>
        <time>2012-12-31T20:43:53Z</time>
      </trkpt>
      <trkpt lat="45.90009" lon="6.48573">
        <ele>1996.7</ele>
        <time>2012-12-31T20:43:56Z</time>
      </trkpt>
      <trkpt lat="45.90006" lon="6.48584">
        <ele>2002</ele>
        <time>2012-12-31T20:44:01Z</time>
      </trkpt>
      <trkpt lat="45.90002" lon="6.48595">
        <ele>2007.3</ele>
        <time>2012-12-31T20:44:05Z</time>
      </trkpt>
      <trkpt lat="45.89998" lon="6.48608">
        <ele>2012.5</ele>
        <time>2012-12-31T20:44:08Z</time>
      </trkpt>
      <trkpt lat="45.89993" lon="6.4862">
        <ele>2015.2</ele>
        <time>2012-12-31T20:44:12Z</time>
      </trkpt>
      <trkpt lat="45.89988" lon="6.48633">
        <ele>2017.8</ele>
        <time>2012-12-31T20:44:16Z</time>
      </trkpt>
      <trkpt lat="45.89985" lon="6.48645">
        <ele>2020.5</ele>
        <time>2012-12-31T20:44:21Z</time>
      </trkpt>
      <trkpt lat="45.89979" lon="6.48655">
        <ele>2024.4</ele>
        <time>2012-12-31T20:44:23Z</time>
      </trkpt>
      <trkpt lat="45.89974" lon="6.48665">
        <ele>2030.5</ele>
        <time>2012-12-31T20:44:26Z</time>
      </trkpt>
      <trkpt lat="45.8997" lon="6.48679">
        <ele>2036.5</ele>
        <time>2012-12-31T20:44:31Z</time>
      </trkpt>
      <trkpt lat="45.89967" lon="6.48692">
        <ele>2042.6</ele>
        <time>2012-12-31T20:44:35Z</time>
      </trkpt>
      <trkpt lat="45.89965" lon="6.48704">
        <ele>2046.1</ele>
        <time>2012-12-31T20:44:39Z</time>
      </trkpt>
      <trkpt lat="45.89962" lon="6.48717">
        <ele>2049.5</ele>
        <time>2012-12-31T20:44:43Z</time>
      </trkpt>
      <trkpt lat="45.89961" lon="6.48728">
        <ele>2053</ele>
        <time>2012-12-31T20:44:47Z</time>
      </trkpt>
      <trkpt lat="45.89959" lon="6.48742">
        <ele>2058</ele>
        <time>2012-12-31T20:44:52Z</time>
      </trkpt>
      <trkpt lat="45.89956" lon="6.48755">
        <ele>2063</ele>
        <time>2012-12-31T20:44:57Z</time>
      </trkpt>
      <trkpt lat="45.89953" lon="6.48767">
        <ele>2068</ele>
        <time>2012-12-31T20:45:01Z</time>
      </trkpt>
      <trkpt lat="45.89951" lon="6.48779">
        <ele>2073</ele>
        <time>2012-12-31T20:45:05Z</time>
      </trkpt>
      <trkpt lat="45.89948" lon="6.48793">
        <ele>2076.7</ele>
        <time>2012-12-31T20:45:09Z</time>
      </trkpt>
      <trkpt lat="45.89945" lon="6.48806">
        <ele>2078.3</ele>
        <time>2012-12-31T20:45:13Z</time>
      </trkpt>
      <trkpt lat="45.89941" lon="6.48818">
        <ele>2079.8</ele>
        <time>2012-12-31T20:45:17Z</time>
      </trkpt>
      <trkpt lat="45.89936" lon="6.48828">
        <ele>2082.3</ele>
        <time>2012-12-31T20:45:21Z</time>
      </trkpt>
      <trkpt lat="45.89932" lon="6.48839">
        <ele>2084.7</ele>
        <time>2012-12-31T20:45:24Z</time>
      </trkpt>
      <trkpt lat="45.89929" lon="6.48854">
        <ele>2087.2</ele>
        <time>2012-12-31T20:45:29Z</time>
      </trkpt>
      <trkpt lat="45.89926" lon="6.48866">
        <ele>2089.6</ele>
        <time>2012-12-31T20:45:32Z</time>
      </trkpt>
      <trkpt lat="45.89927" lon="6.48879">
        <ele>2090.5</ele>
        <time>2012-12-31T20:45:36Z</time>
      </trkpt>
      <trkpt lat="45.89926" lon="6.48892">
        <ele>2091.5</ele>
        <time>2012-12-31T20:45:41Z</time>
      </trkpt>
      <trkpt lat="45.89923" lon="6.48904">
        <ele>2092.4</ele>
        <time>2012-12-31T20:45:48Z</time>
      </trkpt>
      <trkpt lat="45.89922" lon="6.48917">
        <ele>2095.2</ele>
        <time>2012-12-31T20:45:54Z</time>
      </trkpt>
      <trkpt lat="45.89918" lon="6.48928">
        <ele>2098</ele>
        <time>2012-12-31T20:45:57Z</time>
      </trkpt>
      <trkpt lat="45.89913" lon="6.48941">
        <ele>2100.8</ele>
        <time>2012-12-31T20:46:01Z</time>
      </trkpt>
      <trkpt lat="45.8991" lon="6.48955">
        <ele>2103.6</ele>
        <time>2012-12-31T20:46:05Z</time>
      </trkpt>
      <trkpt lat="45.8991" lon="6.48968">
        <ele>2105.5</ele>
        <time>2012-12-31T20:46:10Z</time>
      </trkpt>
      <trkpt lat="45.8991" lon="6.48982">
        <ele>2107.5</ele>
        <time>2012-12-31T20:46:15Z</time>
      </trkpt>
      <trkpt lat="45.89907" lon="6.48996">
        <ele>2112.5</ele>
        <time>2012-12-31T20:46:20Z</time>
      </trkpt>
      <trkpt lat="45.89904" lon="6.49009">
        <ele>2117.5</ele>
        <time>2012-12-31T20:46:25Z</time>
      </trkpt>
      <trkpt lat="45.89901" lon="6.4902">
        <ele>2122.5</ele>
        <time>2012-12-31T20:46:29Z</time>
      </trkpt>
      <trkpt lat="45.89897" lon="6.49033">
        <ele>2128.9</ele>
        <time>2012-12-31T20:46:33Z</time>
      </trkpt>
      <trkpt lat="45.89891" lon="6.49044">
        <ele>2135.4</ele>
        <time>2012-12-31T20:46:37Z</time>
      </trkpt>
      <trkpt lat="45.8989" lon="6.49057">
        <ele>2139.9</ele>
        <time>2012-12-31T20:46:41Z</time>
      </trkpt>
      <trkpt lat="45.89887" lon="6.4907">
        <ele>2144.5</ele>
        <time>2012-12-31T20:46:45Z</time>
      </trkpt>
      <trkpt lat="45.89882" lon="6.49081">
        <ele>2150.3</ele>
        <time>2012-12-31T20:46:49Z</time>
      </trkpt>
      <trkpt lat="45.89878" lon="6.49092">
        <ele>2156.1</ele>
        <time>2012-12-31T20:46:51Z</time>
      </trkpt>
      <trkpt lat="45.89876" lon="6.49105">
        <ele>2161.9</ele>
        <time>2012-12-31T20:46:55Z</time>
      </trkpt>
      <trkpt lat="45.89876" lon="6.49118">
        <ele>2167.7</ele>
        <time>2012-12-31T20:47:02Z</time>
      </trkpt>
      <trkpt lat="45.89876" lon="6.49131">
        <ele>2170.5</ele>
        <time>2012-12-31T20:47:06Z</time>
      </trkpt>
      <trkpt lat="45.89875" lon="6.49142">
        <ele>2173.2</ele>
        <time>2012-12-31T20:47:12Z</time>
      </trkpt>
      <trkpt lat="45.89872" lon="6.49155">
        <ele>2176.7</ele>
        <time>2012-12-31T20:47:18Z</time>
      </trkpt>
      <trkpt lat="45.89873" lon="6.49168">
        <ele>2178.8</ele>
        <time>2012-12-31T20:47:21Z</time>
      </trkpt>
      <trkpt lat="45.89871" lon="6.4918">
        <ele>2180.9</ele>
        <time>2012-12-31T20:47:26Z</time>
      </trkpt>
      <trkpt lat="45.89868" lon="6.49193">
        <ele>2183</ele>
        <time>2012-12-31T20:47:31Z</time>
      </trkpt>
      <trkpt lat="45.89865" lon="6.49205">
        <ele>2185.1</ele>
        <time>2012-12-31T20:47:35Z</time>
      </trkpt>
      <trkpt lat="45.89862" lon="6.49218">
        <ele>2185.9</ele>
        <time>2012-12-31T20:47:38Z</time>
      </trkpt>
      <trkpt lat="45.8986" lon="6.49232">
        <ele>2186.7</ele>
        <time>2012-12-31T20:47:43Z</time>
      </trkpt>
      <trkpt lat="45.89859" lon="6.49244">
        <ele>2189.4</ele>
        <time>2012-12-31T20:47:47Z</time>
      </trkpt>
      <trkpt lat="45.89858" lon="6.49256">
        <ele>2192</ele>
        <time>2012-12-31T20:47:51Z</time>
      </trkpt>
      <trkpt lat="45.89855" lon="6.49267">
        <ele>2194.6</ele>
        <time>2012-12-31T20:47:56Z</time>
      </trkpt>
      <trkpt lat="45.89852" lon="6.49279">
        <ele>2197.3</ele>
        <time>2012-12-31T20:48:00Z</time>
      </trkpt>
      <trkpt lat="45.89849" lon="6.4929">
        <ele>2199.1</ele>
        <time>2012-12-31T20:48:03Z</time>
      </trkpt>
      <trkpt lat="45.89847" lon="6.49302">
        <ele>2200.9</ele>
        <time>2012-12-31T20:48:07Z</time>
      </trkpt>
      <trkpt lat="45.89844" lon="6.49313">
        <ele>2202.7</ele>
        <time>2012-12-31T20:48:11Z</time>
      </trkpt>
      <trkpt lat="45.89841" lon="6.49325">
        <ele>2206.8</ele>
        <time>2012-12-31T20:48:16Z</time>
      </trkpt>
      <trkpt lat="45.89838" lon="6.49339">
        <ele>2210.9</ele>
        <time>2012-12-31T20:48:20Z</time>
      </trkpt>
      <trkpt lat="45.89834" lon="6.49352">
        <ele>2215</ele>
        <time>2012-12-31T20:48:23Z</time>
      </trkpt>
      <trkpt lat="45.89832" lon="6.49364">
        <ele>2219.1</ele>
        <time>2012-12-31T20:48:27Z</time>
      </trkpt>
      <trkpt lat="45.89829" lon="6.49377">
        <ele>2221.4</ele>
        <time>2012-12-31T20:48:32Z</time>
      </trkpt>
      <trkpt lat="45.89826" lon="6.49391">
        <ele>2223.6</ele>
        <time>2012-12-31T20:48:37Z</time>
      </trkpt>
      <trkpt lat="45.89825" lon="6.49403">
        <ele>2228.8</ele>
        <time>2012-12-31T20:48:42Z</time>
      </trkpt>
      <trkpt lat="45.89822" lon="6.49415">
        <ele>2234</ele>
        <time>2012-12-31T20:48:46Z</time>
      </trkpt>
      <trkpt lat="45.89819" lon="6.49428">
        <ele>2239.2</ele>
        <time>2012-12-31T20:48:50Z</time>
      </trkpt>
      <trkpt lat="45.89817" lon="6.49442">
        <ele>2244.4</ele>
        <time>2012-12-31T20:48:55Z</time>
      </trkpt>
      <trkpt lat="45.89815" lon="6.49454">
        <ele>2249.5</ele>
        <time>2012-12-31T20:49:00Z</time>
      </trkpt>
      <trkpt lat="45.89813" lon="6.49467">
        <ele>2252.5</ele>
        <time>2012-12-31T20:49:04Z</time>
      </trkpt>
      <trkpt lat="45.89811" lon="6.4948">
        <ele>2255.4</ele>
        <time>2012-12-31T20:49:10Z</time>
      </trkpt>
      <trkpt lat="45.89808" lon="6.49493">
        <ele>2260.6</ele>
        <time>2012-12-31T20:49:15Z</time>
      </trkpt>
      <trkpt lat="45.89805" lon="6.49506">
        <ele>2265.9</ele>
        <time>2012-12-31T20:49:19Z</time>
      </trkpt>
      <trkpt lat="45.89803" lon="6.49517">
        <ele>2272.2</ele>
        <time>2012-12-31T20:49:24Z</time>
      </trkpt>
      <trkpt lat="45.89801" lon="6.49529">
        <ele>2278.5</ele>
        <time>2012-12-31T20:49:31Z</time>
      </trkpt>
      <trkpt lat="45.89798" lon="6.4954">
        <ele>2281.8</ele>
        <time>2012-12-31T20:49:36Z</time>
      </trkpt>
      <trkpt lat="45.89796" lon="6.49554">
        <ele>2285.2</ele>
        <time>2012-12-31T20:49:43Z</time>
      </trkpt>
      <trkpt lat="45.89794" lon="6.49568">
        <ele>2290</ele>
        <time>2012-12-31T20:49:47Z</time>
      </trkpt>
      <trkpt lat="45.89792" lon="6.49581">
        <ele>2294.8</ele>
        <time>2012-12-31T20:49:52Z</time>
      </trkpt>
      <trkpt lat="45.8979" lon="6.49593">
        <ele>2299.6</ele>
        <time>2012-12-31T20:49:55Z</time>
      </trkpt>
      <trkpt lat="45.89786" lon="6.49606">
        <ele>2304.5</ele>
        <time>2012-12-31T20:50:00Z</time>
      </trkpt>
      <trkpt lat="45.89785" lon="6.4962">
        <ele>2309.3</ele>
        <time>2012-12-31T20:50:05Z</time>
      </trkpt>
      <trkpt lat="45.89783" lon="6.49632">
        <ele>2311.7</ele>
        <time>2012-12-31T20:50:09Z</time>
      </trkpt>
      <trkpt lat="45.89782" lon="6.49645">
        <ele>2314.2</ele>
        <time>2012-12-31T20:50:13Z</time>
      </trkpt>
      <trkpt lat="45.8978" lon="6.49656">
        <ele>2315.6</ele>
        <time>2012-12-31T20:50:17Z</time>
      </trkpt>
      <trkpt lat="45.89776" lon="6.4967">
        <ele>2319.1</ele>
        <time>2012-12-31T20:50:21Z</time>
      </trkpt>
      <trkpt lat="45.89773" lon="6.49682">
        <ele>2322.5</ele>
        <time>2012-12-31T20:50:24Z</time>
      </trkpt>
      <trkpt lat="45.8977" lon="6.49693">
        <ele>2326</ele>
        <time>2012-12-31T20:50:27Z</time>
      </trkpt>
      <trkpt lat="45.89766" lon="6.49706">
        <ele>2328</ele>
        <time>2012-12-31T20:50:31Z</time>
      </trkpt>
      <trkpt lat="45.89763" lon="6.49719">
        <ele>2330</ele>
        <time>2012-12-31T20:50:36Z</time>
      </trkpt>
      <trkpt lat="45.89762" lon="6.4973">
        <ele>2332</ele>
        <time>2012-12-31T20:50:40Z</time>
      </trkpt>
      <trkpt lat="45.89761" lon="6.49744">
        <ele>2337</ele>
        <time>2012-12-31T20:50:44Z</time>
      </trkpt>
      <trkpt lat="45.89759" lon="6.49757">
        <ele>2342</ele>
        <time>2012-12-31T20:50:49Z</time>
      </trkpt>
      <trkpt lat="45.89758" lon="6.4977">
        <ele>2347</ele>
        <time>2012-12-31T20:50:53Z</time>
      </trkpt>
      <trkpt lat="45.89757" lon="6.49782">
        <ele>2352</ele>
        <time>2012-12-31T20:50:57Z</time>
      </trkpt>
      <trkpt lat="45.89755" lon="6.49794">
        <ele>2357</ele>
        <time>2012-12-31T20:51:01Z</time>
      </trkpt>
      <trkpt lat="45.89752" lon="6.49807">
        <ele>2360</ele>
        <time>2012-12-31T20:51:04Z</time>
      </trkpt>
      <trkpt lat="45.89749" lon="6.4982">
        <ele>2363</ele>
        <time>2012-12-31T20:51:06Z</time>
      </trkpt>
      <trkpt lat="45.89746" lon="6.49831">
        <ele>2369.6</ele>
        <time>2012-12-31T20:51:08Z</time>
      </trkpt>
      <trkpt lat="45.89744" lon="6.49844">
        <ele>2376.3</ele>
        <time>2012-12-31T20:51:11Z</time>
      </trkpt>
      <trkpt lat="45.89742" lon="6.49857">
        <ele>2382.9</ele>
        <time>2012-12-31T20:51:14Z</time>
      </trkpt>
      <trkpt lat="45.8974" lon="6.49872">
        <ele>2389.5</ele>
        <time>2012-12-31T20:51:18Z</time>
      </trkpt>
      <trkpt lat="45.89737" lon="6.49885">
        <ele>2393.2</ele>
        <time>2012-12-31T20:51:22Z</time>
      </trkpt>
      <trkpt lat="45.89734" lon="6.49897">
        <ele>2396.8</ele>
        <time>2012-12-31T20:51:26Z</time>
      </trkpt>
      <trkpt lat="45.8973" lon="6.4991">
        <ele>2404</ele>
        <time>2012-12-31T20:51:31Z</time>
      </trkpt>
      <trkpt lat="45.89725" lon="6.49923">
        <ele>2411.2</ele>
        <time>2012-12-31T20:51:36Z</time>
      </trkpt>
      <trkpt lat="45.89722" lon="6.49937">
        <ele>2418.4</ele>
        <time>2012-12-31T20:51:40Z</time>
      </trkpt>
      <trkpt lat="45.89724" lon="6.49953">
        <ele>2425.5</ele>
        <time>2012-12-31T20:51:44Z</time>
      </trkpt>
      <trkpt lat="45.89726" lon="6.49966">
        <ele>2432.7</ele>
        <time>2012-12-31T20:51:48Z</time>
      </trkpt>
      <trkpt lat="45.89727" lon="6.49978">
        <ele>2436.3</ele>
        <time>2012-12-31T20:51:52Z</time>
      </trkpt>
      <trkpt lat="45.89729" lon="6.49993">
        <ele>2444.1</ele>
        <time>2012-12-31T20:51:56Z</time>
      </trkpt>
      <trkpt lat="45.89728" lon="6.50007">
        <ele>2451.9</ele>
        <time>2012-12-31T20:52:00Z</time>
      </trkpt>
      <trkpt lat="45.89724" lon="6.50019">
        <ele>2455.4</ele>
        <time>2012-12-31T20:52:04Z</time>
      </trkpt>
      <trkpt lat="45.8972" lon="6.5003">
        <ele>2458.8</ele>
        <time>2012-12-31T20:52:09Z</time>
      </trkpt>
      <trkpt lat="45.89719" lon="6.50042">
        <ele>2462.3</ele>
        <time>2012-12-31T20:52:13Z</time>
      </trkpt>
      <trkpt lat="45.89719" lon="6.50055">
        <ele>2462.2</ele>
        <time>2012-12-31T20:52:17Z</time>
      </trkpt>
      <trkpt lat="45.89715" lon="6.50067">
        <ele>2462.1</ele>
        <time>2012-12-31T20:52:22Z</time>
      </trkpt>
      <trkpt lat="45.89709" lon="6.50079">
        <ele>2462</ele>
        <time>2012-12-31T20:52:27Z</time>
      </trkpt>
      <trkpt lat="45.89701" lon="6.50083">
        <ele>2464.1</ele>
        <time>2012-12-31T20:52:35Z</time>
      </trkpt>
      <trkpt lat="45.89699" lon="6.50095">
        <ele>2466.2</ele>
        <time>2012-12-31T20:52:45Z</time>
      </trkpt>
      <trkpt lat="45.89698" lon="6.50107">
        <ele>2468.3</ele>
        <time>2012-12-31T20:52:49Z</time>
      </trkpt>
      <trkpt lat="45.89696" lon="6.5012">
        <ele>2466.1</ele>
        <time>2012-12-31T20:52:53Z</time>
      </trkpt>
      <trkpt lat="45.89691" lon="6.50132">
        <ele>2463.9</ele>
        <time>2012-12-31T20:52:57Z</time>
      </trkpt>
      <trkpt lat="45.89686" lon="6.50142">
        <ele>2466.1</ele>
        <time>2012-12-31T20:53:01Z</time>
      </trkpt>
      <trkpt lat="45.89673" lon="6.50162">
        <ele>2468.3</ele>
        <time>2012-12-31T20:53:05Z</time>
      </trkpt>
      <trkpt lat="45.89662" lon="6.50164">
        <ele>2469.8</ele>
        <time>2012-12-31T20:53:08Z</time>
      </trkpt>
      <trkpt lat="45.89652" lon="6.50165">
        <ele>2471.7</ele>
        <time>2012-12-31T20:53:12Z</time>
      </trkpt>
      <trkpt lat="45.89645" lon="6.50173">
        <ele>2474</ele>
        <time>2012-12-31T20:53:16Z</time>
      </trkpt>
      <trkpt lat="45.89636" lon="6.50178">
        <ele>2477</ele>
        <time>2012-12-31T20:53:20Z</time>
      </trkpt>
      <trkpt lat="45.89634" lon="6.50174">
        <ele>2477</ele>
        <time>2012-12-31T20:53:37Z</time>
      </trkpt>
      <trkpt lat="45.8963" lon="6.5017">
        <ele>2470</ele>
        <time>2012-12-31T20:55:53Z</time>
      </trkpt>
      <trkpt lat="45.8963" lon="6.5017">
        <ele>2470</ele>
        <time>2012-12-31T20:55:53Z</time>
      </trkpt>
      <trkpt lat="45.8962" lon="6.50164">
        <ele>2470</ele>
        <time>2012-12-31T20:55:55Z</time>
      </trkpt>
      <trkpt lat="45.89613" lon="6.50166">
        <ele>2470</ele>
        <time>2012-12-31T20:56:09Z</time>
      </trkpt>
      <trkpt lat="45.89614" lon="6.50155">
        <ele>2458.3</ele>
        <time>2012-12-31T20:57:02Z</time>
      </trkpt>
      <trkpt lat="45.89614" lon="6.50155">
        <ele>2457</ele>
        <time>2012-12-31T20:57:02Z</time>
      </trkpt>
      <trkpt lat="45.89609" lon="6.50146">
        <ele>2456</ele>
        <time>2012-12-31T20:57:06Z</time>
      </trkpt>
      <trkpt lat="45.89599" lon="6.50138">
        <ele>2455.2</ele>
        <time>2012-12-31T20:57:09Z</time>
      </trkpt>
      <trkpt lat="45.89592" lon="6.50129">
        <ele>2454.6</ele>
        <time>2012-12-31T20:57:11Z</time>
      </trkpt>
      <trkpt lat="45.89584" lon="6.50116">
        <ele>2454.1</ele>
        <time>2012-12-31T20:57:15Z</time>
      </trkpt>
      <trkpt lat="45.89575" lon="6.50106">
        <ele>2452.8</ele>
        <time>2012-12-31T20:57:17Z</time>
      </trkpt>
      <trkpt lat="45.89569" lon="6.50098">
        <ele>2451.5</ele>
        <time>2012-12-31T20:57:19Z</time>
      </trkpt>
      <trkpt lat="45.89574" lon="6.50088">
        <ele>2448</ele>
        <time>2012-12-31T20:57:21Z</time>
      </trkpt>
      <trkpt lat="45.89567" lon="6.50082">
        <ele>2444.5</ele>
        <time>2012-12-31T20:57:34Z</time>
      </trkpt>
      <trkpt lat="45.89559" lon="6.50075">
        <ele>2444.5</ele>
        <time>2012-12-31T20:57:36Z</time>
      </trkpt>
      <trkpt lat="45.89551" lon="6.50065">
        <ele>2444.5</ele>
        <time>2012-12-31T20:57:39Z</time>
      </trkpt>
      <trkpt lat="45.89551" lon="6.50052">
        <ele>2444.5</ele>
        <time>2012-12-31T20:57:45Z</time>
      </trkpt>
      <trkpt lat="45.89558" lon="6.50046">
        <ele>2444.5</ele>
        <time>2012-12-31T20:57:50Z</time>
      </trkpt>
      <trkpt lat="45.89566" lon="6.50047">
        <ele>2442.2</ele>
        <time>2012-12-31T20:57:53Z</time>
      </trkpt>
      <trkpt lat="45.89574" lon="6.50055">
        <ele>2439.9</ele>
        <time>2012-12-31T20:57:56Z</time>
      </trkpt>
      <trkpt lat="45.89583" lon="6.50059">
        <ele>2437.6</ele>
        <time>2012-12-31T20:58:03Z</time>
      </trkpt>
      <trkpt lat="45.89592" lon="6.50062">
        <ele>2435.4</ele>
        <time>2012-12-31T20:58:11Z</time>
      </trkpt>
      <trkpt lat="45.89601" lon="6.50059">
        <ele>2433.1</ele>
        <time>2012-12-31T20:58:20Z</time>
      </trkpt>
      <trkpt lat="45.89608" lon="6.50048">
        <ele>2430.4</ele>
        <time>2012-12-31T20:58:23Z</time>
      </trkpt>
      <trkpt lat="45.89608" lon="6.5001">
        <ele>2427.6</ele>
        <time>2012-12-31T20:58:25Z</time>
      </trkpt>
      <trkpt lat="45.89609" lon="6.49989">
        <ele>2422.6</ele>
        <time>2012-12-31T20:58:27Z</time>
      </trkpt>
      <trkpt lat="45.89613" lon="6.49974">
        <ele>2417.4</ele>
        <time>2012-12-31T20:58:29Z</time>
      </trkpt>
      <trkpt lat="45.89624" lon="6.49973">
        <ele>2412.1</ele>
        <time>2012-12-31T20:58:29Z</time>
      </trkpt>
      <trkpt lat="45.89624" lon="6.49959">
        <ele>2406.8</ele>
        <time>2012-12-31T20:58:32Z</time>
      </trkpt>
      <trkpt lat="45.89627" lon="6.49947">
        <ele>2401.4</ele>
        <time>2012-12-31T20:58:33Z</time>
      </trkpt>
      <trkpt lat="45.89623" lon="6.49931">
        <ele>2395.9</ele>
        <time>2012-12-31T20:58:35Z</time>
      </trkpt>
      <trkpt lat="45.89637" lon="6.49925">
        <ele>2390.5</ele>
        <time>2012-12-31T20:58:38Z</time>
      </trkpt>
      <trkpt lat="45.8964" lon="6.49907">
        <ele>2387.1</ele>
        <time>2012-12-31T20:58:40Z</time>
      </trkpt>
      <trkpt lat="45.89644" lon="6.49893">
        <ele>2383</ele>
        <time>2012-12-31T20:58:42Z</time>
      </trkpt>
      <trkpt lat="45.89651" lon="6.49881">
        <ele>2381.6</ele>
        <time>2012-12-31T20:58:45Z</time>
      </trkpt>
      <trkpt lat="45.89657" lon="6.49871">
        <ele>2379.9</ele>
        <time>2012-12-31T20:58:48Z</time>
      </trkpt>
      <trkpt lat="45.89655" lon="6.4988">
        <ele>2377.5</ele>
        <time>2012-12-31T20:59:02Z</time>
      </trkpt>
      <trkpt lat="45.89667" lon="6.49861">
        <ele>2364</ele>
        <time>2012-12-31T20:59:44Z</time>
      </trkpt>
      <trkpt lat="45.89667" lon="6.49861">
        <ele>2365.6</ele>
        <time>2012-12-31T20:59:44Z</time>
      </trkpt>
      <trkpt lat="45.89676" lon="6.49853">
        <ele>2366.8</ele>
        <time>2012-12-31T20:59:46Z</time>
      </trkpt>
      <trkpt lat="45.89684" lon="6.49842">
        <ele>2364</ele>
        <time>2012-12-31T20:59:48Z</time>
      </trkpt>
      <trkpt lat="45.89694" lon="6.49834">
        <ele>2361.8</ele>
        <time>2012-12-31T20:59:50Z</time>
      </trkpt>
      <trkpt lat="45.89704" lon="6.49828">
        <ele>2360</ele>
        <time>2012-12-31T20:59:52Z</time>
      </trkpt>
      <trkpt lat="45.89714" lon="6.49822">
        <ele>2358</ele>
        <time>2012-12-31T20:59:54Z</time>
      </trkpt>
      <trkpt lat="45.89724" lon="6.49817">
        <ele>2356</ele>
        <time>2012-12-31T20:59:56Z</time>
      </trkpt>
      <trkpt lat="45.89736" lon="6.49804">
        <ele>2354</ele>
        <time>2012-12-31T21:00:02Z</time>
      </trkpt>
      <trkpt lat="45.89744" lon="6.49797">
        <ele>2352.6</ele>
        <time>2012-12-31T21:00:05Z</time>
      </trkpt>
      <trkpt lat="45.89752" lon="6.49795">
        <ele>2351.3</ele>
        <time>2012-12-31T21:00:07Z</time>
      </trkpt>
      <trkpt lat="45.89762" lon="6.4979">
        <ele>2349.9</ele>
        <time>2012-12-31T21:00:11Z</time>
      </trkpt>
      <trkpt lat="45.89772" lon="6.49783">
        <ele>2347.5</ele>
        <time>2012-12-31T21:00:14Z</time>
      </trkpt>
      <trkpt lat="45.89786" lon="6.4978">
        <ele>2345.2</ele>
        <time>2012-12-31T21:00:16Z</time>
      </trkpt>
      <trkpt lat="45.89796" lon="6.49767">
        <ele>2345.8</ele>
        <time>2012-12-31T21:00:18Z</time>
      </trkpt>
      <trkpt lat="45.89804" lon="6.49759">
        <ele>2344.1</ele>
        <time>2012-12-31T21:00:20Z</time>
      </trkpt>
      <trkpt lat="45.89818" lon="6.49753">
        <ele>2342.4</ele>
        <time>2012-12-31T21:00:22Z</time>
      </trkpt>
      <trkpt lat="45.89829" lon="6.49745">
        <ele>2340.6</ele>
        <time>2012-12-31T21:00:24Z</time>
      </trkpt>
      <trkpt lat="45.89834" lon="6.49736">
        <ele>2337</ele>
        <time>2012-12-31T21:00:25Z</time>
      </trkpt>
      <trkpt lat="45.89846" lon="6.49723">
        <ele>2333.4</ele>
        <time>2012-12-31T21:00:27Z</time>
      </trkpt>
      <trkpt lat="45.89858" lon="6.49717">
        <ele>2331.8</ele>
        <time>2012-12-31T21:00:29Z</time>
      </trkpt>
      <trkpt lat="45.89869" lon="6.49712">
        <ele>2329.9</ele>
        <time>2012-12-31T21:00:31Z</time>
      </trkpt>
      <trkpt lat="45.8988" lon="6.49714">
        <ele>2327.5</ele>
        <time>2012-12-31T21:00:33Z</time>
      </trkpt>
      <trkpt lat="45.89888" lon="6.49713">
        <ele>2324.4</ele>
        <time>2012-12-31T21:00:35Z</time>
      </trkpt>
      <trkpt lat="45.89891" lon="6.49718">
        <ele>2320.3</ele>
        <time>2012-12-31T21:00:47Z</time>
      </trkpt>
      <trkpt lat="45.89894" lon="6.49721">
        <ele>2308.2</ele>
        <time>2012-12-31T21:00:55Z</time>
      </trkpt>
      <trkpt lat="45.89894" lon="6.49721">
        <ele>2307.3</ele>
        <time>2012-12-31T21:00:55Z</time>
      </trkpt>
      <trkpt lat="45.89906" lon="6.49722">
        <ele>2305.5</ele>
        <time>2012-12-31T21:00:59Z</time>
      </trkpt>
      <trkpt lat="45.89917" lon="6.49722">
        <ele>2304.1</ele>
        <time>2012-12-31T21:01:01Z</time>
      </trkpt>
      <trkpt lat="45.89932" lon="6.49719">
        <ele>2303</ele>
        <time>2012-12-31T21:01:03Z</time>
      </trkpt>
      <trkpt lat="45.89947" lon="6.49719">
        <ele>2305</ele>
        <time>2012-12-31T21:01:05Z</time>
      </trkpt>
      <trkpt lat="45.89955" lon="6.49718">
        <ele>2307.1</ele>
        <time>2012-12-31T21:01:06Z</time>
      </trkpt>
      <trkpt lat="45.8997" lon="6.4971">
        <ele>2309.2</ele>
        <time>2012-12-31T21:01:08Z</time>
      </trkpt>
      <trkpt lat="45.89978" lon="6.49717">
        <ele>2309.9</ele>
        <time>2012-12-31T21:01:09Z</time>
      </trkpt>
      <trkpt lat="45.89992" lon="6.49721">
        <ele>2306.7</ele>
        <time>2012-12-31T21:01:11Z</time>
      </trkpt>
      <trkpt lat="45.90002" lon="6.49724">
        <ele>2307.2</ele>
        <time>2012-12-31T21:01:13Z</time>
      </trkpt>
      <trkpt lat="45.90015" lon="6.49727">
        <ele>2308</ele>
        <time>2012-12-31T21:01:15Z</time>
      </trkpt>
      <trkpt lat="45.90012" lon="6.49723">
        <ele>2309</ele>
        <time>2012-12-31T21:01:27Z</time>
      </trkpt>
      <trkpt lat="45.90024" lon="6.49735">
        <ele>2323.3</ele>
        <time>2012-12-31T21:01:45Z</time>
      </trkpt>
      <trkpt lat="45.90024" lon="6.49735">
        <ele>2322.9</ele>
        <time>2012-12-31T21:01:45Z</time>
      </trkpt>
      <trkpt lat="45.90034" lon="6.49736">
        <ele>2322.5</ele>
        <time>2012-12-31T21:01:51Z</time>
      </trkpt>
      <trkpt lat="45.90043" lon="6.49736">
        <ele>2322.2</ele>
        <time>2012-12-31T21:01:55Z</time>
      </trkpt>
      <trkpt lat="45.90052" lon="6.49732">
        <ele>2322</ele>
        <time>2012-12-31T21:01:59Z</time>
      </trkpt>
      <trkpt lat="45.90062" lon="6.4973">
        <ele>2321.8</ele>
        <time>2012-12-31T21:02:04Z</time>
      </trkpt>
      <trkpt lat="45.90071" lon="6.49731">
        <ele>2321.4</ele>
        <time>2012-12-31T21:02:08Z</time>
      </trkpt>
      <trkpt lat="45.9008" lon="6.49732">
        <ele>2318.1</ele>
        <time>2012-12-31T21:02:11Z</time>
      </trkpt>
      <trkpt lat="45.90089" lon="6.49732">
        <ele>2315.6</ele>
        <time>2012-12-31T21:02:15Z</time>
      </trkpt>
      <trkpt lat="45.90097" lon="6.4973">
        <ele>2313.2</ele>
        <time>2012-12-31T21:02:19Z</time>
      </trkpt>
      <trkpt lat="45.90108" lon="6.49729">
        <ele>2311.2</ele>
        <time>2012-12-31T21:02:23Z</time>
      </trkpt>
      <trkpt lat="45.90116" lon="6.49726">
        <ele>2309.2</ele>
        <time>2012-12-31T21:02:26Z</time>
      </trkpt>
      <trkpt lat="45.90124" lon="6.49718">
        <ele>2307.2</ele>
        <time>2012-12-31T21:02:29Z</time>
      </trkpt>
      <trkpt lat="45.90133" lon="6.49717">
        <ele>2305.2</ele>
        <time>2012-12-31T21:02:30Z</time>
      </trkpt>
      <trkpt lat="45.90141" lon="6.49713">
        <ele>2303.2</ele>
        <time>2012-12-31T21:02:32Z</time>
      </trkpt>
      <trkpt lat="45.90151" lon="6.49709">
        <ele>2301.2</ele>
        <time>2012-12-31T21:02:34Z</time>
      </trkpt>
      <trkpt lat="45.90159" lon="6.49704">
        <ele>2299.2</ele>
        <time>2012-12-31T21:02:36Z</time>
      </trkpt>
      <trkpt lat="45.90165" lon="6.49696">
        <ele>2297.2</ele>
        <time>2012-12-31T21:02:40Z</time>
      </trkpt>
      <trkpt lat="45.90174" lon="6.49691">
        <ele>2298</ele>
        <time>2012-12-31T21:02:45Z</time>
      </trkpt>
      <trkpt lat="45.90183" lon="6.4969">
        <ele>2302.9</ele>
        <time>2012-12-31T21:02:52Z</time>
      </trkpt>
      <trkpt lat="45.90189" lon="6.49681">
        <ele>2302.4</ele>
        <time>2012-12-31T21:02:58Z</time>
      </trkpt>
      <trkpt lat="45.90196" lon="6.49673">
        <ele>2301.8</ele>
        <time>2012-12-31T21:03:01Z</time>
      </trkpt>
      <trkpt lat="45.90202" lon="6.49665">
        <ele>2301.3</ele>
        <time>2012-12-31T21:03:04Z</time>
      </trkpt>
      <trkpt lat="45.90208" lon="6.49653">
        <ele>2300.7</ele>
        <time>2012-12-31T21:03:07Z</time>
      </trkpt>
      <trkpt lat="45.9022" lon="6.49634">
        <ele>2300.2</ele>
        <time>2012-12-31T21:03:09Z</time>
      </trkpt>
      <trkpt lat="45.90225" lon="6.49616">
        <ele>2299.6</ele>
        <time>2012-12-31T21:03:11Z</time>
      </trkpt>
      <trkpt lat="45.90231" lon="6.49606">
        <ele>2299.1</ele>
        <time>2012-12-31T21:03:14Z</time>
      </trkpt>
      <trkpt lat="45.90241" lon="6.49599">
        <ele>2299.2</ele>
        <time>2012-12-31T21:03:17Z</time>
      </trkpt>
      <trkpt lat="45.90248" lon="6.49592">
        <ele>2299.3</ele>
        <time>2012-12-31T21:03:19Z</time>
      </trkpt>
      <trkpt lat="45.90255" lon="6.49581">
        <ele>2299.5</ele>
        <time>2012-12-31T21:03:22Z</time>
      </trkpt>
      <trkpt lat="45.90262" lon="6.49573">
        <ele>2292</ele>
        <time>2012-12-31T21:03:27Z</time>
      </trkpt>
      <trkpt lat="45.90261" lon="6.49571">
        <ele>2292</ele>
        <time>2012-12-31T21:03:35Z</time>
      </trkpt>
      <trkpt lat="45.90264" lon="6.4956">
        <ele>2274.5</ele>
        <time>2012-12-31T21:03:49Z</time>
      </trkpt>
      <trkpt lat="45.90264" lon="6.4956">
        <ele>2272</ele>
        <time>2012-12-31T21:03:49Z</time>
      </trkpt>
      <trkpt lat="45.9027" lon="6.49547">
        <ele>2270.1</ele>
        <time>2012-12-31T21:03:53Z</time>
      </trkpt>
      <trkpt lat="45.90275" lon="6.49535">
        <ele>2268.7</ele>
        <time>2012-12-31T21:03:56Z</time>
      </trkpt>
      <trkpt lat="45.90276" lon="6.49522">
        <ele>2267.5</ele>
        <time>2012-12-31T21:03:59Z</time>
      </trkpt>
      <trkpt lat="45.90267" lon="6.4951">
        <ele>2266.5</ele>
        <time>2012-12-31T21:04:02Z</time>
      </trkpt>
      <trkpt lat="45.90262" lon="6.495">
        <ele>2263.4</ele>
        <time>2012-12-31T21:04:04Z</time>
      </trkpt>
      <trkpt lat="45.90256" lon="6.49491">
        <ele>2258.5</ele>
        <time>2012-12-31T21:04:06Z</time>
      </trkpt>
      <trkpt lat="45.90248" lon="6.49486">
        <ele>2253.5</ele>
        <time>2012-12-31T21:04:08Z</time>
      </trkpt>
      <trkpt lat="45.90239" lon="6.49479">
        <ele>2251.8</ele>
        <time>2012-12-31T21:04:10Z</time>
      </trkpt>
      <trkpt lat="45.90231" lon="6.49475">
        <ele>2250.1</ele>
        <time>2012-12-31T21:04:12Z</time>
      </trkpt>
      <trkpt lat="45.90221" lon="6.49467">
        <ele>2248.4</ele>
        <time>2012-12-31T21:04:16Z</time>
      </trkpt>
      <trkpt lat="45.90216" lon="6.49457">
        <ele>2246.6</ele>
        <time>2012-12-31T21:04:20Z</time>
      </trkpt>
      <trkpt lat="45.90223" lon="6.49449">
        <ele>2244.9</ele>
        <time>2012-12-31T21:04:29Z</time>
      </trkpt>
      <trkpt lat="45.90231" lon="6.49441">
        <ele>2243.7</ele>
        <time>2012-12-31T21:04:32Z</time>
      </trkpt>
      <trkpt lat="45.90238" lon="6.49429">
        <ele>2242.2</ele>
        <time>2012-12-31T21:04:35Z</time>
      </trkpt>
      <trkpt lat="45.90242" lon="6.49419">
        <ele>2240.4</ele>
        <time>2012-12-31T21:04:38Z</time>
      </trkpt>
      <trkpt lat="45.90245" lon="6.49408">
        <ele>2238</ele>
        <time>2012-12-31T21:04:42Z</time>
      </trkpt>
      <trkpt lat="45.9025" lon="6.49401">
        <ele>2238</ele>
        <time>2012-12-31T21:04:59Z</time>
      </trkpt>
      <trkpt lat="45.90247" lon="6.49396">
        <ele>2213</ele>
        <time>2012-12-31T21:05:49Z</time>
      </trkpt>
      <trkpt lat="45.90247" lon="6.49396">
        <ele>2209.4</ele>
        <time>2012-12-31T21:05:49Z</time>
      </trkpt>
      <trkpt lat="45.90243" lon="6.49385">
        <ele>2206.8</ele>
        <time>2012-12-31T21:05:54Z</time>
      </trkpt>
      <trkpt lat="45.90249" lon="6.49373">
        <ele>2204.7</ele>
        <time>2012-12-31T21:05:57Z</time>
      </trkpt>
      <trkpt lat="45.90256" lon="6.49358">
        <ele>2198.7</ele>
        <time>2012-12-31T21:06:00Z</time>
      </trkpt>
      <trkpt lat="45.90259" lon="6.49341">
        <ele>2193.8</ele>
        <time>2012-12-31T21:06:03Z</time>
      </trkpt>
      <trkpt lat="45.90253" lon="6.49322">
        <ele>2185.4</ele>
        <time>2012-12-31T21:06:04Z</time>
      </trkpt>
      <trkpt lat="45.90242" lon="6.49315">
        <ele>2176.9</ele>
        <time>2012-12-31T21:06:07Z</time>
      </trkpt>
      <trkpt lat="45.90241" lon="6.49299">
        <ele>2170.8</ele>
        <time>2012-12-31T21:06:11Z</time>
      </trkpt>
      <trkpt lat="45.90249" lon="6.49284">
        <ele>2168.9</ele>
        <time>2012-12-31T21:06:13Z</time>
      </trkpt>
      <trkpt lat="45.90256" lon="6.49278">
        <ele>2166.5</ele>
        <time>2012-12-31T21:06:16Z</time>
      </trkpt>
      <trkpt lat="45.90265" lon="6.49278">
        <ele>2163.4</ele>
        <time>2012-12-31T21:06:22Z</time>
      </trkpt>
      <trkpt lat="45.90265" lon="6.49277">
        <ele>2159.3</ele>
        <time>2012-12-31T21:06:30Z</time>
      </trkpt>
      <trkpt lat="45.90272" lon="6.49267">
        <ele>2145</ele>
        <time>2012-12-31T21:07:06Z</time>
      </trkpt>
      <trkpt lat="45.90272" lon="6.49267">
        <ele>2139.3</ele>
        <time>2012-12-31T21:07:06Z</time>
      </trkpt>
      <trkpt lat="45.90277" lon="6.49254">
        <ele>2135</ele>
        <time>2012-12-31T21:07:09Z</time>
      </trkpt>
      <trkpt lat="45.90281" lon="6.49239">
        <ele>2131.7</ele>
        <time>2012-12-31T21:07:12Z</time>
      </trkpt>
      <trkpt lat="45.90289" lon="6.49228">
        <ele>2129</ele>
        <time>2012-12-31T21:07:13Z</time>
      </trkpt>
      <trkpt lat="45.90282" lon="6.49216">
        <ele>2126.8</ele>
        <time>2012-12-31T21:07:15Z</time>
      </trkpt>
      <trkpt lat="45.90289" lon="6.49203">
        <ele>2123.2</ele>
        <time>2012-12-31T21:07:17Z</time>
      </trkpt>
      <trkpt lat="45.90279" lon="6.4919">
        <ele>2117.8</ele>
        <time>2012-12-31T21:07:19Z</time>
      </trkpt>
      <trkpt lat="45.90273" lon="6.49178">
        <ele>2112.5</ele>
        <time>2012-12-31T21:07:22Z</time>
      </trkpt>
      <trkpt lat="45.90266" lon="6.49163">
        <ele>2107.1</ele>
        <time>2012-12-31T21:07:25Z</time>
      </trkpt>
      <trkpt lat="45.90276" lon="6.49156">
        <ele>2101.7</ele>
        <time>2012-12-31T21:07:26Z</time>
      </trkpt>
      <trkpt lat="45.90272" lon="6.49137">
        <ele>2096.4</ele>
        <time>2012-12-31T21:07:28Z</time>
      </trkpt>
      <trkpt lat="45.90267" lon="6.4912">
        <ele>2093.2</ele>
        <time>2012-12-31T21:07:30Z</time>
      </trkpt>
      <trkpt lat="45.90264" lon="6.49105">
        <ele>2090</ele>
        <time>2012-12-31T21:07:32Z</time>
      </trkpt>
      <trkpt lat="45.9027" lon="6.49094">
        <ele>2086.8</ele>
        <time>2012-12-31T21:07:34Z</time>
      </trkpt>
      <trkpt lat="45.90282" lon="6.49082">
        <ele>2085</ele>
        <time>2012-12-31T21:07:36Z</time>
      </trkpt>
      <trkpt lat="45.90291" lon="6.49073">
        <ele>2082.8</ele>
        <time>2012-12-31T21:07:38Z</time>
      </trkpt>
      <trkpt lat="45.903" lon="6.49074">
        <ele>2080</ele>
        <time>2012-12-31T21:07:40Z</time>
      </trkpt>
      <trkpt lat="45.9031" lon="6.49075">
        <ele>2079.1</ele>
        <time>2012-12-31T21:07:43Z</time>
      </trkpt>
      <trkpt lat="45.90312" lon="6.49079">
        <ele>2078</ele>
        <time>2012-12-31T21:08:04Z</time>
      </trkpt>
      <trkpt lat="45.90321" lon="6.49058">
        <ele>2054.7</ele>
        <time>2012-12-31T21:08:29Z</time>
      </trkpt>
      <trkpt lat="45.90321" lon="6.49058">
        <ele>2053.6</ele>
        <time>2012-12-31T21:08:29Z</time>
      </trkpt>
      <trkpt lat="45.90327" lon="6.49047">
        <ele>2052.8</ele>
        <time>2012-12-31T21:08:31Z</time>
      </trkpt>
      <trkpt lat="45.90327" lon="6.49034">
        <ele>2048.4</ele>
        <time>2012-12-31T21:08:33Z</time>
      </trkpt>
      <trkpt lat="45.90325" lon="6.49023">
        <ele>2045</ele>
        <time>2012-12-31T21:08:35Z</time>
      </trkpt>
      <trkpt lat="45.90326" lon="6.49008">
        <ele>2042.2</ele>
        <time>2012-12-31T21:08:37Z</time>
      </trkpt>
      <trkpt lat="45.90325" lon="6.48994">
        <ele>2037.1</ele>
        <time>2012-12-31T21:08:39Z</time>
      </trkpt>
      <trkpt lat="45.90331" lon="6.48981">
        <ele>2032</ele>
        <time>2012-12-31T21:08:45Z</time>
      </trkpt>
      <trkpt lat="45.90336" lon="6.48967">
        <ele>2026.8</ele>
        <time>2012-12-31T21:08:47Z</time>
      </trkpt>
      <trkpt lat="45.9034" lon="6.48949">
        <ele>2021.6</ele>
        <time>2012-12-31T21:08:49Z</time>
      </trkpt>
      <trkpt lat="45.9035" lon="6.48938">
        <ele>2016.5</ele>
        <time>2012-12-31T21:08:51Z</time>
      </trkpt>
      <trkpt lat="45.9035" lon="6.48925">
        <ele>2010.8</ele>
        <time>2012-12-31T21:08:52Z</time>
      </trkpt>
      <trkpt lat="45.90358" lon="6.48901">
        <ele>2005.6</ele>
        <time>2012-12-31T21:08:54Z</time>
      </trkpt>
      <trkpt lat="45.90357" lon="6.48885">
        <ele>2000.5</ele>
        <time>2012-12-31T21:08:55Z</time>
      </trkpt>
      <trkpt lat="45.9037" lon="6.48867">
        <ele>1999.1</ele>
        <time>2012-12-31T21:08:57Z</time>
      </trkpt>
      <trkpt lat="45.90372" lon="6.48854">
        <ele>1997.4</ele>
        <time>2012-12-31T21:08:58Z</time>
      </trkpt>
      <trkpt lat="45.90382" lon="6.48842">
        <ele>1995.4</ele>
        <time>2012-12-31T21:09:00Z</time>
      </trkpt>
      <trkpt lat="45.90375" lon="6.48828">
        <ele>1992.7</ele>
        <time>2012-12-31T21:09:02Z</time>
      </trkpt>
      <trkpt lat="45.90379" lon="6.48828">
        <ele>1989.2</ele>
        <time>2012-12-31T21:09:20Z</time>
      </trkpt>
      <trkpt lat="45.90364" lon="6.4882">
        <ele>1975.5</ele>
        <time>2012-12-31T21:11:09Z</time>
      </trkpt>
      <trkpt lat="45.90364" lon="6.4882">
        <ele>1973.4</ele>
        <time>2012-12-31T21:11:09Z</time>
      </trkpt>
      <trkpt lat="45.90354" lon="6.48809">
        <ele>1971.9</ele>
        <time>2012-12-31T21:11:11Z</time>
      </trkpt>
      <trkpt lat="45.90344" lon="6.48796">
        <ele>1972.8</ele>
        <time>2012-12-31T21:11:13Z</time>
      </trkpt>
      <trkpt lat="45.90336" lon="6.48796">
        <ele>1973.5</ele>
        <time>2012-12-31T21:11:14Z</time>
      </trkpt>
      <trkpt lat="45.90324" lon="6.48786">
        <ele>1974.1</ele>
        <time>2012-12-31T21:11:16Z</time>
      </trkpt>
      <trkpt lat="45.90314" lon="6.48779">
        <ele>1970.6</ele>
        <time>2012-12-31T21:11:18Z</time>
      </trkpt>
      <trkpt lat="45.90303" lon="6.48771">
        <ele>1967.2</ele>
        <time>2012-12-31T21:11:20Z</time>
      </trkpt>
      <trkpt lat="45.9029" lon="6.48763">
        <ele>1963.7</ele>
        <time>2012-12-31T21:11:22Z</time>
      </trkpt>
      <trkpt lat="45.90283" lon="6.48747">
        <ele>1962.9</ele>
        <time>2012-12-31T21:11:24Z</time>
      </trkpt>
      <trkpt lat="45.90279" lon="6.48736">
        <ele>1962.1</ele>
        <time>2012-12-31T21:11:25Z</time>
      </trkpt>
      <trkpt lat="45.90278" lon="6.48716">
        <ele>1961.3</ele>
        <time>2012-12-31T21:11:27Z</time>
      </trkpt>
      <trkpt lat="45.90271" lon="6.48697">
        <ele>1960.5</ele>
        <time>2012-12-31T21:11:29Z</time>
      </trkpt>
      <trkpt lat="45.90262" lon="6.48678">
        <ele>1959.6</ele>
        <time>2012-12-31T21:11:31Z</time>
      </trkpt>
      <trkpt lat="45.90257" lon="6.48669">
        <ele>1954.8</ele>
        <time>2012-12-31T21:11:32Z</time>
      </trkpt>
      <trkpt lat="45.9025" lon="6.48661">
        <ele>1950</ele>
        <time>2012-12-31T21:11:33Z</time>
      </trkpt>
      <trkpt lat="45.90245" lon="6.48649">
        <ele>1945.2</ele>
        <time>2012-12-31T21:11:34Z</time>
      </trkpt>
      <trkpt lat="45.90239" lon="6.48641">
        <ele>1945</ele>
        <time>2012-12-31T21:11:35Z</time>
      </trkpt>
      <trkpt lat="45.90233" lon="6.48629">
        <ele>1944.8</ele>
        <time>2012-12-31T21:11:36Z</time>
      </trkpt>
      <trkpt lat="45.90225" lon="6.48624">
        <ele>1944.6</ele>
        <time>2012-12-31T21:11:37Z</time>
      </trkpt>
      <trkpt lat="45.90218" lon="6.48613">
        <ele>1944.5</ele>
        <time>2012-12-31T21:11:38Z</time>
      </trkpt>
      <trkpt lat="45.90211" lon="6.48606">
        <ele>1944.3</ele>
        <time>2012-12-31T21:11:39Z</time>
      </trkpt>
      <trkpt lat="45.90204" lon="6.48599">
        <ele>1941.9</ele>
        <time>2012-12-31T21:11:40Z</time>
      </trkpt>
      <trkpt lat="45.90193" lon="6.4859">
        <ele>1939.5</ele>
        <time>2012-12-31T21:11:42Z</time>
      </trkpt>
      <trkpt lat="45.90181" lon="6.48579">
        <ele>1937.2</ele>
        <time>2012-12-31T21:11:44Z</time>
      </trkpt>
      <trkpt lat="45.90172" lon="6.4856">
        <ele>1937.1</ele>
        <time>2012-12-31T21:11:46Z</time>
      </trkpt>
      <trkpt lat="45.9017" lon="6.48545">
        <ele>1937</ele>
        <time>2012-12-31T21:11:47Z</time>
      </trkpt>
      <trkpt lat="45.90168" lon="6.48532">
        <ele>1936.9</ele>
        <time>2012-12-31T21:11:48Z</time>
      </trkpt>
      <trkpt lat="45.90161" lon="6.4852">
        <ele>1933.1</ele>
        <time>2012-12-31T21:11:49Z</time>
      </trkpt>
      <trkpt lat="45.90156" lon="6.48508">
        <ele>1929.3</ele>
        <time>2012-12-31T21:11:50Z</time>
      </trkpt>
      <trkpt lat="45.90146" lon="6.48501">
        <ele>1925.5</ele>
        <time>2012-12-31T21:11:51Z</time>
      </trkpt>
      <trkpt lat="45.9015" lon="6.4849">
        <ele>1922.8</ele>
        <time>2012-12-31T21:11:52Z</time>
      </trkpt>
      <trkpt lat="45.90148" lon="6.48472">
        <ele>1920.2</ele>
        <time>2012-12-31T21:11:53Z</time>
      </trkpt>
      <trkpt lat="45.90149" lon="6.4846">
        <ele>1919.7</ele>
        <time>2012-12-31T21:11:54Z</time>
      </trkpt>
      <trkpt lat="45.90137" lon="6.48447">
        <ele>1917.3</ele>
        <time>2012-12-31T21:11:56Z</time>
      </trkpt>
      <trkpt lat="45.90128" lon="6.48427">
        <ele>1914.8</ele>
        <time>2012-12-31T21:11:58Z</time>
      </trkpt>
      <trkpt lat="45.90125" lon="6.48414">
        <ele>1912.4</ele>
        <time>2012-12-31T21:11:59Z</time>
      </trkpt>
      <trkpt lat="45.90122" lon="6.48402">
        <ele>1909.9</ele>
        <time>2012-12-31T21:12:00Z</time>
      </trkpt>
      <trkpt lat="45.90116" lon="6.48394">
        <ele>1907.5</ele>
        <time>2012-12-31T21:12:01Z</time>
      </trkpt>
      <trkpt lat="45.90115" lon="6.48369">
        <ele>1906.6</ele>
        <time>2012-12-31T21:12:03Z</time>
      </trkpt>
      <trkpt lat="45.90112" lon="6.48358">
        <ele>1905.8</ele>
        <time>2012-12-31T21:12:04Z</time>
      </trkpt>
      <trkpt lat="45.90109" lon="6.48347">
        <ele>1902.9</ele>
        <time>2012-12-31T21:12:05Z</time>
      </trkpt>
      <trkpt lat="45.90107" lon="6.48332">
        <ele>1898.8</ele>
        <time>2012-12-31T21:12:06Z</time>
      </trkpt>
      <trkpt lat="45.90101" lon="6.48322">
        <ele>1894.7</ele>
        <time>2012-12-31T21:12:07Z</time>
      </trkpt>
      <trkpt lat="45.90097" lon="6.4831">
        <ele>1890.6</ele>
        <time>2012-12-31T21:12:08Z</time>
      </trkpt>
      <trkpt lat="45.90096" lon="6.48298">
        <ele>1888.5</ele>
        <time>2012-12-31T21:12:09Z</time>
      </trkpt>
      <trkpt lat="45.90094" lon="6.48287">
        <ele>1886.5</ele>
        <time>2012-12-31T21:12:10Z</time>
      </trkpt>
      <trkpt lat="45.9009" lon="6.48276">
        <ele>1882.8</ele>
        <time>2012-12-31T21:12:11Z</time>
      </trkpt>
      <trkpt lat="45.90086" lon="6.48265">
        <ele>1879.2</ele>
        <time>2012-12-31T21:12:12Z</time>
      </trkpt>
      <trkpt lat="45.90078" lon="6.48253">
        <ele>1875.5</ele>
        <time>2012-12-31T21:12:14Z</time>
      </trkpt>
      <trkpt lat="45.90074" lon="6.48235">
        <ele>1871.9</ele>
        <time>2012-12-31T21:12:16Z</time>
      </trkpt>
      <trkpt lat="45.9007" lon="6.48216">
        <ele>1868.3</ele>
        <time>2012-12-31T21:12:18Z</time>
      </trkpt>
      <trkpt lat="45.9007" lon="6.48203">
        <ele>1866.7</ele>
        <time>2012-12-31T21:12:19Z</time>
      </trkpt>
      <trkpt lat="45.90067" lon="6.48189">
        <ele>1865.2</ele>
        <time>2012-12-31T21:12:20Z</time>
      </trkpt>
      <trkpt lat="45.90065" lon="6.48177">
        <ele>1863.6</ele>
        <time>2012-12-31T21:12:21Z</time>
      </trkpt>
      <trkpt lat="45.90077" lon="6.48171">
        <ele>1862.1</ele>
        <time>2012-12-31T21:12:22Z</time>
      </trkpt>
      <trkpt lat="45.90071" lon="6.48158">
        <ele>1860.7</ele>
        <time>2012-12-31T21:12:23Z</time>
      </trkpt>
      <trkpt lat="45.9007" lon="6.48138">
        <ele>1859</ele>
        <time>2012-12-31T21:12:25Z</time>
      </trkpt>
      <trkpt lat="45.90077" lon="6.48149">
        <ele>1859</ele>
        <time>2012-12-31T21:12:26Z</time>
      </trkpt>
      <trkpt lat="45.90087" lon="6.48144">
        <ele>1859</ele>
        <time>2012-12-31T21:12:28Z</time>
      </trkpt>
      <trkpt lat="45.90091" lon="6.48142">
        <ele>1859</ele>
        <time>2012-12-31T21:12:40Z</time>
      </trkpt>
      <trkpt lat="45.90093" lon="6.48135">
        <ele>1855</ele>
        <time>2012-12-31T21:12:49Z</time>
      </trkpt>
      <trkpt lat="45.90093" lon="6.48135">
        <ele>1855</ele>
        <time>2012-12-31T21:12:49Z</time>
      </trkpt>
      <trkpt lat="45.90098" lon="6.48125">
        <ele>1855</ele>
        <time>2012-12-31T21:13:07Z</time>
      </trkpt>
      <trkpt lat="45.90099" lon="6.48125">
        <ele>1855</ele>
        <time>2012-12-31T21:13:19Z</time>
      </trkpt>
      <trkpt lat="45.90097" lon="6.48141">
        <ele>1859</ele>
        <time>2012-12-31T21:16:20Z</time>
      </trkpt>
      <trkpt lat="45.90097" lon="6.48141">
        <ele>1859</ele>
        <time>2012-12-31T21:16:20Z</time>
      </trkpt>
      <trkpt lat="45.90092" lon="6.48153">
        <ele>1861.1</ele>
        <time>2012-12-31T21:16:24Z</time>
      </trkpt>
      <trkpt lat="45.9009" lon="6.48166">
        <ele>1862.8</ele>
        <time>2012-12-31T21:16:30Z</time>
      </trkpt>
      <trkpt lat="45.90086" lon="6.48176">
        <ele>1864.1</ele>
        <time>2012-12-31T21:16:34Z</time>
      </trkpt>
      <trkpt lat="45.90082" lon="6.4819">
        <ele>1865.2</ele>
        <time>2012-12-31T21:16:38Z</time>
      </trkpt>
      <trkpt lat="45.90076" lon="6.48203">
        <ele>1866.7</ele>
        <time>2012-12-31T21:16:42Z</time>
      </trkpt>
      <trkpt lat="45.90073" lon="6.48217">
        <ele>1868.3</ele>
        <time>2012-12-31T21:16:46Z</time>
      </trkpt>
      <trkpt lat="45.9007" lon="6.48228">
        <ele>1869.8</ele>
        <time>2012-12-31T21:16:49Z</time>
      </trkpt>
      <trkpt lat="45.90066" lon="6.4824">
        <ele>1873.5</ele>
        <time>2012-12-31T21:16:53Z</time>
      </trkpt>
      <trkpt lat="45.9006" lon="6.48252">
        <ele>1877.1</ele>
        <time>2012-12-31T21:16:57Z</time>
      </trkpt>
      <trkpt lat="45.90058" lon="6.48264">
        <ele>1880.7</ele>
        <time>2012-12-31T21:17:01Z</time>
      </trkpt>
      <trkpt lat="45.90057" lon="6.48277">
        <ele>1884.4</ele>
        <time>2012-12-31T21:17:06Z</time>
      </trkpt>
      <trkpt lat="45.90055" lon="6.4829">
        <ele>1886.5</ele>
        <time>2012-12-31T21:17:10Z</time>
      </trkpt>
      <trkpt lat="45.90052" lon="6.48302">
        <ele>1890.4</ele>
        <time>2012-12-31T21:17:14Z</time>
      </trkpt>
      <trkpt lat="45.9005" lon="6.48316">
        <ele>1894.3</ele>
        <time>2012-12-31T21:17:18Z</time>
      </trkpt>
      <trkpt lat="45.90048" lon="6.48329">
        <ele>1900.3</ele>
        <time>2012-12-31T21:17:22Z</time>
      </trkpt>
      <trkpt lat="45.90047" lon="6.48341">
        <ele>1906.3</ele>
        <time>2012-12-31T21:17:26Z</time>
      </trkpt>
      <trkpt lat="45.90046" lon="6.48354">
        <ele>1912.3</ele>
        <time>2012-12-31T21:17:30Z</time>
      </trkpt>
      <trkpt lat="45.90043" lon="6.48365">
        <ele>1918.3</ele>
        <time>2012-12-31T21:17:34Z</time>
      </trkpt>
      <trkpt lat="45.90042" lon="6.48377">
        <ele>1922.2</ele>
        <time>2012-12-31T21:17:38Z</time>
      </trkpt>
      <trkpt lat="45.9004" lon="6.4839">
        <ele>1926.1</ele>
        <time>2012-12-31T21:17:42Z</time>
      </trkpt>
      <trkpt lat="45.90037" lon="6.48402">
        <ele>1932.8</ele>
        <time>2012-12-31T21:17:46Z</time>
      </trkpt>
      <trkpt lat="45.90034" lon="6.48413">
        <ele>1939.5</ele>
        <time>2012-12-31T21:17:50Z</time>
      </trkpt>
      <trkpt lat="45.90032" lon="6.48425">
        <ele>1946.3</ele>
        <time>2012-12-31T21:17:54Z</time>
      </trkpt>
      <trkpt lat="45.90028" lon="6.48437">
        <ele>1951.2</ele>
        <time>2012-12-31T21:17:58Z</time>
      </trkpt>
      <trkpt lat="45.90025" lon="6.4845">
        <ele>1956.1</ele>
        <time>2012-12-31T21:18:03Z</time>
      </trkpt>
      <trkpt lat="45.90023" lon="6.48462">
        <ele>1958.9</ele>
        <time>2012-12-31T21:18:07Z</time>
      </trkpt>
      <trkpt lat="45.90019" lon="6.48475">
        <ele>1961.7</ele>
        <time>2012-12-31T21:18:12Z</time>
      </trkpt>
      <trkpt lat="45.90017" lon="6.48486">
        <ele>1967.2</ele>
        <time>2012-12-31T21:18:16Z</time>
      </trkpt>
      <trkpt lat="45.90014" lon="6.485">
        <ele>1972.6</ele>
        <time>2012-12-31T21:18:21Z</time>
      </trkpt>
      <trkpt lat="45.90013" lon="6.48514">
        <ele>1978.1</ele>
        <time>2012-12-31T21:18:26Z</time>
      </trkpt>
      <trkpt lat="45.90012" lon="6.48526">
        <ele>1983.5</ele>
        <time>2012-12-31T21:18:30Z</time>
      </trkpt>
      <trkpt lat="45.9001" lon="6.48539">
        <ele>1986.2</ele>
        <time>2012-12-31T21:18:35Z</time>
      </trkpt>
      <trkpt lat="45.90007" lon="6.48552">
        <ele>1988.8</ele>
        <time>2012-12-31T21:18:40Z</time>
      </trkpt>
      <trkpt lat="45.90005" lon="6.48565">
        <ele>1991.5</ele>
        <time>2012-12-31T21:18:45Z</time>
      </trkpt>
      <trkpt lat="45.90002" lon="6.48577">
        <ele>1996.7</ele>
        <time>2012-12-31T21:18:50Z</time>
      </trkpt>
      <trkpt lat="45.89999" lon="6.48588">
        <ele>2002</ele>
        <time>2012-12-31T21:18:54Z</time>
      </trkpt>
      <trkpt lat="45.89997" lon="6.48601">
        <ele>2007.3</ele>
        <time>2012-12-31T21:18:58Z</time>
      </trkpt>
      <trkpt lat="45.89995" lon="6.48613">
        <ele>2012.5</ele>
        <time>2012-12-31T21:19:02Z</time>
      </trkpt>
      <trkpt lat="45.89992" lon="6.48625">
        <ele>2015.2</ele>
        <time>2012-12-31T21:19:06Z</time>
      </trkpt>
      <trkpt lat="45.8999" lon="6.48637">
        <ele>2017.8</ele>
        <time>2012-12-31T21:19:10Z</time>
      </trkpt>
      <trkpt lat="45.89988" lon="6.48649">
        <ele>2020.5</ele>
        <time>2012-12-31T21:19:14Z</time>
      </trkpt>
      <trkpt lat="45.89986" lon="6.48662">
        <ele>2023.1</ele>
        <time>2012-12-31T21:19:18Z</time>
      </trkpt>
      <trkpt lat="45.89984" lon="6.48675">
        <ele>2027.3</ele>
        <time>2012-12-31T21:19:22Z</time>
      </trkpt>
      <trkpt lat="45.89981" lon="6.48687">
        <ele>2031.5</ele>
        <time>2012-12-31T21:19:26Z</time>
      </trkpt>
      <trkpt lat="45.89978" lon="6.48698">
        <ele>2035.6</ele>
        <time>2012-12-31T21:19:30Z</time>
      </trkpt>
      <trkpt lat="45.89975" lon="6.4871">
        <ele>2039.1</ele>
        <time>2012-12-31T21:19:34Z</time>
      </trkpt>
      <trkpt lat="45.89973" lon="6.48722">
        <ele>2042.5</ele>
        <time>2012-12-31T21:19:38Z</time>
      </trkpt>
      <trkpt lat="45.8997" lon="6.48733">
        <ele>2046</ele>
        <time>2012-12-31T21:19:42Z</time>
      </trkpt>
      <trkpt lat="45.89967" lon="6.48744">
        <ele>2051</ele>
        <time>2012-12-31T21:19:46Z</time>
      </trkpt>
      <trkpt lat="45.89965" lon="6.48757">
        <ele>2056</ele>
        <time>2012-12-31T21:19:50Z</time>
      </trkpt>
      <trkpt lat="45.89962" lon="6.4877">
        <ele>2061</ele>
        <time>2012-12-31T21:19:54Z</time>
      </trkpt>
      <trkpt lat="45.8996" lon="6.48783">
        <ele>2066</ele>
        <time>2012-12-31T21:19:58Z</time>
      </trkpt>
      <trkpt lat="45.89957" lon="6.48796">
        <ele>2071</ele>
        <time>2012-12-31T21:20:02Z</time>
      </trkpt>
      <trkpt lat="45.89954" lon="6.48808">
        <ele>2074.5</ele>
        <time>2012-12-31T21:20:06Z</time>
      </trkpt>
      <trkpt lat="45.89951" lon="6.48823">
        <ele>2077.9</ele>
        <time>2012-12-31T21:20:11Z</time>
      </trkpt>
      <trkpt lat="45.89948" lon="6.48835">
        <ele>2082.3</ele>
        <time>2012-12-31T21:20:15Z</time>
      </trkpt>
      <trkpt lat="45.89946" lon="6.48847">
        <ele>2084.7</ele>
        <time>2012-12-31T21:20:19Z</time>
      </trkpt>
      <trkpt lat="45.89944" lon="6.4886">
        <ele>2087.2</ele>
        <time>2012-12-31T21:20:23Z</time>
      </trkpt>
      <trkpt lat="45.89941" lon="6.48873">
        <ele>2089.6</ele>
        <time>2012-12-31T21:20:27Z</time>
      </trkpt>
      <trkpt lat="45.89938" lon="6.48885">
        <ele>2090.5</ele>
        <time>2012-12-31T21:20:31Z</time>
      </trkpt>
      <trkpt lat="45.89934" lon="6.48896">
        <ele>2091.5</ele>
        <time>2012-12-31T21:20:35Z</time>
      </trkpt>
      <trkpt lat="45.89929" lon="6.48905">
        <ele>2092.4</ele>
        <time>2012-12-31T21:20:40Z</time>
      </trkpt>
      <trkpt lat="45.89923" lon="6.48916">
        <ele>2095.2</ele>
        <time>2012-12-31T21:20:45Z</time>
      </trkpt>
      <trkpt lat="45.8992" lon="6.48927">
        <ele>2098</ele>
        <time>2012-12-31T21:20:49Z</time>
      </trkpt>
      <trkpt lat="45.89916" lon="6.48941">
        <ele>2100.8</ele>
        <time>2012-12-31T21:20:54Z</time>
      </trkpt>
      <trkpt lat="45.89914" lon="6.48953">
        <ele>2103.6</ele>
        <time>2012-12-31T21:20:58Z</time>
      </trkpt>
      <trkpt lat="45.89912" lon="6.48965">
        <ele>2105.5</ele>
        <time>2012-12-31T21:21:02Z</time>
      </trkpt>
      <trkpt lat="45.8991" lon="6.48977">
        <ele>2107.5</ele>
        <time>2012-12-31T21:21:06Z</time>
      </trkpt>
      <trkpt lat="45.89908" lon="6.4899">
        <ele>2112.5</ele>
        <time>2012-12-31T21:21:10Z</time>
      </trkpt>
      <trkpt lat="45.89906" lon="6.49003">
        <ele>2117.5</ele>
        <time>2012-12-31T21:21:14Z</time>
      </trkpt>
      <trkpt lat="45.89903" lon="6.49015">
        <ele>2122.5</ele>
        <time>2012-12-31T21:21:18Z</time>
      </trkpt>
      <trkpt lat="45.89901" lon="6.49028">
        <ele>2127.5</ele>
        <time>2012-12-31T21:21:23Z</time>
      </trkpt>
      <trkpt lat="45.89898" lon="6.49041">
        <ele>2132.5</ele>
        <time>2012-12-31T21:21:28Z</time>
      </trkpt>
      <trkpt lat="45.89895" lon="6.49052">
        <ele>2137</ele>
        <time>2012-12-31T21:21:33Z</time>
      </trkpt>
      <trkpt lat="45.89891" lon="6.49066">
        <ele>2141.5</ele>
        <time>2012-12-31T21:21:38Z</time>
      </trkpt>
      <trkpt lat="45.89889" lon="6.49078">
        <ele>2147.4</ele>
        <time>2012-12-31T21:21:42Z</time>
      </trkpt>
      <trkpt lat="45.89887" lon="6.4909">
        <ele>2153.2</ele>
        <time>2012-12-31T21:21:46Z</time>
      </trkpt>
      <trkpt lat="45.89884" lon="6.49101">
        <ele>2159</ele>
        <time>2012-12-31T21:21:50Z</time>
      </trkpt>
      <trkpt lat="45.8988" lon="6.49113">
        <ele>2164.8</ele>
        <time>2012-12-31T21:21:55Z</time>
      </trkpt>
      <trkpt lat="45.89879" lon="6.49125">
        <ele>2167.5</ele>
        <time>2012-12-31T21:21:59Z</time>
      </trkpt>
      <trkpt lat="45.89875" lon="6.49137">
        <ele>2170.3</ele>
        <time>2012-12-31T21:22:05Z</time>
      </trkpt>
      <trkpt lat="45.89872" lon="6.49149">
        <ele>2173</ele>
        <time>2012-12-31T21:22:09Z</time>
      </trkpt>
      <trkpt lat="45.89869" lon="6.49161">
        <ele>2176.5</ele>
        <time>2012-12-31T21:22:14Z</time>
      </trkpt>
      <trkpt lat="45.89865" lon="6.49175">
        <ele>2180.1</ele>
        <time>2012-12-31T21:22:19Z</time>
      </trkpt>
      <trkpt lat="45.89862" lon="6.49187">
        <ele>2182.2</ele>
        <time>2012-12-31T21:22:23Z</time>
      </trkpt>
      <trkpt lat="45.89859" lon="6.492">
        <ele>2184.3</ele>
        <time>2012-12-31T21:22:28Z</time>
      </trkpt>
      <trkpt lat="45.89857" lon="6.49211">
        <ele>2185.1</ele>
        <time>2012-12-31T21:22:32Z</time>
      </trkpt>
      <trkpt lat="45.89854" lon="6.49224">
        <ele>2185.9</ele>
        <time>2012-12-31T21:22:36Z</time>
      </trkpt>
      <trkpt lat="45.89853" lon="6.49238">
        <ele>2188.5</ele>
        <time>2012-12-31T21:22:40Z</time>
      </trkpt>
      <trkpt lat="45.8985" lon="6.4925">
        <ele>2191.2</ele>
        <time>2012-12-31T21:22:44Z</time>
      </trkpt>
      <trkpt lat="45.89847" lon="6.49263">
        <ele>2193.8</ele>
        <time>2012-12-31T21:22:48Z</time>
      </trkpt>
      <trkpt lat="45.89845" lon="6.49275">
        <ele>2196.5</ele>
        <time>2012-12-31T21:22:52Z</time>
      </trkpt>
      <trkpt lat="45.89843" lon="6.49287">
        <ele>2199.1</ele>
        <time>2012-12-31T21:22:56Z</time>
      </trkpt>
      <trkpt lat="45.8984" lon="6.49299">
        <ele>2200.9</ele>
        <time>2012-12-31T21:23:00Z</time>
      </trkpt>
      <trkpt lat="45.89838" lon="6.49311">
        <ele>2202.7</ele>
        <time>2012-12-31T21:23:04Z</time>
      </trkpt>
      <trkpt lat="45.89835" lon="6.49324">
        <ele>2206.8</ele>
        <time>2012-12-31T21:23:08Z</time>
      </trkpt>
      <trkpt lat="45.89832" lon="6.49336">
        <ele>2210.9</ele>
        <time>2012-12-31T21:23:12Z</time>
      </trkpt>
      <trkpt lat="45.89829" lon="6.49347">
        <ele>2215</ele>
        <time>2012-12-31T21:23:16Z</time>
      </trkpt>
      <trkpt lat="45.89826" lon="6.49358">
        <ele>2219.1</ele>
        <time>2012-12-31T21:23:20Z</time>
      </trkpt>
      <trkpt lat="45.89824" lon="6.4937">
        <ele>2221.4</ele>
        <time>2012-12-31T21:23:24Z</time>
      </trkpt>
      <trkpt lat="45.89823" lon="6.49384">
        <ele>2223.6</ele>
        <time>2012-12-31T21:23:28Z</time>
      </trkpt>
      <trkpt lat="45.89821" lon="6.49396">
        <ele>2225.9</ele>
        <time>2012-12-31T21:23:32Z</time>
      </trkpt>
      <trkpt lat="45.89819" lon="6.49409">
        <ele>2231.1</ele>
        <time>2012-12-31T21:23:37Z</time>
      </trkpt>
      <trkpt lat="45.89817" lon="6.49421">
        <ele>2236.3</ele>
        <time>2012-12-31T21:23:43Z</time>
      </trkpt>
      <trkpt lat="45.89815" lon="6.49432">
        <ele>2241.5</ele>
        <time>2012-12-31T21:23:48Z</time>
      </trkpt>
      <trkpt lat="45.89813" lon="6.49444">
        <ele>2246.6</ele>
        <time>2012-12-31T21:23:52Z</time>
      </trkpt>
      <trkpt lat="45.8981" lon="6.49456">
        <ele>2249.5</ele>
        <time>2012-12-31T21:23:56Z</time>
      </trkpt>
      <trkpt lat="45.89806" lon="6.49468">
        <ele>2252.5</ele>
        <time>2012-12-31T21:24:01Z</time>
      </trkpt>
      <trkpt lat="45.89801" lon="6.49479">
        <ele>2258.7</ele>
        <time>2012-12-31T21:24:07Z</time>
      </trkpt>
      <trkpt lat="45.89798" lon="6.49493">
        <ele>2265</ele>
        <time>2012-12-31T21:24:11Z</time>
      </trkpt>
      <trkpt lat="45.89796" lon="6.49508">
        <ele>2271.3</ele>
        <time>2012-12-31T21:24:15Z</time>
      </trkpt>
      <trkpt lat="45.89794" lon="6.4952">
        <ele>2277.5</ele>
        <time>2012-12-31T21:24:19Z</time>
      </trkpt>
      <trkpt lat="45.89792" lon="6.49532">
        <ele>2283.8</ele>
        <time>2012-12-31T21:24:23Z</time>
      </trkpt>
      <trkpt lat="45.89789" lon="6.49544">
        <ele>2287.2</ele>
        <time>2012-12-31T21:24:28Z</time>
      </trkpt>
      <trkpt lat="45.89787" lon="6.49559">
        <ele>2290.5</ele>
        <time>2012-12-31T21:24:33Z</time>
      </trkpt>
      <trkpt lat="45.89784" lon="6.49572">
        <ele>2295.4</ele>
        <time>2012-12-31T21:24:38Z</time>
      </trkpt>
      <trkpt lat="45.89781" lon="6.49584">
        <ele>2300.2</ele>
        <time>2012-12-31T21:24:42Z</time>
      </trkpt>
      <trkpt lat="45.89778" lon="6.49596">
        <ele>2305</ele>
        <time>2012-12-31T21:24:46Z</time>
      </trkpt>
      <trkpt lat="45.89775" lon="6.49609">
        <ele>2309.8</ele>
        <time>2012-12-31T21:24:51Z</time>
      </trkpt>
      <trkpt lat="45.89772" lon="6.49622">
        <ele>2311.3</ele>
        <time>2012-12-31T21:24:56Z</time>
      </trkpt>
      <trkpt lat="45.8977" lon="6.49634">
        <ele>2312.7</ele>
        <time>2012-12-31T21:25:00Z</time>
      </trkpt>
      <trkpt lat="45.89766" lon="6.49647">
        <ele>2314.2</ele>
        <time>2012-12-31T21:25:05Z</time>
      </trkpt>
      <trkpt lat="45.89762" lon="6.4966">
        <ele>2315.6</ele>
        <time>2012-12-31T21:25:10Z</time>
      </trkpt>
      <trkpt lat="45.8976" lon="6.49672">
        <ele>2319.1</ele>
        <time>2012-12-31T21:25:14Z</time>
      </trkpt>
      <trkpt lat="45.89757" lon="6.49683">
        <ele>2322.5</ele>
        <time>2012-12-31T21:25:18Z</time>
      </trkpt>
      <trkpt lat="45.89754" lon="6.49696">
        <ele>2326</ele>
        <time>2012-12-31T21:25:22Z</time>
      </trkpt>
      <trkpt lat="45.8975" lon="6.49707">
        <ele>2328</ele>
        <time>2012-12-31T21:25:26Z</time>
      </trkpt>
      <trkpt lat="45.89747" lon="6.4972">
        <ele>2330</ele>
        <time>2012-12-31T21:25:31Z</time>
      </trkpt>
      <trkpt lat="45.89744" lon="6.49733">
        <ele>2332</ele>
        <time>2012-12-31T21:25:35Z</time>
      </trkpt>
      <trkpt lat="45.89741" lon="6.49743">
        <ele>2337</ele>
        <time>2012-12-31T21:25:39Z</time>
      </trkpt>
      <trkpt lat="45.89737" lon="6.49755">
        <ele>2342</ele>
        <time>2012-12-31T21:25:43Z</time>
      </trkpt>
      <trkpt lat="45.89733" lon="6.49767">
        <ele>2347</ele>
        <time>2012-12-31T21:25:47Z</time>
      </trkpt>
      <trkpt lat="45.8973" lon="6.49778">
        <ele>2352</ele>
        <time>2012-12-31T21:25:51Z</time>
      </trkpt>
      <trkpt lat="45.89728" lon="6.49791">
        <ele>2357</ele>
        <time>2012-12-31T21:25:55Z</time>
      </trkpt>
      <trkpt lat="45.89725" lon="6.49805">
        <ele>2360</ele>
        <time>2012-12-31T21:26:00Z</time>
      </trkpt>
      <trkpt lat="45.89723" lon="6.49816">
        <ele>2363</ele>
        <time>2012-12-31T21:26:04Z</time>
      </trkpt>
      <trkpt lat="45.89721" lon="6.49829">
        <ele>2369.6</ele>
        <time>2012-12-31T21:26:08Z</time>
      </trkpt>
      <trkpt lat="45.89719" lon="6.49841">
        <ele>2374.1</ele>
        <time>2012-12-31T21:26:12Z</time>
      </trkpt>
      <trkpt lat="45.89717" lon="6.49853">
        <ele>2378.5</ele>
        <time>2012-12-31T21:26:16Z</time>
      </trkpt>
      <trkpt lat="45.89716" lon="6.49866">
        <ele>2383</ele>
        <time>2012-12-31T21:26:20Z</time>
      </trkpt>
      <trkpt lat="45.89714" lon="6.49878">
        <ele>2384.5</ele>
        <time>2012-12-31T21:26:24Z</time>
      </trkpt>
      <trkpt lat="45.89712" lon="6.49891">
        <ele>2385.9</ele>
        <time>2012-12-31T21:26:28Z</time>
      </trkpt>
      <trkpt lat="45.89709" lon="6.49903">
        <ele>2387.4</ele>
        <time>2012-12-31T21:26:32Z</time>
      </trkpt>
      <trkpt lat="45.89707" lon="6.49915">
        <ele>2392</ele>
        <time>2012-12-31T21:26:36Z</time>
      </trkpt>
      <trkpt lat="45.89705" lon="6.49927">
        <ele>2396.6</ele>
        <time>2012-12-31T21:26:40Z</time>
      </trkpt>
      <trkpt lat="45.89702" lon="6.49938">
        <ele>2401.3</ele>
        <time>2012-12-31T21:26:44Z</time>
      </trkpt>
      <trkpt lat="45.89699" lon="6.4995">
        <ele>2405.9</ele>
        <time>2012-12-31T21:26:48Z</time>
      </trkpt>
      <trkpt lat="45.89696" lon="6.49962">
        <ele>2406.9</ele>
        <time>2012-12-31T21:26:52Z</time>
      </trkpt>
      <trkpt lat="45.89693" lon="6.49975">
        <ele>2410.1</ele>
        <time>2012-12-31T21:26:56Z</time>
      </trkpt>
      <trkpt lat="45.89691" lon="6.49987">
        <ele>2413.3</ele>
        <time>2012-12-31T21:27:00Z</time>
      </trkpt>
      <trkpt lat="45.89688" lon="6.49999">
        <ele>2418.9</ele>
        <time>2012-12-31T21:27:04Z</time>
      </trkpt>
      <trkpt lat="45.89685" lon="6.5001">
        <ele>2424.5</ele>
        <time>2012-12-31T21:27:08Z</time>
      </trkpt>
      <trkpt lat="45.89683" lon="6.50021">
        <ele>2430.2</ele>
        <time>2012-12-31T21:27:12Z</time>
      </trkpt>
      <trkpt lat="45.8968" lon="6.50035">
        <ele>2435.8</ele>
        <time>2012-12-31T21:27:17Z</time>
      </trkpt>
      <trkpt lat="45.89677" lon="6.50046">
        <ele>2438.3</ele>
        <time>2012-12-31T21:27:21Z</time>
      </trkpt>
      <trkpt lat="45.89674" lon="6.50057">
        <ele>2440.7</ele>
        <time>2012-12-31T21:27:25Z</time>
      </trkpt>
      <trkpt lat="45.89672" lon="6.5007">
        <ele>2445.4</ele>
        <time>2012-12-31T21:27:30Z</time>
      </trkpt>
      <trkpt lat="45.8967" lon="6.50082">
        <ele>2450</ele>
        <time>2012-12-31T21:27:34Z</time>
      </trkpt>
      <trkpt lat="45.89669" lon="6.50094">
        <ele>2454.6</ele>
        <time>2012-12-31T21:27:38Z</time>
      </trkpt>
      <trkpt lat="45.89667" lon="6.50106">
        <ele>2459.3</ele>
        <time>2012-12-31T21:27:42Z</time>
      </trkpt>
      <trkpt lat="45.89666" lon="6.5012">
        <ele>2463.9</ele>
        <time>2012-12-31T21:27:47Z</time>
      </trkpt>
      <trkpt lat="45.89664" lon="6.50134">
        <ele>2465</ele>
        <time>2012-12-31T21:27:52Z</time>
      </trkpt>
      <trkpt lat="45.89653" lon="6.50138">
        <ele>2466.3</ele>
        <time>2012-12-31T21:27:55Z</time>
      </trkpt>
      <trkpt lat="45.89658" lon="6.50149">
        <ele>2468</ele>
        <time>2012-12-31T21:28:02Z</time>
      </trkpt>
      <trkpt lat="45.89664" lon="6.50157">
        <ele>2470.1</ele>
        <time>2012-12-31T21:28:07Z</time>
      </trkpt>
      <trkpt lat="45.89666" lon="6.50159">
        <ele>2473</ele>
        <time>2012-12-31T21:28:18Z</time>
      </trkpt>
      <trkpt lat="45.89656" lon="6.50156">
        <ele>2472.3</ele>
        <time>2012-12-31T21:29:35Z</time>
      </trkpt>
      <trkpt lat="45.89656" lon="6.50156">
        <ele>2471</ele>
        <time>2012-12-31T21:29:35Z</time>
      </trkpt>
      <trkpt lat="45.89647" lon="6.50153">
        <ele>2470</ele>
        <time>2012-12-31T21:29:38Z</time>
      </trkpt>
      <trkpt lat="45.89636" lon="6.50151">
        <ele>2469.2</ele>
        <time>2012-12-31T21:29:41Z</time>
      </trkpt>
      <trkpt lat="45.89627" lon="6.50151">
        <ele>2467.2</ele>
        <time>2012-12-31T21:29:43Z</time>
      </trkpt>
      <trkpt lat="45.89617" lon="6.50151">
        <ele>2465.5</ele>
        <time>2012-12-31T21:29:45Z</time>
      </trkpt>
      <trkpt lat="45.89604" lon="6.50148">
        <ele>2463</ele>
        <time>2012-12-31T21:29:46Z</time>
      </trkpt>
      <trkpt lat="45.89595" lon="6.50144">
        <ele>2460.5</ele>
        <time>2012-12-31T21:29:48Z</time>
      </trkpt>
      <trkpt lat="45.89589" lon="6.50136">
        <ele>2457.9</ele>
        <time>2012-12-31T21:29:49Z</time>
      </trkpt>
      <trkpt lat="45.8958" lon="6.50129">
        <ele>2455.4</ele>
        <time>2012-12-31T21:29:51Z</time>
      </trkpt>
      <trkpt lat="45.89574" lon="6.50117">
        <ele>2454.1</ele>
        <time>2012-12-31T21:29:53Z</time>
      </trkpt>
      <trkpt lat="45.89565" lon="6.50111">
        <ele>2452.8</ele>
        <time>2012-12-31T21:29:55Z</time>
      </trkpt>
      <trkpt lat="45.89562" lon="6.50095">
        <ele>2451.5</ele>
        <time>2012-12-31T21:29:57Z</time>
      </trkpt>
      <trkpt lat="45.89559" lon="6.5008">
        <ele>2450.3</ele>
        <time>2012-12-31T21:29:59Z</time>
      </trkpt>
      <trkpt lat="45.89567" lon="6.50076">
        <ele>2449.4</ele>
        <time>2012-12-31T21:30:04Z</time>
      </trkpt>
      <trkpt lat="45.89577" lon="6.50073">
        <ele>2449.7</ele>
        <time>2012-12-31T21:30:14Z</time>
      </trkpt>
      <trkpt lat="45.89588" lon="6.50071">
        <ele>2447.6</ele>
        <time>2012-12-31T21:30:18Z</time>
      </trkpt>
      <trkpt lat="45.89604" lon="6.50072">
        <ele>2445.5</ele>
        <time>2012-12-31T21:30:20Z</time>
      </trkpt>
      <trkpt lat="45.89618" lon="6.50068">
        <ele>2443.5</ele>
        <time>2012-12-31T21:30:22Z</time>
      </trkpt>
      <trkpt lat="45.89632" lon="6.50064">
        <ele>2441.4</ele>
        <time>2012-12-31T21:30:24Z</time>
      </trkpt>
      <trkpt lat="45.89641" lon="6.50056">
        <ele>2439.3</ele>
        <time>2012-12-31T21:30:26Z</time>
      </trkpt>
      <trkpt lat="45.89649" lon="6.50047">
        <ele>2437.2</ele>
        <time>2012-12-31T21:30:28Z</time>
      </trkpt>
      <trkpt lat="45.89659" lon="6.50035">
        <ele>2436</ele>
        <time>2012-12-31T21:30:30Z</time>
      </trkpt>
      <trkpt lat="45.89666" lon="6.50028">
        <ele>2434.6</ele>
        <time>2012-12-31T21:30:32Z</time>
      </trkpt>
      <trkpt lat="45.8967" lon="6.50015">
        <ele>2432.8</ele>
        <time>2012-12-31T21:30:34Z</time>
      </trkpt>
      <trkpt lat="45.89679" lon="6.50012">
        <ele>2429.9</ele>
        <time>2012-12-31T21:30:37Z</time>
      </trkpt>
      <trkpt lat="45.89684" lon="6.50009">
        <ele>2426</ele>
        <time>2012-12-31T21:30:50Z</time>
      </trkpt>
      <trkpt lat="45.89685" lon="6.50002">
        <ele>2414.3</ele>
        <time>2012-12-31T21:30:58Z</time>
      </trkpt>
      <trkpt lat="45.89685" lon="6.50002">
        <ele>2411</ele>
        <time>2012-12-31T21:30:58Z</time>
      </trkpt>
      <trkpt lat="45.89689" lon="6.49991">
        <ele>2408.5</ele>
        <time>2012-12-31T21:31:08Z</time>
      </trkpt>
      <trkpt lat="45.89691" lon="6.49979">
        <ele>2406.6</ele>
        <time>2012-12-31T21:31:11Z</time>
      </trkpt>
      <trkpt lat="45.89691" lon="6.49966">
        <ele>2405</ele>
        <time>2012-12-31T21:31:14Z</time>
      </trkpt>
      <trkpt lat="45.89671" lon="6.49967">
        <ele>2403.7</ele>
        <time>2012-12-31T21:31:15Z</time>
      </trkpt>
      <trkpt lat="45.89663" lon="6.4996">
        <ele>2398.1</ele>
        <time>2012-12-31T21:31:17Z</time>
      </trkpt>
      <trkpt lat="45.89659" lon="6.49938">
        <ele>2392.5</ele>
        <time>2012-12-31T21:31:19Z</time>
      </trkpt>
      <trkpt lat="45.8966" lon="6.49923">
        <ele>2386.8</ele>
        <time>2012-12-31T21:31:20Z</time>
      </trkpt>
      <trkpt lat="45.89662" lon="6.49906">
        <ele>2381.2</ele>
        <time>2012-12-31T21:31:21Z</time>
      </trkpt>
      <trkpt lat="45.89662" lon="6.4989">
        <ele>2378.7</ele>
        <time>2012-12-31T21:31:22Z</time>
      </trkpt>
      <trkpt lat="45.89664" lon="6.49879">
        <ele>2376.3</ele>
        <time>2012-12-31T21:31:23Z</time>
      </trkpt>
      <trkpt lat="45.89666" lon="6.49867">
        <ele>2373.8</ele>
        <time>2012-12-31T21:31:24Z</time>
      </trkpt>
      <trkpt lat="45.89672" lon="6.49857">
        <ele>2372.4</ele>
        <time>2012-12-31T21:31:33Z</time>
      </trkpt>
      <trkpt lat="45.89681" lon="6.49848">
        <ele>2370.9</ele>
        <time>2012-12-31T21:31:37Z</time>
      </trkpt>
      <trkpt lat="45.8969" lon="6.49839">
        <ele>2369.5</ele>
        <time>2012-12-31T21:31:40Z</time>
      </trkpt>
      <trkpt lat="45.89699" lon="6.49832">
        <ele>2365</ele>
        <time>2012-12-31T21:31:42Z</time>
      </trkpt>
      <trkpt lat="45.89707" lon="6.49824">
        <ele>2363</ele>
        <time>2012-12-31T21:31:44Z</time>
      </trkpt>
      <trkpt lat="45.89715" lon="6.49816">
        <ele>2361</ele>
        <time>2012-12-31T21:31:46Z</time>
      </trkpt>
      <trkpt lat="45.89722" lon="6.49809">
        <ele>2359</ele>
        <time>2012-12-31T21:31:48Z</time>
      </trkpt>
      <trkpt lat="45.89729" lon="6.49804">
        <ele>2357.6</ele>
        <time>2012-12-31T21:31:50Z</time>
      </trkpt>
      <trkpt lat="45.89737" lon="6.49799">
        <ele>2356.3</ele>
        <time>2012-12-31T21:31:52Z</time>
      </trkpt>
      <trkpt lat="45.89755" lon="6.49791">
        <ele>2354.9</ele>
        <time>2012-12-31T21:31:55Z</time>
      </trkpt>
      <trkpt lat="45.89766" lon="6.49784">
        <ele>2353.5</ele>
        <time>2012-12-31T21:31:57Z</time>
      </trkpt>
      <trkpt lat="45.89781" lon="6.49778">
        <ele>2351.2</ele>
        <time>2012-12-31T21:31:59Z</time>
      </trkpt>
      <trkpt lat="45.89794" lon="6.49768">
        <ele>2346.5</ele>
        <time>2012-12-31T21:32:01Z</time>
      </trkpt>
      <trkpt lat="45.89805" lon="6.49758">
        <ele>2341.7</ele>
        <time>2012-12-31T21:32:03Z</time>
      </trkpt>
      <trkpt lat="45.89817" lon="6.49749">
        <ele>2340</ele>
        <time>2012-12-31T21:32:05Z</time>
      </trkpt>
      <trkpt lat="45.89825" lon="6.4974">
        <ele>2338.3</ele>
        <time>2012-12-31T21:32:07Z</time>
      </trkpt>
      <trkpt lat="45.89835" lon="6.49731">
        <ele>2336.5</ele>
        <time>2012-12-31T21:32:09Z</time>
      </trkpt>
      <trkpt lat="45.89843" lon="6.49714">
        <ele>2336</ele>
        <time>2012-12-31T21:32:11Z</time>
      </trkpt>
      <trkpt lat="45.89852" lon="6.49716">
        <ele>2334.6</ele>
        <time>2012-12-31T21:32:13Z</time>
      </trkpt>
      <trkpt lat="45.89859" lon="6.49707">
        <ele>2332.8</ele>
        <time>2012-12-31T21:32:15Z</time>
      </trkpt>
      <trkpt lat="45.89867" lon="6.49701">
        <ele>2330.4</ele>
        <time>2012-12-31T21:32:18Z</time>
      </trkpt>
      <trkpt lat="45.89867" lon="6.49704">
        <ele>2327.3</ele>
        <time>2012-12-31T21:32:27Z</time>
      </trkpt>
      <trkpt lat="45.89873" lon="6.49709">
        <ele>2323</ele>
        <time>2012-12-31T21:32:45Z</time>
      </trkpt>
      <trkpt lat="45.89873" lon="6.49709">
        <ele>2323</ele>
        <time>2012-12-31T21:32:45Z</time>
      </trkpt>
      <trkpt lat="45.89873" lon="6.49711">
        <ele>2323</ele>
        <time>2012-12-31T21:32:56Z</time>
      </trkpt>
      <trkpt lat="45.8988" lon="6.49717">
        <ele>2327.5</ele>
        <time>2012-12-31T21:32:57Z</time>
      </trkpt>
      <trkpt lat="45.8988" lon="6.49717">
        <ele>2323.9</ele>
        <time>2012-12-31T21:32:57Z</time>
      </trkpt>
      <trkpt lat="45.89889" lon="6.49721">
        <ele>2321.1</ele>
        <time>2012-12-31T21:32:59Z</time>
      </trkpt>
      <trkpt lat="45.89907" lon="6.49724">
        <ele>2319</ele>
        <time>2012-12-31T21:33:01Z</time>
      </trkpt>
      <trkpt lat="45.89915" lon="6.49725">
        <ele>2319.6</ele>
        <time>2012-12-31T21:33:02Z</time>
      </trkpt>
      <trkpt lat="45.89925" lon="6.49722">
        <ele>2320.1</ele>
        <time>2012-12-31T21:33:03Z</time>
      </trkpt>
      <trkpt lat="45.89935" lon="6.49722">
        <ele>2320.3</ele>
        <time>2012-12-31T21:33:04Z</time>
      </trkpt>
      <trkpt lat="45.89946" lon="6.4972">
        <ele>2320.5</ele>
        <time>2012-12-31T21:33:05Z</time>
      </trkpt>
      <trkpt lat="45.89955" lon="6.49721">
        <ele>2322.5</ele>
        <time>2012-12-31T21:33:06Z</time>
      </trkpt>
      <trkpt lat="45.89966" lon="6.49722">
        <ele>2321.3</ele>
        <time>2012-12-31T21:33:07Z</time>
      </trkpt>
      <trkpt lat="45.89975" lon="6.49725">
        <ele>2320</ele>
        <time>2012-12-31T21:33:08Z</time>
      </trkpt>
      <trkpt lat="45.89985" lon="6.49727">
        <ele>2318.7</ele>
        <time>2012-12-31T21:33:09Z</time>
      </trkpt>
      <trkpt lat="45.89993" lon="6.49726">
        <ele>2317.5</ele>
        <time>2012-12-31T21:33:10Z</time>
      </trkpt>
      <trkpt lat="45.90002" lon="6.49727">
        <ele>2319.2</ele>
        <time>2012-12-31T21:33:11Z</time>
      </trkpt>
      <trkpt lat="45.9001" lon="6.49728">
        <ele>2318</ele>
        <time>2012-12-31T21:33:12Z</time>
      </trkpt>
      <trkpt lat="45.9002" lon="6.49726">
        <ele>2314.7</ele>
        <time>2012-12-31T21:33:13Z</time>
      </trkpt>
      <trkpt lat="45.90035" lon="6.49723">
        <ele>2311.5</ele>
        <time>2012-12-31T21:33:15Z</time>
      </trkpt>
      <trkpt lat="45.90048" lon="6.49721">
        <ele>2308.2</ele>
        <time>2012-12-31T21:33:17Z</time>
      </trkpt>
      <trkpt lat="45.90062" lon="6.49722">
        <ele>2304.9</ele>
        <time>2012-12-31T21:33:19Z</time>
      </trkpt>
      <trkpt lat="45.90074" lon="6.49717">
        <ele>2301.6</ele>
        <time>2012-12-31T21:33:21Z</time>
      </trkpt>
      <trkpt lat="45.90088" lon="6.49715">
        <ele>2299.2</ele>
        <time>2012-12-31T21:33:23Z</time>
      </trkpt>
      <trkpt lat="45.90098" lon="6.49715">
        <ele>2296.7</ele>
        <time>2012-12-31T21:33:25Z</time>
      </trkpt>
      <trkpt lat="45.90105" lon="6.49709">
        <ele>2294.3</ele>
        <time>2012-12-31T21:33:28Z</time>
      </trkpt>
      <trkpt lat="45.90115" lon="6.49695">
        <ele>2295.1</ele>
        <time>2012-12-31T21:33:31Z</time>
      </trkpt>
      <trkpt lat="45.90126" lon="6.49696">
        <ele>2293.1</ele>
        <time>2012-12-31T21:33:34Z</time>
      </trkpt>
      <trkpt lat="45.90134" lon="6.49689">
        <ele>2293.9</ele>
        <time>2012-12-31T21:33:37Z</time>
      </trkpt>
      <trkpt lat="45.90141" lon="6.49683">
        <ele>2294.7</ele>
        <time>2012-12-31T21:33:40Z</time>
      </trkpt>
      <trkpt lat="45.90151" lon="6.49673">
        <ele>2295.5</ele>
        <time>2012-12-31T21:33:43Z</time>
      </trkpt>
      <trkpt lat="45.9016" lon="6.49664">
        <ele>2293.2</ele>
        <time>2012-12-31T21:33:46Z</time>
      </trkpt>
      <trkpt lat="45.9017" lon="6.49657">
        <ele>2293.5</ele>
        <time>2012-12-31T21:33:49Z</time>
      </trkpt>
      <trkpt lat="45.90179" lon="6.49651">
        <ele>2293.7</ele>
        <time>2012-12-31T21:33:51Z</time>
      </trkpt>
      <trkpt lat="45.90188" lon="6.49645">
        <ele>2293.2</ele>
        <time>2012-12-31T21:33:53Z</time>
      </trkpt>
      <trkpt lat="45.90203" lon="6.49635">
        <ele>2292.6</ele>
        <time>2012-12-31T21:33:55Z</time>
      </trkpt>
      <trkpt lat="45.90207" lon="6.49624">
        <ele>2292.1</ele>
        <time>2012-12-31T21:33:56Z</time>
      </trkpt>
      <trkpt lat="45.90218" lon="6.49608">
        <ele>2291.4</ele>
        <time>2012-12-31T21:33:58Z</time>
      </trkpt>
      <trkpt lat="45.90225" lon="6.49603">
        <ele>2290.6</ele>
        <time>2012-12-31T21:34:02Z</time>
      </trkpt>
      <trkpt lat="45.90228" lon="6.49585">
        <ele>2289.6</ele>
        <time>2012-12-31T21:34:09Z</time>
      </trkpt>
      <trkpt lat="45.9023" lon="6.49588">
        <ele>2288.2</ele>
        <time>2012-12-31T21:34:28Z</time>
      </trkpt>
      <trkpt lat="45.90238" lon="6.49581">
        <ele>2292</ele>
        <time>2012-12-31T21:35:36Z</time>
      </trkpt>
      <trkpt lat="45.90238" lon="6.49581">
        <ele>2284.3</ele>
        <time>2012-12-31T21:35:36Z</time>
      </trkpt>
      <trkpt lat="45.90229" lon="6.49575">
        <ele>2278.5</ele>
        <time>2012-12-31T21:35:38Z</time>
      </trkpt>
      <trkpt lat="45.9023" lon="6.49561">
        <ele>2274</ele>
        <time>2012-12-31T21:35:42Z</time>
      </trkpt>
      <trkpt lat="45.90223" lon="6.49554">
        <ele>2272.3</ele>
        <time>2012-12-31T21:35:43Z</time>
      </trkpt>
      <trkpt lat="45.90212" lon="6.49555">
        <ele>2270.9</ele>
        <time>2012-12-31T21:35:45Z</time>
      </trkpt>
      <trkpt lat="45.90208" lon="6.49542">
        <ele>2267.7</ele>
        <time>2012-12-31T21:35:48Z</time>
      </trkpt>
      <trkpt lat="45.90202" lon="6.49532">
        <ele>2264.5</ele>
        <time>2012-12-31T21:35:51Z</time>
      </trkpt>
      <trkpt lat="45.90206" lon="6.49521">
        <ele>2259.6</ele>
        <time>2012-12-31T21:35:55Z</time>
      </trkpt>
      <trkpt lat="45.9021" lon="6.4951">
        <ele>2254.7</ele>
        <time>2012-12-31T21:35:58Z</time>
      </trkpt>
      <trkpt lat="45.90212" lon="6.49498">
        <ele>2249.8</ele>
        <time>2012-12-31T21:36:03Z</time>
      </trkpt>
      <trkpt lat="45.90213" lon="6.49484">
        <ele>2244.9</ele>
        <time>2012-12-31T21:36:10Z</time>
      </trkpt>
      <trkpt lat="45.90219" lon="6.49471">
        <ele>2244.9</ele>
        <time>2012-12-31T21:36:13Z</time>
      </trkpt>
      <trkpt lat="45.90224" lon="6.49461">
        <ele>2244.9</ele>
        <time>2012-12-31T21:36:15Z</time>
      </trkpt>
      <trkpt lat="45.9023" lon="6.49451">
        <ele>2244.9</ele>
        <time>2012-12-31T21:36:18Z</time>
      </trkpt>
      <trkpt lat="45.90237" lon="6.49442">
        <ele>2243.2</ele>
        <time>2012-12-31T21:36:21Z</time>
      </trkpt>
      <trkpt lat="45.90243" lon="6.49435">
        <ele>2241.5</ele>
        <time>2012-12-31T21:36:24Z</time>
      </trkpt>
      <trkpt lat="45.90243" lon="6.49422">
        <ele>2239.7</ele>
        <time>2012-12-31T21:36:31Z</time>
      </trkpt>
      <trkpt lat="45.90235" lon="6.49415">
        <ele>2233.1</ele>
        <time>2012-12-31T21:36:35Z</time>
      </trkpt>
      <trkpt lat="45.90226" lon="6.49413">
        <ele>2231</ele>
        <time>2012-12-31T21:36:40Z</time>
      </trkpt>
      <trkpt lat="45.90223" lon="6.494">
        <ele>2228.9</ele>
        <time>2012-12-31T21:36:44Z</time>
      </trkpt>
      <trkpt lat="45.90219" lon="6.4939">
        <ele>2224</ele>
        <time>2012-12-31T21:36:46Z</time>
      </trkpt>
      <trkpt lat="45.90215" lon="6.4938">
        <ele>2219.1</ele>
        <time>2012-12-31T21:36:49Z</time>
      </trkpt>
      <trkpt lat="45.90207" lon="6.49378">
        <ele>2214.2</ele>
        <time>2012-12-31T21:36:53Z</time>
      </trkpt>
      <trkpt lat="45.90196" lon="6.4938">
        <ele>2209.3</ele>
        <time>2012-12-31T21:36:56Z</time>
      </trkpt>
      <trkpt lat="45.90187" lon="6.49381">
        <ele>2204.4</ele>
        <time>2012-12-31T21:36:58Z</time>
      </trkpt>
      <trkpt lat="45.90179" lon="6.49378">
        <ele>2196.9</ele>
        <time>2012-12-31T21:37:00Z</time>
      </trkpt>
      <trkpt lat="45.90173" lon="6.49368">
        <ele>2189.5</ele>
        <time>2012-12-31T21:37:02Z</time>
      </trkpt>
      <trkpt lat="45.90174" lon="6.49335">
        <ele>2182</ele>
        <time>2012-12-31T21:37:04Z</time>
      </trkpt>
      <trkpt lat="45.90176" lon="6.49317">
        <ele>2179.5</ele>
        <time>2012-12-31T21:37:06Z</time>
      </trkpt>
      <trkpt lat="45.90179" lon="6.49303">
        <ele>2174.1</ele>
        <time>2012-12-31T21:37:07Z</time>
      </trkpt>
      <trkpt lat="45.90186" lon="6.49288">
        <ele>2168.7</ele>
        <time>2012-12-31T21:37:09Z</time>
      </trkpt>
      <trkpt lat="45.90185" lon="6.49275">
        <ele>2161.5</ele>
        <time>2012-12-31T21:37:10Z</time>
      </trkpt>
      <trkpt lat="45.90193" lon="6.49259">
        <ele>2154.4</ele>
        <time>2012-12-31T21:37:12Z</time>
      </trkpt>
      <trkpt lat="45.90193" lon="6.49246">
        <ele>2147.2</ele>
        <time>2012-12-31T21:37:13Z</time>
      </trkpt>
      <trkpt lat="45.902" lon="6.49236">
        <ele>2140</ele>
        <time>2012-12-31T21:37:15Z</time>
      </trkpt>
      <trkpt lat="45.90206" lon="6.49225">
        <ele>2132.8</ele>
        <time>2012-12-31T21:37:17Z</time>
      </trkpt>
      <trkpt lat="45.90211" lon="6.49211">
        <ele>2128.2</ele>
        <time>2012-12-31T21:37:19Z</time>
      </trkpt>
      <trkpt lat="45.90217" lon="6.49198">
        <ele>2121.8</ele>
        <time>2012-12-31T21:37:22Z</time>
      </trkpt>
      <trkpt lat="45.90225" lon="6.49194">
        <ele>2115.5</ele>
        <time>2012-12-31T21:37:23Z</time>
      </trkpt>
      <trkpt lat="45.90226" lon="6.49182">
        <ele>2109.1</ele>
        <time>2012-12-31T21:37:25Z</time>
      </trkpt>
      <trkpt lat="45.90229" lon="6.49163">
        <ele>2102.7</ele>
        <time>2012-12-31T21:37:28Z</time>
      </trkpt>
      <trkpt lat="45.9023" lon="6.49149">
        <ele>2096.4</ele>
        <time>2012-12-31T21:37:30Z</time>
      </trkpt>
      <trkpt lat="45.90236" lon="6.4913">
        <ele>2094.6</ele>
        <time>2012-12-31T21:37:32Z</time>
      </trkpt>
      <trkpt lat="45.90243" lon="6.49114">
        <ele>2093.6</ele>
        <time>2012-12-31T21:37:34Z</time>
      </trkpt>
      <trkpt lat="45.90248" lon="6.491">
        <ele>2092.3</ele>
        <time>2012-12-31T21:37:36Z</time>
      </trkpt>
      <trkpt lat="45.90251" lon="6.49087">
        <ele>2090.8</ele>
        <time>2012-12-31T21:37:38Z</time>
      </trkpt>
      <trkpt lat="45.90252" lon="6.49099">
        <ele>2088.7</ele>
        <time>2012-12-31T21:37:54Z</time>
      </trkpt>
      <trkpt lat="45.90253" lon="6.49102">
        <ele>2086</ele>
        <time>2012-12-31T21:38:06Z</time>
      </trkpt>
      <trkpt lat="45.90261" lon="6.49099">
        <ele>2076.8</ele>
        <time>2012-12-31T21:39:29Z</time>
      </trkpt>
      <trkpt lat="45.90261" lon="6.49099">
        <ele>2072.6</ele>
        <time>2012-12-31T21:39:29Z</time>
      </trkpt>
      <trkpt lat="45.90269" lon="6.49091">
        <ele>2069.4</ele>
        <time>2012-12-31T21:39:31Z</time>
      </trkpt>
      <trkpt lat="45.90283" lon="6.49083">
        <ele>2066.9</ele>
        <time>2012-12-31T21:39:32Z</time>
      </trkpt>
      <trkpt lat="45.90295" lon="6.49078">
        <ele>2064.9</ele>
        <time>2012-12-31T21:39:34Z</time>
      </trkpt>
      <trkpt lat="45.90293" lon="6.49051">
        <ele>2063.3</ele>
        <time>2012-12-31T21:39:36Z</time>
      </trkpt>
      <trkpt lat="45.90295" lon="6.49033">
        <ele>2059.7</ele>
        <time>2012-12-31T21:39:38Z</time>
      </trkpt>
      <trkpt lat="45.90306" lon="6.49019">
        <ele>2056.2</ele>
        <time>2012-12-31T21:39:40Z</time>
      </trkpt>
      <trkpt lat="45.90312" lon="6.4901">
        <ele>2052.6</ele>
        <time>2012-12-31T21:39:44Z</time>
      </trkpt>
      <trkpt lat="45.9033" lon="6.49011">
        <ele>2049.1</ele>
        <time>2012-12-31T21:39:47Z</time>
      </trkpt>
      <trkpt lat="45.90339" lon="6.49012">
        <ele>2044</ele>
        <time>2012-12-31T21:39:48Z</time>
      </trkpt>
      <trkpt lat="45.9035" lon="6.49009">
        <ele>2041</ele>
        <time>2012-12-31T21:39:50Z</time>
      </trkpt>
      <trkpt lat="45.90357" lon="6.48999">
        <ele>2038.2</ele>
        <time>2012-12-31T21:39:53Z</time>
      </trkpt>
      <trkpt lat="45.9036" lon="6.48989">
        <ele>2035.4</ele>
        <time>2012-12-31T21:39:54Z</time>
      </trkpt>
      <trkpt lat="45.90363" lon="6.48976">
        <ele>2032.5</ele>
        <time>2012-12-31T21:39:56Z</time>
      </trkpt>
      <trkpt lat="45.90367" lon="6.48963">
        <ele>2029.7</ele>
        <time>2012-12-31T21:39:58Z</time>
      </trkpt>
      <trkpt lat="45.90379" lon="6.48948">
        <ele>2024.1</ele>
        <time>2012-12-31T21:40:01Z</time>
      </trkpt>
      <trkpt lat="45.90383" lon="6.48935">
        <ele>2018.5</ele>
        <time>2012-12-31T21:40:03Z</time>
      </trkpt>
      <trkpt lat="45.90388" lon="6.48924">
        <ele>2012.8</ele>
        <time>2012-12-31T21:40:06Z</time>
      </trkpt>
      <trkpt lat="45.90392" lon="6.48912">
        <ele>2007.6</ele>
        <time>2012-12-31T21:40:08Z</time>
      </trkpt>
      <trkpt lat="45.90397" lon="6.48898">
        <ele>2002</ele>
        <time>2012-12-31T21:40:11Z</time>
      </trkpt>
      <trkpt lat="45.90385" lon="6.48884">
        <ele>1999.4</ele>
        <time>2012-12-31T21:40:13Z</time>
      </trkpt>
      <trkpt lat="45.90384" lon="6.48868">
        <ele>1997.9</ele>
        <time>2012-12-31T21:40:15Z</time>
      </trkpt>
      <trkpt lat="45.90384" lon="6.48852">
        <ele>1995.9</ele>
        <time>2012-12-31T21:40:17Z</time>
      </trkpt>
      <trkpt lat="45.90376" lon="6.48847">
        <ele>1993.4</ele>
        <time>2012-12-31T21:40:25Z</time>
      </trkpt>
      <trkpt lat="45.90384" lon="6.4885">
        <ele>1990.1</ele>
        <time>2012-12-31T21:40:41Z</time>
      </trkpt>
      <trkpt lat="45.90384" lon="6.48851">
        <ele>1985.8</ele>
        <time>2012-12-31T21:40:46Z</time>
      </trkpt>
      <trkpt lat="45.9039" lon="6.48843">
        <ele>1985</ele>
        <time>2012-12-31T21:41:24Z</time>
      </trkpt>
      <trkpt lat="45.9039" lon="6.48843">
        <ele>1985</ele>
        <time>2012-12-31T21:41:24Z</time>
      </trkpt>
      <trkpt lat="45.90393" lon="6.48851">
        <ele>1985</ele>
        <time>2012-12-31T21:41:45Z</time>
      </trkpt>
      <trkpt lat="45.90395" lon="6.48852">
        <ele>1985</ele>
        <time>2012-12-31T21:43:38Z</time>
      </trkpt>
      <trkpt lat="45.90395" lon="6.48852">
        <ele>1985</ele>
        <time>2012-12-31T21:43:38Z</time>
      </trkpt>
      <trkpt lat="45.90395" lon="6.48852">
        <ele>1985</ele>
        <time>2012-12-31T21:43:39Z</time>
      </trkpt>
      <trkpt lat="45.90404" lon="6.48851">
        <ele>1976.2</ele>
        <time>2012-12-31T21:45:41Z</time>
      </trkpt>
      <trkpt lat="45.90404" lon="6.48851">
        <ele>1969.9</ele>
        <time>2012-12-31T21:45:41Z</time>
      </trkpt>
      <trkpt lat="45.9041" lon="6.4884">
        <ele>1965.1</ele>
        <time>2012-12-31T21:45:45Z</time>
      </trkpt>
      <trkpt lat="45.90405" lon="6.48824">
        <ele>1961.4</ele>
        <time>2012-12-31T21:45:48Z</time>
      </trkpt>
      <trkpt lat="45.90398" lon="6.48814">
        <ele>1961.4</ele>
        <time>2012-12-31T21:45:50Z</time>
      </trkpt>
      <trkpt lat="45.90398" lon="6.48801">
        <ele>1961.4</ele>
        <time>2012-12-31T21:45:54Z</time>
      </trkpt>
      <trkpt lat="45.90408" lon="6.48798">
        <ele>1958.5</ele>
        <time>2012-12-31T21:45:58Z</time>
      </trkpt>
      <trkpt lat="45.90418" lon="6.488">
        <ele>1954.7</ele>
        <time>2012-12-31T21:46:02Z</time>
      </trkpt>
      <trkpt lat="45.90425" lon="6.48804">
        <ele>1949.7</ele>
        <time>2012-12-31T21:46:14Z</time>
      </trkpt>
      <trkpt lat="45.90428" lon="6.488">
        <ele>1932</ele>
        <time>2012-12-31T21:46:30Z</time>
      </trkpt>
      <trkpt lat="45.90428" lon="6.488">
        <ele>1932</ele>
        <time>2012-12-31T21:46:30Z</time>
      </trkpt>
      <trkpt lat="45.90429" lon="6.48786">
        <ele>1932</ele>
        <time>2012-12-31T21:46:32Z</time>
      </trkpt>
      <trkpt lat="45.90431" lon="6.48774">
        <ele>1932</ele>
        <time>2012-12-31T21:46:33Z</time>
      </trkpt>
      <trkpt lat="45.90437" lon="6.48766">
        <ele>1935.8</ele>
        <time>2012-12-31T21:46:35Z</time>
      </trkpt>
      <trkpt lat="45.90448" lon="6.48767">
        <ele>1933.5</ele>
        <time>2012-12-31T21:46:37Z</time>
      </trkpt>
      <trkpt lat="45.90455" lon="6.4876">
        <ele>1931.5</ele>
        <time>2012-12-31T21:46:39Z</time>
      </trkpt>
      <trkpt lat="45.90458" lon="6.48747">
        <ele>1929.5</ele>
        <time>2012-12-31T21:46:41Z</time>
      </trkpt>
      <trkpt lat="45.9046" lon="6.4873">
        <ele>1927.5</ele>
        <time>2012-12-31T21:46:43Z</time>
      </trkpt>
      <trkpt lat="45.90469" lon="6.48728">
        <ele>1925.5</ele>
        <time>2012-12-31T21:46:45Z</time>
      </trkpt>
      <trkpt lat="45.90472" lon="6.48716">
        <ele>1923.5</ele>
        <time>2012-12-31T21:46:48Z</time>
      </trkpt>
      <trkpt lat="45.90475" lon="6.48704">
        <ele>1921.5</ele>
        <time>2012-12-31T21:46:53Z</time>
      </trkpt>
      <trkpt lat="45.9048" lon="6.48689">
        <ele>1914.5</ele>
        <time>2012-12-31T21:46:57Z</time>
      </trkpt>
      <trkpt lat="45.90484" lon="6.48676">
        <ele>1907.6</ele>
        <time>2012-12-31T21:47:00Z</time>
      </trkpt>
      <trkpt lat="45.90488" lon="6.48665">
        <ele>1900.7</ele>
        <time>2012-12-31T21:47:05Z</time>
      </trkpt>
      <trkpt lat="45.90487" lon="6.4865">
        <ele>1890.4</ele>
        <time>2012-12-31T21:47:08Z</time>
      </trkpt>
      <trkpt lat="45.90487" lon="6.48638">
        <ele>1885.5</ele>
        <time>2012-12-31T21:47:10Z</time>
      </trkpt>
      <trkpt lat="45.90488" lon="6.48624">
        <ele>1880.5</ele>
        <time>2012-12-31T21:47:13Z</time>
      </trkpt>
      <trkpt lat="45.90485" lon="6.48612">
        <ele>1875.6</ele>
        <time>2012-12-31T21:47:16Z</time>
      </trkpt>
      <trkpt lat="45.90477" lon="6.48601">
        <ele>1870.7</ele>
        <time>2012-12-31T21:47:19Z</time>
      </trkpt>
      <trkpt lat="45.90475" lon="6.48587">
        <ele>1866.8</ele>
        <time>2012-12-31T21:47:22Z</time>
      </trkpt>
      <trkpt lat="45.90479" lon="6.48576">
        <ele>1862</ele>
        <time>2012-12-31T21:47:25Z</time>
      </trkpt>
      <trkpt lat="45.90487" lon="6.48571">
        <ele>1856</ele>
        <time>2012-12-31T21:47:29Z</time>
      </trkpt>
      <trkpt lat="45.90492" lon="6.4858">
        <ele>1856</ele>
        <time>2012-12-31T21:47:40Z</time>
      </trkpt>
      <trkpt lat="45.90499" lon="6.48583">
        <ele>1856</ele>
        <time>2012-12-31T21:48:06Z</time>
      </trkpt>
      <trkpt lat="45.90501" lon="6.48576">
        <ele>1847.5</ele>
        <time>2012-12-31T21:48:11Z</time>
      </trkpt>
      <trkpt lat="45.90501" lon="6.48576">
        <ele>1841.4</ele>
        <time>2012-12-31T21:48:11Z</time>
      </trkpt>
      <trkpt lat="45.90495" lon="6.48567">
        <ele>1836.9</ele>
        <time>2012-12-31T21:48:22Z</time>
      </trkpt>
      <trkpt lat="45.90487" lon="6.48562">
        <ele>1837.4</ele>
        <time>2012-12-31T21:48:33Z</time>
      </trkpt>
      <trkpt lat="45.90481" lon="6.48553">
        <ele>1837.9</ele>
        <time>2012-12-31T21:48:36Z</time>
      </trkpt>
      <trkpt lat="45.90475" lon="6.48541">
        <ele>1834.9</ele>
        <time>2012-12-31T21:48:39Z</time>
      </trkpt>
      <trkpt lat="45.90472" lon="6.48527">
        <ele>1830.3</ele>
        <time>2012-12-31T21:48:47Z</time>
      </trkpt>
      <trkpt lat="45.90466" lon="6.48518">
        <ele>1825.6</ele>
        <time>2012-12-31T21:48:58Z</time>
      </trkpt>
      <trkpt lat="45.90461" lon="6.48509">
        <ele>1819.5</ele>
        <time>2012-12-31T21:49:04Z</time>
      </trkpt>
      <trkpt lat="45.90462" lon="6.48497">
        <ele>1813.3</ele>
        <time>2012-12-31T21:49:16Z</time>
      </trkpt>
      <trkpt lat="45.90469" lon="6.48489">
        <ele>1809</ele>
        <time>2012-12-31T21:49:22Z</time>
      </trkpt>
      <trkpt lat="45.90474" lon="6.48473">
        <ele>1809.4</ele>
        <time>2012-12-31T21:49:24Z</time>
      </trkpt>
      <trkpt lat="45.9048" lon="6.48463">
        <ele>1810</ele>
        <time>2012-12-31T21:49:26Z</time>
      </trkpt>
      <trkpt lat="45.90492" lon="6.4846">
        <ele>1810.7</ele>
        <time>2012-12-31T21:49:29Z</time>
      </trkpt>
      <trkpt lat="45.90491" lon="6.4845">
        <ele>1805.5</ele>
        <time>2012-12-31T21:49:43Z</time>
      </trkpt>
      <trkpt lat="45.90492" lon="6.48446">
        <ele>1788</ele>
        <time>2012-12-31T21:49:48Z</time>
      </trkpt>
      <trkpt lat="45.90492" lon="6.48446">
        <ele>1788</ele>
        <time>2012-12-31T21:49:48Z</time>
      </trkpt>
      <trkpt lat="45.90497" lon="6.48431">
        <ele>1788</ele>
        <time>2012-12-31T21:49:51Z</time>
      </trkpt>
      <trkpt lat="45.90504" lon="6.48419">
        <ele>1786.1</ele>
        <time>2012-12-31T21:49:54Z</time>
      </trkpt>
      <trkpt lat="45.90512" lon="6.48408">
        <ele>1784.6</ele>
        <time>2012-12-31T21:49:57Z</time>
      </trkpt>
      <trkpt lat="45.90522" lon="6.48407">
        <ele>1781.4</ele>
        <time>2012-12-31T21:49:59Z</time>
      </trkpt>
      <trkpt lat="45.90532" lon="6.48407">
        <ele>1776.5</ele>
        <time>2012-12-31T21:50:01Z</time>
      </trkpt>
      <trkpt lat="45.90541" lon="6.48409">
        <ele>1771.5</ele>
        <time>2012-12-31T21:50:03Z</time>
      </trkpt>
      <trkpt lat="45.90546" lon="6.484">
        <ele>1766.6</ele>
        <time>2012-12-31T21:50:06Z</time>
      </trkpt>
      <trkpt lat="45.90546" lon="6.48387">
        <ele>1761.7</ele>
        <time>2012-12-31T21:50:09Z</time>
      </trkpt>
      <trkpt lat="45.90544" lon="6.48376">
        <ele>1756.8</ele>
        <time>2012-12-31T21:50:12Z</time>
      </trkpt>
      <trkpt lat="45.90552" lon="6.48369">
        <ele>1751.9</ele>
        <time>2012-12-31T21:50:14Z</time>
      </trkpt>
      <trkpt lat="45.90559" lon="6.48356">
        <ele>1747</ele>
        <time>2012-12-31T21:50:16Z</time>
      </trkpt>
      <trkpt lat="45.90566" lon="6.48341">
        <ele>1742.9</ele>
        <time>2012-12-31T21:50:18Z</time>
      </trkpt>
      <trkpt lat="45.90578" lon="6.48337">
        <ele>1739.8</ele>
        <time>2012-12-31T21:50:20Z</time>
      </trkpt>
      <trkpt lat="45.90581" lon="6.48323">
        <ele>1735.9</ele>
        <time>2012-12-31T21:50:21Z</time>
      </trkpt>
      <trkpt lat="45.90579" lon="6.48309">
        <ele>1734</ele>
        <time>2012-12-31T21:50:23Z</time>
      </trkpt>
      <trkpt lat="45.90577" lon="6.48312">
        <ele>1734</ele>
        <time>2012-12-31T21:50:40Z</time>
      </trkpt>
      <trkpt lat="45.90582" lon="6.48295">
        <ele>1707</ele>
        <time>2012-12-31T21:50:55Z</time>
      </trkpt>
      <trkpt lat="45.90582" lon="6.48295">
        <ele>1707</ele>
        <time>2012-12-31T21:50:55Z</time>
      </trkpt>
      <trkpt lat="45.90585" lon="6.48281">
        <ele>1707</ele>
        <time>2012-12-31T21:50:57Z</time>
      </trkpt>
      <trkpt lat="45.90598" lon="6.48272">
        <ele>1704</ele>
        <time>2012-12-31T21:50:59Z</time>
      </trkpt>
      <trkpt lat="45.90605" lon="6.48258">
        <ele>1701.6</ele>
        <time>2012-12-31T21:51:01Z</time>
      </trkpt>
      <trkpt lat="45.90613" lon="6.48246">
        <ele>1698.8</ele>
        <time>2012-12-31T21:51:03Z</time>
      </trkpt>
      <trkpt lat="45.90616" lon="6.48233">
        <ele>1696.4</ele>
        <time>2012-12-31T21:51:17Z</time>
      </trkpt>
      <trkpt lat="45.90617" lon="6.48219">
        <ele>1693.9</ele>
        <time>2012-12-31T21:51:19Z</time>
      </trkpt>
      <trkpt lat="45.90624" lon="6.48204">
        <ele>1690.6</ele>
        <time>2012-12-31T21:51:21Z</time>
      </trkpt>
      <trkpt lat="45.90627" lon="6.48192">
        <ele>1684.3</ele>
        <time>2012-12-31T21:51:23Z</time>
      </trkpt>
      <trkpt lat="45.90634" lon="6.48183">
        <ele>1677.9</ele>
        <time>2012-12-31T21:51:25Z</time>
      </trkpt>
      <trkpt lat="45.90623" lon="6.48169">
        <ele>1671.5</ele>
        <time>2012-12-31T21:51:30Z</time>
      </trkpt>
      <trkpt lat="45.90626" lon="6.48156">
        <ele>1665.2</ele>
        <time>2012-12-31T21:51:34Z</time>
      </trkpt>
      <trkpt lat="45.9063" lon="6.48141">
        <ele>1658.8</ele>
        <time>2012-12-31T21:51:37Z</time>
      </trkpt>
      <trkpt lat="45.90634" lon="6.48131">
        <ele>1654.9</ele>
        <time>2012-12-31T21:51:39Z</time>
      </trkpt>
      <trkpt lat="45.90638" lon="6.48114">
        <ele>1651</ele>
        <time>2012-12-31T21:51:42Z</time>
      </trkpt>
      <trkpt lat="45.90641" lon="6.48101">
        <ele>1647.9</ele>
        <time>2012-12-31T21:51:45Z</time>
      </trkpt>
      <trkpt lat="45.90648" lon="6.48086">
        <ele>1644</ele>
        <time>2012-12-31T21:51:53Z</time>
      </trkpt>
      <trkpt lat="45.90653" lon="6.48073">
        <ele>1640.1</ele>
        <time>2012-12-31T21:51:55Z</time>
      </trkpt>
      <trkpt lat="45.90661" lon="6.48066">
        <ele>1634.7</ele>
        <time>2012-12-31T21:52:00Z</time>
      </trkpt>
      <trkpt lat="45.90673" lon="6.48065">
        <ele>1632.5</ele>
        <time>2012-12-31T21:52:04Z</time>
      </trkpt>
      <trkpt lat="45.90681" lon="6.48069">
        <ele>1630.2</ele>
        <time>2012-12-31T21:52:05Z</time>
      </trkpt>
      <trkpt lat="45.90693" lon="6.48068">
        <ele>1627.9</ele>
        <time>2012-12-31T21:52:07Z</time>
      </trkpt>
      <trkpt lat="45.90702" lon="6.48064">
        <ele>1625.6</ele>
        <time>2012-12-31T21:52:09Z</time>
      </trkpt>
      <trkpt lat="45.90695" lon="6.48048">
        <ele>1623.4</ele>
        <time>2012-12-31T21:52:11Z</time>
      </trkpt>
      <trkpt lat="45.90694" lon="6.48035">
        <ele>1621.1</ele>
        <time>2012-12-31T21:52:14Z</time>
      </trkpt>
      <trkpt lat="45.90693" lon="6.48022">
        <ele>1618.8</ele>
        <time>2012-12-31T21:52:17Z</time>
      </trkpt>
      <trkpt lat="45.90689" lon="6.48011">
        <ele>1612.7</ele>
        <time>2012-12-31T21:52:21Z</time>
      </trkpt>
      <trkpt lat="45.90696" lon="6.48004">
        <ele>1606.6</ele>
        <time>2012-12-31T21:52:25Z</time>
      </trkpt>
      <trkpt lat="45.90701" lon="6.47993">
        <ele>1600.5</ele>
        <time>2012-12-31T21:52:27Z</time>
      </trkpt>
      <trkpt lat="45.90706" lon="6.47982">
        <ele>1596.7</ele>
        <time>2012-12-31T21:52:29Z</time>
      </trkpt>
      <trkpt lat="45.90708" lon="6.4797">
        <ele>1592.9</ele>
        <time>2012-12-31T21:52:31Z</time>
      </trkpt>
      <trkpt lat="45.90713" lon="6.47959">
        <ele>1589.1</ele>
        <time>2012-12-31T21:52:34Z</time>
      </trkpt>
      <trkpt lat="45.90718" lon="6.47945">
        <ele>1582.8</ele>
        <time>2012-12-31T21:52:36Z</time>
      </trkpt>
      <trkpt lat="45.90725" lon="6.47929">
        <ele>1576.5</ele>
        <time>2012-12-31T21:52:39Z</time>
      </trkpt>
      <trkpt lat="45.90734" lon="6.47918">
        <ele>1570.3</ele>
        <time>2012-12-31T21:52:42Z</time>
      </trkpt>
      <trkpt lat="45.90726" lon="6.479">
        <ele>1564</ele>
        <time>2012-12-31T21:52:44Z</time>
      </trkpt>
      <trkpt lat="45.90726" lon="6.47887">
        <ele>1557.7</ele>
        <time>2012-12-31T21:52:46Z</time>
      </trkpt>
      <trkpt lat="45.90726" lon="6.47873">
        <ele>1555.3</ele>
        <time>2012-12-31T21:52:48Z</time>
      </trkpt>
      <trkpt lat="45.90733" lon="6.47861">
        <ele>1552.8</ele>
        <time>2012-12-31T21:52:50Z</time>
      </trkpt>
      <trkpt lat="45.90726" lon="6.47847">
        <ele>1550.4</ele>
        <time>2012-12-31T21:52:54Z</time>
      </trkpt>
      <trkpt lat="45.9072" lon="6.47838">
        <ele>1547.9</ele>
        <time>2012-12-31T21:52:56Z</time>
      </trkpt>
      <trkpt lat="45.90719" lon="6.47826">
        <ele>1542.7</ele>
        <time>2012-12-31T21:52:58Z</time>
      </trkpt>
      <trkpt lat="45.90729" lon="6.47831">
        <ele>1537.5</ele>
        <time>2012-12-31T21:52:59Z</time>
      </trkpt>
      <trkpt lat="45.90738" lon="6.47824">
        <ele>1534.8</ele>
        <time>2012-12-31T21:53:01Z</time>
      </trkpt>
      <trkpt lat="45.90745" lon="6.47817">
        <ele>1532.1</ele>
        <time>2012-12-31T21:53:03Z</time>
      </trkpt>
      <trkpt lat="45.90754" lon="6.47806">
        <ele>1529.4</ele>
        <time>2012-12-31T21:53:05Z</time>
      </trkpt>
      <trkpt lat="45.90759" lon="6.47795">
        <ele>1526.6</ele>
        <time>2012-12-31T21:53:07Z</time>
      </trkpt>
      <trkpt lat="45.90769" lon="6.47797">
        <ele>1522.7</ele>
        <time>2012-12-31T21:53:15Z</time>
      </trkpt>
      <trkpt lat="45.90779" lon="6.47792">
        <ele>1518.8</ele>
        <time>2012-12-31T21:53:31Z</time>
      </trkpt>
      <trkpt lat="45.90783" lon="6.47782">
        <ele>1514.9</ele>
        <time>2012-12-31T21:53:48Z</time>
      </trkpt>
      <trkpt lat="45.90784" lon="6.47769">
        <ele>1511</ele>
        <time>2012-12-31T21:53:56Z</time>
      </trkpt>
      <trkpt lat="45.90789" lon="6.4776">
        <ele>1507.1</ele>
        <time>2012-12-31T21:54:03Z</time>
      </trkpt>
      <trkpt lat="45.90798" lon="6.47761">
        <ele>1505.9</ele>
        <time>2012-12-31T21:54:06Z</time>
      </trkpt>
      <trkpt lat="45.9081" lon="6.47763">
        <ele>1504.7</ele>
        <time>2012-12-31T21:54:09Z</time>
      </trkpt>
      <trkpt lat="45.90825" lon="6.47764">
        <ele>1503.5</ele>
        <time>2012-12-31T21:54:10Z</time>
      </trkpt>
      <trkpt lat="45.90837" lon="6.47765">
        <ele>1499</ele>
        <time>2012-12-31T21:54:12Z</time>
      </trkpt>
      <trkpt lat="45.90845" lon="6.47759">
        <ele>1494.5</ele>
        <time>2012-12-31T21:54:14Z</time>
      </trkpt>
      <trkpt lat="45.90851" lon="6.47749">
        <ele>1489.9</ele>
        <time>2012-12-31T21:54:18Z</time>
      </trkpt>
      <trkpt lat="45.90843" lon="6.47745">
        <ele>1486.5</ele>
        <time>2012-12-31T21:54:24Z</time>
      </trkpt>
      <trkpt lat="45.90836" lon="6.47732">
        <ele>1483.2</ele>
        <time>2012-12-31T21:54:28Z</time>
      </trkpt>
      <trkpt lat="45.90835" lon="6.47719">
        <ele>1479.8</ele>
        <time>2012-12-31T21:54:29Z</time>
      </trkpt>
      <trkpt lat="45.90827" lon="6.47709">
        <ele>1476.5</ele>
        <time>2012-12-31T21:54:32Z</time>
      </trkpt>
      <trkpt lat="45.90819" lon="6.47704">
        <ele>1473.1</ele>
        <time>2012-12-31T21:54:35Z</time>
      </trkpt>
      <trkpt lat="45.90809" lon="6.47697">
        <ele>1469.7</ele>
        <time>2012-12-31T21:54:37Z</time>
      </trkpt>
      <trkpt lat="45.90813" lon="6.47682">
        <ele>1466.4</ele>
        <time>2012-12-31T21:54:40Z</time>
      </trkpt>
      <trkpt lat="45.90816" lon="6.47671">
        <ele>1460.2</ele>
        <time>2012-12-31T21:54:42Z</time>
      </trkpt>
      <trkpt lat="45.90824" lon="6.47662">
        <ele>1457.4</ele>
        <time>2012-12-31T21:54:45Z</time>
      </trkpt>
      <trkpt lat="45.90831" lon="6.47651">
        <ele>1454.5</ele>
        <time>2012-12-31T21:54:48Z</time>
      </trkpt>
      <trkpt lat="45.90823" lon="6.47645">
        <ele>1451.7</ele>
        <time>2012-12-31T21:54:52Z</time>
      </trkpt>
      <trkpt lat="45.90816" lon="6.47637">
        <ele>1448.9</ele>
        <time>2012-12-31T21:54:56Z</time>
      </trkpt>
      <trkpt lat="45.90802" lon="6.4761">
        <ele>1446.1</ele>
        <time>2012-12-31T21:54:59Z</time>
      </trkpt>
      <trkpt lat="45.90797" lon="6.47596">
        <ele>1443.3</ele>
        <time>2012-12-31T21:55:01Z</time>
      </trkpt>
      <trkpt lat="45.90804" lon="6.47587">
        <ele>1440.5</ele>
        <time>2012-12-31T21:55:03Z</time>
      </trkpt>
      <trkpt lat="45.90804" lon="6.47576">
        <ele>1435.5</ele>
        <time>2012-12-31T21:55:14Z</time>
      </trkpt>
      <trkpt lat="45.90805" lon="6.47562">
        <ele>1432.6</ele>
        <time>2012-12-31T21:55:19Z</time>
      </trkpt>
      <trkpt lat="45.90814" lon="6.47557">
        <ele>1429.8</ele>
        <time>2012-12-31T21:55:23Z</time>
      </trkpt>
      <trkpt lat="45.90826" lon="6.47559">
        <ele>1427.6</ele>
        <time>2012-12-31T21:55:25Z</time>
      </trkpt>
      <trkpt lat="45.90834" lon="6.47555">
        <ele>1425.5</ele>
        <time>2012-12-31T21:55:27Z</time>
      </trkpt>
      <trkpt lat="45.9083" lon="6.47543">
        <ele>1423.3</ele>
        <time>2012-12-31T21:55:29Z</time>
      </trkpt>
      <trkpt lat="45.90843" lon="6.4755">
        <ele>1421.1</ele>
        <time>2012-12-31T21:55:31Z</time>
      </trkpt>
      <trkpt lat="45.90852" lon="6.47549">
        <ele>1418.9</ele>
        <time>2012-12-31T21:55:33Z</time>
      </trkpt>
      <trkpt lat="45.90855" lon="6.47534">
        <ele>1416.7</ele>
        <time>2012-12-31T21:55:35Z</time>
      </trkpt>
      <trkpt lat="45.90861" lon="6.47525">
        <ele>1412.4</ele>
        <time>2012-12-31T21:55:37Z</time>
      </trkpt>
      <trkpt lat="45.90855" lon="6.47508">
        <ele>1408</ele>
        <time>2012-12-31T21:55:39Z</time>
      </trkpt>
      <trkpt lat="45.90863" lon="6.47504">
        <ele>1405.8</ele>
        <time>2012-12-31T21:55:40Z</time>
      </trkpt>
      <trkpt lat="45.90863" lon="6.47486">
        <ele>1401.5</ele>
        <time>2012-12-31T21:55:43Z</time>
      </trkpt>
      <trkpt lat="45.9087" lon="6.47474">
        <ele>1397.1</ele>
        <time>2012-12-31T21:55:47Z</time>
      </trkpt>
      <trkpt lat="45.90868" lon="6.47459">
        <ele>1394.9</ele>
        <time>2012-12-31T21:55:49Z</time>
      </trkpt>
      <trkpt lat="45.90879" lon="6.47451">
        <ele>1390.9</ele>
        <time>2012-12-31T21:55:52Z</time>
      </trkpt>
      <trkpt lat="45.90874" lon="6.47427">
        <ele>1386.9</ele>
        <time>2012-12-31T21:55:55Z</time>
      </trkpt>
      <trkpt lat="45.90874" lon="6.47407">
        <ele>1382.9</ele>
        <time>2012-12-31T21:55:57Z</time>
      </trkpt>
      <trkpt lat="45.90876" lon="6.4739">
        <ele>1378.9</ele>
        <time>2012-12-31T21:55:59Z</time>
      </trkpt>
      <trkpt lat="45.90869" lon="6.4738">
        <ele>1373.5</ele>
        <time>2012-12-31T21:56:01Z</time>
      </trkpt>
      <trkpt lat="45.90868" lon="6.47369">
        <ele>1370.2</ele>
        <time>2012-12-31T21:56:09Z</time>
      </trkpt>
      <trkpt lat="45.90858" lon="6.47348">
        <ele>1366.9</ele>
        <time>2012-12-31T21:56:11Z</time>
      </trkpt>
      <trkpt lat="45.90858" lon="6.47331">
        <ele>1363.6</ele>
        <time>2012-12-31T21:56:12Z</time>
      </trkpt>
      <trkpt lat="45.9086" lon="6.47312">
        <ele>1360.4</ele>
        <time>2012-12-31T21:56:13Z</time>
      </trkpt>
      <trkpt lat="45.90862" lon="6.47297">
        <ele>1356.2</ele>
        <time>2012-12-31T21:56:14Z</time>
      </trkpt>
      <trkpt lat="45.90862" lon="6.47281">
        <ele>1352</ele>
        <time>2012-12-31T21:56:15Z</time>
      </trkpt>
      <trkpt lat="45.90862" lon="6.47262">
        <ele>1349.6</ele>
        <time>2012-12-31T21:56:16Z</time>
      </trkpt>
      <trkpt lat="45.90863" lon="6.47247">
        <ele>1346.7</ele>
        <time>2012-12-31T21:56:17Z</time>
      </trkpt>
      <trkpt lat="45.90866" lon="6.47232">
        <ele>1343.8</ele>
        <time>2012-12-31T21:56:18Z</time>
      </trkpt>
      <trkpt lat="45.90871" lon="6.47207">
        <ele>1340.9</ele>
        <time>2012-12-31T21:56:20Z</time>
      </trkpt>
      <trkpt lat="45.90875" lon="6.47195">
        <ele>1338.5</ele>
        <time>2012-12-31T21:56:21Z</time>
      </trkpt>
      <trkpt lat="45.90878" lon="6.47182">
        <ele>1336.2</ele>
        <time>2012-12-31T21:56:22Z</time>
      </trkpt>
      <trkpt lat="45.90883" lon="6.4717">
        <ele>1333.8</ele>
        <time>2012-12-31T21:56:23Z</time>
      </trkpt>
      <trkpt lat="45.9089" lon="6.4715">
        <ele>1331.5</ele>
        <time>2012-12-31T21:56:25Z</time>
      </trkpt>
      <trkpt lat="45.90901" lon="6.47142">
        <ele>1329.1</ele>
        <time>2012-12-31T21:56:27Z</time>
      </trkpt>
      <trkpt lat="45.90905" lon="6.47123">
        <ele>1327.6</ele>
        <time>2012-12-31T21:56:29Z</time>
      </trkpt>
      <trkpt lat="45.90908" lon="6.47111">
        <ele>1326.2</ele>
        <time>2012-12-31T21:56:30Z</time>
      </trkpt>
      <trkpt lat="45.90912" lon="6.47097">
        <ele>1325.5</ele>
        <time>2012-12-31T21:56:31Z</time>
      </trkpt>
      <trkpt lat="45.90917" lon="6.47085">
        <ele>1325.5</ele>
        <time>2012-12-31T21:56:32Z</time>
      </trkpt>
      <trkpt lat="45.90921" lon="6.47074">
        <ele>1325.4</ele>
        <time>2012-12-31T21:56:34Z</time>
      </trkpt>
      <trkpt lat="45.90927" lon="6.47064">
        <ele>1325.3</ele>
        <time>2012-12-31T21:56:35Z</time>
      </trkpt>
      <trkpt lat="45.90934" lon="6.47055">
        <ele>1324.2</ele>
        <time>2012-12-31T21:56:36Z</time>
      </trkpt>
      <trkpt lat="45.90941" lon="6.47048">
        <ele>1323.1</ele>
        <time>2012-12-31T21:56:37Z</time>
      </trkpt>
      <trkpt lat="45.90949" lon="6.47042">
        <ele>1322</ele>
        <time>2012-12-31T21:56:38Z</time>
      </trkpt>
      <trkpt lat="45.90955" lon="6.47033">
        <ele>1320.9</ele>
        <time>2012-12-31T21:56:39Z</time>
      </trkpt>
      <trkpt lat="45.90962" lon="6.47023">
        <ele>1319.2</ele>
        <time>2012-12-31T21:56:40Z</time>
      </trkpt>
      <trkpt lat="45.90968" lon="6.47016">
        <ele>1317.5</ele>
        <time>2012-12-31T21:56:41Z</time>
      </trkpt>
      <trkpt lat="45.90972" lon="6.47003">
        <ele>1315.7</ele>
        <time>2012-12-31T21:56:42Z</time>
      </trkpt>
      <trkpt lat="45.9098" lon="6.46986">
        <ele>1313.2</ele>
        <time>2012-12-31T21:56:44Z</time>
      </trkpt>
      <trkpt lat="45.90988" lon="6.46971">
        <ele>1310.6</ele>
        <time>2012-12-31T21:56:46Z</time>
      </trkpt>
      <trkpt lat="45.90992" lon="6.46961">
        <ele>1308.1</ele>
        <time>2012-12-31T21:56:47Z</time>
      </trkpt>
      <trkpt lat="45.90998" lon="6.46951">
        <ele>1305.1</ele>
        <time>2012-12-31T21:56:48Z</time>
      </trkpt>
      <trkpt lat="45.91004" lon="6.46939">
        <ele>1304</ele>
        <time>2012-12-31T21:56:49Z</time>
      </trkpt>
      <trkpt lat="45.91012" lon="6.46929">
        <ele>1302.9</ele>
        <time>2012-12-31T21:56:50Z</time>
      </trkpt>
      <trkpt lat="45.9102" lon="6.46908">
        <ele>1301.8</ele>
        <time>2012-12-31T21:56:52Z</time>
      </trkpt>
      <trkpt lat="45.9103" lon="6.46893">
        <ele>1300.7</ele>
        <time>2012-12-31T21:56:54Z</time>
      </trkpt>
      <trkpt lat="45.9103" lon="6.46881">
        <ele>1300</ele>
        <time>2012-12-31T21:56:55Z</time>
      </trkpt>
      <trkpt lat="45.91031" lon="6.46869">
        <ele>1299.3</ele>
        <time>2012-12-31T21:56:56Z</time>
      </trkpt>
      <trkpt lat="45.91031" lon="6.46854">
        <ele>1298.5</ele>
        <time>2012-12-31T21:56:57Z</time>
      </trkpt>
      <trkpt lat="45.91031" lon="6.4684">
        <ele>1297.5</ele>
        <time>2012-12-31T21:56:58Z</time>
      </trkpt>
      <trkpt lat="45.91037" lon="6.46819">
        <ele>1296.7</ele>
        <time>2012-12-31T21:57:00Z</time>
      </trkpt>
      <trkpt lat="45.91046" lon="6.46804">
        <ele>1296.1</ele>
        <time>2012-12-31T21:57:02Z</time>
      </trkpt>
      <trkpt lat="45.91053" lon="6.46789">
        <ele>1295.9</ele>
        <time>2012-12-31T21:57:04Z</time>
      </trkpt>
      <trkpt lat="45.91054" lon="6.46774">
        <ele>1295.6</ele>
        <time>2012-12-31T21:57:06Z</time>
      </trkpt>
      <trkpt lat="45.91045" lon="6.46772">
        <ele>1295.3</ele>
        <time>2012-12-31T21:57:16Z</time>
      </trkpt>
      <trkpt lat="45.91046" lon="6.46772">
        <ele>1294.8</ele>
        <time>2012-12-31T21:57:26Z</time>
      </trkpt>
      <trkpt lat="45.91044" lon="6.4676">
        <ele>1289.8</ele>
        <time>2012-12-31T21:57:56Z</time>
      </trkpt>
      <trkpt lat="45.91044" lon="6.4676">
        <ele>1289</ele>
        <time>2012-12-31T21:57:56Z</time>
      </trkpt>
      <trkpt lat="45.91045" lon="6.46749">
        <ele>1289</ele>
        <time>2012-12-31T21:58:02Z</time>
      </trkpt>
      <trkpt lat="45.91044" lon="6.46734">
        <ele>1289</ele>
        <time>2012-12-31T21:58:06Z</time>
      </trkpt>
      <trkpt lat="45.91042" lon="6.46722">
        <ele>1289</ele>
        <time>2012-12-31T21:58:09Z</time>
      </trkpt>
      <trkpt lat="45.91038" lon="6.46711">
        <ele>1289</ele>
        <time>2012-12-31T21:58:13Z</time>
      </trkpt>
      <trkpt lat="45.91034" lon="6.46707">
        <ele>1288.7</ele>
        <time>2012-12-31T21:58:25Z</time>
      </trkpt>
      <trkpt lat="45.91031" lon="6.46704">
        <ele>1284</ele>
        <time>2012-12-31T21:59:03Z</time>
      </trkpt>
      <trkpt lat="45.91031" lon="6.46704">
        <ele>1284</ele>
        <time>2012-12-31T21:59:03Z</time>
      </trkpt>
      <trkpt lat="45.91025" lon="6.467">
        <ele>1284</ele>
        <time>2012-12-31T21:59:17Z</time>
      </trkpt>
      <trkpt lat="45.91026" lon="6.46694">
        <ele>1284</ele>
        <time>2012-12-31T22:00:13Z</time>
      </trkpt>
      <trkpt lat="45.91026" lon="6.46694">
        <ele>1284</ele>
        <time>2012-12-31T22:00:13Z</time>
      </trkpt>
      <trkpt lat="45.91031" lon="6.46686">
        <ele>1284</ele>
        <time>2012-12-31T22:00:29Z</time>
      </trkpt>
      <trkpt lat="45.91031" lon="6.46685">
        <ele>1284</ele>
        <time>2012-12-31T22:00:38Z</time>
      </trkpt>
      <trkpt lat="45.91029" lon="6.46674">
        <ele>1284</ele>
        <time>2012-12-31T22:01:12Z</time>
      </trkpt>
      <trkpt lat="45.91029" lon="6.46674">
        <ele>1284</ele>
        <time>2012-12-31T22:01:12Z</time>
      </trkpt>
      <trkpt lat="45.91025" lon="6.46678">
        <ele>1284</ele>
        <time>2012-12-31T22:01:35Z</time>
      </trkpt>
      <trkpt lat="45.9102" lon="6.46674">
        <ele>1284</ele>
        <time>2012-12-31T22:01:58Z</time>
      </trkpt>
      <trkpt lat="45.9102" lon="6.46674">
        <ele>1284</ele>
        <time>2012-12-31T22:01:58Z</time>
      </trkpt>
      <trkpt lat="45.91017" lon="6.46669">
        <ele>1284</ele>
        <time>2012-12-31T22:02:14Z</time>
      </trkpt>
      <trkpt lat="45.91012" lon="6.46668">
        <ele>1285.7</ele>
        <time>2012-12-31T22:03:03Z</time>
      </trkpt>
      <trkpt lat="45.91012" lon="6.46668">
        <ele>1286.9</ele>
        <time>2012-12-31T22:03:03Z</time>
      </trkpt>
      <trkpt lat="45.9099" lon="6.46674">
        <ele>1287.8</ele>
        <time>2012-12-31T22:03:04Z</time>
      </trkpt>
      <trkpt lat="45.90979" lon="6.46679">
        <ele>1288.4</ele>
        <time>2012-12-31T22:03:05Z</time>
      </trkpt>
      <trkpt lat="45.90967" lon="6.46682">
        <ele>1289</ele>
        <time>2012-12-31T22:03:07Z</time>
      </trkpt>
      <trkpt lat="45.90956" lon="6.4668">
        <ele>1289.5</ele>
        <time>2012-12-31T22:03:09Z</time>
      </trkpt>
      <trkpt lat="45.90944" lon="6.46679">
        <ele>1290.4</ele>
        <time>2012-12-31T22:03:11Z</time>
      </trkpt>
      <trkpt lat="45.90933" lon="6.46676">
        <ele>1292.6</ele>
        <time>2012-12-31T22:03:13Z</time>
      </trkpt>
      <trkpt lat="45.90922" lon="6.46675">
        <ele>1294.9</ele>
        <time>2012-12-31T22:03:15Z</time>
      </trkpt>
      <trkpt lat="45.90909" lon="6.46674">
        <ele>1297.2</ele>
        <time>2012-12-31T22:03:17Z</time>
      </trkpt>
      <trkpt lat="45.90899" lon="6.46672">
        <ele>1299.5</ele>
        <time>2012-12-31T22:03:19Z</time>
      </trkpt>
      <trkpt lat="45.90888" lon="6.46672">
        <ele>1300.8</ele>
        <time>2012-12-31T22:03:21Z</time>
      </trkpt>
      <trkpt lat="45.90877" lon="6.46671">
        <ele>1302.2</ele>
        <time>2012-12-31T22:03:23Z</time>
      </trkpt>
      <trkpt lat="45.90866" lon="6.4667">
        <ele>1303.5</ele>
        <time>2012-12-31T22:03:25Z</time>
      </trkpt>
      <trkpt lat="45.90855" lon="6.46665">
        <ele>1304.9</ele>
        <time>2012-12-31T22:03:27Z</time>
      </trkpt>
      <trkpt lat="45.90845" lon="6.46663">
        <ele>1306.3</ele>
        <time>2012-12-31T22:03:29Z</time>
      </trkpt>
      <trkpt lat="45.90834" lon="6.46663">
        <ele>1310.3</ele>
        <time>2012-12-31T22:03:31Z</time>
      </trkpt>
      <trkpt lat="45.90823" lon="6.46662">
        <ele>1314.3</ele>
        <time>2012-12-31T22:03:33Z</time>
      </trkpt>
      <trkpt lat="45.90815" lon="6.46661">
        <ele>1316.9</ele>
        <time>2012-12-31T22:03:35Z</time>
      </trkpt>
      <trkpt lat="45.90805" lon="6.46662">
        <ele>1319.5</ele>
        <time>2012-12-31T22:03:37Z</time>
      </trkpt>
      <trkpt lat="45.90795" lon="6.4666">
        <ele>1322.2</ele>
        <time>2012-12-31T22:03:39Z</time>
      </trkpt>
      <trkpt lat="45.90785" lon="6.4666">
        <ele>1324.8</ele>
        <time>2012-12-31T22:03:41Z</time>
      </trkpt>
      <trkpt lat="45.90774" lon="6.46656">
        <ele>1327.5</ele>
        <time>2012-12-31T22:03:43Z</time>
      </trkpt>
      <trkpt lat="45.90762" lon="6.46654">
        <ele>1332.6</ele>
        <time>2012-12-31T22:03:45Z</time>
      </trkpt>
      <trkpt lat="45.90752" lon="6.46652">
        <ele>1337.8</ele>
        <time>2012-12-31T22:03:47Z</time>
      </trkpt>
      <trkpt lat="45.90741" lon="6.46649">
        <ele>1343</ele>
        <time>2012-12-31T22:03:49Z</time>
      </trkpt>
      <trkpt lat="45.90729" lon="6.46648">
        <ele>1348.2</ele>
        <time>2012-12-31T22:03:51Z</time>
      </trkpt>
      <trkpt lat="45.9072" lon="6.46644">
        <ele>1350.7</ele>
        <time>2012-12-31T22:03:53Z</time>
      </trkpt>
      <trkpt lat="45.90708" lon="6.46641">
        <ele>1352.4</ele>
        <time>2012-12-31T22:03:55Z</time>
      </trkpt>
      <trkpt lat="45.907" lon="6.46639">
        <ele>1354</ele>
        <time>2012-12-31T22:03:57Z</time>
      </trkpt>
      <trkpt lat="45.9069" lon="6.46638">
        <ele>1355.6</ele>
        <time>2012-12-31T22:03:59Z</time>
      </trkpt>
      <trkpt lat="45.9068" lon="6.46633">
        <ele>1357.3</ele>
        <time>2012-12-31T22:04:01Z</time>
      </trkpt>
      <trkpt lat="45.90669" lon="6.46628">
        <ele>1362.2</ele>
        <time>2012-12-31T22:04:03Z</time>
      </trkpt>
      <trkpt lat="45.90661" lon="6.46625">
        <ele>1367.1</ele>
        <time>2012-12-31T22:04:05Z</time>
      </trkpt>
      <trkpt lat="45.90651" lon="6.46621">
        <ele>1369.5</ele>
        <time>2012-12-31T22:04:07Z</time>
      </trkpt>
      <trkpt lat="45.90642" lon="6.46619">
        <ele>1371.8</ele>
        <time>2012-12-31T22:04:09Z</time>
      </trkpt>
      <trkpt lat="45.90633" lon="6.46616">
        <ele>1374.2</ele>
        <time>2012-12-31T22:04:11Z</time>
      </trkpt>
      <trkpt lat="45.90622" lon="6.46614">
        <ele>1376.5</ele>
        <time>2012-12-31T22:04:13Z</time>
      </trkpt>
      <trkpt lat="45.9061" lon="6.46611">
        <ele>1378.9</ele>
        <time>2012-12-31T22:04:15Z</time>
      </trkpt>
      <trkpt lat="45.906" lon="6.46608">
        <ele>1382.2</ele>
        <time>2012-12-31T22:04:17Z</time>
      </trkpt>
      <trkpt lat="45.90586" lon="6.46608">
        <ele>1388.1</ele>
        <time>2012-12-31T22:04:20Z</time>
      </trkpt>
      <trkpt lat="45.90576" lon="6.46606">
        <ele>1394</ele>
        <time>2012-12-31T22:04:22Z</time>
      </trkpt>
      <trkpt lat="45.90566" lon="6.46604">
        <ele>1399.9</ele>
        <time>2012-12-31T22:04:24Z</time>
      </trkpt>
      <trkpt lat="45.90556" lon="6.46602">
        <ele>1402.5</ele>
        <time>2012-12-31T22:04:26Z</time>
      </trkpt>
      <trkpt lat="45.90546" lon="6.46601">
        <ele>1405.2</ele>
        <time>2012-12-31T22:04:28Z</time>
      </trkpt>
      <trkpt lat="45.90536" lon="6.46599">
        <ele>1407.8</ele>
        <time>2012-12-31T22:04:30Z</time>
      </trkpt>
      <trkpt lat="45.90526" lon="6.466">
        <ele>1410.5</ele>
        <time>2012-12-31T22:04:32Z</time>
      </trkpt>
      <trkpt lat="45.90516" lon="6.46597">
        <ele>1413.1</ele>
        <time>2012-12-31T22:04:34Z</time>
      </trkpt>
      <trkpt lat="45.90506" lon="6.46595">
        <ele>1417.5</ele>
        <time>2012-12-31T22:04:36Z</time>
      </trkpt>
      <trkpt lat="45.90496" lon="6.46593">
        <ele>1422</ele>
        <time>2012-12-31T22:04:38Z</time>
      </trkpt>
      <trkpt lat="45.90486" lon="6.46593">
        <ele>1426.5</ele>
        <time>2012-12-31T22:04:40Z</time>
      </trkpt>
      <trkpt lat="45.90476" lon="6.46593">
        <ele>1428.3</ele>
        <time>2012-12-31T22:04:42Z</time>
      </trkpt>
      <trkpt lat="45.90467" lon="6.46589">
        <ele>1430.1</ele>
        <time>2012-12-31T22:04:44Z</time>
      </trkpt>
      <trkpt lat="45.90456" lon="6.46589">
        <ele>1431.9</ele>
        <time>2012-12-31T22:04:46Z</time>
      </trkpt>
      <trkpt lat="45.90446" lon="6.46588">
        <ele>1433.7</ele>
        <time>2012-12-31T22:04:48Z</time>
      </trkpt>
      <trkpt lat="45.90435" lon="6.46587">
        <ele>1438.2</ele>
        <time>2012-12-31T22:04:50Z</time>
      </trkpt>
      <trkpt lat="45.90424" lon="6.46582">
        <ele>1442.6</ele>
        <time>2012-12-31T22:04:53Z</time>
      </trkpt>
      <trkpt lat="45.90413" lon="6.46578">
        <ele>1447.1</ele>
        <time>2012-12-31T22:04:55Z</time>
      </trkpt>
      <trkpt lat="45.90402" lon="6.46574">
        <ele>1451.5</ele>
        <time>2012-12-31T22:04:57Z</time>
      </trkpt>
      <trkpt lat="45.90391" lon="6.4657">
        <ele>1454.2</ele>
        <time>2012-12-31T22:04:59Z</time>
      </trkpt>
      <trkpt lat="45.90379" lon="6.46567">
        <ele>1456.8</ele>
        <time>2012-12-31T22:05:01Z</time>
      </trkpt>
      <trkpt lat="45.90368" lon="6.46565">
        <ele>1459.5</ele>
        <time>2012-12-31T22:05:03Z</time>
      </trkpt>
      <trkpt lat="45.90359" lon="6.46563">
        <ele>1462.1</ele>
        <time>2012-12-31T22:05:05Z</time>
      </trkpt>
      <trkpt lat="45.90349" lon="6.46564">
        <ele>1464.7</ele>
        <time>2012-12-31T22:05:07Z</time>
      </trkpt>
      <trkpt lat="45.90339" lon="6.46561">
        <ele>1470.2</ele>
        <time>2012-12-31T22:05:09Z</time>
      </trkpt>
      <trkpt lat="45.90328" lon="6.4656">
        <ele>1473.9</ele>
        <time>2012-12-31T22:05:11Z</time>
      </trkpt>
      <trkpt lat="45.90318" lon="6.46555">
        <ele>1475</ele>
        <time>2012-12-31T22:05:13Z</time>
      </trkpt>
      <trkpt lat="45.90308" lon="6.4655">
        <ele>1476.1</ele>
        <time>2012-12-31T22:05:15Z</time>
      </trkpt>
      <trkpt lat="45.90298" lon="6.46548">
        <ele>1477.2</ele>
        <time>2012-12-31T22:05:17Z</time>
      </trkpt>
      <trkpt lat="45.90287" lon="6.46546">
        <ele>1478.3</ele>
        <time>2012-12-31T22:05:19Z</time>
      </trkpt>
      <trkpt lat="45.90279" lon="6.46542">
        <ele>1479.4</ele>
        <time>2012-12-31T22:05:21Z</time>
      </trkpt>
      <trkpt lat="45.9027" lon="6.46539">
        <ele>1480.5</ele>
        <time>2012-12-31T22:05:23Z</time>
      </trkpt>
      <trkpt lat="45.9026" lon="6.46537">
        <ele>1481.5</ele>
        <time>2012-12-31T22:05:25Z</time>
      </trkpt>
      <trkpt lat="45.90249" lon="6.46537">
        <ele>1485.1</ele>
        <time>2012-12-31T22:05:27Z</time>
      </trkpt>
      <trkpt lat="45.90239" lon="6.46534">
        <ele>1488.6</ele>
        <time>2012-12-31T22:05:29Z</time>
      </trkpt>
      <trkpt lat="45.90231" lon="6.46534">
        <ele>1489.4</ele>
        <time>2012-12-31T22:05:30Z</time>
      </trkpt>
      <trkpt lat="45.90222" lon="6.46529">
        <ele>1491.8</ele>
        <time>2012-12-31T22:05:32Z</time>
      </trkpt>
      <trkpt lat="45.90215" lon="6.46521">
        <ele>1494.3</ele>
        <time>2012-12-31T22:05:34Z</time>
      </trkpt>
      <trkpt lat="45.90204" lon="6.46521">
        <ele>1496.7</ele>
        <time>2012-12-31T22:05:36Z</time>
      </trkpt>
      <trkpt lat="45.90194" lon="6.46518">
        <ele>1499.2</ele>
        <time>2012-12-31T22:05:38Z</time>
      </trkpt>
      <trkpt lat="45.90184" lon="6.46517">
        <ele>1501.6</ele>
        <time>2012-12-31T22:05:40Z</time>
      </trkpt>
      <trkpt lat="45.90174" lon="6.46511">
        <ele>1507.8</ele>
        <time>2012-12-31T22:05:42Z</time>
      </trkpt>
      <trkpt lat="45.90164" lon="6.4651">
        <ele>1514</ele>
        <time>2012-12-31T22:05:44Z</time>
      </trkpt>
      <trkpt lat="45.90154" lon="6.46508">
        <ele>1520.2</ele>
        <time>2012-12-31T22:05:46Z</time>
      </trkpt>
      <trkpt lat="45.90141" lon="6.46508">
        <ele>1523.9</ele>
        <time>2012-12-31T22:05:48Z</time>
      </trkpt>
      <trkpt lat="45.90131" lon="6.46506">
        <ele>1527.6</ele>
        <time>2012-12-31T22:05:50Z</time>
      </trkpt>
      <trkpt lat="45.9012" lon="6.46502">
        <ele>1531.4</ele>
        <time>2012-12-31T22:05:52Z</time>
      </trkpt>
      <trkpt lat="45.90108" lon="6.46503">
        <ele>1535.1</ele>
        <time>2012-12-31T22:05:54Z</time>
      </trkpt>
      <trkpt lat="45.90097" lon="6.46502">
        <ele>1538.8</ele>
        <time>2012-12-31T22:05:56Z</time>
      </trkpt>
      <trkpt lat="45.90088" lon="6.46499">
        <ele>1545.8</ele>
        <time>2012-12-31T22:05:58Z</time>
      </trkpt>
      <trkpt lat="45.9008" lon="6.46497">
        <ele>1552.8</ele>
        <time>2012-12-31T22:06:00Z</time>
      </trkpt>
      <trkpt lat="45.9007" lon="6.46494">
        <ele>1559.8</ele>
        <time>2012-12-31T22:06:02Z</time>
      </trkpt>
      <trkpt lat="45.9006" lon="6.46493">
        <ele>1563.1</ele>
        <time>2012-12-31T22:06:04Z</time>
      </trkpt>
      <trkpt lat="45.90051" lon="6.46494">
        <ele>1566.4</ele>
        <time>2012-12-31T22:06:06Z</time>
      </trkpt>
      <trkpt lat="45.90041" lon="6.4649">
        <ele>1569.6</ele>
        <time>2012-12-31T22:06:08Z</time>
      </trkpt>
      <trkpt lat="45.90027" lon="6.46488">
        <ele>1572.9</ele>
        <time>2012-12-31T22:06:10Z</time>
      </trkpt>
      <trkpt lat="45.90018" lon="6.46487">
        <ele>1576.2</ele>
        <time>2012-12-31T22:06:12Z</time>
      </trkpt>
      <trkpt lat="45.90007" lon="6.46486">
        <ele>1583.5</ele>
        <time>2012-12-31T22:06:14Z</time>
      </trkpt>
      <trkpt lat="45.89997" lon="6.46484">
        <ele>1590.7</ele>
        <time>2012-12-31T22:06:16Z</time>
      </trkpt>
      <trkpt lat="45.89986" lon="6.46483">
        <ele>1598</ele>
        <time>2012-12-31T22:06:18Z</time>
      </trkpt>
      <trkpt lat="45.89974" lon="6.4648">
        <ele>1602</ele>
        <time>2012-12-31T22:06:20Z</time>
      </trkpt>
      <trkpt lat="45.89964" lon="6.46478">
        <ele>1606</ele>
        <time>2012-12-31T22:06:22Z</time>
      </trkpt>
      <trkpt lat="45.89954" lon="6.46476">
        <ele>1610</ele>
        <time>2012-12-31T22:06:24Z</time>
      </trkpt>
      <trkpt lat="45.89946" lon="6.4647">
        <ele>1611.5</ele>
        <time>2012-12-31T22:06:26Z</time>
      </trkpt>
      <trkpt lat="45.89937" lon="6.46469">
        <ele>1613.1</ele>
        <time>2012-12-31T22:06:28Z</time>
      </trkpt>
      <trkpt lat="45.89928" lon="6.46467">
        <ele>1619.4</ele>
        <time>2012-12-31T22:06:30Z</time>
      </trkpt>
      <trkpt lat="45.89919" lon="6.46468">
        <ele>1625.6</ele>
        <time>2012-12-31T22:06:32Z</time>
      </trkpt>
      <trkpt lat="45.89908" lon="6.46464">
        <ele>1631.9</ele>
        <time>2012-12-31T22:06:34Z</time>
      </trkpt>
      <trkpt lat="45.89896" lon="6.46461">
        <ele>1634.2</ele>
        <time>2012-12-31T22:06:36Z</time>
      </trkpt>
      <trkpt lat="45.89887" lon="6.46458">
        <ele>1636.5</ele>
        <time>2012-12-31T22:06:38Z</time>
      </trkpt>
      <trkpt lat="45.89878" lon="6.46454">
        <ele>1638.7</ele>
        <time>2012-12-31T22:06:40Z</time>
      </trkpt>
      <trkpt lat="45.89868" lon="6.46452">
        <ele>1641</ele>
        <time>2012-12-31T22:06:42Z</time>
      </trkpt>
      <trkpt lat="45.89859" lon="6.46449">
        <ele>1643.3</ele>
        <time>2012-12-31T22:06:44Z</time>
      </trkpt>
      <trkpt lat="45.8985" lon="6.46448">
        <ele>1645.5</ele>
        <time>2012-12-31T22:06:46Z</time>
      </trkpt>
      <trkpt lat="45.89841" lon="6.46447">
        <ele>1653.5</ele>
        <time>2012-12-31T22:06:48Z</time>
      </trkpt>
      <trkpt lat="45.89828" lon="6.46442">
        <ele>1661.4</ele>
        <time>2012-12-31T22:06:50Z</time>
      </trkpt>
      <trkpt lat="45.8982" lon="6.46442">
        <ele>1664.5</ele>
        <time>2012-12-31T22:06:52Z</time>
      </trkpt>
      <trkpt lat="45.89808" lon="6.46439">
        <ele>1667.7</ele>
        <time>2012-12-31T22:06:54Z</time>
      </trkpt>
      <trkpt lat="45.89799" lon="6.46437">
        <ele>1670.9</ele>
        <time>2012-12-31T22:06:56Z</time>
      </trkpt>
      <trkpt lat="45.8979" lon="6.46436">
        <ele>1674.1</ele>
        <time>2012-12-31T22:06:58Z</time>
      </trkpt>
      <trkpt lat="45.89781" lon="6.46437">
        <ele>1677.3</ele>
        <time>2012-12-31T22:07:00Z</time>
      </trkpt>
      <trkpt lat="45.8977" lon="6.46436">
        <ele>1680.5</ele>
        <time>2012-12-31T22:07:02Z</time>
      </trkpt>
      <trkpt lat="45.89758" lon="6.46434">
        <ele>1686.8</ele>
        <time>2012-12-31T22:07:04Z</time>
      </trkpt>
      <trkpt lat="45.89749" lon="6.46433">
        <ele>1693.2</ele>
        <time>2012-12-31T22:07:06Z</time>
      </trkpt>
      <trkpt lat="45.89739" lon="6.46431">
        <ele>1699.5</ele>
        <time>2012-12-31T22:07:08Z</time>
      </trkpt>
      <trkpt lat="45.89727" lon="6.46428">
        <ele>1702.7</ele>
        <time>2012-12-31T22:07:11Z</time>
      </trkpt>
      <trkpt lat="45.89715" lon="6.46424">
        <ele>1705.9</ele>
        <time>2012-12-31T22:07:13Z</time>
      </trkpt>
      <trkpt lat="45.89703" lon="6.4642">
        <ele>1709.1</ele>
        <time>2012-12-31T22:07:15Z</time>
      </trkpt>
      <trkpt lat="45.89694" lon="6.46419">
        <ele>1712.3</ele>
        <time>2012-12-31T22:07:17Z</time>
      </trkpt>
      <trkpt lat="45.89682" lon="6.46416">
        <ele>1715.5</ele>
        <time>2012-12-31T22:07:19Z</time>
      </trkpt>
      <trkpt lat="45.89672" lon="6.46414">
        <ele>1721.5</ele>
        <time>2012-12-31T22:07:21Z</time>
      </trkpt>
      <trkpt lat="45.89663" lon="6.46411">
        <ele>1727.6</ele>
        <time>2012-12-31T22:07:23Z</time>
      </trkpt>
      <trkpt lat="45.89653" lon="6.46409">
        <ele>1733.7</ele>
        <time>2012-12-31T22:07:25Z</time>
      </trkpt>
      <trkpt lat="45.89642" lon="6.46408">
        <ele>1736.6</ele>
        <time>2012-12-31T22:07:27Z</time>
      </trkpt>
      <trkpt lat="45.89632" lon="6.46405">
        <ele>1739.5</ele>
        <time>2012-12-31T22:07:29Z</time>
      </trkpt>
      <trkpt lat="45.89621" lon="6.46404">
        <ele>1742.5</ele>
        <time>2012-12-31T22:07:31Z</time>
      </trkpt>
      <trkpt lat="45.89612" lon="6.46401">
        <ele>1745.4</ele>
        <time>2012-12-31T22:07:33Z</time>
      </trkpt>
      <trkpt lat="45.89603" lon="6.46402">
        <ele>1748.3</ele>
        <time>2012-12-31T22:07:35Z</time>
      </trkpt>
      <trkpt lat="45.89592" lon="6.46402">
        <ele>1753.5</ele>
        <time>2012-12-31T22:07:37Z</time>
      </trkpt>
      <trkpt lat="45.8958" lon="6.46398">
        <ele>1758.8</ele>
        <time>2012-12-31T22:07:40Z</time>
      </trkpt>
      <trkpt lat="45.89569" lon="6.46396">
        <ele>1764.1</ele>
        <time>2012-12-31T22:07:42Z</time>
      </trkpt>
      <trkpt lat="45.8956" lon="6.46393">
        <ele>1766.5</ele>
        <time>2012-12-31T22:07:44Z</time>
      </trkpt>
      <trkpt lat="45.8955" lon="6.46392">
        <ele>1768.8</ele>
        <time>2012-12-31T22:07:46Z</time>
      </trkpt>
      <trkpt lat="45.89538" lon="6.46391">
        <ele>1771.2</ele>
        <time>2012-12-31T22:07:48Z</time>
      </trkpt>
      <trkpt lat="45.89527" lon="6.4639">
        <ele>1772.4</ele>
        <time>2012-12-31T22:07:50Z</time>
      </trkpt>
      <trkpt lat="45.89517" lon="6.46389">
        <ele>1773.5</ele>
        <time>2012-12-31T22:07:52Z</time>
      </trkpt>
      <trkpt lat="45.89506" lon="6.4639">
        <ele>1778.7</ele>
        <time>2012-12-31T22:07:54Z</time>
      </trkpt>
      <trkpt lat="45.89494" lon="6.46383">
        <ele>1783.9</ele>
        <time>2012-12-31T22:07:56Z</time>
      </trkpt>
      <trkpt lat="45.89485" lon="6.4638">
        <ele>1789.1</ele>
        <time>2012-12-31T22:07:58Z</time>
      </trkpt>
      <trkpt lat="45.89474" lon="6.46377">
        <ele>1791.9</ele>
        <time>2012-12-31T22:08:00Z</time>
      </trkpt>
      <trkpt lat="45.89464" lon="6.46375">
        <ele>1794.7</ele>
        <time>2012-12-31T22:08:02Z</time>
      </trkpt>
      <trkpt lat="45.89455" lon="6.46368">
        <ele>1797.5</ele>
        <time>2012-12-31T22:08:04Z</time>
      </trkpt>
      <trkpt lat="45.89445" lon="6.46367">
        <ele>1800.4</ele>
        <time>2012-12-31T22:08:06Z</time>
      </trkpt>
      <trkpt lat="45.89436" lon="6.46363">
        <ele>1807.3</ele>
        <time>2012-12-31T22:08:08Z</time>
      </trkpt>
      <trkpt lat="45.89426" lon="6.46362">
        <ele>1814.2</ele>
        <time>2012-12-31T22:08:10Z</time>
      </trkpt>
      <trkpt lat="45.89416" lon="6.46362">
        <ele>1822.3</ele>
        <time>2012-12-31T22:08:12Z</time>
      </trkpt>
      <trkpt lat="45.89404" lon="6.4636">
        <ele>1830.4</ele>
        <time>2012-12-31T22:08:14Z</time>
      </trkpt>
      <trkpt lat="45.89392" lon="6.46358">
        <ele>1834.5</ele>
        <time>2012-12-31T22:08:16Z</time>
      </trkpt>
      <trkpt lat="45.8938" lon="6.46356">
        <ele>1838.5</ele>
        <time>2012-12-31T22:08:18Z</time>
      </trkpt>
      <trkpt lat="45.89369" lon="6.46355">
        <ele>1842.6</ele>
        <time>2012-12-31T22:08:20Z</time>
      </trkpt>
      <trkpt lat="45.89358" lon="6.46352">
        <ele>1846.7</ele>
        <time>2012-12-31T22:08:22Z</time>
      </trkpt>
      <trkpt lat="45.89347" lon="6.46349">
        <ele>1850.8</ele>
        <time>2012-12-31T22:08:24Z</time>
      </trkpt>
      <trkpt lat="45.89335" lon="6.46346">
        <ele>1860.1</ele>
        <time>2012-12-31T22:08:26Z</time>
      </trkpt>
      <trkpt lat="45.89325" lon="6.46344">
        <ele>1869.4</ele>
        <time>2012-12-31T22:08:28Z</time>
      </trkpt>
      <trkpt lat="45.89313" lon="6.4634">
        <ele>1874.5</ele>
        <time>2012-12-31T22:08:30Z</time>
      </trkpt>
      <trkpt lat="45.89304" lon="6.46339">
        <ele>1879.7</ele>
        <time>2012-12-31T22:08:32Z</time>
      </trkpt>
      <trkpt lat="45.89293" lon="6.46336">
        <ele>1884.9</ele>
        <time>2012-12-31T22:08:34Z</time>
      </trkpt>
      <trkpt lat="45.89284" lon="6.46334">
        <ele>1890.1</ele>
        <time>2012-12-31T22:08:36Z</time>
      </trkpt>
      <trkpt lat="45.89276" lon="6.46333">
        <ele>1895.3</ele>
        <time>2012-12-31T22:08:38Z</time>
      </trkpt>
      <trkpt lat="45.89266" lon="6.4633">
        <ele>1900.5</ele>
        <time>2012-12-31T22:08:40Z</time>
      </trkpt>
      <trkpt lat="45.89257" lon="6.46328">
        <ele>1911.4</ele>
        <time>2012-12-31T22:08:42Z</time>
      </trkpt>
      <trkpt lat="45.89248" lon="6.46326">
        <ele>1922.3</ele>
        <time>2012-12-31T22:08:44Z</time>
      </trkpt>
      <trkpt lat="45.89238" lon="6.46327">
        <ele>1933.2</ele>
        <time>2012-12-31T22:08:48Z</time>
      </trkpt>
      <trkpt lat="45.89229" lon="6.46325">
        <ele>1938.9</ele>
        <time>2012-12-31T22:08:52Z</time>
      </trkpt>
      <trkpt lat="45.89218" lon="6.46324">
        <ele>1944.6</ele>
        <time>2012-12-31T22:08:54Z</time>
      </trkpt>
      <trkpt lat="45.89209" lon="6.46323">
        <ele>1950.4</ele>
        <time>2012-12-31T22:08:56Z</time>
      </trkpt>
      <trkpt lat="45.89199" lon="6.46322">
        <ele>1956.1</ele>
        <time>2012-12-31T22:08:58Z</time>
      </trkpt>
      <trkpt lat="45.89188" lon="6.4632">
        <ele>1961.8</ele>
        <time>2012-12-31T22:09:01Z</time>
      </trkpt>
      <trkpt lat="45.89179" lon="6.46318">
        <ele>1967.5</ele>
        <time>2012-12-31T22:09:03Z</time>
      </trkpt>
      <trkpt lat="45.8917" lon="6.46319">
        <ele>1976.8</ele>
        <time>2012-12-31T22:09:05Z</time>
      </trkpt>
      <trkpt lat="45.89161" lon="6.46318">
        <ele>1986.1</ele>
        <time>2012-12-31T22:09:07Z</time>
      </trkpt>
      <trkpt lat="45.89151" lon="6.46314">
        <ele>1989.6</ele>
        <time>2012-12-31T22:09:09Z</time>
      </trkpt>
      <trkpt lat="45.89139" lon="6.46313">
        <ele>1991.5</ele>
        <time>2012-12-31T22:09:11Z</time>
      </trkpt>
      <trkpt lat="45.8913" lon="6.4631">
        <ele>1993.3</ele>
        <time>2012-12-31T22:09:12Z</time>
      </trkpt>
      <trkpt lat="45.89122" lon="6.4631">
        <ele>1995.1</ele>
        <time>2012-12-31T22:09:14Z</time>
      </trkpt>
      <trkpt lat="45.89114" lon="6.46305">
        <ele>1996.9</ele>
        <time>2012-12-31T22:09:16Z</time>
      </trkpt>
      <trkpt lat="45.89122" lon="6.46309">
        <ele>1998.7</ele>
        <time>2012-12-31T22:09:29Z</time>
      </trkpt>
      <trkpt lat="45.89121" lon="6.46297">
        <ele>2000.9</ele>
        <time>2012-12-31T22:09:36Z</time>
      </trkpt>
      <trkpt lat="45.89113" lon="6.46297">
        <ele>2003.6</ele>
        <time>2012-12-31T22:09:50Z</time>
      </trkpt>
      <trkpt lat="45.89108" lon="6.46288">
        <ele>2007.1</ele>
        <time>2012-12-31T22:10:02Z</time>
      </trkpt>
      <trkpt lat="45.89106" lon="6.46288">
        <ele>2005.3</ele>
        <time>2012-12-31T22:10:18Z</time>
      </trkpt>
      <trkpt lat="45.89099" lon="6.46288">
        <ele>1999</ele>
        <time>2012-12-31T22:11:21Z</time>
      </trkpt>
      <trkpt lat="45.89099" lon="6.46288">
        <ele>1999</ele>
        <time>2012-12-31T22:11:21Z</time>
      </trkpt>
      <trkpt lat="45.89099" lon="6.46288">
        <ele>1999</ele>
        <time>2012-12-31T22:11:33Z</time>
      </trkpt>
      <trkpt lat="45.89089" lon="6.46289">
        <ele>1998.8</ele>
        <time>2012-12-31T22:13:52Z</time>
      </trkpt>
      <trkpt lat="45.89089" lon="6.46289">
        <ele>1998.7</ele>
        <time>2012-12-31T22:13:52Z</time>
      </trkpt>
      <trkpt lat="45.89074" lon="6.46284">
        <ele>1998.6</ele>
        <time>2012-12-31T22:13:53Z</time>
      </trkpt>
      <trkpt lat="45.89064" lon="6.46281">
        <ele>1998.6</ele>
        <time>2012-12-31T22:13:55Z</time>
      </trkpt>
      <trkpt lat="45.89054" lon="6.46279">
        <ele>1998.5</ele>
        <time>2012-12-31T22:13:57Z</time>
      </trkpt>
      <trkpt lat="45.89041" lon="6.46269">
        <ele>1998.5</ele>
        <time>2012-12-31T22:13:59Z</time>
      </trkpt>
      <trkpt lat="45.89029" lon="6.46263">
        <ele>1998.4</ele>
        <time>2012-12-31T22:14:01Z</time>
      </trkpt>
      <trkpt lat="45.8902" lon="6.4626">
        <ele>1998.3</ele>
        <time>2012-12-31T22:14:03Z</time>
      </trkpt>
      <trkpt lat="45.89012" lon="6.4625">
        <ele>1998.2</ele>
        <time>2012-12-31T22:14:05Z</time>
      </trkpt>
      <trkpt lat="45.89002" lon="6.46245">
        <ele>1997.1</ele>
        <time>2012-12-31T22:14:07Z</time>
      </trkpt>
      <trkpt lat="45.88993" lon="6.46242">
        <ele>1996</ele>
        <time>2012-12-31T22:14:09Z</time>
      </trkpt>
      <trkpt lat="45.88985" lon="6.46237">
        <ele>1995</ele>
        <time>2012-12-31T22:14:11Z</time>
      </trkpt>
      <trkpt lat="45.88976" lon="6.4623">
        <ele>1994</ele>
        <time>2012-12-31T22:14:13Z</time>
      </trkpt>
      <trkpt lat="45.88967" lon="6.46222">
        <ele>1993</ele>
        <time>2012-12-31T22:14:16Z</time>
      </trkpt>
      <trkpt lat="45.88959" lon="6.46214">
        <ele>1992</ele>
        <time>2012-12-31T22:14:20Z</time>
      </trkpt>
      <trkpt lat="45.88951" lon="6.46209">
        <ele>1991</ele>
        <time>2012-12-31T22:14:23Z</time>
      </trkpt>
      <trkpt lat="45.88944" lon="6.46202">
        <ele>1990</ele>
        <time>2012-12-31T22:14:27Z</time>
      </trkpt>
      <trkpt lat="45.88939" lon="6.46191">
        <ele>1989</ele>
        <time>2012-12-31T22:14:30Z</time>
      </trkpt>
      <trkpt lat="45.88932" lon="6.46178">
        <ele>1988</ele>
        <time>2012-12-31T22:14:33Z</time>
      </trkpt>
      <trkpt lat="45.88925" lon="6.46168">
        <ele>1984.7</ele>
        <time>2012-12-31T22:14:35Z</time>
      </trkpt>
      <trkpt lat="45.88918" lon="6.46159">
        <ele>1984.1</ele>
        <time>2012-12-31T22:14:37Z</time>
      </trkpt>
      <trkpt lat="45.88911" lon="6.4615">
        <ele>1983.5</ele>
        <time>2012-12-31T22:14:39Z</time>
      </trkpt>
      <trkpt lat="45.88901" lon="6.46143">
        <ele>1981.2</ele>
        <time>2012-12-31T22:14:41Z</time>
      </trkpt>
      <trkpt lat="45.88893" lon="6.46136">
        <ele>1978.9</ele>
        <time>2012-12-31T22:14:44Z</time>
      </trkpt>
      <trkpt lat="45.88883" lon="6.4613">
        <ele>1976.6</ele>
        <time>2012-12-31T22:14:47Z</time>
      </trkpt>
      <trkpt lat="45.88874" lon="6.46122">
        <ele>1974.4</ele>
        <time>2012-12-31T22:14:50Z</time>
      </trkpt>
      <trkpt lat="45.88869" lon="6.46107">
        <ele>1969.6</ele>
        <time>2012-12-31T22:14:53Z</time>
      </trkpt>
      <trkpt lat="45.88886" lon="6.46085">
        <ele>1964.9</ele>
        <time>2012-12-31T22:14:55Z</time>
      </trkpt>
      <trkpt lat="45.88888" lon="6.4607">
        <ele>1960.2</ele>
        <time>2012-12-31T22:14:57Z</time>
      </trkpt>
      <trkpt lat="45.88889" lon="6.46055">
        <ele>1955.5</ele>
        <time>2012-12-31T22:14:59Z</time>
      </trkpt>
      <trkpt lat="45.88904" lon="6.46053">
        <ele>1953</ele>
        <time>2012-12-31T22:15:02Z</time>
      </trkpt>
      <trkpt lat="45.88913" lon="6.46049">
        <ele>1947.4</ele>
        <time>2012-12-31T22:15:04Z</time>
      </trkpt>
      <trkpt lat="45.88916" lon="6.46035">
        <ele>1943.3</ele>
        <time>2012-12-31T22:15:08Z</time>
      </trkpt>
      <trkpt lat="45.88925" lon="6.46025">
        <ele>1940.8</ele>
        <time>2012-12-31T22:15:12Z</time>
      </trkpt>
      <trkpt lat="45.88939" lon="6.46032">
        <ele>1938.4</ele>
        <time>2012-12-31T22:15:13Z</time>
      </trkpt>
      <trkpt lat="45.88953" lon="6.46034">
        <ele>1935.9</ele>
        <time>2012-12-31T22:15:15Z</time>
      </trkpt>
      <trkpt lat="45.88968" lon="6.46033">
        <ele>1933.5</ele>
        <time>2012-12-31T22:15:17Z</time>
      </trkpt>
      <trkpt lat="45.88959" lon="6.46018">
        <ele>1931.5</ele>
        <time>2012-12-31T22:15:22Z</time>
      </trkpt>
      <trkpt lat="45.88949" lon="6.46011">
        <ele>1929.5</ele>
        <time>2012-12-31T22:15:24Z</time>
      </trkpt>
      <trkpt lat="45.88956" lon="6.45999">
        <ele>1927.5</ele>
        <time>2012-12-31T22:15:27Z</time>
      </trkpt>
      <trkpt lat="45.88958" lon="6.45983">
        <ele>1925.5</ele>
        <time>2012-12-31T22:15:29Z</time>
      </trkpt>
      <trkpt lat="45.88951" lon="6.45977">
        <ele>1924.5</ele>
        <time>2012-12-31T22:15:30Z</time>
      </trkpt>
      <trkpt lat="45.88949" lon="6.45959">
        <ele>1925.2</ele>
        <time>2012-12-31T22:15:32Z</time>
      </trkpt>
      <trkpt lat="45.88946" lon="6.45947">
        <ele>1924</ele>
        <time>2012-12-31T22:15:34Z</time>
      </trkpt>
      <trkpt lat="45.88953" lon="6.45935">
        <ele>1922.4</ele>
        <time>2012-12-31T22:15:37Z</time>
      </trkpt>
      <trkpt lat="45.88948" lon="6.45936">
        <ele>1920.3</ele>
        <time>2012-12-31T22:15:51Z</time>
      </trkpt>
      <trkpt lat="45.88955" lon="6.45923">
        <ele>1899.2</ele>
        <time>2012-12-31T22:16:02Z</time>
      </trkpt>
      <trkpt lat="45.88955" lon="6.45923">
        <ele>1896.4</ele>
        <time>2012-12-31T22:16:02Z</time>
      </trkpt>
      <trkpt lat="45.88961" lon="6.45909">
        <ele>1894.4</ele>
        <time>2012-12-31T22:16:04Z</time>
      </trkpt>
      <trkpt lat="45.88966" lon="6.45896">
        <ele>1894</ele>
        <time>2012-12-31T22:16:06Z</time>
      </trkpt>
      <trkpt lat="45.8897" lon="6.4588">
        <ele>1892.6</ele>
        <time>2012-12-31T22:16:08Z</time>
      </trkpt>
      <trkpt lat="45.8897" lon="6.45863">
        <ele>1891.5</ele>
        <time>2012-12-31T22:16:10Z</time>
      </trkpt>
      <trkpt lat="45.88972" lon="6.45852">
        <ele>1887.2</ele>
        <time>2012-12-31T22:16:12Z</time>
      </trkpt>
      <trkpt lat="45.88965" lon="6.45844">
        <ele>1882.9</ele>
        <time>2012-12-31T22:16:14Z</time>
      </trkpt>
      <trkpt lat="45.88963" lon="6.45829">
        <ele>1878.6</ele>
        <time>2012-12-31T22:16:17Z</time>
      </trkpt>
      <trkpt lat="45.88966" lon="6.45817">
        <ele>1875.9</ele>
        <time>2012-12-31T22:16:19Z</time>
      </trkpt>
      <trkpt lat="45.88976" lon="6.45805">
        <ele>1874.6</ele>
        <time>2012-12-31T22:16:21Z</time>
      </trkpt>
      <trkpt lat="45.88984" lon="6.4579">
        <ele>1873.4</ele>
        <time>2012-12-31T22:16:23Z</time>
      </trkpt>
      <trkpt lat="45.8899" lon="6.45781">
        <ele>1870.7</ele>
        <time>2012-12-31T22:16:24Z</time>
      </trkpt>
      <trkpt lat="45.88994" lon="6.45761">
        <ele>1868.1</ele>
        <time>2012-12-31T22:16:26Z</time>
      </trkpt>
      <trkpt lat="45.88992" lon="6.45741">
        <ele>1863.9</ele>
        <time>2012-12-31T22:16:28Z</time>
      </trkpt>
      <trkpt lat="45.88986" lon="6.45726">
        <ele>1860.7</ele>
        <time>2012-12-31T22:16:30Z</time>
      </trkpt>
      <trkpt lat="45.88973" lon="6.45722">
        <ele>1857.5</ele>
        <time>2012-12-31T22:16:32Z</time>
      </trkpt>
      <trkpt lat="45.88968" lon="6.45706">
        <ele>1853.7</ele>
        <time>2012-12-31T22:16:34Z</time>
      </trkpt>
      <trkpt lat="45.88964" lon="6.4569">
        <ele>1849.9</ele>
        <time>2012-12-31T22:16:36Z</time>
      </trkpt>
      <trkpt lat="45.88961" lon="6.45674">
        <ele>1846.1</ele>
        <time>2012-12-31T22:16:37Z</time>
      </trkpt>
      <trkpt lat="45.88957" lon="6.4565">
        <ele>1842.3</ele>
        <time>2012-12-31T22:16:39Z</time>
      </trkpt>
      <trkpt lat="45.88955" lon="6.45639">
        <ele>1839.9</ele>
        <time>2012-12-31T22:16:40Z</time>
      </trkpt>
      <trkpt lat="45.88961" lon="6.45625">
        <ele>1837.5</ele>
        <time>2012-12-31T22:16:41Z</time>
      </trkpt>
      <trkpt lat="45.88961" lon="6.45611">
        <ele>1836.5</ele>
        <time>2012-12-31T22:16:42Z</time>
      </trkpt>
      <trkpt lat="45.88962" lon="6.45595">
        <ele>1835.1</ele>
        <time>2012-12-31T22:16:43Z</time>
      </trkpt>
      <trkpt lat="45.88962" lon="6.45581">
        <ele>1834</ele>
        <time>2012-12-31T22:16:44Z</time>
      </trkpt>
      <trkpt lat="45.88969" lon="6.45563">
        <ele>1832.6</ele>
        <time>2012-12-31T22:16:46Z</time>
      </trkpt>
      <trkpt lat="45.8898" lon="6.45556">
        <ele>1830.9</ele>
        <time>2012-12-31T22:16:48Z</time>
      </trkpt>
      <trkpt lat="45.88977" lon="6.45559">
        <ele>1832</ele>
        <time>2012-12-31T22:17:00Z</time>
      </trkpt>
      <trkpt lat="45.88972" lon="6.45561">
        <ele>1840</ele>
        <time>2012-12-31T22:17:55Z</time>
      </trkpt>
      <trkpt lat="45.88972" lon="6.45561">
        <ele>1840</ele>
        <time>2012-12-31T22:17:55Z</time>
      </trkpt>
      <trkpt lat="45.88973" lon="6.45561">
        <ele>1840</ele>
        <time>2012-12-31T22:18:05Z</time>
      </trkpt>
      <trkpt lat="45.88972" lon="6.45573">
        <ele>1840</ele>
        <time>2012-12-31T22:20:07Z</time>
      </trkpt>
      <trkpt lat="45.88972" lon="6.45573">
        <ele>1840</ele>
        <time>2012-12-31T22:20:07Z</time>
      </trkpt>
      <trkpt lat="45.88972" lon="6.45577">
        <ele>1840</ele>
        <time>2012-12-31T22:20:26Z</time>
      </trkpt>
      <trkpt lat="45.88971" lon="6.45585">
        <ele>1840</ele>
        <time>2012-12-31T22:20:50Z</time>
      </trkpt>
      <trkpt lat="45.88971" lon="6.45585">
        <ele>1840</ele>
        <time>2012-12-31T22:20:50Z</time>
      </trkpt>
      <trkpt lat="45.88971" lon="6.45586">
        <ele>1840</ele>
        <time>2012-12-31T22:21:01Z</time>
      </trkpt>
      <trkpt lat="45.88974" lon="6.45597">
        <ele>1843.7</ele>
        <time>2012-12-31T22:21:25Z</time>
      </trkpt>
      <trkpt lat="45.88974" lon="6.45597">
        <ele>1844.7</ele>
        <time>2012-12-31T22:21:25Z</time>
      </trkpt>
      <trkpt lat="45.88972" lon="6.45611">
        <ele>1845.5</ele>
        <time>2012-12-31T22:21:30Z</time>
      </trkpt>
      <trkpt lat="45.88971" lon="6.45622">
        <ele>1846.1</ele>
        <time>2012-12-31T22:21:33Z</time>
      </trkpt>
      <trkpt lat="45.8897" lon="6.45636">
        <ele>1846</ele>
        <time>2012-12-31T22:21:38Z</time>
      </trkpt>
      <trkpt lat="45.88969" lon="6.45649">
        <ele>1847.6</ele>
        <time>2012-12-31T22:21:42Z</time>
      </trkpt>
      <trkpt lat="45.88967" lon="6.45663">
        <ele>1849.8</ele>
        <time>2012-12-31T22:21:46Z</time>
      </trkpt>
      <trkpt lat="45.88966" lon="6.45677">
        <ele>1852</ele>
        <time>2012-12-31T22:21:50Z</time>
      </trkpt>
      <trkpt lat="45.88964" lon="6.45689">
        <ele>1854.2</ele>
        <time>2012-12-31T22:21:54Z</time>
      </trkpt>
      <trkpt lat="45.88963" lon="6.45702">
        <ele>1856.4</ele>
        <time>2012-12-31T22:21:58Z</time>
      </trkpt>
      <trkpt lat="45.88962" lon="6.45714">
        <ele>1857.5</ele>
        <time>2012-12-31T22:22:02Z</time>
      </trkpt>
      <trkpt lat="45.88961" lon="6.45727">
        <ele>1858.7</ele>
        <time>2012-12-31T22:22:06Z</time>
      </trkpt>
      <trkpt lat="45.8896" lon="6.45741">
        <ele>1862.4</ele>
        <time>2012-12-31T22:22:10Z</time>
      </trkpt>
      <trkpt lat="45.8896" lon="6.45754">
        <ele>1866</ele>
        <time>2012-12-31T22:22:14Z</time>
      </trkpt>
      <trkpt lat="45.88959" lon="6.45767">
        <ele>1869.6</ele>
        <time>2012-12-31T22:22:18Z</time>
      </trkpt>
      <trkpt lat="45.88957" lon="6.4578">
        <ele>1873.8</ele>
        <time>2012-12-31T22:22:22Z</time>
      </trkpt>
      <trkpt lat="45.88956" lon="6.45794">
        <ele>1876.3</ele>
        <time>2012-12-31T22:22:26Z</time>
      </trkpt>
      <trkpt lat="45.88954" lon="6.45807">
        <ele>1878.7</ele>
        <time>2012-12-31T22:22:30Z</time>
      </trkpt>
      <trkpt lat="45.88953" lon="6.45819">
        <ele>1881.2</ele>
        <time>2012-12-31T22:22:34Z</time>
      </trkpt>
      <trkpt lat="45.88952" lon="6.45832">
        <ele>1885.6</ele>
        <time>2012-12-31T22:22:38Z</time>
      </trkpt>
      <trkpt lat="45.88951" lon="6.45844">
        <ele>1890.1</ele>
        <time>2012-12-31T22:22:42Z</time>
      </trkpt>
      <trkpt lat="45.8895" lon="6.45856">
        <ele>1894.5</ele>
        <time>2012-12-31T22:22:46Z</time>
      </trkpt>
      <trkpt lat="45.88949" lon="6.45868">
        <ele>1899</ele>
        <time>2012-12-31T22:22:50Z</time>
      </trkpt>
      <trkpt lat="45.88947" lon="6.45881">
        <ele>1901</ele>
        <time>2012-12-31T22:22:54Z</time>
      </trkpt>
      <trkpt lat="45.88945" lon="6.45894">
        <ele>1903</ele>
        <time>2012-12-31T22:22:58Z</time>
      </trkpt>
      <trkpt lat="45.88945" lon="6.45907">
        <ele>1907</ele>
        <time>2012-12-31T22:23:02Z</time>
      </trkpt>
      <trkpt lat="45.88944" lon="6.4592">
        <ele>1911</ele>
        <time>2012-12-31T22:23:06Z</time>
      </trkpt>
      <trkpt lat="45.88942" lon="6.45932">
        <ele>1915</ele>
        <time>2012-12-31T22:23:10Z</time>
      </trkpt>
      <trkpt lat="45.88941" lon="6.45945">
        <ele>1919</ele>
        <time>2012-12-31T22:23:14Z</time>
      </trkpt>
      <trkpt lat="45.8894" lon="6.45958">
        <ele>1923</ele>
        <time>2012-12-31T22:23:18Z</time>
      </trkpt>
      <trkpt lat="45.88939" lon="6.45971">
        <ele>1925</ele>
        <time>2012-12-31T22:23:22Z</time>
      </trkpt>
      <trkpt lat="45.88938" lon="6.45983">
        <ele>1927</ele>
        <time>2012-12-31T22:23:26Z</time>
      </trkpt>
      <trkpt lat="45.88938" lon="6.45995">
        <ele>1931.5</ele>
        <time>2012-12-31T22:23:30Z</time>
      </trkpt>
      <trkpt lat="45.88937" lon="6.46007">
        <ele>1935.9</ele>
        <time>2012-12-31T22:23:34Z</time>
      </trkpt>
      <trkpt lat="45.88935" lon="6.46019">
        <ele>1940.4</ele>
        <time>2012-12-31T22:23:38Z</time>
      </trkpt>
      <trkpt lat="45.88934" lon="6.46033">
        <ele>1944.8</ele>
        <time>2012-12-31T22:23:42Z</time>
      </trkpt>
      <trkpt lat="45.88932" lon="6.46045">
        <ele>1947.3</ele>
        <time>2012-12-31T22:23:46Z</time>
      </trkpt>
      <trkpt lat="45.88931" lon="6.46059">
        <ele>1949.7</ele>
        <time>2012-12-31T22:23:50Z</time>
      </trkpt>
      <trkpt lat="45.88931" lon="6.46072">
        <ele>1954.5</ele>
        <time>2012-12-31T22:23:54Z</time>
      </trkpt>
      <trkpt lat="45.8893" lon="6.46086">
        <ele>1959.2</ele>
        <time>2012-12-31T22:23:58Z</time>
      </trkpt>
      <trkpt lat="45.88929" lon="6.46099">
        <ele>1963.9</ele>
        <time>2012-12-31T22:24:02Z</time>
      </trkpt>
      <trkpt lat="45.88928" lon="6.46111">
        <ele>1968.6</ele>
        <time>2012-12-31T22:24:06Z</time>
      </trkpt>
      <trkpt lat="45.88927" lon="6.46123">
        <ele>1973.4</ele>
        <time>2012-12-31T22:24:10Z</time>
      </trkpt>
      <trkpt lat="45.88927" lon="6.46135">
        <ele>1975.6</ele>
        <time>2012-12-31T22:24:14Z</time>
      </trkpt>
      <trkpt lat="45.88925" lon="6.46147">
        <ele>1977.9</ele>
        <time>2012-12-31T22:24:18Z</time>
      </trkpt>
      <trkpt lat="45.88924" lon="6.46159">
        <ele>1982.3</ele>
        <time>2012-12-31T22:24:22Z</time>
      </trkpt>
      <trkpt lat="45.88922" lon="6.46171">
        <ele>1986.6</ele>
        <time>2012-12-31T22:24:26Z</time>
      </trkpt>
      <trkpt lat="45.88922" lon="6.46184">
        <ele>1991</ele>
        <time>2012-12-31T22:24:30Z</time>
      </trkpt>
      <trkpt lat="45.8892" lon="6.46196">
        <ele>1995.4</ele>
        <time>2012-12-31T22:24:34Z</time>
      </trkpt>
      <trkpt lat="45.88918" lon="6.46207">
        <ele>1997.5</ele>
        <time>2012-12-31T22:24:38Z</time>
      </trkpt>
      <trkpt lat="45.88916" lon="6.4622">
        <ele>1999.5</ele>
        <time>2012-12-31T22:24:42Z</time>
      </trkpt>
      <trkpt lat="45.88914" lon="6.46233">
        <ele>2001.6</ele>
        <time>2012-12-31T22:24:46Z</time>
      </trkpt>
      <trkpt lat="45.88914" lon="6.46246">
        <ele>2005.6</ele>
        <time>2012-12-31T22:24:50Z</time>
      </trkpt>
      <trkpt lat="45.88913" lon="6.46259">
        <ele>2009.6</ele>
        <time>2012-12-31T22:24:54Z</time>
      </trkpt>
      <trkpt lat="45.88912" lon="6.4627">
        <ele>2013.6</ele>
        <time>2012-12-31T22:24:58Z</time>
      </trkpt>
      <trkpt lat="45.88911" lon="6.46282">
        <ele>2017.6</ele>
        <time>2012-12-31T22:25:02Z</time>
      </trkpt>
      <trkpt lat="45.8891" lon="6.46294">
        <ele>2019.5</ele>
        <time>2012-12-31T22:25:06Z</time>
      </trkpt>
      <trkpt lat="45.88909" lon="6.46306">
        <ele>2021.5</ele>
        <time>2012-12-31T22:25:10Z</time>
      </trkpt>
      <trkpt lat="45.88907" lon="6.4632">
        <ele>2026.4</ele>
        <time>2012-12-31T22:25:15Z</time>
      </trkpt>
      <trkpt lat="45.88906" lon="6.46333">
        <ele>2031.3</ele>
        <time>2012-12-31T22:25:19Z</time>
      </trkpt>
      <trkpt lat="45.88906" lon="6.46345">
        <ele>2036.2</ele>
        <time>2012-12-31T22:25:23Z</time>
      </trkpt>
      <trkpt lat="45.88905" lon="6.46357">
        <ele>2041.1</ele>
        <time>2012-12-31T22:25:27Z</time>
      </trkpt>
      <trkpt lat="45.88905" lon="6.46372">
        <ele>2046</ele>
        <time>2012-12-31T22:25:32Z</time>
      </trkpt>
      <trkpt lat="45.88904" lon="6.46385">
        <ele>2049</ele>
        <time>2012-12-31T22:25:36Z</time>
      </trkpt>
      <trkpt lat="45.88902" lon="6.46397">
        <ele>2052</ele>
        <time>2012-12-31T22:25:40Z</time>
      </trkpt>
      <trkpt lat="45.88901" lon="6.4641">
        <ele>2058</ele>
        <time>2012-12-31T22:25:45Z</time>
      </trkpt>
      <trkpt lat="45.88901" lon="6.46422">
        <ele>2064</ele>
        <time>2012-12-31T22:25:49Z</time>
      </trkpt>
      <trkpt lat="45.889" lon="6.46435">
        <ele>2070</ele>
        <time>2012-12-31T22:25:53Z</time>
      </trkpt>
      <trkpt lat="45.88898" lon="6.46447">
        <ele>2076</ele>
        <time>2012-12-31T22:25:57Z</time>
      </trkpt>
      <trkpt lat="45.88897" lon="6.4646">
        <ele>2079</ele>
        <time>2012-12-31T22:26:01Z</time>
      </trkpt>
      <trkpt lat="45.88895" lon="6.46472">
        <ele>2082</ele>
        <time>2012-12-31T22:26:05Z</time>
      </trkpt>
      <trkpt lat="45.88893" lon="6.46484">
        <ele>2087.4</ele>
        <time>2012-12-31T22:26:09Z</time>
      </trkpt>
      <trkpt lat="45.88893" lon="6.46496">
        <ele>2092.7</ele>
        <time>2012-12-31T22:26:13Z</time>
      </trkpt>
      <trkpt lat="45.88892" lon="6.46508">
        <ele>2098.1</ele>
        <time>2012-12-31T22:26:17Z</time>
      </trkpt>
      <trkpt lat="45.88891" lon="6.46521">
        <ele>2103.5</ele>
        <time>2012-12-31T22:26:21Z</time>
      </trkpt>
      <trkpt lat="45.8889" lon="6.46534">
        <ele>2107.4</ele>
        <time>2012-12-31T22:26:25Z</time>
      </trkpt>
      <trkpt lat="45.88889" lon="6.46547">
        <ele>2108.6</ele>
        <time>2012-12-31T22:26:29Z</time>
      </trkpt>
      <trkpt lat="45.88889" lon="6.46561">
        <ele>2110</ele>
        <time>2012-12-31T22:26:33Z</time>
      </trkpt>
      <trkpt lat="45.88888" lon="6.46573">
        <ele>2111.9</ele>
        <time>2012-12-31T22:26:37Z</time>
      </trkpt>
      <trkpt lat="45.88887" lon="6.46571">
        <ele>2114.3</ele>
        <time>2012-12-31T22:26:47Z</time>
      </trkpt>
      <trkpt lat="45.88887" lon="6.46586">
        <ele>2132.3</ele>
        <time>2012-12-31T22:26:56Z</time>
      </trkpt>
      <trkpt lat="45.88887" lon="6.46586">
        <ele>2135</ele>
        <time>2012-12-31T22:26:56Z</time>
      </trkpt>
      <trkpt lat="45.88885" lon="6.466">
        <ele>2136.4</ele>
        <time>2012-12-31T22:27:00Z</time>
      </trkpt>
      <trkpt lat="45.88884" lon="6.46614">
        <ele>2137.4</ele>
        <time>2012-12-31T22:27:04Z</time>
      </trkpt>
      <trkpt lat="45.88884" lon="6.46628">
        <ele>2138.3</ele>
        <time>2012-12-31T22:27:08Z</time>
      </trkpt>
      <trkpt lat="45.88882" lon="6.46642">
        <ele>2139</ele>
        <time>2012-12-31T22:27:12Z</time>
      </trkpt>
      <trkpt lat="45.88882" lon="6.46655">
        <ele>2141.1</ele>
        <time>2012-12-31T22:27:18Z</time>
      </trkpt>
      <trkpt lat="45.88881" lon="6.46668">
        <ele>2144</ele>
        <time>2012-12-31T22:27:22Z</time>
      </trkpt>
      <trkpt lat="45.88879" lon="6.46681">
        <ele>2146.9</ele>
        <time>2012-12-31T22:27:26Z</time>
      </trkpt>
      <trkpt lat="45.88878" lon="6.46693">
        <ele>2149.8</ele>
        <time>2012-12-31T22:27:30Z</time>
      </trkpt>
      <trkpt lat="45.88877" lon="6.46706">
        <ele>2150.2</ele>
        <time>2012-12-31T22:27:34Z</time>
      </trkpt>
      <trkpt lat="45.88875" lon="6.46719">
        <ele>2150.5</ele>
        <time>2012-12-31T22:27:38Z</time>
      </trkpt>
      <trkpt lat="45.88874" lon="6.46732">
        <ele>2150.9</ele>
        <time>2012-12-31T22:27:42Z</time>
      </trkpt>
      <trkpt lat="45.88874" lon="6.46744">
        <ele>2152.9</ele>
        <time>2012-12-31T22:27:46Z</time>
      </trkpt>
      <trkpt lat="45.88873" lon="6.46756">
        <ele>2154.9</ele>
        <time>2012-12-31T22:27:50Z</time>
      </trkpt>
      <trkpt lat="45.88872" lon="6.4677">
        <ele>2156.9</ele>
        <time>2012-12-31T22:27:55Z</time>
      </trkpt>
      <trkpt lat="45.8887" lon="6.46783">
        <ele>2158.9</ele>
        <time>2012-12-31T22:27:59Z</time>
      </trkpt>
      <trkpt lat="45.88868" lon="6.46796">
        <ele>2160.9</ele>
        <time>2012-12-31T22:28:03Z</time>
      </trkpt>
      <trkpt lat="45.88867" lon="6.46808">
        <ele>2162.1</ele>
        <time>2012-12-31T22:28:07Z</time>
      </trkpt>
      <trkpt lat="45.88864" lon="6.46821">
        <ele>2165.9</ele>
        <time>2012-12-31T22:28:11Z</time>
      </trkpt>
      <trkpt lat="45.88862" lon="6.46834">
        <ele>2169.7</ele>
        <time>2012-12-31T22:28:15Z</time>
      </trkpt>
      <trkpt lat="45.8886" lon="6.46849">
        <ele>2173.5</ele>
        <time>2012-12-31T22:28:19Z</time>
      </trkpt>
      <trkpt lat="45.88858" lon="6.46864">
        <ele>2177.4</ele>
        <time>2012-12-31T22:28:23Z</time>
      </trkpt>
      <trkpt lat="45.88858" lon="6.46877">
        <ele>2181.2</ele>
        <time>2012-12-31T22:28:27Z</time>
      </trkpt>
      <trkpt lat="45.88856" lon="6.4689">
        <ele>2183.8</ele>
        <time>2012-12-31T22:28:31Z</time>
      </trkpt>
      <trkpt lat="45.88851" lon="6.46903">
        <ele>2191</ele>
        <time>2012-12-31T22:28:35Z</time>
      </trkpt>
      <trkpt lat="45.8885" lon="6.46915">
        <ele>2198.2</ele>
        <time>2012-12-31T22:28:39Z</time>
      </trkpt>
      <trkpt lat="45.8885" lon="6.46927">
        <ele>2205.4</ele>
        <time>2012-12-31T22:28:44Z</time>
      </trkpt>
      <trkpt lat="45.88853" lon="6.4694">
        <ele>2209.1</ele>
        <time>2012-12-31T22:28:49Z</time>
      </trkpt>
      <trkpt lat="45.88853" lon="6.46955">
        <ele>2213.7</ele>
        <time>2012-12-31T22:28:54Z</time>
      </trkpt>
      <trkpt lat="45.88853" lon="6.46972">
        <ele>2215.8</ele>
        <time>2012-12-31T22:28:57Z</time>
      </trkpt>
      <trkpt lat="45.88858" lon="6.46985">
        <ele>2218.4</ele>
        <time>2012-12-31T22:29:00Z</time>
      </trkpt>
      <trkpt lat="45.88864" lon="6.46986">
        <ele>2222</ele>
        <time>2012-12-31T22:29:15Z</time>
      </trkpt>
      <trkpt lat="45.88867" lon="6.46984">
        <ele>2222</ele>
        <time>2012-12-31T22:32:33Z</time>
      </trkpt>
      <trkpt lat="45.88867" lon="6.46984">
        <ele>2222</ele>
        <time>2012-12-31T22:32:33Z</time>
      </trkpt>
      <trkpt lat="45.88872" lon="6.46969">
        <ele>2222</ele>
        <time>2012-12-31T22:32:37Z</time>
      </trkpt>
      <trkpt lat="45.88877" lon="6.46961">
        <ele>2222</ele>
        <time>2012-12-31T22:32:50Z</time>
      </trkpt>
      <trkpt lat="45.88877" lon="6.4696">
        <ele>2197</ele>
        <time>2012-12-31T22:33:04Z</time>
      </trkpt>
      <trkpt lat="45.88877" lon="6.4696">
        <ele>2197</ele>
        <time>2012-12-31T22:33:04Z</time>
      </trkpt>
      <trkpt lat="45.88878" lon="6.46959">
        <ele>2197</ele>
        <time>2012-12-31T22:33:05Z</time>
      </trkpt>
      <trkpt lat="45.88882" lon="6.46948">
        <ele>2235</ele>
        <time>2012-12-31T22:34:32Z</time>
      </trkpt>
      <trkpt lat="45.88882" lon="6.46948">
        <ele>2230.1</ele>
        <time>2012-12-31T22:34:32Z</time>
      </trkpt>
      <trkpt lat="45.88885" lon="6.46931">
        <ele>2226.5</ele>
        <time>2012-12-31T22:34:33Z</time>
      </trkpt>
      <trkpt lat="45.88882" lon="6.46918">
        <ele>2223.7</ele>
        <time>2012-12-31T22:34:36Z</time>
      </trkpt>
      <trkpt lat="45.88885" lon="6.46906">
        <ele>2221.4</ele>
        <time>2012-12-31T22:34:47Z</time>
      </trkpt>
      <trkpt lat="45.88889" lon="6.46895">
        <ele>2219.5</ele>
        <time>2012-12-31T22:35:07Z</time>
      </trkpt>
      <trkpt lat="45.88895" lon="6.46866">
        <ele>2216.5</ele>
        <time>2012-12-31T22:35:09Z</time>
      </trkpt>
      <trkpt lat="45.889" lon="6.46855">
        <ele>2211.4</ele>
        <time>2012-12-31T22:35:11Z</time>
      </trkpt>
      <trkpt lat="45.8891" lon="6.4685">
        <ele>2206.3</ele>
        <time>2012-12-31T22:35:13Z</time>
      </trkpt>
      <trkpt lat="45.8892" lon="6.46835">
        <ele>2201.2</ele>
        <time>2012-12-31T22:35:15Z</time>
      </trkpt>
      <trkpt lat="45.88933" lon="6.46825">
        <ele>2196.1</ele>
        <time>2012-12-31T22:35:17Z</time>
      </trkpt>
      <trkpt lat="45.88933" lon="6.46813">
        <ele>2191</ele>
        <time>2012-12-31T22:35:18Z</time>
      </trkpt>
      <trkpt lat="45.88932" lon="6.46797">
        <ele>2189</ele>
        <time>2012-12-31T22:35:20Z</time>
      </trkpt>
      <trkpt lat="45.88936" lon="6.46784">
        <ele>2184.5</ele>
        <time>2012-12-31T22:35:22Z</time>
      </trkpt>
      <trkpt lat="45.88937" lon="6.46764">
        <ele>2179.9</ele>
        <time>2012-12-31T22:35:24Z</time>
      </trkpt>
      <trkpt lat="45.88931" lon="6.4675">
        <ele>2175.4</ele>
        <time>2012-12-31T22:35:26Z</time>
      </trkpt>
      <trkpt lat="45.88932" lon="6.46736">
        <ele>2170.8</ele>
        <time>2012-12-31T22:35:28Z</time>
      </trkpt>
      <trkpt lat="45.88935" lon="6.46722">
        <ele>2166.3</ele>
        <time>2012-12-31T22:35:30Z</time>
      </trkpt>
      <trkpt lat="45.88938" lon="6.46711">
        <ele>2162.6</ele>
        <time>2012-12-31T22:35:32Z</time>
      </trkpt>
      <trkpt lat="45.88943" lon="6.467">
        <ele>2159</ele>
        <time>2012-12-31T22:35:34Z</time>
      </trkpt>
      <trkpt lat="45.88944" lon="6.46686">
        <ele>2155.4</ele>
        <time>2012-12-31T22:35:37Z</time>
      </trkpt>
      <trkpt lat="45.88945" lon="6.46672">
        <ele>2151.7</ele>
        <time>2012-12-31T22:35:39Z</time>
      </trkpt>
      <trkpt lat="45.88955" lon="6.46661">
        <ele>2145.2</ele>
        <time>2012-12-31T22:35:42Z</time>
      </trkpt>
      <trkpt lat="45.88967" lon="6.46659">
        <ele>2138.6</ele>
        <time>2012-12-31T22:35:44Z</time>
      </trkpt>
      <trkpt lat="45.88976" lon="6.46649">
        <ele>2134.6</ele>
        <time>2012-12-31T22:35:46Z</time>
      </trkpt>
      <trkpt lat="45.88991" lon="6.46642">
        <ele>2130.6</ele>
        <time>2012-12-31T22:35:48Z</time>
      </trkpt>
      <trkpt lat="45.88991" lon="6.46629">
        <ele>2126.6</ele>
        <time>2012-12-31T22:35:50Z</time>
      </trkpt>
      <trkpt lat="45.88996" lon="6.46614">
        <ele>2122.6</ele>
        <time>2012-12-31T22:35:52Z</time>
      </trkpt>
      <trkpt lat="45.88999" lon="6.46602">
        <ele>2116</ele>
        <time>2012-12-31T22:35:54Z</time>
      </trkpt>
      <trkpt lat="45.89002" lon="6.46586">
        <ele>2110.5</ele>
        <time>2012-12-31T22:35:56Z</time>
      </trkpt>
      <trkpt lat="45.89015" lon="6.46582">
        <ele>2104.9</ele>
        <time>2012-12-31T22:35:58Z</time>
      </trkpt>
      <trkpt lat="45.89026" lon="6.4657">
        <ele>2099.4</ele>
        <time>2012-12-31T22:36:00Z</time>
      </trkpt>
      <trkpt lat="45.89031" lon="6.46558">
        <ele>2093.8</ele>
        <time>2012-12-31T22:36:02Z</time>
      </trkpt>
      <trkpt lat="45.89032" lon="6.46544">
        <ele>2091.2</ele>
        <time>2012-12-31T22:36:05Z</time>
      </trkpt>
      <trkpt lat="45.89021" lon="6.46537">
        <ele>2088.5</ele>
        <time>2012-12-31T22:36:07Z</time>
      </trkpt>
      <trkpt lat="45.89011" lon="6.46525">
        <ele>2085.9</ele>
        <time>2012-12-31T22:36:09Z</time>
      </trkpt>
      <trkpt lat="45.89014" lon="6.46512">
        <ele>2080.7</ele>
        <time>2012-12-31T22:36:11Z</time>
      </trkpt>
      <trkpt lat="45.89013" lon="6.46499">
        <ele>2075.5</ele>
        <time>2012-12-31T22:36:13Z</time>
      </trkpt>
      <trkpt lat="45.89006" lon="6.46492">
        <ele>2070.4</ele>
        <time>2012-12-31T22:36:15Z</time>
      </trkpt>
      <trkpt lat="45.89005" lon="6.4648">
        <ele>2067.8</ele>
        <time>2012-12-31T22:36:18Z</time>
      </trkpt>
      <trkpt lat="45.89018" lon="6.46466">
        <ele>2065.3</ele>
        <time>2012-12-31T22:36:19Z</time>
      </trkpt>
      <trkpt lat="45.89027" lon="6.46451">
        <ele>2062.7</ele>
        <time>2012-12-31T22:36:21Z</time>
      </trkpt>
      <trkpt lat="45.89037" lon="6.46437">
        <ele>2057.9</ele>
        <time>2012-12-31T22:36:23Z</time>
      </trkpt>
      <trkpt lat="45.89039" lon="6.46421">
        <ele>2053.1</ele>
        <time>2012-12-31T22:36:25Z</time>
      </trkpt>
      <trkpt lat="45.8903" lon="6.4641">
        <ele>2048.3</ele>
        <time>2012-12-31T22:36:26Z</time>
      </trkpt>
      <trkpt lat="45.89032" lon="6.46391">
        <ele>2043.5</ele>
        <time>2012-12-31T22:36:28Z</time>
      </trkpt>
      <trkpt lat="45.8903" lon="6.4638">
        <ele>2038.6</ele>
        <time>2012-12-31T22:36:29Z</time>
      </trkpt>
      <trkpt lat="45.89042" lon="6.46372">
        <ele>2033.9</ele>
        <time>2012-12-31T22:36:30Z</time>
      </trkpt>
      <trkpt lat="45.89043" lon="6.46353">
        <ele>2029.2</ele>
        <time>2012-12-31T22:36:32Z</time>
      </trkpt>
      <trkpt lat="45.89034" lon="6.46336">
        <ele>2024.5</ele>
        <time>2012-12-31T22:36:34Z</time>
      </trkpt>
      <trkpt lat="45.89037" lon="6.46317">
        <ele>2019.7</ele>
        <time>2012-12-31T22:36:36Z</time>
      </trkpt>
      <trkpt lat="45.89038" lon="6.46301">
        <ele>2015</ele>
        <time>2012-12-31T22:36:38Z</time>
      </trkpt>
      <trkpt lat="45.89035" lon="6.46282">
        <ele>2010.3</ele>
        <time>2012-12-31T22:36:40Z</time>
      </trkpt>
      <trkpt lat="45.89039" lon="6.46267">
        <ele>2008.8</ele>
        <time>2012-12-31T22:36:43Z</time>
      </trkpt>
      <trkpt lat="45.89031" lon="6.46257">
        <ele>2007</ele>
        <time>2012-12-31T22:36:46Z</time>
      </trkpt>
      <trkpt lat="45.89024" lon="6.46248">
        <ele>2004.8</ele>
        <time>2012-12-31T22:36:49Z</time>
      </trkpt>
      <trkpt lat="45.89028" lon="6.46236">
        <ele>2001.9</ele>
        <time>2012-12-31T22:36:51Z</time>
      </trkpt>
      <trkpt lat="45.89026" lon="6.46242">
        <ele>1998</ele>
        <time>2012-12-31T22:37:13Z</time>
      </trkpt>
      <trkpt lat="45.89038" lon="6.46233">
        <ele>1984</ele>
        <time>2012-12-31T22:37:35Z</time>
      </trkpt>
      <trkpt lat="45.89038" lon="6.46233">
        <ele>1982</ele>
        <time>2012-12-31T22:37:35Z</time>
      </trkpt>
      <trkpt lat="45.8904" lon="6.4622">
        <ele>1980.5</ele>
        <time>2012-12-31T22:37:37Z</time>
      </trkpt>
      <trkpt lat="45.89048" lon="6.46207">
        <ele>1975.9</ele>
        <time>2012-12-31T22:37:39Z</time>
      </trkpt>
      <trkpt lat="45.89049" lon="6.46192">
        <ele>1972.2</ele>
        <time>2012-12-31T22:37:41Z</time>
      </trkpt>
      <trkpt lat="45.89051" lon="6.46171">
        <ele>1969.2</ele>
        <time>2012-12-31T22:37:43Z</time>
      </trkpt>
      <trkpt lat="45.89053" lon="6.46158">
        <ele>1963.8</ele>
        <time>2012-12-31T22:37:46Z</time>
      </trkpt>
      <trkpt lat="45.89046" lon="6.46149">
        <ele>1958.5</ele>
        <time>2012-12-31T22:37:48Z</time>
      </trkpt>
      <trkpt lat="45.89046" lon="6.46132">
        <ele>1953.1</ele>
        <time>2012-12-31T22:37:51Z</time>
      </trkpt>
      <trkpt lat="45.89047" lon="6.4612">
        <ele>1950.3</ele>
        <time>2012-12-31T22:37:53Z</time>
      </trkpt>
      <trkpt lat="45.89055" lon="6.46115">
        <ele>1947.8</ele>
        <time>2012-12-31T22:37:55Z</time>
      </trkpt>
      <trkpt lat="45.89059" lon="6.46104">
        <ele>1943.1</ele>
        <time>2012-12-31T22:38:01Z</time>
      </trkpt>
      <trkpt lat="45.89048" lon="6.46081">
        <ele>1938.4</ele>
        <time>2012-12-31T22:38:06Z</time>
      </trkpt>
      <trkpt lat="45.89051" lon="6.4607">
        <ele>1933.6</ele>
        <time>2012-12-31T22:38:11Z</time>
      </trkpt>
      <trkpt lat="45.89052" lon="6.46058">
        <ele>1931.7</ele>
        <time>2012-12-31T22:38:14Z</time>
      </trkpt>
      <trkpt lat="45.89044" lon="6.46052">
        <ele>1929.8</ele>
        <time>2012-12-31T22:38:16Z</time>
      </trkpt>
      <trkpt lat="45.89036" lon="6.46043">
        <ele>1925.9</ele>
        <time>2012-12-31T22:38:18Z</time>
      </trkpt>
      <trkpt lat="45.89024" lon="6.4603">
        <ele>1922</ele>
        <time>2012-12-31T22:38:20Z</time>
      </trkpt>
      <trkpt lat="45.89024" lon="6.46007">
        <ele>1919</ele>
        <time>2012-12-31T22:38:22Z</time>
      </trkpt>
      <trkpt lat="45.89026" lon="6.45991">
        <ele>1916</ele>
        <time>2012-12-31T22:38:23Z</time>
      </trkpt>
      <trkpt lat="45.89034" lon="6.45973">
        <ele>1913</ele>
        <time>2012-12-31T22:38:24Z</time>
      </trkpt>
      <trkpt lat="45.89037" lon="6.45959">
        <ele>1909.6</ele>
        <time>2012-12-31T22:38:25Z</time>
      </trkpt>
      <trkpt lat="45.89041" lon="6.4594">
        <ele>1907.9</ele>
        <time>2012-12-31T22:38:26Z</time>
      </trkpt>
      <trkpt lat="45.89052" lon="6.45927">
        <ele>1906.2</ele>
        <time>2012-12-31T22:38:27Z</time>
      </trkpt>
      <trkpt lat="45.89064" lon="6.45914">
        <ele>1904.5</ele>
        <time>2012-12-31T22:38:28Z</time>
      </trkpt>
      <trkpt lat="45.89071" lon="6.459">
        <ele>1902.7</ele>
        <time>2012-12-31T22:38:29Z</time>
      </trkpt>
      <trkpt lat="45.89076" lon="6.45889">
        <ele>1901.2</ele>
        <time>2012-12-31T22:38:30Z</time>
      </trkpt>
      <trkpt lat="45.89087" lon="6.45871">
        <ele>1901.8</ele>
        <time>2012-12-31T22:38:32Z</time>
      </trkpt>
      <trkpt lat="45.89095" lon="6.45862">
        <ele>1902.5</ele>
        <time>2012-12-31T22:38:33Z</time>
      </trkpt>
      <trkpt lat="45.89087" lon="6.45868">
        <ele>1902</ele>
        <time>2012-12-31T22:38:38Z</time>
      </trkpt>
      <trkpt lat="45.89088" lon="6.45868">
        <ele>1901.3</ele>
        <time>2012-12-31T22:38:45Z</time>
      </trkpt>
      <trkpt lat="45.89095" lon="6.45873">
        <ele>1899</ele>
        <time>2012-12-31T22:41:26Z</time>
      </trkpt>
      <trkpt lat="45.89095" lon="6.45873">
        <ele>1899</ele>
        <time>2012-12-31T22:41:26Z</time>
      </trkpt>
      <trkpt lat="45.89095" lon="6.45873">
        <ele>1899</ele>
        <time>2012-12-31T22:41:37Z</time>
      </trkpt>
      <trkpt lat="45.89102" lon="6.45881">
        <ele>1903.7</ele>
        <time>2012-12-31T22:42:37Z</time>
      </trkpt>
      <trkpt lat="45.89102" lon="6.45881">
        <ele>1904</ele>
        <time>2012-12-31T22:42:37Z</time>
      </trkpt>
      <trkpt lat="45.89108" lon="6.45889">
        <ele>1904.2</ele>
        <time>2012-12-31T22:42:50Z</time>
      </trkpt>
      <trkpt lat="45.89112" lon="6.45899">
        <ele>1905.6</ele>
        <time>2012-12-31T22:42:57Z</time>
      </trkpt>
      <trkpt lat="45.89108" lon="6.4591">
        <ele>1906.6</ele>
        <time>2012-12-31T22:43:07Z</time>
      </trkpt>
      <trkpt lat="45.89111" lon="6.45923">
        <ele>1907.5</ele>
        <time>2012-12-31T22:43:12Z</time>
      </trkpt>
      <trkpt lat="45.89113" lon="6.45939">
        <ele>1904.4</ele>
        <time>2012-12-31T22:43:17Z</time>
      </trkpt>
      <trkpt lat="45.89114" lon="6.45954">
        <ele>1901.3</ele>
        <time>2012-12-31T22:43:20Z</time>
      </trkpt>
      <trkpt lat="45.89115" lon="6.45976">
        <ele>1897.5</ele>
        <time>2012-12-31T22:43:22Z</time>
      </trkpt>
      <trkpt lat="45.89118" lon="6.45993">
        <ele>1895.9</ele>
        <time>2012-12-31T22:43:24Z</time>
      </trkpt>
      <trkpt lat="45.89122" lon="6.46009">
        <ele>1894.3</ele>
        <time>2012-12-31T22:43:26Z</time>
      </trkpt>
      <trkpt lat="45.89129" lon="6.46023">
        <ele>1892.6</ele>
        <time>2012-12-31T22:43:29Z</time>
      </trkpt>
      <trkpt lat="45.89136" lon="6.46037">
        <ele>1891</ele>
        <time>2012-12-31T22:43:31Z</time>
      </trkpt>
      <trkpt lat="45.89145" lon="6.46049">
        <ele>1889.4</ele>
        <time>2012-12-31T22:43:32Z</time>
      </trkpt>
      <trkpt lat="45.89151" lon="6.46059">
        <ele>1886.8</ele>
        <time>2012-12-31T22:43:34Z</time>
      </trkpt>
      <trkpt lat="45.89159" lon="6.46069">
        <ele>1884.3</ele>
        <time>2012-12-31T22:43:36Z</time>
      </trkpt>
      <trkpt lat="45.89166" lon="6.46082">
        <ele>1878.1</ele>
        <time>2012-12-31T22:43:38Z</time>
      </trkpt>
      <trkpt lat="45.89177" lon="6.46092">
        <ele>1876.5</ele>
        <time>2012-12-31T22:43:40Z</time>
      </trkpt>
      <trkpt lat="45.89187" lon="6.46101">
        <ele>1877.9</ele>
        <time>2012-12-31T22:43:42Z</time>
      </trkpt>
      <trkpt lat="45.89197" lon="6.46109">
        <ele>1879.3</ele>
        <time>2012-12-31T22:43:44Z</time>
      </trkpt>
      <trkpt lat="45.89209" lon="6.46116">
        <ele>1878.5</ele>
        <time>2012-12-31T22:43:46Z</time>
      </trkpt>
      <trkpt lat="45.89219" lon="6.46122">
        <ele>1877.8</ele>
        <time>2012-12-31T22:43:48Z</time>
      </trkpt>
      <trkpt lat="45.89231" lon="6.46128">
        <ele>1876.8</ele>
        <time>2012-12-31T22:43:51Z</time>
      </trkpt>
      <trkpt lat="45.89238" lon="6.4614">
        <ele>1875.6</ele>
        <time>2012-12-31T22:43:52Z</time>
      </trkpt>
      <trkpt lat="45.89247" lon="6.4614">
        <ele>1874</ele>
        <time>2012-12-31T22:43:54Z</time>
      </trkpt>
      <trkpt lat="45.89255" lon="6.46138">
        <ele>1872</ele>
        <time>2012-12-31T22:43:58Z</time>
      </trkpt>
      <trkpt lat="45.89254" lon="6.46137">
        <ele>1869.3</ele>
        <time>2012-12-31T22:44:08Z</time>
      </trkpt>
      <trkpt lat="45.89247" lon="6.46129">
        <ele>1848</ele>
        <time>2012-12-31T22:44:15Z</time>
      </trkpt>
      <trkpt lat="45.89247" lon="6.46129">
        <ele>1848</ele>
        <time>2012-12-31T22:44:15Z</time>
      </trkpt>
      <trkpt lat="45.89242" lon="6.46119">
        <ele>1844.9</ele>
        <time>2012-12-31T22:44:18Z</time>
      </trkpt>
      <trkpt lat="45.89234" lon="6.46099">
        <ele>1842.4</ele>
        <time>2012-12-31T22:44:20Z</time>
      </trkpt>
      <trkpt lat="45.89229" lon="6.46082">
        <ele>1844.7</ele>
        <time>2012-12-31T22:44:22Z</time>
      </trkpt>
      <trkpt lat="45.89226" lon="6.46067">
        <ele>1846.5</ele>
        <time>2012-12-31T22:44:25Z</time>
      </trkpt>
      <trkpt lat="45.89222" lon="6.46052">
        <ele>1848.1</ele>
        <time>2012-12-31T22:44:26Z</time>
      </trkpt>
      <trkpt lat="45.89216" lon="6.46041">
        <ele>1845.8</ele>
        <time>2012-12-31T22:44:29Z</time>
      </trkpt>
      <trkpt lat="45.89212" lon="6.46028">
        <ele>1843.5</ele>
        <time>2012-12-31T22:44:31Z</time>
      </trkpt>
      <trkpt lat="45.89207" lon="6.46017">
        <ele>1841.3</ele>
        <time>2012-12-31T22:44:33Z</time>
      </trkpt>
      <trkpt lat="45.89203" lon="6.46004">
        <ele>1839</ele>
        <time>2012-12-31T22:44:36Z</time>
      </trkpt>
      <trkpt lat="45.89203" lon="6.4599">
        <ele>1836.7</ele>
        <time>2012-12-31T22:44:37Z</time>
      </trkpt>
      <trkpt lat="45.89212" lon="6.45995">
        <ele>1834.5</ele>
        <time>2012-12-31T22:44:39Z</time>
      </trkpt>
      <trkpt lat="45.89221" lon="6.46001">
        <ele>1834.5</ele>
        <time>2012-12-31T22:44:41Z</time>
      </trkpt>
      <trkpt lat="45.89232" lon="6.46009">
        <ele>1836.7</ele>
        <time>2012-12-31T22:44:44Z</time>
      </trkpt>
      <trkpt lat="45.89239" lon="6.46017">
        <ele>1832.3</ele>
        <time>2012-12-31T22:44:44Z</time>
      </trkpt>
      <trkpt lat="45.89253" lon="6.46026">
        <ele>1827.8</ele>
        <time>2012-12-31T22:44:46Z</time>
      </trkpt>
      <trkpt lat="45.89268" lon="6.46034">
        <ele>1823.4</ele>
        <time>2012-12-31T22:44:48Z</time>
      </trkpt>
      <trkpt lat="45.8927" lon="6.46047">
        <ele>1822.7</ele>
        <time>2012-12-31T22:44:49Z</time>
      </trkpt>
      <trkpt lat="45.89283" lon="6.46058">
        <ele>1822.1</ele>
        <time>2012-12-31T22:44:51Z</time>
      </trkpt>
      <trkpt lat="45.89297" lon="6.46067">
        <ele>1821.5</ele>
        <time>2012-12-31T22:44:53Z</time>
      </trkpt>
      <trkpt lat="45.89311" lon="6.46078">
        <ele>1820.8</ele>
        <time>2012-12-31T22:44:56Z</time>
      </trkpt>
      <trkpt lat="45.89328" lon="6.46087">
        <ele>1819.1</ele>
        <time>2012-12-31T22:44:58Z</time>
      </trkpt>
      <trkpt lat="45.89339" lon="6.4609">
        <ele>1817.4</ele>
        <time>2012-12-31T22:44:58Z</time>
      </trkpt>
      <trkpt lat="45.8935" lon="6.46096">
        <ele>1815.6</ele>
        <time>2012-12-31T22:44:59Z</time>
      </trkpt>
      <trkpt lat="45.89361" lon="6.46102">
        <ele>1811.6</ele>
        <time>2012-12-31T22:45:00Z</time>
      </trkpt>
      <trkpt lat="45.89372" lon="6.46103">
        <ele>1810.5</ele>
        <time>2012-12-31T22:45:01Z</time>
      </trkpt>
      <trkpt lat="45.89382" lon="6.46105">
        <ele>1809.5</ele>
        <time>2012-12-31T22:45:03Z</time>
      </trkpt>
      <trkpt lat="45.89394" lon="6.4611">
        <ele>1808.5</ele>
        <time>2012-12-31T22:45:03Z</time>
      </trkpt>
      <trkpt lat="45.89407" lon="6.46111">
        <ele>1807.5</ele>
        <time>2012-12-31T22:45:04Z</time>
      </trkpt>
      <trkpt lat="45.89417" lon="6.46113">
        <ele>1806.5</ele>
        <time>2012-12-31T22:45:05Z</time>
      </trkpt>
      <trkpt lat="45.89424" lon="6.46119">
        <ele>1805.5</ele>
        <time>2012-12-31T22:45:06Z</time>
      </trkpt>
      <trkpt lat="45.89429" lon="6.46132">
        <ele>1804.1</ele>
        <time>2012-12-31T22:45:07Z</time>
      </trkpt>
      <trkpt lat="45.89432" lon="6.46148">
        <ele>1803.8</ele>
        <time>2012-12-31T22:45:09Z</time>
      </trkpt>
      <trkpt lat="45.89434" lon="6.46166">
        <ele>1803.5</ele>
        <time>2012-12-31T22:45:11Z</time>
      </trkpt>
      <trkpt lat="45.89429" lon="6.4619">
        <ele>1803.3</ele>
        <time>2012-12-31T22:45:13Z</time>
      </trkpt>
      <trkpt lat="45.89423" lon="6.46212">
        <ele>1803</ele>
        <time>2012-12-31T22:45:15Z</time>
      </trkpt>
      <trkpt lat="45.89427" lon="6.46225">
        <ele>1802.7</ele>
        <time>2012-12-31T22:45:16Z</time>
      </trkpt>
      <trkpt lat="45.89428" lon="6.46237">
        <ele>1802.5</ele>
        <time>2012-12-31T22:45:17Z</time>
      </trkpt>
      <trkpt lat="45.89436" lon="6.46258">
        <ele>1797.6</ele>
        <time>2012-12-31T22:45:19Z</time>
      </trkpt>
      <trkpt lat="45.89442" lon="6.46279">
        <ele>1796.9</ele>
        <time>2012-12-31T22:45:21Z</time>
      </trkpt>
      <trkpt lat="45.89446" lon="6.4629">
        <ele>1796</ele>
        <time>2012-12-31T22:45:22Z</time>
      </trkpt>
      <trkpt lat="45.89454" lon="6.46296">
        <ele>1794.9</ele>
        <time>2012-12-31T22:45:23Z</time>
      </trkpt>
      <trkpt lat="45.89463" lon="6.46295">
        <ele>1794</ele>
        <time>2012-12-31T22:45:29Z</time>
      </trkpt>
      <trkpt lat="45.89465" lon="6.46289">
        <ele>1792.8</ele>
        <time>2012-12-31T22:45:54Z</time>
      </trkpt>
      <trkpt lat="45.89474" lon="6.46298">
        <ele>1770</ele>
        <time>2012-12-31T22:46:42Z</time>
      </trkpt>
      <trkpt lat="45.89474" lon="6.46298">
        <ele>1770</ele>
        <time>2012-12-31T22:46:42Z</time>
      </trkpt>
      <trkpt lat="45.89481" lon="6.46305">
        <ele>1770</ele>
        <time>2012-12-31T22:46:44Z</time>
      </trkpt>
      <trkpt lat="45.89488" lon="6.46315">
        <ele>1768</ele>
        <time>2012-12-31T22:46:46Z</time>
      </trkpt>
      <trkpt lat="45.89496" lon="6.46325">
        <ele>1766.4</ele>
        <time>2012-12-31T22:46:49Z</time>
      </trkpt>
      <trkpt lat="45.89503" lon="6.46331">
        <ele>1765.1</ele>
        <time>2012-12-31T22:46:52Z</time>
      </trkpt>
      <trkpt lat="45.89508" lon="6.46318">
        <ele>1763.5</ele>
        <time>2012-12-31T22:47:00Z</time>
      </trkpt>
      <trkpt lat="45.89508" lon="6.46306">
        <ele>1761.8</ele>
        <time>2012-12-31T22:47:02Z</time>
      </trkpt>
      <trkpt lat="45.89505" lon="6.4629">
        <ele>1756.5</ele>
        <time>2012-12-31T22:47:05Z</time>
      </trkpt>
      <trkpt lat="45.89513" lon="6.46296">
        <ele>1751.1</ele>
        <time>2012-12-31T22:47:13Z</time>
      </trkpt>
      <trkpt lat="45.89523" lon="6.46295">
        <ele>1745.7</ele>
        <time>2012-12-31T22:47:26Z</time>
      </trkpt>
      <trkpt lat="45.89529" lon="6.46288">
        <ele>1740.4</ele>
        <time>2012-12-31T22:47:28Z</time>
      </trkpt>
      <trkpt lat="45.89542" lon="6.4628">
        <ele>1733.3</ele>
        <time>2012-12-31T22:47:29Z</time>
      </trkpt>
      <trkpt lat="45.89552" lon="6.4627">
        <ele>1726.2</ele>
        <time>2012-12-31T22:47:31Z</time>
      </trkpt>
      <trkpt lat="45.89563" lon="6.46262">
        <ele>1720.7</ele>
        <time>2012-12-31T22:47:34Z</time>
      </trkpt>
      <trkpt lat="45.89567" lon="6.46248">
        <ele>1715.3</ele>
        <time>2012-12-31T22:47:36Z</time>
      </trkpt>
      <trkpt lat="45.89577" lon="6.46233">
        <ele>1709.8</ele>
        <time>2012-12-31T22:47:38Z</time>
      </trkpt>
      <trkpt lat="45.89578" lon="6.46214">
        <ele>1704.4</ele>
        <time>2012-12-31T22:47:40Z</time>
      </trkpt>
      <trkpt lat="45.89587" lon="6.46208">
        <ele>1698.9</ele>
        <time>2012-12-31T22:47:42Z</time>
      </trkpt>
      <trkpt lat="45.89595" lon="6.46196">
        <ele>1697</ele>
        <time>2012-12-31T22:47:45Z</time>
      </trkpt>
      <trkpt lat="45.89599" lon="6.46184">
        <ele>1692.6</ele>
        <time>2012-12-31T22:47:47Z</time>
      </trkpt>
      <trkpt lat="45.89611" lon="6.46178">
        <ele>1687.2</ele>
        <time>2012-12-31T22:47:49Z</time>
      </trkpt>
      <trkpt lat="45.89607" lon="6.46165">
        <ele>1681.7</ele>
        <time>2012-12-31T22:47:50Z</time>
      </trkpt>
      <trkpt lat="45.89611" lon="6.46149">
        <ele>1678</ele>
        <time>2012-12-31T22:47:52Z</time>
      </trkpt>
      <trkpt lat="45.89615" lon="6.46132">
        <ele>1674.3</ele>
        <time>2012-12-31T22:47:54Z</time>
      </trkpt>
      <trkpt lat="45.89629" lon="6.46134">
        <ele>1670.5</ele>
        <time>2012-12-31T22:47:58Z</time>
      </trkpt>
      <trkpt lat="45.89639" lon="6.46122">
        <ele>1666.8</ele>
        <time>2012-12-31T22:48:01Z</time>
      </trkpt>
      <trkpt lat="45.89645" lon="6.46111">
        <ele>1663.1</ele>
        <time>2012-12-31T22:48:03Z</time>
      </trkpt>
      <trkpt lat="45.89644" lon="6.46098">
        <ele>1659.4</ele>
        <time>2012-12-31T22:48:05Z</time>
      </trkpt>
      <trkpt lat="45.89649" lon="6.46085">
        <ele>1655.6</ele>
        <time>2012-12-31T22:48:07Z</time>
      </trkpt>
      <trkpt lat="45.89659" lon="6.46078">
        <ele>1648.6</ele>
        <time>2012-12-31T22:48:09Z</time>
      </trkpt>
      <trkpt lat="45.89662" lon="6.4609">
        <ele>1644.1</ele>
        <time>2012-12-31T22:48:11Z</time>
      </trkpt>
      <trkpt lat="45.89675" lon="6.46097">
        <ele>1640.6</ele>
        <time>2012-12-31T22:48:26Z</time>
      </trkpt>
      <trkpt lat="45.89687" lon="6.46093">
        <ele>1637.5</ele>
        <time>2012-12-31T22:48:28Z</time>
      </trkpt>
      <trkpt lat="45.89699" lon="6.46088">
        <ele>1634.5</ele>
        <time>2012-12-31T22:48:30Z</time>
      </trkpt>
      <trkpt lat="45.89713" lon="6.46085">
        <ele>1631.4</ele>
        <time>2012-12-31T22:48:32Z</time>
      </trkpt>
      <trkpt lat="45.89717" lon="6.46071">
        <ele>1628.3</ele>
        <time>2012-12-31T22:48:34Z</time>
      </trkpt>
      <trkpt lat="45.89721" lon="6.46057">
        <ele>1625.2</ele>
        <time>2012-12-31T22:48:36Z</time>
      </trkpt>
      <trkpt lat="45.89721" lon="6.46045">
        <ele>1622.1</ele>
        <time>2012-12-31T22:48:42Z</time>
      </trkpt>
      <trkpt lat="45.89729" lon="6.4604">
        <ele>1619</ele>
        <time>2012-12-31T22:48:57Z</time>
      </trkpt>
      <trkpt lat="45.89738" lon="6.46035">
        <ele>1615.9</ele>
        <time>2012-12-31T22:49:00Z</time>
      </trkpt>
      <trkpt lat="45.89746" lon="6.46033">
        <ele>1616.3</ele>
        <time>2012-12-31T22:49:02Z</time>
      </trkpt>
      <trkpt lat="45.89758" lon="6.46031">
        <ele>1612.6</ele>
        <time>2012-12-31T22:49:03Z</time>
      </trkpt>
      <trkpt lat="45.89771" lon="6.46032">
        <ele>1609</ele>
        <time>2012-12-31T22:49:05Z</time>
      </trkpt>
      <trkpt lat="45.8978" lon="6.46028">
        <ele>1605</ele>
        <time>2012-12-31T22:49:07Z</time>
      </trkpt>
      <trkpt lat="45.89782" lon="6.4604">
        <ele>1601</ele>
        <time>2012-12-31T22:49:10Z</time>
      </trkpt>
      <trkpt lat="45.8979" lon="6.46046">
        <ele>1597</ele>
        <time>2012-12-31T22:49:18Z</time>
      </trkpt>
      <trkpt lat="45.89799" lon="6.46048">
        <ele>1593</ele>
        <time>2012-12-31T22:49:20Z</time>
      </trkpt>
      <trkpt lat="45.89812" lon="6.46045">
        <ele>1589</ele>
        <time>2012-12-31T22:49:22Z</time>
      </trkpt>
      <trkpt lat="45.89822" lon="6.46049">
        <ele>1585</ele>
        <time>2012-12-31T22:49:24Z</time>
      </trkpt>
      <trkpt lat="45.89836" lon="6.46046">
        <ele>1576.9</ele>
        <time>2012-12-31T22:49:26Z</time>
      </trkpt>
      <trkpt lat="45.89844" lon="6.46039">
        <ele>1568.8</ele>
        <time>2012-12-31T22:49:27Z</time>
      </trkpt>
      <trkpt lat="45.89853" lon="6.46048">
        <ele>1560.7</ele>
        <time>2012-12-31T22:49:29Z</time>
      </trkpt>
      <trkpt lat="45.89867" lon="6.4604">
        <ele>1556.6</ele>
        <time>2012-12-31T22:49:31Z</time>
      </trkpt>
      <trkpt lat="45.8988" lon="6.46033">
        <ele>1555</ele>
        <time>2012-12-31T22:49:33Z</time>
      </trkpt>
      <trkpt lat="45.89893" lon="6.46028">
        <ele>1553</ele>
        <time>2012-12-31T22:49:35Z</time>
      </trkpt>
      <trkpt lat="45.89906" lon="6.46021">
        <ele>1550.5</ele>
        <time>2012-12-31T22:49:37Z</time>
      </trkpt>
      <trkpt lat="45.89913" lon="6.46029">
        <ele>1547.3</ele>
        <time>2012-12-31T22:49:40Z</time>
      </trkpt>
      <trkpt lat="45.89913" lon="6.4603">
        <ele>1543</ele>
        <time>2012-12-31T22:49:49Z</time>
      </trkpt>
      <trkpt lat="45.89922" lon="6.46031">
        <ele>1522.2</ele>
        <time>2012-12-31T22:49:58Z</time>
      </trkpt>
      <trkpt lat="45.89922" lon="6.46031">
        <ele>1518</ele>
        <time>2012-12-31T22:49:58Z</time>
      </trkpt>
      <trkpt lat="45.89939" lon="6.46023">
        <ele>1514.9</ele>
        <time>2012-12-31T22:50:00Z</time>
      </trkpt>
      <trkpt lat="45.89949" lon="6.46011">
        <ele>1512.4</ele>
        <time>2012-12-31T22:50:02Z</time>
      </trkpt>
      <trkpt lat="45.89963" lon="6.46009">
        <ele>1510.5</ele>
        <time>2012-12-31T22:50:04Z</time>
      </trkpt>
      <trkpt lat="45.89978" lon="6.46006">
        <ele>1506.1</ele>
        <time>2012-12-31T22:50:06Z</time>
      </trkpt>
      <trkpt lat="45.89996" lon="6.46002">
        <ele>1500.1</ele>
        <time>2012-12-31T22:50:08Z</time>
      </trkpt>
      <trkpt lat="45.90009" lon="6.46008">
        <ele>1494.1</ele>
        <time>2012-12-31T22:50:10Z</time>
      </trkpt>
      <trkpt lat="45.90018" lon="6.46011">
        <ele>1488.1</ele>
        <time>2012-12-31T22:50:11Z</time>
      </trkpt>
      <trkpt lat="45.9004" lon="6.46024">
        <ele>1482.1</ele>
        <time>2012-12-31T22:50:14Z</time>
      </trkpt>
      <trkpt lat="45.90048" lon="6.46026">
        <ele>1476.1</ele>
        <time>2012-12-31T22:50:15Z</time>
      </trkpt>
      <trkpt lat="45.90054" lon="6.46018">
        <ele>1474.4</ele>
        <time>2012-12-31T22:50:16Z</time>
      </trkpt>
      <trkpt lat="45.90064" lon="6.46029">
        <ele>1472.3</ele>
        <time>2012-12-31T22:50:18Z</time>
      </trkpt>
      <trkpt lat="45.90061" lon="6.4604">
        <ele>1469.8</ele>
        <time>2012-12-31T22:50:21Z</time>
      </trkpt>
      <trkpt lat="45.90056" lon="6.46049">
        <ele>1466.4</ele>
        <time>2012-12-31T22:50:43Z</time>
      </trkpt>
      <trkpt lat="45.90055" lon="6.4605">
        <ele>1462</ele>
        <time>2012-12-31T22:50:45Z</time>
      </trkpt>
      <trkpt lat="45.90065" lon="6.46044">
        <ele>1462</ele>
        <time>2012-12-31T22:51:34Z</time>
      </trkpt>
      <trkpt lat="45.90065" lon="6.46044">
        <ele>1456.3</ele>
        <time>2012-12-31T22:51:34Z</time>
      </trkpt>
      <trkpt lat="45.90085" lon="6.46033">
        <ele>1452</ele>
        <time>2012-12-31T22:51:36Z</time>
      </trkpt>
      <trkpt lat="45.90097" lon="6.46029">
        <ele>1447.4</ele>
        <time>2012-12-31T22:51:38Z</time>
      </trkpt>
      <trkpt lat="45.90106" lon="6.46034">
        <ele>1443.8</ele>
        <time>2012-12-31T22:51:40Z</time>
      </trkpt>
      <trkpt lat="45.90118" lon="6.46042">
        <ele>1440.8</ele>
        <time>2012-12-31T22:51:42Z</time>
      </trkpt>
      <trkpt lat="45.90129" lon="6.4605">
        <ele>1436.2</ele>
        <time>2012-12-31T22:51:44Z</time>
      </trkpt>
      <trkpt lat="45.90141" lon="6.46049">
        <ele>1431.5</ele>
        <time>2012-12-31T22:51:46Z</time>
      </trkpt>
      <trkpt lat="45.90144" lon="6.46065">
        <ele>1426.9</ele>
        <time>2012-12-31T22:51:50Z</time>
      </trkpt>
      <trkpt lat="45.90148" lon="6.46078">
        <ele>1422.3</ele>
        <time>2012-12-31T22:51:52Z</time>
      </trkpt>
      <trkpt lat="45.90154" lon="6.4607">
        <ele>1417.6</ele>
        <time>2012-12-31T22:51:55Z</time>
      </trkpt>
      <trkpt lat="45.90161" lon="6.46063">
        <ele>1410.3</ele>
        <time>2012-12-31T22:52:00Z</time>
      </trkpt>
      <trkpt lat="45.90172" lon="6.4606">
        <ele>1406.5</ele>
        <time>2012-12-31T22:52:07Z</time>
      </trkpt>
      <trkpt lat="45.90181" lon="6.46065">
        <ele>1402.8</ele>
        <time>2012-12-31T22:52:09Z</time>
      </trkpt>
      <trkpt lat="45.9019" lon="6.46059">
        <ele>1402</ele>
        <time>2012-12-31T22:52:11Z</time>
      </trkpt>
      <trkpt lat="45.902" lon="6.4606">
        <ele>1401</ele>
        <time>2012-12-31T22:52:13Z</time>
      </trkpt>
      <trkpt lat="45.90213" lon="6.46052">
        <ele>1399.8</ele>
        <time>2012-12-31T22:52:15Z</time>
      </trkpt>
      <trkpt lat="45.90226" lon="6.46057">
        <ele>1398.1</ele>
        <time>2012-12-31T22:52:19Z</time>
      </trkpt>
      <trkpt lat="45.9022" lon="6.46056">
        <ele>1396</ele>
        <time>2012-12-31T22:52:30Z</time>
      </trkpt>
      <trkpt lat="45.90244" lon="6.46075">
        <ele>1375.3</ele>
        <time>2012-12-31T22:53:58Z</time>
      </trkpt>
      <trkpt lat="45.90244" lon="6.46075">
        <ele>1371.3</ele>
        <time>2012-12-31T22:53:58Z</time>
      </trkpt>
      <trkpt lat="45.90251" lon="6.46094">
        <ele>1368.2</ele>
        <time>2012-12-31T22:54:00Z</time>
      </trkpt>
      <trkpt lat="45.90262" lon="6.46106">
        <ele>1365.9</ele>
        <time>2012-12-31T22:54:02Z</time>
      </trkpt>
      <trkpt lat="45.90276" lon="6.46118">
        <ele>1364.2</ele>
        <time>2012-12-31T22:54:04Z</time>
      </trkpt>
      <trkpt lat="45.90296" lon="6.46108">
        <ele>1362.8</ele>
        <time>2012-12-31T22:54:06Z</time>
      </trkpt>
      <trkpt lat="45.90305" lon="6.46114">
        <ele>1359.9</ele>
        <time>2012-12-31T22:54:07Z</time>
      </trkpt>
      <trkpt lat="45.90313" lon="6.46119">
        <ele>1357</ele>
        <time>2012-12-31T22:54:08Z</time>
      </trkpt>
      <trkpt lat="45.90324" lon="6.46126">
        <ele>1354.1</ele>
        <time>2012-12-31T22:54:09Z</time>
      </trkpt>
      <trkpt lat="45.90333" lon="6.46135">
        <ele>1351.2</ele>
        <time>2012-12-31T22:54:10Z</time>
      </trkpt>
      <trkpt lat="45.90343" lon="6.46143">
        <ele>1345.4</ele>
        <time>2012-12-31T22:54:11Z</time>
      </trkpt>
      <trkpt lat="45.90355" lon="6.46153">
        <ele>1344</ele>
        <time>2012-12-31T22:54:12Z</time>
      </trkpt>
      <trkpt lat="45.90366" lon="6.46162">
        <ele>1342.6</ele>
        <time>2012-12-31T22:54:13Z</time>
      </trkpt>
      <trkpt lat="45.90375" lon="6.46176">
        <ele>1341.3</ele>
        <time>2012-12-31T22:54:14Z</time>
      </trkpt>
      <trkpt lat="45.90378" lon="6.46195">
        <ele>1339.9</ele>
        <time>2012-12-31T22:54:15Z</time>
      </trkpt>
      <trkpt lat="45.90384" lon="6.4621">
        <ele>1338.4</ele>
        <time>2012-12-31T22:54:16Z</time>
      </trkpt>
      <trkpt lat="45.9039" lon="6.46224">
        <ele>1336.8</ele>
        <time>2012-12-31T22:54:17Z</time>
      </trkpt>
      <trkpt lat="45.90397" lon="6.46237">
        <ele>1335.3</ele>
        <time>2012-12-31T22:54:18Z</time>
      </trkpt>
      <trkpt lat="45.90404" lon="6.46247">
        <ele>1333.7</ele>
        <time>2012-12-31T22:54:19Z</time>
      </trkpt>
      <trkpt lat="45.90409" lon="6.46259">
        <ele>1334.7</ele>
        <time>2012-12-31T22:54:20Z</time>
      </trkpt>
      <trkpt lat="45.90416" lon="6.46266">
        <ele>1335.7</ele>
        <time>2012-12-31T22:54:21Z</time>
      </trkpt>
      <trkpt lat="45.90422" lon="6.46276">
        <ele>1336.9</ele>
        <time>2012-12-31T22:54:22Z</time>
      </trkpt>
      <trkpt lat="45.90429" lon="6.46286">
        <ele>1336.7</ele>
        <time>2012-12-31T22:54:23Z</time>
      </trkpt>
      <trkpt lat="45.90437" lon="6.46293">
        <ele>1336.5</ele>
        <time>2012-12-31T22:54:24Z</time>
      </trkpt>
      <trkpt lat="45.9045" lon="6.46304">
        <ele>1336.4</ele>
        <time>2012-12-31T22:54:26Z</time>
      </trkpt>
      <trkpt lat="45.90457" lon="6.46312">
        <ele>1336.2</ele>
        <time>2012-12-31T22:54:27Z</time>
      </trkpt>
      <trkpt lat="45.90469" lon="6.46326">
        <ele>1336</ele>
        <time>2012-12-31T22:54:29Z</time>
      </trkpt>
      <trkpt lat="45.90477" lon="6.46338">
        <ele>1339.1</ele>
        <time>2012-12-31T22:54:31Z</time>
      </trkpt>
      <trkpt lat="45.90485" lon="6.46347">
        <ele>1342.2</ele>
        <time>2012-12-31T22:54:33Z</time>
      </trkpt>
      <trkpt lat="45.90493" lon="6.46353">
        <ele>1345.3</ele>
        <time>2012-12-31T22:54:35Z</time>
      </trkpt>
      <trkpt lat="45.90498" lon="6.46364">
        <ele>1345.8</ele>
        <time>2012-12-31T22:54:38Z</time>
      </trkpt>
      <trkpt lat="45.90507" lon="6.46372">
        <ele>1343.9</ele>
        <time>2012-12-31T22:54:41Z</time>
      </trkpt>
      <trkpt lat="45.90513" lon="6.46381">
        <ele>1344.7</ele>
        <time>2012-12-31T22:54:44Z</time>
      </trkpt>
      <trkpt lat="45.90521" lon="6.46386">
        <ele>1345.5</ele>
        <time>2012-12-31T22:54:47Z</time>
      </trkpt>
      <trkpt lat="45.90532" lon="6.46386">
        <ele>1346.4</ele>
        <time>2012-12-31T22:54:50Z</time>
      </trkpt>
      <trkpt lat="45.90542" lon="6.46388">
        <ele>1347.2</ele>
        <time>2012-12-31T22:54:53Z</time>
      </trkpt>
      <trkpt lat="45.90551" lon="6.46392">
        <ele>1348</ele>
        <time>2012-12-31T22:54:56Z</time>
      </trkpt>
      <trkpt lat="45.9056" lon="6.46399">
        <ele>1348.8</ele>
        <time>2012-12-31T22:54:59Z</time>
      </trkpt>
      <trkpt lat="45.9057" lon="6.46406">
        <ele>1346.4</ele>
        <time>2012-12-31T22:55:02Z</time>
      </trkpt>
      <trkpt lat="45.9058" lon="6.46408">
        <ele>1341.3</ele>
        <time>2012-12-31T22:55:04Z</time>
      </trkpt>
      <trkpt lat="45.90589" lon="6.4641">
        <ele>1336.2</ele>
        <time>2012-12-31T22:55:06Z</time>
      </trkpt>
      <trkpt lat="45.90599" lon="6.46412">
        <ele>1331.1</ele>
        <time>2012-12-31T22:55:08Z</time>
      </trkpt>
      <trkpt lat="45.90609" lon="6.46416">
        <ele>1328.5</ele>
        <time>2012-12-31T22:55:10Z</time>
      </trkpt>
      <trkpt lat="45.90624" lon="6.46423">
        <ele>1325.8</ele>
        <time>2012-12-31T22:55:11Z</time>
      </trkpt>
      <trkpt lat="45.90633" lon="6.46429">
        <ele>1323.2</ele>
        <time>2012-12-31T22:55:12Z</time>
      </trkpt>
      <trkpt lat="45.90644" lon="6.46435">
        <ele>1323.5</ele>
        <time>2012-12-31T22:55:14Z</time>
      </trkpt>
      <trkpt lat="45.90651" lon="6.46444">
        <ele>1323.7</ele>
        <time>2012-12-31T22:55:15Z</time>
      </trkpt>
      <trkpt lat="45.90661" lon="6.46449">
        <ele>1324</ele>
        <time>2012-12-31T22:55:16Z</time>
      </trkpt>
      <trkpt lat="45.90671" lon="6.46456">
        <ele>1320.5</ele>
        <time>2012-12-31T22:55:18Z</time>
      </trkpt>
      <trkpt lat="45.9068" lon="6.4646">
        <ele>1317.1</ele>
        <time>2012-12-31T22:55:19Z</time>
      </trkpt>
      <trkpt lat="45.90692" lon="6.46469">
        <ele>1316.3</ele>
        <time>2012-12-31T22:55:21Z</time>
      </trkpt>
      <trkpt lat="45.90697" lon="6.46479">
        <ele>1315.5</ele>
        <time>2012-12-31T22:55:23Z</time>
      </trkpt>
      <trkpt lat="45.90709" lon="6.46486">
        <ele>1314.6</ele>
        <time>2012-12-31T22:55:25Z</time>
      </trkpt>
      <trkpt lat="45.90721" lon="6.46497">
        <ele>1315.7</ele>
        <time>2012-12-31T22:55:27Z</time>
      </trkpt>
      <trkpt lat="45.90733" lon="6.46505">
        <ele>1316.8</ele>
        <time>2012-12-31T22:55:29Z</time>
      </trkpt>
      <trkpt lat="45.90747" lon="6.46516">
        <ele>1317.9</ele>
        <time>2012-12-31T22:55:31Z</time>
      </trkpt>
      <trkpt lat="45.90759" lon="6.46525">
        <ele>1313.5</ele>
        <time>2012-12-31T22:55:33Z</time>
      </trkpt>
      <trkpt lat="45.9077" lon="6.46534">
        <ele>1309</ele>
        <time>2012-12-31T22:55:35Z</time>
      </trkpt>
      <trkpt lat="45.9077" lon="6.46553">
        <ele>1304.5</ele>
        <time>2012-12-31T22:55:37Z</time>
      </trkpt>
      <trkpt lat="45.9078" lon="6.46565">
        <ele>1303.8</ele>
        <time>2012-12-31T22:55:39Z</time>
      </trkpt>
      <trkpt lat="45.90791" lon="6.46579">
        <ele>1303.1</ele>
        <time>2012-12-31T22:55:41Z</time>
      </trkpt>
      <trkpt lat="45.908" lon="6.46589">
        <ele>1302.4</ele>
        <time>2012-12-31T22:55:43Z</time>
      </trkpt>
      <trkpt lat="45.90807" lon="6.46596">
        <ele>1303.1</ele>
        <time>2012-12-31T22:55:44Z</time>
      </trkpt>
      <trkpt lat="45.90814" lon="6.46603">
        <ele>1303.8</ele>
        <time>2012-12-31T22:55:45Z</time>
      </trkpt>
      <trkpt lat="45.90821" lon="6.46609">
        <ele>1302.6</ele>
        <time>2012-12-31T22:55:46Z</time>
      </trkpt>
      <trkpt lat="45.9083" lon="6.46618">
        <ele>1300.1</ele>
        <time>2012-12-31T22:55:49Z</time>
      </trkpt>
      <trkpt lat="45.9084" lon="6.46623">
        <ele>1297.5</ele>
        <time>2012-12-31T22:55:50Z</time>
      </trkpt>
      <trkpt lat="45.90852" lon="6.46632">
        <ele>1297.6</ele>
        <time>2012-12-31T22:55:52Z</time>
      </trkpt>
      <trkpt lat="45.90862" lon="6.46639">
        <ele>1297.7</ele>
        <time>2012-12-31T22:55:54Z</time>
      </trkpt>
      <trkpt lat="45.90874" lon="6.46653">
        <ele>1297.8</ele>
        <time>2012-12-31T22:55:56Z</time>
      </trkpt>
      <trkpt lat="45.90887" lon="6.4666">
        <ele>1297.9</ele>
        <time>2012-12-31T22:55:58Z</time>
      </trkpt>
      <trkpt lat="45.90893" lon="6.46667">
        <ele>1298</ele>
        <time>2012-12-31T22:55:59Z</time>
      </trkpt>
      <trkpt lat="45.90899" lon="6.46676">
        <ele>1299.9</ele>
        <time>2012-12-31T22:56:00Z</time>
      </trkpt>
      <trkpt lat="45.90909" lon="6.46688">
        <ele>1300.4</ele>
        <time>2012-12-31T22:56:02Z</time>
      </trkpt>
      <trkpt lat="45.90916" lon="6.46696">
        <ele>1298.7</ele>
        <time>2012-12-31T22:56:03Z</time>
      </trkpt>
      <trkpt lat="45.90924" lon="6.46705">
        <ele>1297.1</ele>
        <time>2012-12-31T22:56:04Z</time>
      </trkpt>
      <trkpt lat="45.90931" lon="6.46713">
        <ele>1296.8</ele>
        <time>2012-12-31T22:56:05Z</time>
      </trkpt>
      <trkpt lat="45.90942" lon="6.46728">
        <ele>1296.5</ele>
        <time>2012-12-31T22:56:07Z</time>
      </trkpt>
      <trkpt lat="45.90954" lon="6.46739">
        <ele>1296.3</ele>
        <time>2012-12-31T22:56:09Z</time>
      </trkpt>
      <trkpt lat="45.90967" lon="6.46744">
        <ele>1295.4</ele>
        <time>2012-12-31T22:56:11Z</time>
      </trkpt>
      <trkpt lat="45.90976" lon="6.46746">
        <ele>1294.5</ele>
        <time>2012-12-31T22:56:12Z</time>
      </trkpt>
      <trkpt lat="45.90985" lon="6.46747">
        <ele>1294.5</ele>
        <time>2012-12-31T22:56:13Z</time>
      </trkpt>
      <trkpt lat="45.90994" lon="6.46737">
        <ele>1294.6</ele>
        <time>2012-12-31T22:56:15Z</time>
      </trkpt>
      <trkpt lat="45.91004" lon="6.46732">
        <ele>1292.1</ele>
        <time>2012-12-31T22:56:17Z</time>
      </trkpt>
      <trkpt lat="45.91013" lon="6.46722">
        <ele>1289</ele>
        <time>2012-12-31T22:56:20Z</time>
      </trkpt>
      <trkpt lat="45.91009" lon="6.4672">
        <ele>1288.7</ele>
        <time>2012-12-31T22:56:44Z</time>
      </trkpt>
      <trkpt lat="45.91016" lon="6.46711">
        <ele>1284</ele>
        <time>2012-12-31T22:57:58Z</time>
      </trkpt>
      <trkpt lat="45.91016" lon="6.46711">
        <ele>1284</ele>
        <time>2012-12-31T22:57:58Z</time>
      </trkpt>
      <trkpt lat="45.91024" lon="6.46706">
        <ele>1284</ele>
        <time>2012-12-31T22:58:11Z</time>
      </trkpt>
      <trkpt lat="45.91031" lon="6.46712">
        <ele>1284</ele>
        <time>2012-12-31T22:58:18Z</time>
      </trkpt>
      <trkpt lat="45.91031" lon="6.46711">
        <ele>1284</ele>
        <time>2012-12-31T22:58:28Z</time>
      </trkpt>
      <trkpt lat="45.91025" lon="6.46722">
        <ele>1288.7</ele>
        <time>2012-12-31T22:58:54Z</time>
      </trkpt>
      <trkpt lat="45.91025" lon="6.46722">
        <ele>1288.7</ele>
        <time>2012-12-31T22:58:54Z</time>
      </trkpt>
      <trkpt lat="45.91023" lon="6.46718">
        <ele>1288.7</ele>
        <time>2012-12-31T22:59:10Z</time>
      </trkpt>
      <trkpt lat="45.91018" lon="6.46728">
        <ele>1291</ele>
        <time>2012-12-31T23:06:09Z</time>
      </trkpt>
      <trkpt lat="45.91018" lon="6.46728">
        <ele>1291</ele>
        <time>2012-12-31T23:06:09Z</time>
      </trkpt>
      <trkpt lat="45.91009" lon="6.46741">
        <ele>1291</ele>
        <time>2012-12-31T23:06:11Z</time>
      </trkpt>
      <trkpt lat="45.91" lon="6.46757">
        <ele>1291.8</ele>
        <time>2012-12-31T23:06:13Z</time>
      </trkpt>
      <trkpt lat="45.90995" lon="6.46766">
        <ele>1295.5</ele>
        <time>2012-12-31T23:06:14Z</time>
      </trkpt>
      <trkpt lat="45.9099" lon="6.46775">
        <ele>1298.5</ele>
        <time>2012-12-31T23:06:15Z</time>
      </trkpt>
      <trkpt lat="45.90984" lon="6.46784">
        <ele>1302</ele>
        <time>2012-12-31T23:06:16Z</time>
      </trkpt>
      <trkpt lat="45.90973" lon="6.46799">
        <ele>1305.5</ele>
        <time>2012-12-31T23:06:18Z</time>
      </trkpt>
      <trkpt lat="45.90964" lon="6.46812">
        <ele>1308.9</ele>
        <time>2012-12-31T23:06:20Z</time>
      </trkpt>
      <trkpt lat="45.90955" lon="6.46823">
        <ele>1312.4</ele>
        <time>2012-12-31T23:06:22Z</time>
      </trkpt>
      <trkpt lat="45.90946" lon="6.46842">
        <ele>1316.5</ele>
        <time>2012-12-31T23:06:24Z</time>
      </trkpt>
      <trkpt lat="45.90937" lon="6.46853">
        <ele>1320.7</ele>
        <time>2012-12-31T23:06:26Z</time>
      </trkpt>
      <trkpt lat="45.90933" lon="6.46864">
        <ele>1324.9</ele>
        <time>2012-12-31T23:06:28Z</time>
      </trkpt>
      <trkpt lat="45.90923" lon="6.46873">
        <ele>1329.1</ele>
        <time>2012-12-31T23:06:30Z</time>
      </trkpt>
      <trkpt lat="45.90917" lon="6.46882">
        <ele>1336.3</ele>
        <time>2012-12-31T23:06:32Z</time>
      </trkpt>
      <trkpt lat="45.90905" lon="6.46894">
        <ele>1340.6</ele>
        <time>2012-12-31T23:06:35Z</time>
      </trkpt>
      <trkpt lat="45.90898" lon="6.46906">
        <ele>1345</ele>
        <time>2012-12-31T23:06:38Z</time>
      </trkpt>
      <trkpt lat="45.9089" lon="6.46919">
        <ele>1349.4</ele>
        <time>2012-12-31T23:06:41Z</time>
      </trkpt>
      <trkpt lat="45.90883" lon="6.46927">
        <ele>1353.6</ele>
        <time>2012-12-31T23:06:43Z</time>
      </trkpt>
      <trkpt lat="45.90876" lon="6.46936">
        <ele>1357.9</ele>
        <time>2012-12-31T23:06:45Z</time>
      </trkpt>
      <trkpt lat="45.90869" lon="6.46946">
        <ele>1362.2</ele>
        <time>2012-12-31T23:06:47Z</time>
      </trkpt>
      <trkpt lat="45.90862" lon="6.46955">
        <ele>1365.7</ele>
        <time>2012-12-31T23:06:49Z</time>
      </trkpt>
      <trkpt lat="45.90855" lon="6.46963">
        <ele>1369.3</ele>
        <time>2012-12-31T23:06:51Z</time>
      </trkpt>
      <trkpt lat="45.90846" lon="6.46974">
        <ele>1372.8</ele>
        <time>2012-12-31T23:06:54Z</time>
      </trkpt>
      <trkpt lat="45.90837" lon="6.46986">
        <ele>1376.4</ele>
        <time>2012-12-31T23:06:57Z</time>
      </trkpt>
      <trkpt lat="45.90831" lon="6.46995">
        <ele>1376.3</ele>
        <time>2012-12-31T23:06:59Z</time>
      </trkpt>
      <trkpt lat="45.90825" lon="6.47004">
        <ele>1377.6</ele>
        <time>2012-12-31T23:07:01Z</time>
      </trkpt>
      <trkpt lat="45.90818" lon="6.47012">
        <ele>1379</ele>
        <time>2012-12-31T23:07:03Z</time>
      </trkpt>
      <trkpt lat="45.90812" lon="6.47019">
        <ele>1380.4</ele>
        <time>2012-12-31T23:07:05Z</time>
      </trkpt>
      <trkpt lat="45.90803" lon="6.4703">
        <ele>1381.8</ele>
        <time>2012-12-31T23:07:08Z</time>
      </trkpt>
      <trkpt lat="45.90795" lon="6.47042">
        <ele>1383.3</ele>
        <time>2012-12-31T23:07:11Z</time>
      </trkpt>
      <trkpt lat="45.90789" lon="6.47054">
        <ele>1384.7</ele>
        <time>2012-12-31T23:07:14Z</time>
      </trkpt>
      <trkpt lat="45.90781" lon="6.47067">
        <ele>1386.2</ele>
        <time>2012-12-31T23:07:17Z</time>
      </trkpt>
      <trkpt lat="45.90776" lon="6.47075">
        <ele>1386.1</ele>
        <time>2012-12-31T23:07:19Z</time>
      </trkpt>
      <trkpt lat="45.90768" lon="6.47088">
        <ele>1386</ele>
        <time>2012-12-31T23:07:22Z</time>
      </trkpt>
      <trkpt lat="45.90761" lon="6.47101">
        <ele>1385.9</ele>
        <time>2012-12-31T23:07:25Z</time>
      </trkpt>
      <trkpt lat="45.90754" lon="6.47114">
        <ele>1385.8</ele>
        <time>2012-12-31T23:07:28Z</time>
      </trkpt>
      <trkpt lat="45.90746" lon="6.47125">
        <ele>1387.9</ele>
        <time>2012-12-31T23:07:31Z</time>
      </trkpt>
      <trkpt lat="45.90739" lon="6.47136">
        <ele>1390</ele>
        <time>2012-12-31T23:07:34Z</time>
      </trkpt>
      <trkpt lat="45.90731" lon="6.47149">
        <ele>1392.1</ele>
        <time>2012-12-31T23:07:37Z</time>
      </trkpt>
      <trkpt lat="45.90725" lon="6.47158">
        <ele>1394.2</ele>
        <time>2012-12-31T23:07:39Z</time>
      </trkpt>
      <trkpt lat="45.90717" lon="6.47164">
        <ele>1397.1</ele>
        <time>2012-12-31T23:07:40Z</time>
      </trkpt>
      <trkpt lat="45.90708" lon="6.47176">
        <ele>1400</ele>
        <time>2012-12-31T23:07:42Z</time>
      </trkpt>
      <trkpt lat="45.90702" lon="6.4719">
        <ele>1402.9</ele>
        <time>2012-12-31T23:07:45Z</time>
      </trkpt>
      <trkpt lat="45.90695" lon="6.47201">
        <ele>1407.4</ele>
        <time>2012-12-31T23:07:48Z</time>
      </trkpt>
      <trkpt lat="45.90689" lon="6.47211">
        <ele>1411.8</ele>
        <time>2012-12-31T23:07:50Z</time>
      </trkpt>
      <trkpt lat="45.90683" lon="6.47221">
        <ele>1416.3</ele>
        <time>2012-12-31T23:07:52Z</time>
      </trkpt>
      <trkpt lat="45.90677" lon="6.4723">
        <ele>1420.7</ele>
        <time>2012-12-31T23:07:54Z</time>
      </trkpt>
      <trkpt lat="45.90671" lon="6.47239">
        <ele>1421.5</ele>
        <time>2012-12-31T23:07:56Z</time>
      </trkpt>
      <trkpt lat="45.90662" lon="6.47251">
        <ele>1425.3</ele>
        <time>2012-12-31T23:07:59Z</time>
      </trkpt>
      <trkpt lat="45.90654" lon="6.47263">
        <ele>1429</ele>
        <time>2012-12-31T23:08:02Z</time>
      </trkpt>
      <trkpt lat="45.90646" lon="6.47274">
        <ele>1432.7</ele>
        <time>2012-12-31T23:08:05Z</time>
      </trkpt>
      <trkpt lat="45.90638" lon="6.47286">
        <ele>1435.6</ele>
        <time>2012-12-31T23:08:08Z</time>
      </trkpt>
      <trkpt lat="45.90632" lon="6.47294">
        <ele>1438.5</ele>
        <time>2012-12-31T23:08:10Z</time>
      </trkpt>
      <trkpt lat="45.90626" lon="6.47302">
        <ele>1441.5</ele>
        <time>2012-12-31T23:08:12Z</time>
      </trkpt>
      <trkpt lat="45.9062" lon="6.4731">
        <ele>1444.4</ele>
        <time>2012-12-31T23:08:14Z</time>
      </trkpt>
      <trkpt lat="45.90611" lon="6.47321">
        <ele>1447.3</ele>
        <time>2012-12-31T23:08:17Z</time>
      </trkpt>
      <trkpt lat="45.90603" lon="6.47333">
        <ele>1452.3</ele>
        <time>2012-12-31T23:08:20Z</time>
      </trkpt>
      <trkpt lat="45.90594" lon="6.47344">
        <ele>1457.3</ele>
        <time>2012-12-31T23:08:23Z</time>
      </trkpt>
      <trkpt lat="45.90586" lon="6.47354">
        <ele>1462.3</ele>
        <time>2012-12-31T23:08:26Z</time>
      </trkpt>
      <trkpt lat="45.90579" lon="6.47366">
        <ele>1466.6</ele>
        <time>2012-12-31T23:08:29Z</time>
      </trkpt>
      <trkpt lat="45.90572" lon="6.47379">
        <ele>1471</ele>
        <time>2012-12-31T23:08:32Z</time>
      </trkpt>
      <trkpt lat="45.90565" lon="6.4739">
        <ele>1475.4</ele>
        <time>2012-12-31T23:08:35Z</time>
      </trkpt>
      <trkpt lat="45.90556" lon="6.474">
        <ele>1479.7</ele>
        <time>2012-12-31T23:08:38Z</time>
      </trkpt>
      <trkpt lat="45.90548" lon="6.47409">
        <ele>1485.6</ele>
        <time>2012-12-31T23:08:41Z</time>
      </trkpt>
      <trkpt lat="45.90539" lon="6.47421">
        <ele>1491.5</ele>
        <time>2012-12-31T23:08:44Z</time>
      </trkpt>
      <trkpt lat="45.90532" lon="6.47429">
        <ele>1497.5</ele>
        <time>2012-12-31T23:08:46Z</time>
      </trkpt>
      <trkpt lat="45.90524" lon="6.4744">
        <ele>1503.4</ele>
        <time>2012-12-31T23:08:49Z</time>
      </trkpt>
      <trkpt lat="45.90513" lon="6.47455">
        <ele>1507.2</ele>
        <time>2012-12-31T23:08:53Z</time>
      </trkpt>
      <trkpt lat="45.90504" lon="6.47469">
        <ele>1511</ele>
        <time>2012-12-31T23:08:57Z</time>
      </trkpt>
      <trkpt lat="45.90495" lon="6.47481">
        <ele>1517</ele>
        <time>2012-12-31T23:09:00Z</time>
      </trkpt>
      <trkpt lat="45.90483" lon="6.47491">
        <ele>1523.3</ele>
        <time>2012-12-31T23:09:02Z</time>
      </trkpt>
      <trkpt lat="45.9048" lon="6.47507">
        <ele>1529.5</ele>
        <time>2012-12-31T23:09:05Z</time>
      </trkpt>
      <trkpt lat="45.90474" lon="6.47516">
        <ele>1535.8</ele>
        <time>2012-12-31T23:09:07Z</time>
      </trkpt>
      <trkpt lat="45.90468" lon="6.47527">
        <ele>1542.1</ele>
        <time>2012-12-31T23:09:10Z</time>
      </trkpt>
      <trkpt lat="45.90461" lon="6.47538">
        <ele>1546.8</ele>
        <time>2012-12-31T23:09:13Z</time>
      </trkpt>
      <trkpt lat="45.90453" lon="6.47549">
        <ele>1551.5</ele>
        <time>2012-12-31T23:09:16Z</time>
      </trkpt>
      <trkpt lat="45.90443" lon="6.4756">
        <ele>1556.3</ele>
        <time>2012-12-31T23:09:19Z</time>
      </trkpt>
      <trkpt lat="45.90437" lon="6.47568">
        <ele>1561</ele>
        <time>2012-12-31T23:09:21Z</time>
      </trkpt>
      <trkpt lat="45.9043" lon="6.4758">
        <ele>1566.7</ele>
        <time>2012-12-31T23:09:24Z</time>
      </trkpt>
      <trkpt lat="45.90423" lon="6.47592">
        <ele>1572.5</ele>
        <time>2012-12-31T23:09:27Z</time>
      </trkpt>
      <trkpt lat="45.90416" lon="6.47605">
        <ele>1576</ele>
        <time>2012-12-31T23:09:30Z</time>
      </trkpt>
      <trkpt lat="45.9041" lon="6.47613">
        <ele>1581.1</ele>
        <time>2012-12-31T23:09:32Z</time>
      </trkpt>
      <trkpt lat="45.90404" lon="6.47623">
        <ele>1586.2</ele>
        <time>2012-12-31T23:09:34Z</time>
      </trkpt>
      <trkpt lat="45.90398" lon="6.47631">
        <ele>1591.3</ele>
        <time>2012-12-31T23:09:36Z</time>
      </trkpt>
      <trkpt lat="45.90391" lon="6.47639">
        <ele>1596.4</ele>
        <time>2012-12-31T23:09:38Z</time>
      </trkpt>
      <trkpt lat="45.90384" lon="6.47646">
        <ele>1601.5</ele>
        <time>2012-12-31T23:09:40Z</time>
      </trkpt>
      <trkpt lat="45.90377" lon="6.47654">
        <ele>1606.5</ele>
        <time>2012-12-31T23:09:42Z</time>
      </trkpt>
      <trkpt lat="45.9037" lon="6.47661">
        <ele>1611.6</ele>
        <time>2012-12-31T23:09:44Z</time>
      </trkpt>
      <trkpt lat="45.90361" lon="6.47671">
        <ele>1617.8</ele>
        <time>2012-12-31T23:09:47Z</time>
      </trkpt>
      <trkpt lat="45.90355" lon="6.47682">
        <ele>1623</ele>
        <time>2012-12-31T23:09:50Z</time>
      </trkpt>
      <trkpt lat="45.90346" lon="6.47693">
        <ele>1628.2</ele>
        <time>2012-12-31T23:09:53Z</time>
      </trkpt>
      <trkpt lat="45.9034" lon="6.47701">
        <ele>1633.4</ele>
        <time>2012-12-31T23:09:55Z</time>
      </trkpt>
      <trkpt lat="45.90331" lon="6.47712">
        <ele>1634.5</ele>
        <time>2012-12-31T23:09:58Z</time>
      </trkpt>
      <trkpt lat="45.90322" lon="6.47723">
        <ele>1638.2</ele>
        <time>2012-12-31T23:10:01Z</time>
      </trkpt>
      <trkpt lat="45.90316" lon="6.47731">
        <ele>1641.9</ele>
        <time>2012-12-31T23:10:03Z</time>
      </trkpt>
      <trkpt lat="45.90309" lon="6.4774">
        <ele>1645.6</ele>
        <time>2012-12-31T23:10:05Z</time>
      </trkpt>
      <trkpt lat="45.90303" lon="6.47748">
        <ele>1649.4</ele>
        <time>2012-12-31T23:10:07Z</time>
      </trkpt>
      <trkpt lat="45.90296" lon="6.47756">
        <ele>1655.3</ele>
        <time>2012-12-31T23:10:09Z</time>
      </trkpt>
      <trkpt lat="45.90285" lon="6.47767">
        <ele>1661.2</ele>
        <time>2012-12-31T23:10:11Z</time>
      </trkpt>
      <trkpt lat="45.90276" lon="6.4778">
        <ele>1666</ele>
        <time>2012-12-31T23:10:14Z</time>
      </trkpt>
      <trkpt lat="45.90269" lon="6.47788">
        <ele>1670.8</ele>
        <time>2012-12-31T23:10:16Z</time>
      </trkpt>
      <trkpt lat="45.90262" lon="6.47796">
        <ele>1675.6</ele>
        <time>2012-12-31T23:10:18Z</time>
      </trkpt>
      <trkpt lat="45.90254" lon="6.47805">
        <ele>1680.5</ele>
        <time>2012-12-31T23:10:20Z</time>
      </trkpt>
      <trkpt lat="45.90248" lon="6.47812">
        <ele>1685.3</ele>
        <time>2012-12-31T23:10:22Z</time>
      </trkpt>
      <trkpt lat="45.9024" lon="6.4782">
        <ele>1691</ele>
        <time>2012-12-31T23:10:24Z</time>
      </trkpt>
      <trkpt lat="45.90232" lon="6.47829">
        <ele>1696.7</ele>
        <time>2012-12-31T23:10:28Z</time>
      </trkpt>
      <trkpt lat="45.90225" lon="6.47836">
        <ele>1702.5</ele>
        <time>2012-12-31T23:10:30Z</time>
      </trkpt>
      <trkpt lat="45.9022" lon="6.47845">
        <ele>1711</ele>
        <time>2012-12-31T23:10:32Z</time>
      </trkpt>
      <trkpt lat="45.90211" lon="6.47853">
        <ele>1717.4</ele>
        <time>2012-12-31T23:10:34Z</time>
      </trkpt>
      <trkpt lat="45.90204" lon="6.47861">
        <ele>1723.7</ele>
        <time>2012-12-31T23:10:36Z</time>
      </trkpt>
      <trkpt lat="45.90195" lon="6.4787">
        <ele>1730.1</ele>
        <time>2012-12-31T23:10:38Z</time>
      </trkpt>
      <trkpt lat="45.9019" lon="6.47881">
        <ele>1736.5</ele>
        <time>2012-12-31T23:10:41Z</time>
      </trkpt>
      <trkpt lat="45.90182" lon="6.47891">
        <ele>1742.8</ele>
        <time>2012-12-31T23:10:44Z</time>
      </trkpt>
      <trkpt lat="45.90175" lon="6.47899">
        <ele>1749.2</ele>
        <time>2012-12-31T23:10:46Z</time>
      </trkpt>
      <trkpt lat="45.90167" lon="6.47907">
        <ele>1755.5</ele>
        <time>2012-12-31T23:10:49Z</time>
      </trkpt>
      <trkpt lat="45.90158" lon="6.47916">
        <ele>1758.4</ele>
        <time>2012-12-31T23:10:51Z</time>
      </trkpt>
      <trkpt lat="45.90152" lon="6.47924">
        <ele>1766.5</ele>
        <time>2012-12-31T23:10:55Z</time>
      </trkpt>
      <trkpt lat="45.90148" lon="6.47934">
        <ele>1774.7</ele>
        <time>2012-12-31T23:10:58Z</time>
      </trkpt>
      <trkpt lat="45.90142" lon="6.47947">
        <ele>1780.1</ele>
        <time>2012-12-31T23:11:01Z</time>
      </trkpt>
      <trkpt lat="45.90134" lon="6.47959">
        <ele>1785.5</ele>
        <time>2012-12-31T23:11:04Z</time>
      </trkpt>
      <trkpt lat="45.90128" lon="6.47966">
        <ele>1790.8</ele>
        <time>2012-12-31T23:11:06Z</time>
      </trkpt>
      <trkpt lat="45.90121" lon="6.47974">
        <ele>1796.2</ele>
        <time>2012-12-31T23:11:08Z</time>
      </trkpt>
      <trkpt lat="45.90114" lon="6.47981">
        <ele>1801.5</ele>
        <time>2012-12-31T23:11:10Z</time>
      </trkpt>
      <trkpt lat="45.90108" lon="6.47988">
        <ele>1806.9</ele>
        <time>2012-12-31T23:11:12Z</time>
      </trkpt>
      <trkpt lat="45.90102" lon="6.47996">
        <ele>1814.8</ele>
        <time>2012-12-31T23:11:14Z</time>
      </trkpt>
      <trkpt lat="45.90093" lon="6.48008">
        <ele>1822.7</ele>
        <time>2012-12-31T23:11:17Z</time>
      </trkpt>
      <trkpt lat="45.90086" lon="6.48019">
        <ele>1830.6</ele>
        <time>2012-12-31T23:11:20Z</time>
      </trkpt>
      <trkpt lat="45.90079" lon="6.48031">
        <ele>1833.2</ele>
        <time>2012-12-31T23:11:23Z</time>
      </trkpt>
      <trkpt lat="45.90073" lon="6.48043">
        <ele>1839.2</ele>
        <time>2012-12-31T23:11:26Z</time>
      </trkpt>
      <trkpt lat="45.90066" lon="6.48053">
        <ele>1845.2</ele>
        <time>2012-12-31T23:11:29Z</time>
      </trkpt>
      <trkpt lat="45.9006" lon="6.48064">
        <ele>1851.2</ele>
        <time>2012-12-31T23:11:32Z</time>
      </trkpt>
      <trkpt lat="45.90055" lon="6.48074">
        <ele>1857.2</ele>
        <time>2012-12-31T23:11:35Z</time>
      </trkpt>
      <trkpt lat="45.90048" lon="6.48087">
        <ele>1863.2</ele>
        <time>2012-12-31T23:11:38Z</time>
      </trkpt>
      <trkpt lat="45.90042" lon="6.481">
        <ele>1869.2</ele>
        <time>2012-12-31T23:11:41Z</time>
      </trkpt>
      <trkpt lat="45.90034" lon="6.48113">
        <ele>1876.3</ele>
        <time>2012-12-31T23:11:44Z</time>
      </trkpt>
      <trkpt lat="45.90026" lon="6.48126">
        <ele>1878.8</ele>
        <time>2012-12-31T23:11:47Z</time>
      </trkpt>
      <trkpt lat="45.90039" lon="6.48131">
        <ele>1881.9</ele>
        <time>2012-12-31T23:12:07Z</time>
      </trkpt>
      <trkpt lat="45.90036" lon="6.48117">
        <ele>1885.8</ele>
        <time>2012-12-31T23:12:09Z</time>
      </trkpt>
      <trkpt lat="45.90037" lon="6.48129">
        <ele>1890.7</ele>
        <time>2012-12-31T23:12:20Z</time>
      </trkpt>
      <trkpt lat="45.90039" lon="6.48134">
        <ele>1891</ele>
        <time>2012-12-31T23:12:34Z</time>
      </trkpt>
      <trkpt lat="45.90042" lon="6.4814">
        <ele>1887</ele>
        <time>2012-12-31T23:13:26Z</time>
      </trkpt>
      <trkpt lat="45.90042" lon="6.4814">
        <ele>1887</ele>
        <time>2012-12-31T23:13:26Z</time>
      </trkpt>
      <trkpt lat="45.90046" lon="6.48145">
        <ele>1887</ele>
        <time>2012-12-31T23:13:44Z</time>
      </trkpt>
      <trkpt lat="45.90049" lon="6.48146">
        <ele>1859</ele>
        <time>2012-12-31T23:14:38Z</time>
      </trkpt>
      <trkpt lat="45.90049" lon="6.48146">
        <ele>1859</ele>
        <time>2012-12-31T23:14:38Z</time>
      </trkpt>
      <trkpt lat="45.90052" lon="6.48154">
        <ele>1859</ele>
        <time>2012-12-31T23:14:58Z</time>
      </trkpt>
      <trkpt lat="45.9005" lon="6.48158">
        <ele>1859</ele>
        <time>2012-12-31T23:15:14Z</time>
      </trkpt>
      <trkpt lat="45.9005" lon="6.48158">
        <ele>1859</ele>
        <time>2012-12-31T23:15:14Z</time>
      </trkpt>
      <trkpt lat="45.90052" lon="6.48163">
        <ele>1859</ele>
        <time>2012-12-31T23:15:34Z</time>
      </trkpt>
      <trkpt lat="45.90053" lon="6.4817">
        <ele>1859</ele>
        <time>2012-12-31T23:16:06Z</time>
      </trkpt>
      <trkpt lat="45.90053" lon="6.4817">
        <ele>1859</ele>
        <time>2012-12-31T23:16:06Z</time>
      </trkpt>
      <trkpt lat="45.90053" lon="6.48171">
        <ele>1859</ele>
        <time>2012-12-31T23:16:16Z</time>
      </trkpt>
      <trkpt lat="45.90043" lon="6.48175">
        <ele>1900.8</ele>
        <time>2012-12-31T23:16:37Z</time>
      </trkpt>
      <trkpt lat="45.90043" lon="6.48175">
        <ele>1900.7</ele>
        <time>2012-12-31T23:16:37Z</time>
      </trkpt>
      <trkpt lat="45.90036" lon="6.48186">
        <ele>1900.6</ele>
        <time>2012-12-31T23:16:41Z</time>
      </trkpt>
      <trkpt lat="45.90031" lon="6.48198">
        <ele>1900.6</ele>
        <time>2012-12-31T23:16:44Z</time>
      </trkpt>
      <trkpt lat="45.90025" lon="6.48209">
        <ele>1900.5</ele>
        <time>2012-12-31T23:16:48Z</time>
      </trkpt>
      <trkpt lat="45.9002" lon="6.48219">
        <ele>1900.5</ele>
        <time>2012-12-31T23:16:51Z</time>
      </trkpt>
      <trkpt lat="45.90014" lon="6.48228">
        <ele>1900.4</ele>
        <time>2012-12-31T23:16:54Z</time>
      </trkpt>
      <trkpt lat="45.90009" lon="6.48238">
        <ele>1900.3</ele>
        <time>2012-12-31T23:16:58Z</time>
      </trkpt>
      <trkpt lat="45.90002" lon="6.48247">
        <ele>1900.2</ele>
        <time>2012-12-31T23:17:03Z</time>
      </trkpt>
      <trkpt lat="45.89993" lon="6.48253">
        <ele>1906.3</ele>
        <time>2012-12-31T23:17:07Z</time>
      </trkpt>
      <trkpt lat="45.89984" lon="6.48259">
        <ele>1912.4</ele>
        <time>2012-12-31T23:17:11Z</time>
      </trkpt>
      <trkpt lat="45.89977" lon="6.48267">
        <ele>1918.5</ele>
        <time>2012-12-31T23:17:15Z</time>
      </trkpt>
      <trkpt lat="45.89972" lon="6.48279">
        <ele>1924.7</ele>
        <time>2012-12-31T23:17:21Z</time>
      </trkpt>
      <trkpt lat="45.89965" lon="6.48289">
        <ele>1930.9</ele>
        <time>2012-12-31T23:17:26Z</time>
      </trkpt>
      <trkpt lat="45.89959" lon="6.48298">
        <ele>1937.1</ele>
        <time>2012-12-31T23:17:31Z</time>
      </trkpt>
      <trkpt lat="45.89953" lon="6.48307">
        <ele>1943.3</ele>
        <time>2012-12-31T23:17:36Z</time>
      </trkpt>
      <trkpt lat="45.89947" lon="6.48316">
        <ele>1949.5</ele>
        <time>2012-12-31T23:17:41Z</time>
      </trkpt>
      <trkpt lat="45.89941" lon="6.48325">
        <ele>1955.6</ele>
        <time>2012-12-31T23:17:47Z</time>
      </trkpt>
      <trkpt lat="45.89934" lon="6.48332">
        <ele>1961.8</ele>
        <time>2012-12-31T23:17:53Z</time>
      </trkpt>
      <trkpt lat="45.89927" lon="6.48339">
        <ele>1968.9</ele>
        <time>2012-12-31T23:17:58Z</time>
      </trkpt>
      <trkpt lat="45.89918" lon="6.48346">
        <ele>1969.8</ele>
        <time>2012-12-31T23:18:02Z</time>
      </trkpt>
      <trkpt lat="45.89912" lon="6.48356">
        <ele>1975</ele>
        <time>2012-12-31T23:18:07Z</time>
      </trkpt>
      <trkpt lat="45.89906" lon="6.48367">
        <ele>1980.2</ele>
        <time>2012-12-31T23:18:12Z</time>
      </trkpt>
      <trkpt lat="45.899" lon="6.48375">
        <ele>1985.4</ele>
        <time>2012-12-31T23:18:17Z</time>
      </trkpt>
      <trkpt lat="45.89893" lon="6.48383">
        <ele>1990.5</ele>
        <time>2012-12-31T23:18:22Z</time>
      </trkpt>
      <trkpt lat="45.89885" lon="6.48391">
        <ele>1995.7</ele>
        <time>2012-12-31T23:18:27Z</time>
      </trkpt>
      <trkpt lat="45.8988" lon="6.484">
        <ele>2000.9</ele>
        <time>2012-12-31T23:18:32Z</time>
      </trkpt>
      <trkpt lat="45.89873" lon="6.48407">
        <ele>2006.1</ele>
        <time>2012-12-31T23:18:36Z</time>
      </trkpt>
      <trkpt lat="45.89866" lon="6.48415">
        <ele>2012.2</ele>
        <time>2012-12-31T23:18:41Z</time>
      </trkpt>
      <trkpt lat="45.89861" lon="6.48427">
        <ele>2018.3</ele>
        <time>2012-12-31T23:18:47Z</time>
      </trkpt>
      <trkpt lat="45.89855" lon="6.48435">
        <ele>2023.5</ele>
        <time>2012-12-31T23:18:52Z</time>
      </trkpt>
      <trkpt lat="45.89849" lon="6.48443">
        <ele>2028.6</ele>
        <time>2012-12-31T23:18:56Z</time>
      </trkpt>
      <trkpt lat="45.89844" lon="6.48454">
        <ele>2029.5</ele>
        <time>2012-12-31T23:19:01Z</time>
      </trkpt>
      <trkpt lat="45.89839" lon="6.48464">
        <ele>2030.5</ele>
        <time>2012-12-31T23:19:06Z</time>
      </trkpt>
      <trkpt lat="45.89834" lon="6.48476">
        <ele>2031.4</ele>
        <time>2012-12-31T23:19:12Z</time>
      </trkpt>
      <trkpt lat="45.89828" lon="6.48483">
        <ele>2032.3</ele>
        <time>2012-12-31T23:19:17Z</time>
      </trkpt>
      <trkpt lat="45.8982" lon="6.48492">
        <ele>2036.9</ele>
        <time>2012-12-31T23:19:23Z</time>
      </trkpt>
      <trkpt lat="45.89814" lon="6.48502">
        <ele>2043.4</ele>
        <time>2012-12-31T23:19:27Z</time>
      </trkpt>
      <trkpt lat="45.89808" lon="6.4851">
        <ele>2049.8</ele>
        <time>2012-12-31T23:19:31Z</time>
      </trkpt>
      <trkpt lat="45.89802" lon="6.48519">
        <ele>2055.4</ele>
        <time>2012-12-31T23:19:35Z</time>
      </trkpt>
      <trkpt lat="45.89797" lon="6.48529">
        <ele>2060.9</ele>
        <time>2012-12-31T23:19:40Z</time>
      </trkpt>
      <trkpt lat="45.89792" lon="6.4854">
        <ele>2066.5</ele>
        <time>2012-12-31T23:19:47Z</time>
      </trkpt>
      <trkpt lat="45.89788" lon="6.48551">
        <ele>2072</ele>
        <time>2012-12-31T23:19:55Z</time>
      </trkpt>
      <trkpt lat="45.89782" lon="6.48561">
        <ele>2077.5</ele>
        <time>2012-12-31T23:20:01Z</time>
      </trkpt>
      <trkpt lat="45.89773" lon="6.48566">
        <ele>2081.8</ele>
        <time>2012-12-31T23:20:06Z</time>
      </trkpt>
      <trkpt lat="45.89765" lon="6.48573">
        <ele>2087</ele>
        <time>2012-12-31T23:20:11Z</time>
      </trkpt>
      <trkpt lat="45.89757" lon="6.48582">
        <ele>2093.5</ele>
        <time>2012-12-31T23:20:15Z</time>
      </trkpt>
      <trkpt lat="45.89748" lon="6.48592">
        <ele>2096</ele>
        <time>2012-12-31T23:20:18Z</time>
      </trkpt>
      <trkpt lat="45.89745" lon="6.48595">
        <ele>2096</ele>
        <time>2012-12-31T23:20:30Z</time>
      </trkpt>
      <trkpt lat="45.89747" lon="6.4858">
        <ele>2092.7</ele>
        <time>2012-12-31T23:21:30Z</time>
      </trkpt>
      <trkpt lat="45.89747" lon="6.4858">
        <ele>2090.3</ele>
        <time>2012-12-31T23:21:30Z</time>
      </trkpt>
      <trkpt lat="45.89743" lon="6.48567">
        <ele>2088.5</ele>
        <time>2012-12-31T23:21:35Z</time>
      </trkpt>
      <trkpt lat="45.89739" lon="6.48557">
        <ele>2088.1</ele>
        <time>2012-12-31T23:21:38Z</time>
      </trkpt>
      <trkpt lat="45.89733" lon="6.48547">
        <ele>2087.8</ele>
        <time>2012-12-31T23:21:41Z</time>
      </trkpt>
      <trkpt lat="45.89727" lon="6.4854">
        <ele>2087.5</ele>
        <time>2012-12-31T23:21:43Z</time>
      </trkpt>
      <trkpt lat="45.8972" lon="6.48532">
        <ele>2086.5</ele>
        <time>2012-12-31T23:21:45Z</time>
      </trkpt>
      <trkpt lat="45.89713" lon="6.48526">
        <ele>2085.5</ele>
        <time>2012-12-31T23:21:47Z</time>
      </trkpt>
      <trkpt lat="45.897" lon="6.4852">
        <ele>2082.5</ele>
        <time>2012-12-31T23:21:49Z</time>
      </trkpt>
      <trkpt lat="45.89687" lon="6.48516">
        <ele>2079.4</ele>
        <time>2012-12-31T23:21:51Z</time>
      </trkpt>
      <trkpt lat="45.89677" lon="6.485">
        <ele>2076.3</ele>
        <time>2012-12-31T23:21:53Z</time>
      </trkpt>
      <trkpt lat="45.89693" lon="6.48489">
        <ele>2074.3</ele>
        <time>2012-12-31T23:21:55Z</time>
      </trkpt>
      <trkpt lat="45.89701" lon="6.48474">
        <ele>2072.3</ele>
        <time>2012-12-31T23:21:57Z</time>
      </trkpt>
      <trkpt lat="45.89701" lon="6.48457">
        <ele>2068.7</ele>
        <time>2012-12-31T23:21:59Z</time>
      </trkpt>
      <trkpt lat="45.89707" lon="6.48445">
        <ele>2064.4</ele>
        <time>2012-12-31T23:22:01Z</time>
      </trkpt>
      <trkpt lat="45.89707" lon="6.48428">
        <ele>2060</ele>
        <time>2012-12-31T23:22:03Z</time>
      </trkpt>
      <trkpt lat="45.89712" lon="6.48409">
        <ele>2055.6</ele>
        <time>2012-12-31T23:22:05Z</time>
      </trkpt>
      <trkpt lat="45.89718" lon="6.48393">
        <ele>2051.3</ele>
        <time>2012-12-31T23:22:07Z</time>
      </trkpt>
      <trkpt lat="45.89728" lon="6.48375">
        <ele>2046.9</ele>
        <time>2012-12-31T23:22:09Z</time>
      </trkpt>
      <trkpt lat="45.89733" lon="6.48365">
        <ele>2044.6</ele>
        <time>2012-12-31T23:22:10Z</time>
      </trkpt>
      <trkpt lat="45.89741" lon="6.48354">
        <ele>2042.4</ele>
        <time>2012-12-31T23:22:11Z</time>
      </trkpt>
      <trkpt lat="45.89746" lon="6.48344">
        <ele>2040.1</ele>
        <time>2012-12-31T23:22:12Z</time>
      </trkpt>
      <trkpt lat="45.89756" lon="6.48337">
        <ele>2038.7</ele>
        <time>2012-12-31T23:22:14Z</time>
      </trkpt>
      <trkpt lat="45.89765" lon="6.48323">
        <ele>2037</ele>
        <time>2012-12-31T23:22:17Z</time>
      </trkpt>
      <trkpt lat="45.89766" lon="6.48311">
        <ele>2037</ele>
        <time>2012-12-31T23:22:19Z</time>
      </trkpt>
      <trkpt lat="45.89765" lon="6.48298">
        <ele>2037</ele>
        <time>2012-12-31T23:22:21Z</time>
      </trkpt>
      <trkpt lat="45.89766" lon="6.48301">
        <ele>2037</ele>
        <time>2012-12-31T23:22:35Z</time>
      </trkpt>
      <trkpt lat="45.89757" lon="6.48297">
        <ele>2019</ele>
        <time>2012-12-31T23:25:23Z</time>
      </trkpt>
      <trkpt lat="45.89757" lon="6.48297">
        <ele>2019</ele>
        <time>2012-12-31T23:25:23Z</time>
      </trkpt>
      <trkpt lat="45.89762" lon="6.48296">
        <ele>2019</ele>
        <time>2012-12-31T23:25:35Z</time>
      </trkpt>
      <trkpt lat="45.8975" lon="6.48304">
        <ele>2037</ele>
        <time>2012-12-31T23:33:23Z</time>
      </trkpt>
      <trkpt lat="45.8975" lon="6.48304">
        <ele>2037</ele>
        <time>2012-12-31T23:33:23Z</time>
      </trkpt>
      <trkpt lat="45.89744" lon="6.48312">
        <ele>2037</ele>
        <time>2012-12-31T23:33:41Z</time>
      </trkpt>
      <trkpt lat="45.8974" lon="6.48322">
        <ele>2037.1</ele>
        <time>2012-12-31T23:33:46Z</time>
      </trkpt>
      <trkpt lat="45.89734" lon="6.48331">
        <ele>2037.2</ele>
        <time>2012-12-31T23:33:49Z</time>
      </trkpt>
      <trkpt lat="45.89726" lon="6.4834">
        <ele>2039.5</ele>
        <time>2012-12-31T23:33:52Z</time>
      </trkpt>
      <trkpt lat="45.89719" lon="6.48347">
        <ele>2041.7</ele>
        <time>2012-12-31T23:33:54Z</time>
      </trkpt>
      <trkpt lat="45.89711" lon="6.48357">
        <ele>2044</ele>
        <time>2012-12-31T23:33:57Z</time>
      </trkpt>
      <trkpt lat="45.89703" lon="6.48366">
        <ele>2046.3</ele>
        <time>2012-12-31T23:34:00Z</time>
      </trkpt>
      <trkpt lat="45.89696" lon="6.48376">
        <ele>2048.5</ele>
        <time>2012-12-31T23:34:04Z</time>
      </trkpt>
      <trkpt lat="45.89689" lon="6.48386">
        <ele>2050.8</ele>
        <time>2012-12-31T23:34:08Z</time>
      </trkpt>
      <trkpt lat="45.89681" lon="6.48394">
        <ele>2053.1</ele>
        <time>2012-12-31T23:34:12Z</time>
      </trkpt>
      <trkpt lat="45.89673" lon="6.48405">
        <ele>2055.4</ele>
        <time>2012-12-31T23:34:16Z</time>
      </trkpt>
      <trkpt lat="45.89667" lon="6.48413">
        <ele>2057.6</ele>
        <time>2012-12-31T23:34:19Z</time>
      </trkpt>
      <trkpt lat="45.8966" lon="6.48421">
        <ele>2064.3</ele>
        <time>2012-12-31T23:34:22Z</time>
      </trkpt>
      <trkpt lat="45.89653" lon="6.48428">
        <ele>2070.9</ele>
        <time>2012-12-31T23:34:25Z</time>
      </trkpt>
      <trkpt lat="45.89646" lon="6.48438">
        <ele>2075.4</ele>
        <time>2012-12-31T23:34:29Z</time>
      </trkpt>
      <trkpt lat="45.89638" lon="6.48448">
        <ele>2079.8</ele>
        <time>2012-12-31T23:34:33Z</time>
      </trkpt>
      <trkpt lat="45.89631" lon="6.48456">
        <ele>2084.3</ele>
        <time>2012-12-31T23:34:36Z</time>
      </trkpt>
      <trkpt lat="45.89624" lon="6.48465">
        <ele>2088.7</ele>
        <time>2012-12-31T23:34:42Z</time>
      </trkpt>
      <trkpt lat="45.89618" lon="6.48474">
        <ele>2093.2</ele>
        <time>2012-12-31T23:34:45Z</time>
      </trkpt>
      <trkpt lat="45.89612" lon="6.48484">
        <ele>2097.6</ele>
        <time>2012-12-31T23:34:49Z</time>
      </trkpt>
      <trkpt lat="45.89606" lon="6.48493">
        <ele>2104.3</ele>
        <time>2012-12-31T23:34:54Z</time>
      </trkpt>
      <trkpt lat="45.89601" lon="6.48503">
        <ele>2110.9</ele>
        <time>2012-12-31T23:34:58Z</time>
      </trkpt>
      <trkpt lat="45.89595" lon="6.48513">
        <ele>2117.5</ele>
        <time>2012-12-31T23:35:02Z</time>
      </trkpt>
      <trkpt lat="45.89589" lon="6.48524">
        <ele>2119.7</ele>
        <time>2012-12-31T23:35:07Z</time>
      </trkpt>
      <trkpt lat="45.89584" lon="6.48535">
        <ele>2121.9</ele>
        <time>2012-12-31T23:35:12Z</time>
      </trkpt>
      <trkpt lat="45.89578" lon="6.48546">
        <ele>2126.3</ele>
        <time>2012-12-31T23:35:17Z</time>
      </trkpt>
      <trkpt lat="45.8957" lon="6.48556">
        <ele>2130.6</ele>
        <time>2012-12-31T23:35:21Z</time>
      </trkpt>
      <trkpt lat="45.89562" lon="6.48565">
        <ele>2135</ele>
        <time>2012-12-31T23:35:25Z</time>
      </trkpt>
      <trkpt lat="45.89555" lon="6.48574">
        <ele>2139.4</ele>
        <time>2012-12-31T23:35:30Z</time>
      </trkpt>
      <trkpt lat="45.89548" lon="6.48582">
        <ele>2145.8</ele>
        <time>2012-12-31T23:35:33Z</time>
      </trkpt>
      <trkpt lat="45.89542" lon="6.4859">
        <ele>2152.3</ele>
        <time>2012-12-31T23:35:36Z</time>
      </trkpt>
      <trkpt lat="45.89533" lon="6.48599">
        <ele>2156.5</ele>
        <time>2012-12-31T23:35:39Z</time>
      </trkpt>
      <trkpt lat="45.89526" lon="6.48608">
        <ele>2160.8</ele>
        <time>2012-12-31T23:35:43Z</time>
      </trkpt>
      <trkpt lat="45.8952" lon="6.48617">
        <ele>2165.1</ele>
        <time>2012-12-31T23:35:47Z</time>
      </trkpt>
      <trkpt lat="45.89513" lon="6.48626">
        <ele>2169.4</ele>
        <time>2012-12-31T23:35:51Z</time>
      </trkpt>
      <trkpt lat="45.89505" lon="6.48637">
        <ele>2173.6</ele>
        <time>2012-12-31T23:35:54Z</time>
      </trkpt>
      <trkpt lat="45.89499" lon="6.48646">
        <ele>2175.7</ele>
        <time>2012-12-31T23:35:57Z</time>
      </trkpt>
      <trkpt lat="45.89492" lon="6.48654">
        <ele>2177.8</ele>
        <time>2012-12-31T23:36:00Z</time>
      </trkpt>
      <trkpt lat="45.89486" lon="6.48662">
        <ele>2182.5</ele>
        <time>2012-12-31T23:36:04Z</time>
      </trkpt>
      <trkpt lat="45.89481" lon="6.48673">
        <ele>2187.3</ele>
        <time>2012-12-31T23:36:08Z</time>
      </trkpt>
      <trkpt lat="45.89479" lon="6.48684">
        <ele>2191.2</ele>
        <time>2012-12-31T23:36:11Z</time>
      </trkpt>
      <trkpt lat="45.89473" lon="6.48695">
        <ele>2195.1</ele>
        <time>2012-12-31T23:36:15Z</time>
      </trkpt>
      <trkpt lat="45.89465" lon="6.48704">
        <ele>2199</ele>
        <time>2012-12-31T23:36:19Z</time>
      </trkpt>
      <trkpt lat="45.89457" lon="6.4871">
        <ele>2202.9</ele>
        <time>2012-12-31T23:36:23Z</time>
      </trkpt>
      <trkpt lat="45.8945" lon="6.48719">
        <ele>2206.8</ele>
        <time>2012-12-31T23:36:27Z</time>
      </trkpt>
      <trkpt lat="45.89442" lon="6.48729">
        <ele>2210.7</ele>
        <time>2012-12-31T23:36:31Z</time>
      </trkpt>
      <trkpt lat="45.89435" lon="6.48738">
        <ele>2214.6</ele>
        <time>2012-12-31T23:36:35Z</time>
      </trkpt>
      <trkpt lat="45.89427" lon="6.48747">
        <ele>2218.5</ele>
        <time>2012-12-31T23:36:39Z</time>
      </trkpt>
      <trkpt lat="45.89421" lon="6.48755">
        <ele>2222.5</ele>
        <time>2012-12-31T23:36:43Z</time>
      </trkpt>
      <trkpt lat="45.89413" lon="6.48766">
        <ele>2227.5</ele>
        <time>2012-12-31T23:36:47Z</time>
      </trkpt>
      <trkpt lat="45.89407" lon="6.48774">
        <ele>2232.5</ele>
        <time>2012-12-31T23:36:50Z</time>
      </trkpt>
      <trkpt lat="45.894" lon="6.48783">
        <ele>2236.2</ele>
        <time>2012-12-31T23:36:54Z</time>
      </trkpt>
      <trkpt lat="45.89393" lon="6.48792">
        <ele>2239.9</ele>
        <time>2012-12-31T23:36:58Z</time>
      </trkpt>
      <trkpt lat="45.89385" lon="6.48802">
        <ele>2243.6</ele>
        <time>2012-12-31T23:37:02Z</time>
      </trkpt>
      <trkpt lat="45.89379" lon="6.48809">
        <ele>2247.4</ele>
        <time>2012-12-31T23:37:05Z</time>
      </trkpt>
      <trkpt lat="45.89372" lon="6.48817">
        <ele>2251.1</ele>
        <time>2012-12-31T23:37:09Z</time>
      </trkpt>
      <trkpt lat="45.89367" lon="6.4883">
        <ele>2254.8</ele>
        <time>2012-12-31T23:37:14Z</time>
      </trkpt>
      <trkpt lat="45.89361" lon="6.4884">
        <ele>2258.5</ele>
        <time>2012-12-31T23:37:18Z</time>
      </trkpt>
      <trkpt lat="45.89355" lon="6.48849">
        <ele>2264.2</ele>
        <time>2012-12-31T23:37:21Z</time>
      </trkpt>
      <trkpt lat="45.8935" lon="6.48857">
        <ele>2269.8</ele>
        <time>2012-12-31T23:37:24Z</time>
      </trkpt>
      <trkpt lat="45.89343" lon="6.48867">
        <ele>2271.7</ele>
        <time>2012-12-31T23:37:28Z</time>
      </trkpt>
      <trkpt lat="45.89337" lon="6.48876">
        <ele>2273.6</ele>
        <time>2012-12-31T23:37:32Z</time>
      </trkpt>
      <trkpt lat="45.89331" lon="6.48884">
        <ele>2275.5</ele>
        <time>2012-12-31T23:37:35Z</time>
      </trkpt>
      <trkpt lat="45.89324" lon="6.48893">
        <ele>2279.3</ele>
        <time>2012-12-31T23:37:39Z</time>
      </trkpt>
      <trkpt lat="45.89316" lon="6.48904">
        <ele>2283</ele>
        <time>2012-12-31T23:37:43Z</time>
      </trkpt>
      <trkpt lat="45.89309" lon="6.48913">
        <ele>2286.7</ele>
        <time>2012-12-31T23:37:46Z</time>
      </trkpt>
      <trkpt lat="45.89302" lon="6.48921">
        <ele>2291.6</ele>
        <time>2012-12-31T23:37:49Z</time>
      </trkpt>
      <trkpt lat="45.89295" lon="6.4893">
        <ele>2296.5</ele>
        <time>2012-12-31T23:37:53Z</time>
      </trkpt>
      <trkpt lat="45.89289" lon="6.48941">
        <ele>2301.5</ele>
        <time>2012-12-31T23:37:58Z</time>
      </trkpt>
      <trkpt lat="45.89283" lon="6.48952">
        <ele>2304.5</ele>
        <time>2012-12-31T23:38:02Z</time>
      </trkpt>
      <trkpt lat="45.89276" lon="6.48962">
        <ele>2307.5</ele>
        <time>2012-12-31T23:38:06Z</time>
      </trkpt>
      <trkpt lat="45.89269" lon="6.4897">
        <ele>2310.5</ele>
        <time>2012-12-31T23:38:09Z</time>
      </trkpt>
      <trkpt lat="45.89262" lon="6.48978">
        <ele>2313.5</ele>
        <time>2012-12-31T23:38:13Z</time>
      </trkpt>
      <trkpt lat="45.89256" lon="6.48987">
        <ele>2316.5</ele>
        <time>2012-12-31T23:38:17Z</time>
      </trkpt>
      <trkpt lat="45.89249" lon="6.48996">
        <ele>2317.6</ele>
        <time>2012-12-31T23:38:20Z</time>
      </trkpt>
      <trkpt lat="45.89242" lon="6.49006">
        <ele>2320.4</ele>
        <time>2012-12-31T23:38:24Z</time>
      </trkpt>
      <trkpt lat="45.89236" lon="6.49014">
        <ele>2323.1</ele>
        <time>2012-12-31T23:38:27Z</time>
      </trkpt>
      <trkpt lat="45.8923" lon="6.49021">
        <ele>2325.5</ele>
        <time>2012-12-31T23:38:31Z</time>
      </trkpt>
      <trkpt lat="45.89222" lon="6.49027">
        <ele>2328</ele>
        <time>2012-12-31T23:38:35Z</time>
      </trkpt>
      <trkpt lat="45.89214" lon="6.49035">
        <ele>2330.5</ele>
        <time>2012-12-31T23:38:39Z</time>
      </trkpt>
      <trkpt lat="45.89205" lon="6.49042">
        <ele>2332.9</ele>
        <time>2012-12-31T23:38:42Z</time>
      </trkpt>
      <trkpt lat="45.89198" lon="6.4905">
        <ele>2335.4</ele>
        <time>2012-12-31T23:38:45Z</time>
      </trkpt>
      <trkpt lat="45.89191" lon="6.49063">
        <ele>2337.8</ele>
        <time>2012-12-31T23:38:49Z</time>
      </trkpt>
      <trkpt lat="45.89187" lon="6.49073">
        <ele>2340.3</ele>
        <time>2012-12-31T23:38:52Z</time>
      </trkpt>
      <trkpt lat="45.89182" lon="6.49083">
        <ele>2342.7</ele>
        <time>2012-12-31T23:38:55Z</time>
      </trkpt>
      <trkpt lat="45.89177" lon="6.49093">
        <ele>2346.3</ele>
        <time>2012-12-31T23:38:58Z</time>
      </trkpt>
      <trkpt lat="45.89172" lon="6.49104">
        <ele>2348.3</ele>
        <time>2012-12-31T23:39:02Z</time>
      </trkpt>
      <trkpt lat="45.89166" lon="6.49114">
        <ele>2349.4</ele>
        <time>2012-12-31T23:39:06Z</time>
      </trkpt>
      <trkpt lat="45.89158" lon="6.49122">
        <ele>2349.7</ele>
        <time>2012-12-31T23:39:10Z</time>
      </trkpt>
      <trkpt lat="45.89152" lon="6.4913">
        <ele>2350</ele>
        <time>2012-12-31T23:39:14Z</time>
      </trkpt>
      <trkpt lat="45.89144" lon="6.49138">
        <ele>2350.4</ele>
        <time>2012-12-31T23:39:18Z</time>
      </trkpt>
      <trkpt lat="45.89137" lon="6.49138">
        <ele>2351</ele>
        <time>2012-12-31T23:39:33Z</time>
      </trkpt>
      <trkpt lat="45.89146" lon="6.4915">
        <ele>2359</ele>
        <time>2012-12-31T23:40:13Z</time>
      </trkpt>
      <trkpt lat="45.89146" lon="6.4915">
        <ele>2359</ele>
        <time>2012-12-31T23:40:13Z</time>
      </trkpt>
      <trkpt lat="45.89146" lon="6.49153">
        <ele>2359</ele>
        <time>2012-12-31T23:40:27Z</time>
      </trkpt>
      <trkpt lat="45.89164" lon="6.49149">
        <ele>2357</ele>
        <time>2012-12-31T23:41:49Z</time>
      </trkpt>
      <trkpt lat="45.89164" lon="6.49149">
        <ele>2354.7</ele>
        <time>2012-12-31T23:41:49Z</time>
      </trkpt>
      <trkpt lat="45.89177" lon="6.49145">
        <ele>2353</ele>
        <time>2012-12-31T23:41:51Z</time>
      </trkpt>
      <trkpt lat="45.89186" lon="6.49142">
        <ele>2351.7</ele>
        <time>2012-12-31T23:41:52Z</time>
      </trkpt>
      <trkpt lat="45.89194" lon="6.49136">
        <ele>2350.6</ele>
        <time>2012-12-31T23:41:53Z</time>
      </trkpt>
      <trkpt lat="45.89203" lon="6.49128">
        <ele>2349.7</ele>
        <time>2012-12-31T23:41:54Z</time>
      </trkpt>
      <trkpt lat="45.89218" lon="6.49116">
        <ele>2346.2</ele>
        <time>2012-12-31T23:41:56Z</time>
      </trkpt>
      <trkpt lat="45.89224" lon="6.49106">
        <ele>2342.6</ele>
        <time>2012-12-31T23:41:57Z</time>
      </trkpt>
      <trkpt lat="45.8923" lon="6.49097">
        <ele>2339.1</ele>
        <time>2012-12-31T23:41:58Z</time>
      </trkpt>
      <trkpt lat="45.89237" lon="6.49088">
        <ele>2335.5</ele>
        <time>2012-12-31T23:41:59Z</time>
      </trkpt>
      <trkpt lat="45.89241" lon="6.49066">
        <ele>2332</ele>
        <time>2012-12-31T23:42:01Z</time>
      </trkpt>
      <trkpt lat="45.89246" lon="6.49051">
        <ele>2329.5</ele>
        <time>2012-12-31T23:42:02Z</time>
      </trkpt>
      <trkpt lat="45.89252" lon="6.49039">
        <ele>2327.6</ele>
        <time>2012-12-31T23:42:03Z</time>
      </trkpt>
      <trkpt lat="45.89259" lon="6.49031">
        <ele>2324.7</ele>
        <time>2012-12-31T23:42:04Z</time>
      </trkpt>
      <trkpt lat="45.89266" lon="6.49021">
        <ele>2321.8</ele>
        <time>2012-12-31T23:42:05Z</time>
      </trkpt>
      <trkpt lat="45.89274" lon="6.49008">
        <ele>2318.9</ele>
        <time>2012-12-31T23:42:06Z</time>
      </trkpt>
      <trkpt lat="45.89282" lon="6.48994">
        <ele>2316</ele>
        <time>2012-12-31T23:42:07Z</time>
      </trkpt>
      <trkpt lat="45.89291" lon="6.48988">
        <ele>2315</ele>
        <time>2012-12-31T23:42:08Z</time>
      </trkpt>
      <trkpt lat="45.89304" lon="6.48988">
        <ele>2314</ele>
        <time>2012-12-31T23:42:10Z</time>
      </trkpt>
      <trkpt lat="45.89315" lon="6.48984">
        <ele>2311</ele>
        <time>2012-12-31T23:42:12Z</time>
      </trkpt>
      <trkpt lat="45.89325" lon="6.48981">
        <ele>2306.1</ele>
        <time>2012-12-31T23:42:14Z</time>
      </trkpt>
      <trkpt lat="45.89337" lon="6.48983">
        <ele>2301.2</ele>
        <time>2012-12-31T23:42:17Z</time>
      </trkpt>
      <trkpt lat="45.89346" lon="6.48977">
        <ele>2296.3</ele>
        <time>2012-12-31T23:42:19Z</time>
      </trkpt>
      <trkpt lat="45.89361" lon="6.4897">
        <ele>2291.4</ele>
        <time>2012-12-31T23:42:21Z</time>
      </trkpt>
      <trkpt lat="45.89374" lon="6.48968">
        <ele>2287.5</ele>
        <time>2012-12-31T23:42:23Z</time>
      </trkpt>
      <trkpt lat="45.89383" lon="6.48963">
        <ele>2283.5</ele>
        <time>2012-12-31T23:42:24Z</time>
      </trkpt>
      <trkpt lat="45.89389" lon="6.48954">
        <ele>2279.6</ele>
        <time>2012-12-31T23:42:25Z</time>
      </trkpt>
      <trkpt lat="45.89397" lon="6.48947">
        <ele>2275.7</ele>
        <time>2012-12-31T23:42:26Z</time>
      </trkpt>
      <trkpt lat="45.89404" lon="6.48935">
        <ele>2269.4</ele>
        <time>2012-12-31T23:42:27Z</time>
      </trkpt>
      <trkpt lat="45.89411" lon="6.48925">
        <ele>2263</ele>
        <time>2012-12-31T23:42:28Z</time>
      </trkpt>
      <trkpt lat="45.89418" lon="6.48915">
        <ele>2258.6</ele>
        <time>2012-12-31T23:42:29Z</time>
      </trkpt>
      <trkpt lat="45.89428" lon="6.48905">
        <ele>2256.2</ele>
        <time>2012-12-31T23:42:30Z</time>
      </trkpt>
      <trkpt lat="45.8943" lon="6.48888">
        <ele>2252</ele>
        <time>2012-12-31T23:42:31Z</time>
      </trkpt>
      <trkpt lat="45.89429" lon="6.48872">
        <ele>2247.8</ele>
        <time>2012-12-31T23:42:32Z</time>
      </trkpt>
      <trkpt lat="45.89433" lon="6.48857">
        <ele>2243.6</ele>
        <time>2012-12-31T23:42:33Z</time>
      </trkpt>
      <trkpt lat="45.89445" lon="6.48852">
        <ele>2239.5</ele>
        <time>2012-12-31T23:42:34Z</time>
      </trkpt>
      <trkpt lat="45.89452" lon="6.4884">
        <ele>2233.4</ele>
        <time>2012-12-31T23:42:35Z</time>
      </trkpt>
      <trkpt lat="45.89465" lon="6.4883">
        <ele>2227.3</ele>
        <time>2012-12-31T23:42:37Z</time>
      </trkpt>
      <trkpt lat="45.89473" lon="6.4882">
        <ele>2221.2</ele>
        <time>2012-12-31T23:42:38Z</time>
      </trkpt>
      <trkpt lat="45.89482" lon="6.48813">
        <ele>2217.5</ele>
        <time>2012-12-31T23:42:39Z</time>
      </trkpt>
      <trkpt lat="45.89492" lon="6.48808">
        <ele>2213.9</ele>
        <time>2012-12-31T23:42:40Z</time>
      </trkpt>
      <trkpt lat="45.89503" lon="6.48802">
        <ele>2210.3</ele>
        <time>2012-12-31T23:42:41Z</time>
      </trkpt>
      <trkpt lat="45.8951" lon="6.48793">
        <ele>2205</ele>
        <time>2012-12-31T23:42:42Z</time>
      </trkpt>
      <trkpt lat="45.8952" lon="6.48786">
        <ele>2201.5</ele>
        <time>2012-12-31T23:42:43Z</time>
      </trkpt>
      <trkpt lat="45.89527" lon="6.4878">
        <ele>2197.9</ele>
        <time>2012-12-31T23:42:44Z</time>
      </trkpt>
      <trkpt lat="45.89536" lon="6.48772">
        <ele>2194.4</ele>
        <time>2012-12-31T23:42:45Z</time>
      </trkpt>
      <trkpt lat="45.89541" lon="6.48757">
        <ele>2190.8</ele>
        <time>2012-12-31T23:42:46Z</time>
      </trkpt>
      <trkpt lat="45.89549" lon="6.48751">
        <ele>2190</ele>
        <time>2012-12-31T23:42:47Z</time>
      </trkpt>
      <trkpt lat="45.89562" lon="6.48752">
        <ele>2189</ele>
        <time>2012-12-31T23:42:49Z</time>
      </trkpt>
      <trkpt lat="45.89566" lon="6.48762">
        <ele>2187.8</ele>
        <time>2012-12-31T23:42:52Z</time>
      </trkpt>
      <trkpt lat="45.89563" lon="6.48774">
        <ele>2186.1</ele>
        <time>2012-12-31T23:42:57Z</time>
      </trkpt>
      <trkpt lat="45.89561" lon="6.48777">
        <ele>2184</ele>
        <time>2012-12-31T23:43:07Z</time>
      </trkpt>
      <trkpt lat="45.89565" lon="6.48785">
        <ele>2181</ele>
        <time>2012-12-31T23:44:29Z</time>
      </trkpt>
      <trkpt lat="45.89565" lon="6.48785">
        <ele>2181</ele>
        <time>2012-12-31T23:44:29Z</time>
      </trkpt>
      <trkpt lat="45.89565" lon="6.48788">
        <ele>2181</ele>
        <time>2012-12-31T23:44:40Z</time>
      </trkpt>
      <trkpt lat="45.89574" lon="6.48786">
        <ele>2181</ele>
        <time>2012-12-31T23:45:02Z</time>
      </trkpt>
      <trkpt lat="45.89574" lon="6.48786">
        <ele>2181</ele>
        <time>2012-12-31T23:45:02Z</time>
      </trkpt>
      <trkpt lat="45.89584" lon="6.48782">
        <ele>2181</ele>
        <time>2012-12-31T23:45:05Z</time>
      </trkpt>
      <trkpt lat="45.89593" lon="6.48776">
        <ele>2180.4</ele>
        <time>2012-12-31T23:45:08Z</time>
      </trkpt>
      <trkpt lat="45.89601" lon="6.48769">
        <ele>2176.2</ele>
        <time>2012-12-31T23:45:11Z</time>
      </trkpt>
      <trkpt lat="45.89609" lon="6.48767">
        <ele>2172.7</ele>
        <time>2012-12-31T23:45:16Z</time>
      </trkpt>
      <trkpt lat="45.89616" lon="6.48755">
        <ele>2168.8</ele>
        <time>2012-12-31T23:45:20Z</time>
      </trkpt>
      <trkpt lat="45.89626" lon="6.48737">
        <ele>2164.9</ele>
        <time>2012-12-31T23:45:21Z</time>
      </trkpt>
      <trkpt lat="45.89632" lon="6.48725">
        <ele>2162.5</ele>
        <time>2012-12-31T23:45:23Z</time>
      </trkpt>
      <trkpt lat="45.89641" lon="6.48721">
        <ele>2158.6</ele>
        <time>2012-12-31T23:45:24Z</time>
      </trkpt>
      <trkpt lat="45.8965" lon="6.48712">
        <ele>2154.7</ele>
        <time>2012-12-31T23:45:26Z</time>
      </trkpt>
      <trkpt lat="45.89641" lon="6.48705">
        <ele>2150.8</ele>
        <time>2012-12-31T23:45:27Z</time>
      </trkpt>
      <trkpt lat="45.89629" lon="6.4869">
        <ele>2146.9</ele>
        <time>2012-12-31T23:45:29Z</time>
      </trkpt>
      <trkpt lat="45.89628" lon="6.48669">
        <ele>2140.6</ele>
        <time>2012-12-31T23:45:31Z</time>
      </trkpt>
      <trkpt lat="45.89643" lon="6.48664">
        <ele>2134.8</ele>
        <time>2012-12-31T23:45:33Z</time>
      </trkpt>
      <trkpt lat="45.89649" lon="6.48651">
        <ele>2132.5</ele>
        <time>2012-12-31T23:45:35Z</time>
      </trkpt>
      <trkpt lat="45.89653" lon="6.48641">
        <ele>2130.1</ele>
        <time>2012-12-31T23:45:36Z</time>
      </trkpt>
      <trkpt lat="45.89662" lon="6.48629">
        <ele>2127.7</ele>
        <time>2012-12-31T23:45:38Z</time>
      </trkpt>
      <trkpt lat="45.89671" lon="6.48613">
        <ele>2125.4</ele>
        <time>2012-12-31T23:45:39Z</time>
      </trkpt>
      <trkpt lat="45.89677" lon="6.48603">
        <ele>2119</ele>
        <time>2012-12-31T23:45:40Z</time>
      </trkpt>
      <trkpt lat="45.89682" lon="6.48591">
        <ele>2114.2</ele>
        <time>2012-12-31T23:45:41Z</time>
      </trkpt>
      <trkpt lat="45.89687" lon="6.4858">
        <ele>2108.5</ele>
        <time>2012-12-31T23:45:42Z</time>
      </trkpt>
      <trkpt lat="45.89685" lon="6.48567">
        <ele>2102.9</ele>
        <time>2012-12-31T23:45:43Z</time>
      </trkpt>
      <trkpt lat="45.8969" lon="6.48545">
        <ele>2097.3</ele>
        <time>2012-12-31T23:45:44Z</time>
      </trkpt>
      <trkpt lat="45.89699" lon="6.48538">
        <ele>2094</ele>
        <time>2012-12-31T23:45:45Z</time>
      </trkpt>
      <trkpt lat="45.89706" lon="6.48526">
        <ele>2090.7</ele>
        <time>2012-12-31T23:45:46Z</time>
      </trkpt>
      <trkpt lat="45.89713" lon="6.48513">
        <ele>2085.5</ele>
        <time>2012-12-31T23:45:47Z</time>
      </trkpt>
      <trkpt lat="45.89716" lon="6.48497">
        <ele>2080.2</ele>
        <time>2012-12-31T23:45:48Z</time>
      </trkpt>
      <trkpt lat="45.89723" lon="6.48487">
        <ele>2074.9</ele>
        <time>2012-12-31T23:45:49Z</time>
      </trkpt>
      <trkpt lat="45.89729" lon="6.48476">
        <ele>2069.6</ele>
        <time>2012-12-31T23:45:50Z</time>
      </trkpt>
      <trkpt lat="45.89712" lon="6.48462">
        <ele>2066.8</ele>
        <time>2012-12-31T23:45:51Z</time>
      </trkpt>
      <trkpt lat="45.89716" lon="6.48443">
        <ele>2064</ele>
        <time>2012-12-31T23:45:53Z</time>
      </trkpt>
      <trkpt lat="45.89721" lon="6.48426">
        <ele>2060.5</ele>
        <time>2012-12-31T23:45:55Z</time>
      </trkpt>
      <trkpt lat="45.89725" lon="6.48414">
        <ele>2056.9</ele>
        <time>2012-12-31T23:45:56Z</time>
      </trkpt>
      <trkpt lat="45.89734" lon="6.48403">
        <ele>2053.4</ele>
        <time>2012-12-31T23:45:57Z</time>
      </trkpt>
      <trkpt lat="45.89741" lon="6.48393">
        <ele>2049.8</ele>
        <time>2012-12-31T23:45:58Z</time>
      </trkpt>
      <trkpt lat="45.89744" lon="6.48381">
        <ele>2046.3</ele>
        <time>2012-12-31T23:45:59Z</time>
      </trkpt>
      <trkpt lat="45.89749" lon="6.48367">
        <ele>2044.7</ele>
        <time>2012-12-31T23:46:00Z</time>
      </trkpt>
      <trkpt lat="45.89756" lon="6.48358">
        <ele>2043.2</ele>
        <time>2012-12-31T23:46:01Z</time>
      </trkpt>
      <trkpt lat="45.89767" lon="6.48355">
        <ele>2040</ele>
        <time>2012-12-31T23:46:02Z</time>
      </trkpt>
      <trkpt lat="45.89771" lon="6.48344">
        <ele>2036.8</ele>
        <time>2012-12-31T23:46:03Z</time>
      </trkpt>
      <trkpt lat="45.89772" lon="6.48332">
        <ele>2033.6</ele>
        <time>2012-12-31T23:46:04Z</time>
      </trkpt>
      <trkpt lat="45.89781" lon="6.48317">
        <ele>2031.6</ele>
        <time>2012-12-31T23:46:06Z</time>
      </trkpt>
      <trkpt lat="45.89789" lon="6.48302">
        <ele>2031</ele>
        <time>2012-12-31T23:46:08Z</time>
      </trkpt>
      <trkpt lat="45.89776" lon="6.48292">
        <ele>2030.2</ele>
        <time>2012-12-31T23:46:10Z</time>
      </trkpt>
      <trkpt lat="45.89772" lon="6.48282">
        <ele>2029.3</ele>
        <time>2012-12-31T23:46:12Z</time>
      </trkpt>
      <trkpt lat="45.89767" lon="6.48283">
        <ele>2028</ele>
        <time>2012-12-31T23:46:28Z</time>
      </trkpt>
      <trkpt lat="45.89765" lon="6.4829">
        <ele>2019</ele>
        <time>2012-12-31T23:46:32Z</time>
      </trkpt>
      <trkpt lat="45.89765" lon="6.4829">
        <ele>2019</ele>
        <time>2012-12-31T23:46:32Z</time>
      </trkpt>
      <trkpt lat="45.89762" lon="6.48291">
        <ele>2019</ele>
        <time>2012-12-31T23:46:43Z</time>
      </trkpt>
      <trkpt lat="45.89757" lon="6.48294">
        <ele>2019</ele>
        <time>2012-12-31T23:47:22Z</time>
      </trkpt>
      <trkpt lat="45.89757" lon="6.48294">
        <ele>2019</ele>
        <time>2012-12-31T23:47:22Z</time>
      </trkpt>
      <trkpt lat="45.89757" lon="6.48295">
        <ele>2019</ele>
        <time>2012-12-31T23:47:33Z</time>
      </trkpt>
      <trkpt lat="45.8975" lon="6.48299">
        <ele>2037</ele>
        <time>2012-12-31T23:48:18Z</time>
      </trkpt>
      <trkpt lat="45.8975" lon="6.48299">
        <ele>2037</ele>
        <time>2012-12-31T23:48:18Z</time>
      </trkpt>
      <trkpt lat="45.89748" lon="6.48299">
        <ele>2037</ele>
        <time>2012-12-31T23:48:28Z</time>
      </trkpt>
      <trkpt lat="45.89744" lon="6.48309">
        <ele>2037</ele>
        <time>2012-12-31T23:48:57Z</time>
      </trkpt>
      <trkpt lat="45.89744" lon="6.48309">
        <ele>2037.1</ele>
        <time>2012-12-31T23:48:57Z</time>
      </trkpt>
      <trkpt lat="45.89737" lon="6.48317">
        <ele>2037.2</ele>
        <time>2012-12-31T23:49:04Z</time>
      </trkpt>
      <trkpt lat="45.89729" lon="6.48326">
        <ele>2037.3</ele>
        <time>2012-12-31T23:49:07Z</time>
      </trkpt>
      <trkpt lat="45.89722" lon="6.48336">
        <ele>2037.4</ele>
        <time>2012-12-31T23:49:10Z</time>
      </trkpt>
      <trkpt lat="45.89715" lon="6.48344">
        <ele>2039.6</ele>
        <time>2012-12-31T23:49:13Z</time>
      </trkpt>
      <trkpt lat="45.89708" lon="6.48353">
        <ele>2041.9</ele>
        <time>2012-12-31T23:49:18Z</time>
      </trkpt>
      <trkpt lat="45.89698" lon="6.48361">
        <ele>2044.2</ele>
        <time>2012-12-31T23:49:22Z</time>
      </trkpt>
      <trkpt lat="45.89691" lon="6.48369">
        <ele>2046.5</ele>
        <time>2012-12-31T23:49:25Z</time>
      </trkpt>
      <trkpt lat="45.89686" lon="6.48378">
        <ele>2048.7</ele>
        <time>2012-12-31T23:49:28Z</time>
      </trkpt>
      <trkpt lat="45.8968" lon="6.48387">
        <ele>2051</ele>
        <time>2012-12-31T23:49:31Z</time>
      </trkpt>
      <trkpt lat="45.89673" lon="6.48395">
        <ele>2053.3</ele>
        <time>2012-12-31T23:49:34Z</time>
      </trkpt>
      <trkpt lat="45.89666" lon="6.48403">
        <ele>2055.5</ele>
        <time>2012-12-31T23:49:38Z</time>
      </trkpt>
      <trkpt lat="45.89659" lon="6.48411">
        <ele>2060.1</ele>
        <time>2012-12-31T23:49:41Z</time>
      </trkpt>
      <trkpt lat="45.89653" lon="6.48419">
        <ele>2066.7</ele>
        <time>2012-12-31T23:49:44Z</time>
      </trkpt>
      <trkpt lat="45.89645" lon="6.48427">
        <ele>2073.4</ele>
        <time>2012-12-31T23:49:48Z</time>
      </trkpt>
      <trkpt lat="45.89637" lon="6.48437">
        <ele>2077.8</ele>
        <time>2012-12-31T23:49:52Z</time>
      </trkpt>
      <trkpt lat="45.8963" lon="6.48446">
        <ele>2082.3</ele>
        <time>2012-12-31T23:49:56Z</time>
      </trkpt>
      <trkpt lat="45.89626" lon="6.48457">
        <ele>2086.7</ele>
        <time>2012-12-31T23:50:00Z</time>
      </trkpt>
      <trkpt lat="45.89622" lon="6.48467">
        <ele>2091.2</ele>
        <time>2012-12-31T23:50:04Z</time>
      </trkpt>
      <trkpt lat="45.89618" lon="6.48478">
        <ele>2095.6</ele>
        <time>2012-12-31T23:50:08Z</time>
      </trkpt>
      <trkpt lat="45.89617" lon="6.48489">
        <ele>2100.1</ele>
        <time>2012-12-31T23:50:12Z</time>
      </trkpt>
      <trkpt lat="45.89613" lon="6.485">
        <ele>2106.7</ele>
        <time>2012-12-31T23:50:16Z</time>
      </trkpt>
      <trkpt lat="45.89607" lon="6.48514">
        <ele>2113.4</ele>
        <time>2012-12-31T23:50:21Z</time>
      </trkpt>
      <trkpt lat="45.89599" lon="6.48523">
        <ele>2117.5</ele>
        <time>2012-12-31T23:50:25Z</time>
      </trkpt>
      <trkpt lat="45.89591" lon="6.48531">
        <ele>2119.7</ele>
        <time>2012-12-31T23:50:29Z</time>
      </trkpt>
      <trkpt lat="45.89584" lon="6.48538">
        <ele>2121.9</ele>
        <time>2012-12-31T23:50:33Z</time>
      </trkpt>
      <trkpt lat="45.89577" lon="6.48546">
        <ele>2126.3</ele>
        <time>2012-12-31T23:50:37Z</time>
      </trkpt>
      <trkpt lat="45.8957" lon="6.48556">
        <ele>2130.6</ele>
        <time>2012-12-31T23:50:42Z</time>
      </trkpt>
      <trkpt lat="45.89563" lon="6.48565">
        <ele>2135</ele>
        <time>2012-12-31T23:50:46Z</time>
      </trkpt>
      <trkpt lat="45.89558" lon="6.48574">
        <ele>2139.4</ele>
        <time>2012-12-31T23:50:50Z</time>
      </trkpt>
      <trkpt lat="45.8955" lon="6.48584">
        <ele>2145.8</ele>
        <time>2012-12-31T23:50:55Z</time>
      </trkpt>
      <trkpt lat="45.89542" lon="6.48592">
        <ele>2152.3</ele>
        <time>2012-12-31T23:50:59Z</time>
      </trkpt>
      <trkpt lat="45.89534" lon="6.48601">
        <ele>2156.5</ele>
        <time>2012-12-31T23:51:03Z</time>
      </trkpt>
      <trkpt lat="45.89527" lon="6.4861">
        <ele>2160.8</ele>
        <time>2012-12-31T23:51:06Z</time>
      </trkpt>
      <trkpt lat="45.8952" lon="6.48619">
        <ele>2165.1</ele>
        <time>2012-12-31T23:51:09Z</time>
      </trkpt>
      <trkpt lat="45.89511" lon="6.48628">
        <ele>2169.4</ele>
        <time>2012-12-31T23:51:12Z</time>
      </trkpt>
      <trkpt lat="45.89503" lon="6.48637">
        <ele>2173.6</ele>
        <time>2012-12-31T23:51:15Z</time>
      </trkpt>
      <trkpt lat="45.89497" lon="6.48645">
        <ele>2178.4</ele>
        <time>2012-12-31T23:51:18Z</time>
      </trkpt>
      <trkpt lat="45.8949" lon="6.48654">
        <ele>2183.1</ele>
        <time>2012-12-31T23:51:22Z</time>
      </trkpt>
      <trkpt lat="45.89482" lon="6.48662">
        <ele>2187.8</ele>
        <time>2012-12-31T23:51:26Z</time>
      </trkpt>
      <trkpt lat="45.89475" lon="6.48672">
        <ele>2193.8</ele>
        <time>2012-12-31T23:51:30Z</time>
      </trkpt>
      <trkpt lat="45.89469" lon="6.48682">
        <ele>2197.7</ele>
        <time>2012-12-31T23:51:34Z</time>
      </trkpt>
      <trkpt lat="45.89463" lon="6.48691">
        <ele>2201.6</ele>
        <time>2012-12-31T23:51:38Z</time>
      </trkpt>
      <trkpt lat="45.89456" lon="6.48699">
        <ele>2205.5</ele>
        <time>2012-12-31T23:51:42Z</time>
      </trkpt>
      <trkpt lat="45.8945" lon="6.48711">
        <ele>2209.5</ele>
        <time>2012-12-31T23:51:48Z</time>
      </trkpt>
      <trkpt lat="45.89442" lon="6.48722">
        <ele>2213.4</ele>
        <time>2012-12-31T23:51:52Z</time>
      </trkpt>
      <trkpt lat="45.89435" lon="6.48733">
        <ele>2217.3</ele>
        <time>2012-12-31T23:51:56Z</time>
      </trkpt>
      <trkpt lat="45.89427" lon="6.48744">
        <ele>2221.2</ele>
        <time>2012-12-31T23:52:00Z</time>
      </trkpt>
      <trkpt lat="45.89422" lon="6.48753">
        <ele>2222.5</ele>
        <time>2012-12-31T23:52:04Z</time>
      </trkpt>
      <trkpt lat="45.89418" lon="6.48763">
        <ele>2225</ele>
        <time>2012-12-31T23:52:08Z</time>
      </trkpt>
      <trkpt lat="45.89411" lon="6.48774">
        <ele>2230</ele>
        <time>2012-12-31T23:52:12Z</time>
      </trkpt>
      <trkpt lat="45.89405" lon="6.48783">
        <ele>2233.7</ele>
        <time>2012-12-31T23:52:15Z</time>
      </trkpt>
      <trkpt lat="45.89399" lon="6.48791">
        <ele>2237.5</ele>
        <time>2012-12-31T23:52:18Z</time>
      </trkpt>
      <trkpt lat="45.89391" lon="6.488">
        <ele>2241.2</ele>
        <time>2012-12-31T23:52:22Z</time>
      </trkpt>
      <trkpt lat="45.89384" lon="6.4881">
        <ele>2244.9</ele>
        <time>2012-12-31T23:52:26Z</time>
      </trkpt>
      <trkpt lat="45.89378" lon="6.48819">
        <ele>2248.6</ele>
        <time>2012-12-31T23:52:30Z</time>
      </trkpt>
      <trkpt lat="45.89371" lon="6.48828">
        <ele>2252.4</ele>
        <time>2012-12-31T23:52:34Z</time>
      </trkpt>
      <trkpt lat="45.89364" lon="6.48838">
        <ele>2256.1</ele>
        <time>2012-12-31T23:52:38Z</time>
      </trkpt>
      <trkpt lat="45.89355" lon="6.48846">
        <ele>2261.7</ele>
        <time>2012-12-31T23:52:42Z</time>
      </trkpt>
      <trkpt lat="45.89347" lon="6.48853">
        <ele>2267.4</ele>
        <time>2012-12-31T23:52:45Z</time>
      </trkpt>
      <trkpt lat="45.89341" lon="6.48862">
        <ele>2271.7</ele>
        <time>2012-12-31T23:52:49Z</time>
      </trkpt>
      <trkpt lat="45.89335" lon="6.4887">
        <ele>2273.6</ele>
        <time>2012-12-31T23:52:53Z</time>
      </trkpt>
      <trkpt lat="45.89327" lon="6.4888">
        <ele>2275.5</ele>
        <time>2012-12-31T23:52:57Z</time>
      </trkpt>
      <trkpt lat="45.89321" lon="6.48887">
        <ele>2279.3</ele>
        <time>2012-12-31T23:53:00Z</time>
      </trkpt>
      <trkpt lat="45.89315" lon="6.48895">
        <ele>2283</ele>
        <time>2012-12-31T23:53:03Z</time>
      </trkpt>
      <trkpt lat="45.89307" lon="6.48905">
        <ele>2286.7</ele>
        <time>2012-12-31T23:53:07Z</time>
      </trkpt>
      <trkpt lat="45.893" lon="6.48915">
        <ele>2290.5</ele>
        <time>2012-12-31T23:53:11Z</time>
      </trkpt>
      <trkpt lat="45.89294" lon="6.48925">
        <ele>2295.4</ele>
        <time>2012-12-31T23:53:15Z</time>
      </trkpt>
      <trkpt lat="45.89287" lon="6.48933">
        <ele>2300.3</ele>
        <time>2012-12-31T23:53:19Z</time>
      </trkpt>
      <trkpt lat="45.89279" lon="6.48942">
        <ele>2303.3</ele>
        <time>2012-12-31T23:53:23Z</time>
      </trkpt>
      <trkpt lat="45.89272" lon="6.48952">
        <ele>2306.3</ele>
        <time>2012-12-31T23:53:27Z</time>
      </trkpt>
      <trkpt lat="45.89266" lon="6.48961">
        <ele>2309.3</ele>
        <time>2012-12-31T23:53:30Z</time>
      </trkpt>
      <trkpt lat="45.89258" lon="6.48973">
        <ele>2312.3</ele>
        <time>2012-12-31T23:53:34Z</time>
      </trkpt>
      <trkpt lat="45.89253" lon="6.48982">
        <ele>2315.3</ele>
        <time>2012-12-31T23:53:37Z</time>
      </trkpt>
      <trkpt lat="45.89246" lon="6.48993">
        <ele>2316.5</ele>
        <time>2012-12-31T23:53:41Z</time>
      </trkpt>
      <trkpt lat="45.8924" lon="6.49002">
        <ele>2319.2</ele>
        <time>2012-12-31T23:53:46Z</time>
      </trkpt>
      <trkpt lat="45.89233" lon="6.49013">
        <ele>2322.8</ele>
        <time>2012-12-31T23:53:51Z</time>
      </trkpt>
      <trkpt lat="45.89227" lon="6.49022">
        <ele>2326.5</ele>
        <time>2012-12-31T23:53:55Z</time>
      </trkpt>
      <trkpt lat="45.8922" lon="6.49032">
        <ele>2328.9</ele>
        <time>2012-12-31T23:54:00Z</time>
      </trkpt>
      <trkpt lat="45.89213" lon="6.4904">
        <ele>2331.4</ele>
        <time>2012-12-31T23:54:04Z</time>
      </trkpt>
      <trkpt lat="45.89204" lon="6.49047">
        <ele>2333.8</ele>
        <time>2012-12-31T23:54:07Z</time>
      </trkpt>
      <trkpt lat="45.89198" lon="6.49055">
        <ele>2336.3</ele>
        <time>2012-12-31T23:54:10Z</time>
      </trkpt>
      <trkpt lat="45.8919" lon="6.49066">
        <ele>2338.7</ele>
        <time>2012-12-31T23:54:14Z</time>
      </trkpt>
      <trkpt lat="45.89184" lon="6.49074">
        <ele>2341.2</ele>
        <time>2012-12-31T23:54:17Z</time>
      </trkpt>
      <trkpt lat="45.89177" lon="6.49083">
        <ele>2343.6</ele>
        <time>2012-12-31T23:54:20Z</time>
      </trkpt>
      <trkpt lat="45.8917" lon="6.49091">
        <ele>2347.2</ele>
        <time>2012-12-31T23:54:23Z</time>
      </trkpt>
      <trkpt lat="45.89163" lon="6.49098">
        <ele>2349.2</ele>
        <time>2012-12-31T23:54:26Z</time>
      </trkpt>
      <trkpt lat="45.89154" lon="6.49106">
        <ele>2350.3</ele>
        <time>2012-12-31T23:54:30Z</time>
      </trkpt>
      <trkpt lat="45.89148" lon="6.49114">
        <ele>2350.6</ele>
        <time>2012-12-31T23:54:34Z</time>
      </trkpt>
      <trkpt lat="45.89144" lon="6.49128">
        <ele>2351</ele>
        <time>2012-12-31T23:54:38Z</time>
      </trkpt>
      <trkpt lat="45.89142" lon="6.49141">
        <ele>2351.5</ele>
        <time>2012-12-31T23:54:41Z</time>
      </trkpt>
      <trkpt lat="45.89145" lon="6.49154">
        <ele>2352.1</ele>
        <time>2012-12-31T23:54:45Z</time>
      </trkpt>
      <trkpt lat="45.89149" lon="6.49152">
        <ele>2353</ele>
        <time>2012-12-31T23:54:58Z</time>
      </trkpt>
      <trkpt lat="45.89156" lon="6.49154">
        <ele>2359</ele>
        <time>2012-12-31T23:56:26Z</time>
      </trkpt>
      <trkpt lat="45.89156" lon="6.49154">
        <ele>2359</ele>
        <time>2012-12-31T23:56:26Z</time>
      </trkpt>
      <trkpt lat="45.89166" lon="6.49159">
        <ele>2359</ele>
        <time>2012-12-31T23:56:29Z</time>
      </trkpt>
      <trkpt lat="45.89176" lon="6.49166">
        <ele>2359</ele>
        <time>2012-12-31T23:56:32Z</time>
      </trkpt>
      <trkpt lat="45.89179" lon="6.49167">
        <ele>2359</ele>
        <time>2012-12-31T23:56:47Z</time>
      </trkpt>
      <trkpt lat="45.89182" lon="6.49154">
        <ele>2362</ele>
        <time>2012-12-31T23:59:26Z</time>
      </trkpt>
      <trkpt lat="45.89182" lon="6.49154">
        <ele>2359</ele>
        <time>2012-12-31T23:59:26Z</time>
      </trkpt>
      <trkpt lat="45.89191" lon="6.49147">
        <ele>2356.8</ele>
        <time>2012-12-31T23:59:28Z</time>
      </trkpt>
      <trkpt lat="45.89212" lon="6.49138">
        <ele>2355</ele>
        <time>2012-12-31T23:59:29Z</time>
      </trkpt>
      <trkpt lat="45.89234" lon="6.49138">
        <ele>2353.6</ele>
        <time>2012-12-31T23:59:30Z</time>
      </trkpt>
      <trkpt lat="45.89244" lon="6.49134">
        <ele>2352.5</ele>
        <time>2012-12-31T23:59:31Z</time>
      </trkpt>
      <trkpt lat="45.89253" lon="6.4913">
        <ele>2350.8</ele>
        <time>2012-12-31T23:59:32Z</time>
      </trkpt>
      <trkpt lat="45.89263" lon="6.49124">
        <ele>2349.2</ele>
        <time>2012-12-31T23:59:34Z</time>
      </trkpt>
      <trkpt lat="45.89275" lon="6.4912">
        <ele>2347.5</ele>
        <time>2012-12-31T23:59:36Z</time>
      </trkpt>
      <trkpt lat="45.89285" lon="6.49113">
        <ele>2345.4</ele>
        <time>2012-12-31T23:59:38Z</time>
      </trkpt>
      <trkpt lat="45.89292" lon="6.49105">
        <ele>2343.2</ele>
        <time>2012-12-31T23:59:40Z</time>
      </trkpt>
      <trkpt lat="45.89298" lon="6.49095">
        <ele>2341</ele>
        <time>2012-12-31T23:59:45Z</time>
      </trkpt>
      <trkpt lat="45.89308" lon="6.49089">
        <ele>2341</ele>
        <time>2012-12-31T23:59:49Z</time>
      </trkpt>
      <trkpt lat="45.89317" lon="6.49086">
        <ele>2341</ele>
        <time>2012-12-31T23:59:51Z</time>
      </trkpt>
      <trkpt lat="45.89327" lon="6.49086">
        <ele>2341</ele>
        <time>2012-12-31T23:59:52Z</time>
      </trkpt>
      <trkpt lat="45.89339" lon="6.49084">
        <ele>2340.9</ele>
        <time>2012-12-31T23:59:54Z</time>
      </trkpt>
      <trkpt lat="45.8935" lon="6.49081">
        <ele>2340.8</ele>
        <time>2012-12-31T23:59:56Z</time>
      </trkpt>
      <trkpt lat="45.8936" lon="6.49079">
        <ele>2340.7</ele>
        <time>2012-12-31T23:59:58Z</time>
      </trkpt>
      <trkpt lat="45.8937" lon="6.49077">
        <ele>2340.6</ele>
        <time>2013-01-01T00:00:00Z</time>
      </trkpt>
      <trkpt lat="45.89381" lon="6.49074">
        <ele>2336.4</ele>
        <time>2013-01-01T00:00:02Z</time>
      </trkpt>
      <trkpt lat="45.8939" lon="6.49069">
        <ele>2336.3</ele>
        <time>2013-01-01T00:00:04Z</time>
      </trkpt>
      <trkpt lat="45.89402" lon="6.49064">
        <ele>2332</ele>
        <time>2013-01-01T00:00:06Z</time>
      </trkpt>
      <trkpt lat="45.89412" lon="6.49062">
        <ele>2327.7</ele>
        <time>2013-01-01T00:00:08Z</time>
      </trkpt>
      <trkpt lat="45.89422" lon="6.49057">
        <ele>2323.5</ele>
        <time>2013-01-01T00:00:10Z</time>
      </trkpt>
      <trkpt lat="45.8943" lon="6.49049">
        <ele>2319.2</ele>
        <time>2013-01-01T00:00:12Z</time>
      </trkpt>
      <trkpt lat="45.8944" lon="6.49051">
        <ele>2314.9</ele>
        <time>2013-01-01T00:00:16Z</time>
      </trkpt>
      <trkpt lat="45.89453" lon="6.49046">
        <ele>2310.7</ele>
        <time>2013-01-01T00:00:19Z</time>
      </trkpt>
      <trkpt lat="45.89463" lon="6.49045">
        <ele>2306.5</ele>
        <time>2013-01-01T00:00:21Z</time>
      </trkpt>
      <trkpt lat="45.89476" lon="6.49044">
        <ele>2303.2</ele>
        <time>2013-01-01T00:00:23Z</time>
      </trkpt>
      <trkpt lat="45.89484" lon="6.49044">
        <ele>2299.1</ele>
        <time>2013-01-01T00:00:24Z</time>
      </trkpt>
      <trkpt lat="45.89493" lon="6.49046">
        <ele>2299.8</ele>
        <time>2013-01-01T00:00:26Z</time>
      </trkpt>
      <trkpt lat="45.89501" lon="6.49046">
        <ele>2294</ele>
        <time>2013-01-01T00:00:32Z</time>
      </trkpt>
      <trkpt lat="45.89503" lon="6.4904">
        <ele>2294</ele>
        <time>2013-01-01T00:00:55Z</time>
      </trkpt>
      <trkpt lat="45.89506" lon="6.49035">
        <ele>2294</ele>
        <time>2013-01-01T00:00:58Z</time>
      </trkpt>
      <trkpt lat="45.89506" lon="6.49035">
        <ele>2294</ele>
        <time>2013-01-01T00:00:58Z</time>
      </trkpt>
      <trkpt lat="45.89494" lon="6.49036">
        <ele>2294</ele>
        <time>2013-01-01T00:01:01Z</time>
      </trkpt>
      <trkpt lat="45.89502" lon="6.49026">
        <ele>2289.6</ele>
        <time>2013-01-01T00:01:05Z</time>
      </trkpt>
      <trkpt lat="45.89505" lon="6.49011">
        <ele>2286</ele>
        <time>2013-01-01T00:01:09Z</time>
      </trkpt>
      <trkpt lat="45.89509" lon="6.48991">
        <ele>2283.1</ele>
        <time>2013-01-01T00:01:11Z</time>
      </trkpt>
      <trkpt lat="45.89514" lon="6.48981">
        <ele>2279.5</ele>
        <time>2013-01-01T00:01:14Z</time>
      </trkpt>
      <trkpt lat="45.89522" lon="6.48974">
        <ele>2275.8</ele>
        <time>2013-01-01T00:01:18Z</time>
      </trkpt>
      <trkpt lat="45.89517" lon="6.48963">
        <ele>2272.2</ele>
        <time>2013-01-01T00:01:21Z</time>
      </trkpt>
      <trkpt lat="45.89511" lon="6.48951">
        <ele>2265.5</ele>
        <time>2013-01-01T00:01:24Z</time>
      </trkpt>
      <trkpt lat="45.89514" lon="6.48939">
        <ele>2258.7</ele>
        <time>2013-01-01T00:01:26Z</time>
      </trkpt>
      <trkpt lat="45.89517" lon="6.48922">
        <ele>2252</ele>
        <time>2013-01-01T00:01:29Z</time>
      </trkpt>
      <trkpt lat="45.89519" lon="6.4891">
        <ele>2245.3</ele>
        <time>2013-01-01T00:01:31Z</time>
      </trkpt>
      <trkpt lat="45.89522" lon="6.48895">
        <ele>2237.9</ele>
        <time>2013-01-01T00:01:32Z</time>
      </trkpt>
      <trkpt lat="45.89522" lon="6.48876">
        <ele>2234.2</ele>
        <time>2013-01-01T00:01:34Z</time>
      </trkpt>
      <trkpt lat="45.89515" lon="6.4886">
        <ele>2230.5</ele>
        <time>2013-01-01T00:01:36Z</time>
      </trkpt>
      <trkpt lat="45.89527" lon="6.48848">
        <ele>2226.7</ele>
        <time>2013-01-01T00:01:39Z</time>
      </trkpt>
      <trkpt lat="45.89536" lon="6.48834">
        <ele>2223</ele>
        <time>2013-01-01T00:01:41Z</time>
      </trkpt>
      <trkpt lat="45.89547" lon="6.48821">
        <ele>2219.3</ele>
        <time>2013-01-01T00:01:43Z</time>
      </trkpt>
      <trkpt lat="45.89558" lon="6.48811">
        <ele>2215.8</ele>
        <time>2013-01-01T00:01:45Z</time>
      </trkpt>
      <trkpt lat="45.89568" lon="6.48808">
        <ele>2215.3</ele>
        <time>2013-01-01T00:01:47Z</time>
      </trkpt>
      <trkpt lat="45.89576" lon="6.48806">
        <ele>2214.8</ele>
        <time>2013-01-01T00:01:49Z</time>
      </trkpt>
      <trkpt lat="45.89584" lon="6.48809">
        <ele>2214</ele>
        <time>2013-01-01T00:02:03Z</time>
      </trkpt>
      <trkpt lat="45.89584" lon="6.4881">
        <ele>2213</ele>
        <time>2013-01-01T00:02:11Z</time>
      </trkpt>
      <trkpt lat="45.89588" lon="6.48795">
        <ele>2181</ele>
        <time>2013-01-01T00:02:34Z</time>
      </trkpt>
      <trkpt lat="45.89588" lon="6.48795">
        <ele>2181</ele>
        <time>2013-01-01T00:02:34Z</time>
      </trkpt>
      <trkpt lat="45.89589" lon="6.48782">
        <ele>2181</ele>
        <time>2013-01-01T00:02:37Z</time>
      </trkpt>
      <trkpt lat="45.89587" lon="6.48784">
        <ele>2181</ele>
        <time>2013-01-01T00:02:58Z</time>
      </trkpt>
      <trkpt lat="45.89582" lon="6.48789">
        <ele>2181</ele>
        <time>2013-01-01T00:03:33Z</time>
      </trkpt>
      <trkpt lat="45.89582" lon="6.48789">
        <ele>2181</ele>
        <time>2013-01-01T00:03:33Z</time>
      </trkpt>
      <trkpt lat="45.89583" lon="6.48791">
        <ele>2181</ele>
        <time>2013-01-01T00:03:44Z</time>
      </trkpt>
      <trkpt lat="45.8959" lon="6.4878">
        <ele>2168</ele>
        <time>2013-01-01T00:04:26Z</time>
      </trkpt>
      <trkpt lat="45.8959" lon="6.4878">
        <ele>2166.1</ele>
        <time>2013-01-01T00:04:26Z</time>
      </trkpt>
      <trkpt lat="45.89612" lon="6.48745">
        <ele>2164.8</ele>
        <time>2013-01-01T00:04:33Z</time>
      </trkpt>
      <trkpt lat="45.8961" lon="6.48717">
        <ele>2163.7</ele>
        <time>2013-01-01T00:04:34Z</time>
      </trkpt>
      <trkpt lat="45.89602" lon="6.48709">
        <ele>2162.8</ele>
        <time>2013-01-01T00:04:36Z</time>
      </trkpt>
      <trkpt lat="45.89605" lon="6.48697">
        <ele>2160.5</ele>
        <time>2013-01-01T00:04:38Z</time>
      </trkpt>
      <trkpt lat="45.89608" lon="6.48685">
        <ele>2154.3</ele>
        <time>2013-01-01T00:04:39Z</time>
      </trkpt>
      <trkpt lat="45.89615" lon="6.48668">
        <ele>2148</ele>
        <time>2013-01-01T00:04:40Z</time>
      </trkpt>
      <trkpt lat="45.8962" lon="6.48652">
        <ele>2141.7</ele>
        <time>2013-01-01T00:04:41Z</time>
      </trkpt>
      <trkpt lat="45.89625" lon="6.48642">
        <ele>2137.8</ele>
        <time>2013-01-01T00:04:42Z</time>
      </trkpt>
      <trkpt lat="45.89633" lon="6.48636">
        <ele>2133.9</ele>
        <time>2013-01-01T00:04:43Z</time>
      </trkpt>
      <trkpt lat="45.89641" lon="6.48619">
        <ele>2130</ele>
        <time>2013-01-01T00:04:45Z</time>
      </trkpt>
      <trkpt lat="45.89648" lon="6.48608">
        <ele>2126.1</ele>
        <time>2013-01-01T00:04:46Z</time>
      </trkpt>
      <trkpt lat="45.89655" lon="6.48597">
        <ele>2119.7</ele>
        <time>2013-01-01T00:04:47Z</time>
      </trkpt>
      <trkpt lat="45.8966" lon="6.48585">
        <ele>2113.4</ele>
        <time>2013-01-01T00:04:48Z</time>
      </trkpt>
      <trkpt lat="45.89664" lon="6.48572">
        <ele>2107</ele>
        <time>2013-01-01T00:04:49Z</time>
      </trkpt>
      <trkpt lat="45.89669" lon="6.48558">
        <ele>2102.2</ele>
        <time>2013-01-01T00:04:50Z</time>
      </trkpt>
      <trkpt lat="45.89675" lon="6.48546">
        <ele>2099.7</ele>
        <time>2013-01-01T00:04:51Z</time>
      </trkpt>
      <trkpt lat="45.89682" lon="6.48533">
        <ele>2097.3</ele>
        <time>2013-01-01T00:04:52Z</time>
      </trkpt>
      <trkpt lat="45.89678" lon="6.48518">
        <ele>2092.7</ele>
        <time>2013-01-01T00:04:53Z</time>
      </trkpt>
      <trkpt lat="45.8968" lon="6.48503">
        <ele>2087.5</ele>
        <time>2013-01-01T00:04:54Z</time>
      </trkpt>
      <trkpt lat="45.89685" lon="6.4849">
        <ele>2082.2</ele>
        <time>2013-01-01T00:04:55Z</time>
      </trkpt>
      <trkpt lat="45.89697" lon="6.48493">
        <ele>2076.9</ele>
        <time>2013-01-01T00:04:56Z</time>
      </trkpt>
      <trkpt lat="45.89708" lon="6.48476">
        <ele>2071.6</ele>
        <time>2013-01-01T00:04:58Z</time>
      </trkpt>
      <trkpt lat="45.89708" lon="6.48457">
        <ele>2068.8</ele>
        <time>2013-01-01T00:05:00Z</time>
      </trkpt>
      <trkpt lat="45.89715" lon="6.48449">
        <ele>2066</ele>
        <time>2013-01-01T00:05:01Z</time>
      </trkpt>
      <trkpt lat="45.89719" lon="6.48438">
        <ele>2063.2</ele>
        <time>2013-01-01T00:05:02Z</time>
      </trkpt>
      <trkpt lat="45.8972" lon="6.48426">
        <ele>2058.8</ele>
        <time>2013-01-01T00:05:03Z</time>
      </trkpt>
      <trkpt lat="45.89724" lon="6.48413">
        <ele>2054.5</ele>
        <time>2013-01-01T00:05:04Z</time>
      </trkpt>
      <trkpt lat="45.89733" lon="6.48403">
        <ele>2050.1</ele>
        <time>2013-01-01T00:05:05Z</time>
      </trkpt>
      <trkpt lat="45.89739" lon="6.48392">
        <ele>2047.8</ele>
        <time>2013-01-01T00:05:06Z</time>
      </trkpt>
      <trkpt lat="45.89749" lon="6.48386">
        <ele>2045.5</ele>
        <time>2013-01-01T00:05:07Z</time>
      </trkpt>
      <trkpt lat="45.89764" lon="6.48372">
        <ele>2044</ele>
        <time>2013-01-01T00:05:09Z</time>
      </trkpt>
      <trkpt lat="45.89773" lon="6.48364">
        <ele>2042.5</ele>
        <time>2013-01-01T00:05:10Z</time>
      </trkpt>
      <trkpt lat="45.8978" lon="6.48351">
        <ele>2039.3</ele>
        <time>2013-01-01T00:05:11Z</time>
      </trkpt>
      <trkpt lat="45.89787" lon="6.48343">
        <ele>2036.1</ele>
        <time>2013-01-01T00:05:12Z</time>
      </trkpt>
      <trkpt lat="45.89795" lon="6.48334">
        <ele>2032.9</ele>
        <time>2013-01-01T00:05:13Z</time>
      </trkpt>
      <trkpt lat="45.89785" lon="6.48318">
        <ele>2031.4</ele>
        <time>2013-01-01T00:05:14Z</time>
      </trkpt>
      <trkpt lat="45.89776" lon="6.48304">
        <ele>2031.4</ele>
        <time>2013-01-01T00:05:15Z</time>
      </trkpt>
      <trkpt lat="45.8977" lon="6.48289">
        <ele>2031.4</ele>
        <time>2013-01-01T00:05:16Z</time>
      </trkpt>
      <trkpt lat="45.89759" lon="6.48289">
        <ele>2031.4</ele>
        <time>2013-01-01T00:05:18Z</time>
      </trkpt>
      <trkpt lat="45.89751" lon="6.48291">
        <ele>2031.4</ele>
        <time>2013-01-01T00:05:21Z</time>
      </trkpt>
      <trkpt lat="45.89744" lon="6.48297">
        <ele>2032.1</ele>
        <time>2013-01-01T00:05:40Z</time>
      </trkpt>
      <trkpt lat="45.89741" lon="6.48308">
        <ele>2032.2</ele>
        <time>2013-01-01T00:05:52Z</time>
      </trkpt>
      <trkpt lat="45.89734" lon="6.48318">
        <ele>2032.3</ele>
        <time>2013-01-01T00:06:00Z</time>
      </trkpt>
      <trkpt lat="45.89726" lon="6.48328">
        <ele>2034</ele>
        <time>2013-01-01T00:06:04Z</time>
      </trkpt>
      <trkpt lat="45.8972" lon="6.48339">
        <ele>2037.9</ele>
        <time>2013-01-01T00:06:08Z</time>
      </trkpt>
      <trkpt lat="45.89714" lon="6.4835">
        <ele>2041.8</ele>
        <time>2013-01-01T00:06:12Z</time>
      </trkpt>
      <trkpt lat="45.89707" lon="6.48358">
        <ele>2044.1</ele>
        <time>2013-01-01T00:06:15Z</time>
      </trkpt>
      <trkpt lat="45.89701" lon="6.48367">
        <ele>2046.4</ele>
        <time>2013-01-01T00:06:18Z</time>
      </trkpt>
      <trkpt lat="45.89696" lon="6.48377">
        <ele>2048.6</ele>
        <time>2013-01-01T00:06:21Z</time>
      </trkpt>
      <trkpt lat="45.89689" lon="6.48388">
        <ele>2050.9</ele>
        <time>2013-01-01T00:06:25Z</time>
      </trkpt>
      <trkpt lat="45.89683" lon="6.48397">
        <ele>2053.2</ele>
        <time>2013-01-01T00:06:28Z</time>
      </trkpt>
      <trkpt lat="45.89676" lon="6.48404">
        <ele>2055.5</ele>
        <time>2013-01-01T00:06:31Z</time>
      </trkpt>
      <trkpt lat="45.8967" lon="6.48414">
        <ele>2057.6</ele>
        <time>2013-01-01T00:06:35Z</time>
      </trkpt>
      <trkpt lat="45.89662" lon="6.48422">
        <ele>2064.3</ele>
        <time>2013-01-01T00:06:38Z</time>
      </trkpt>
      <trkpt lat="45.89654" lon="6.48431">
        <ele>2070.9</ele>
        <time>2013-01-01T00:06:41Z</time>
      </trkpt>
      <trkpt lat="45.89645" lon="6.48442">
        <ele>2075.4</ele>
        <time>2013-01-01T00:06:45Z</time>
      </trkpt>
      <trkpt lat="45.89636" lon="6.48451">
        <ele>2079.8</ele>
        <time>2013-01-01T00:06:49Z</time>
      </trkpt>
      <trkpt lat="45.89629" lon="6.48459">
        <ele>2084.3</ele>
        <time>2013-01-01T00:06:52Z</time>
      </trkpt>
      <trkpt lat="45.89623" lon="6.48467">
        <ele>2088.7</ele>
        <time>2013-01-01T00:06:56Z</time>
      </trkpt>
      <trkpt lat="45.89618" lon="6.48479">
        <ele>2093.2</ele>
        <time>2013-01-01T00:07:01Z</time>
      </trkpt>
      <trkpt lat="45.89614" lon="6.48489">
        <ele>2097.6</ele>
        <time>2013-01-01T00:07:05Z</time>
      </trkpt>
      <trkpt lat="45.8961" lon="6.485">
        <ele>2104.3</ele>
        <time>2013-01-01T00:07:10Z</time>
      </trkpt>
      <trkpt lat="45.89605" lon="6.48511">
        <ele>2110.9</ele>
        <time>2013-01-01T00:07:16Z</time>
      </trkpt>
      <trkpt lat="45.89598" lon="6.48519">
        <ele>2117.5</ele>
        <time>2013-01-01T00:07:22Z</time>
      </trkpt>
      <trkpt lat="45.89592" lon="6.48528">
        <ele>2119.7</ele>
        <time>2013-01-01T00:07:26Z</time>
      </trkpt>
      <trkpt lat="45.89587" lon="6.48539">
        <ele>2121.9</ele>
        <time>2013-01-01T00:07:30Z</time>
      </trkpt>
      <trkpt lat="45.89579" lon="6.48547">
        <ele>2126.3</ele>
        <time>2013-01-01T00:07:33Z</time>
      </trkpt>
      <trkpt lat="45.89572" lon="6.48557">
        <ele>2130.6</ele>
        <time>2013-01-01T00:07:36Z</time>
      </trkpt>
      <trkpt lat="45.89567" lon="6.48569">
        <ele>2135</ele>
        <time>2013-01-01T00:07:40Z</time>
      </trkpt>
      <trkpt lat="45.8956" lon="6.4858">
        <ele>2139.4</ele>
        <time>2013-01-01T00:07:44Z</time>
      </trkpt>
      <trkpt lat="45.89552" lon="6.4859">
        <ele>2145.8</ele>
        <time>2013-01-01T00:07:48Z</time>
      </trkpt>
      <trkpt lat="45.89544" lon="6.486">
        <ele>2152.3</ele>
        <time>2013-01-01T00:07:52Z</time>
      </trkpt>
      <trkpt lat="45.89534" lon="6.48607">
        <ele>2156.5</ele>
        <time>2013-01-01T00:07:55Z</time>
      </trkpt>
      <trkpt lat="45.89526" lon="6.48613">
        <ele>2160.8</ele>
        <time>2013-01-01T00:07:58Z</time>
      </trkpt>
      <trkpt lat="45.89517" lon="6.48619">
        <ele>2165.1</ele>
        <time>2013-01-01T00:08:01Z</time>
      </trkpt>
      <trkpt lat="45.8951" lon="6.48626">
        <ele>2169.4</ele>
        <time>2013-01-01T00:08:04Z</time>
      </trkpt>
      <trkpt lat="45.89502" lon="6.48635">
        <ele>2176.3</ele>
        <time>2013-01-01T00:08:08Z</time>
      </trkpt>
      <trkpt lat="45.89496" lon="6.48644">
        <ele>2181</ele>
        <time>2013-01-01T00:08:12Z</time>
      </trkpt>
      <trkpt lat="45.89487" lon="6.48651">
        <ele>2185.7</ele>
        <time>2013-01-01T00:08:16Z</time>
      </trkpt>
      <trkpt lat="45.89478" lon="6.48658">
        <ele>2190.5</ele>
        <time>2013-01-01T00:08:20Z</time>
      </trkpt>
      <trkpt lat="45.8947" lon="6.48665">
        <ele>2195.2</ele>
        <time>2013-01-01T00:08:24Z</time>
      </trkpt>
      <trkpt lat="45.89462" lon="6.48673">
        <ele>2199.1</ele>
        <time>2013-01-01T00:08:28Z</time>
      </trkpt>
      <trkpt lat="45.89456" lon="6.48682">
        <ele>2203</ele>
        <time>2013-01-01T00:08:32Z</time>
      </trkpt>
      <trkpt lat="45.89453" lon="6.48694">
        <ele>2206.9</ele>
        <time>2013-01-01T00:08:37Z</time>
      </trkpt>
      <trkpt lat="45.89448" lon="6.48707">
        <ele>2210.8</ele>
        <time>2013-01-01T00:08:43Z</time>
      </trkpt>
      <trkpt lat="45.89441" lon="6.48717">
        <ele>2214.7</ele>
        <time>2013-01-01T00:08:47Z</time>
      </trkpt>
      <trkpt lat="45.89433" lon="6.48727">
        <ele>2218.6</ele>
        <time>2013-01-01T00:08:51Z</time>
      </trkpt>
      <trkpt lat="45.89427" lon="6.48734">
        <ele>2219.9</ele>
        <time>2013-01-01T00:08:54Z</time>
      </trkpt>
      <trkpt lat="45.89418" lon="6.48743">
        <ele>2221.2</ele>
        <time>2013-01-01T00:08:58Z</time>
      </trkpt>
      <trkpt lat="45.89411" lon="6.48752">
        <ele>2223.7</ele>
        <time>2013-01-01T00:09:02Z</time>
      </trkpt>
      <trkpt lat="45.89406" lon="6.48764">
        <ele>2228.7</ele>
        <time>2013-01-01T00:09:06Z</time>
      </trkpt>
      <trkpt lat="45.89402" lon="6.48776">
        <ele>2233.7</ele>
        <time>2013-01-01T00:09:09Z</time>
      </trkpt>
      <trkpt lat="45.89396" lon="6.48786">
        <ele>2237.5</ele>
        <time>2013-01-01T00:09:12Z</time>
      </trkpt>
      <trkpt lat="45.89389" lon="6.48797">
        <ele>2241.2</ele>
        <time>2013-01-01T00:09:16Z</time>
      </trkpt>
      <trkpt lat="45.89382" lon="6.48807">
        <ele>2244.9</ele>
        <time>2013-01-01T00:09:20Z</time>
      </trkpt>
      <trkpt lat="45.89375" lon="6.48817">
        <ele>2248.6</ele>
        <time>2013-01-01T00:09:24Z</time>
      </trkpt>
      <trkpt lat="45.89369" lon="6.48825">
        <ele>2252.4</ele>
        <time>2013-01-01T00:09:28Z</time>
      </trkpt>
      <trkpt lat="45.89362" lon="6.48834">
        <ele>2256.1</ele>
        <time>2013-01-01T00:09:32Z</time>
      </trkpt>
      <trkpt lat="45.89355" lon="6.48844">
        <ele>2261.7</ele>
        <time>2013-01-01T00:09:36Z</time>
      </trkpt>
      <trkpt lat="45.89348" lon="6.48855">
        <ele>2267.4</ele>
        <time>2013-01-01T00:09:40Z</time>
      </trkpt>
      <trkpt lat="45.89341" lon="6.48865">
        <ele>2271.7</ele>
        <time>2013-01-01T00:09:44Z</time>
      </trkpt>
      <trkpt lat="45.89335" lon="6.48874">
        <ele>2273.6</ele>
        <time>2013-01-01T00:09:48Z</time>
      </trkpt>
      <trkpt lat="45.89327" lon="6.48881">
        <ele>2275.5</ele>
        <time>2013-01-01T00:09:52Z</time>
      </trkpt>
      <trkpt lat="45.89319" lon="6.48889">
        <ele>2279.3</ele>
        <time>2013-01-01T00:09:56Z</time>
      </trkpt>
      <trkpt lat="45.89312" lon="6.489">
        <ele>2283</ele>
        <time>2013-01-01T00:10:00Z</time>
      </trkpt>
      <trkpt lat="45.89305" lon="6.48911">
        <ele>2286.7</ele>
        <time>2013-01-01T00:10:04Z</time>
      </trkpt>
      <trkpt lat="45.89299" lon="6.48921">
        <ele>2290.5</ele>
        <time>2013-01-01T00:10:08Z</time>
      </trkpt>
      <trkpt lat="45.89292" lon="6.48929">
        <ele>2294.2</ele>
        <time>2013-01-01T00:10:12Z</time>
      </trkpt>
      <trkpt lat="45.89285" lon="6.48935">
        <ele>2299.1</ele>
        <time>2013-01-01T00:10:16Z</time>
      </trkpt>
      <trkpt lat="45.89276" lon="6.48943">
        <ele>2302.1</ele>
        <time>2013-01-01T00:10:20Z</time>
      </trkpt>
      <trkpt lat="45.89269" lon="6.48949">
        <ele>2305.1</ele>
        <time>2013-01-01T00:10:23Z</time>
      </trkpt>
      <trkpt lat="45.89262" lon="6.48956">
        <ele>2308.1</ele>
        <time>2013-01-01T00:10:26Z</time>
      </trkpt>
      <trkpt lat="45.89255" lon="6.48964">
        <ele>2311.1</ele>
        <time>2013-01-01T00:10:29Z</time>
      </trkpt>
      <trkpt lat="45.89248" lon="6.48976">
        <ele>2314.1</ele>
        <time>2013-01-01T00:10:33Z</time>
      </trkpt>
      <trkpt lat="45.89242" lon="6.48989">
        <ele>2316.8</ele>
        <time>2013-01-01T00:10:37Z</time>
      </trkpt>
      <trkpt lat="45.89236" lon="6.48998">
        <ele>2319.5</ele>
        <time>2013-01-01T00:10:41Z</time>
      </trkpt>
      <trkpt lat="45.89229" lon="6.49006">
        <ele>2322.3</ele>
        <time>2013-01-01T00:10:45Z</time>
      </trkpt>
      <trkpt lat="45.89221" lon="6.49013">
        <ele>2325</ele>
        <time>2013-01-01T00:10:49Z</time>
      </trkpt>
      <trkpt lat="45.89212" lon="6.49018">
        <ele>2328.6</ele>
        <time>2013-01-01T00:10:53Z</time>
      </trkpt>
      <trkpt lat="45.89205" lon="6.49025">
        <ele>2331.1</ele>
        <time>2013-01-01T00:10:56Z</time>
      </trkpt>
      <trkpt lat="45.89199" lon="6.49034">
        <ele>2333.5</ele>
        <time>2013-01-01T00:10:59Z</time>
      </trkpt>
      <trkpt lat="45.89193" lon="6.49042">
        <ele>2336</ele>
        <time>2013-01-01T00:11:02Z</time>
      </trkpt>
      <trkpt lat="45.89187" lon="6.49049">
        <ele>2338.5</ele>
        <time>2013-01-01T00:11:05Z</time>
      </trkpt>
      <trkpt lat="45.89179" lon="6.49056">
        <ele>2340.9</ele>
        <time>2013-01-01T00:11:08Z</time>
      </trkpt>
      <trkpt lat="45.89171" lon="6.49062">
        <ele>2343.4</ele>
        <time>2013-01-01T00:11:11Z</time>
      </trkpt>
      <trkpt lat="45.89164" lon="6.49069">
        <ele>2344.3</ele>
        <time>2013-01-01T00:11:15Z</time>
      </trkpt>
      <trkpt lat="45.89157" lon="6.49077">
        <ele>2345.2</ele>
        <time>2013-01-01T00:11:18Z</time>
      </trkpt>
      <trkpt lat="45.8915" lon="6.49082">
        <ele>2347.2</ele>
        <time>2013-01-01T00:11:21Z</time>
      </trkpt>
      <trkpt lat="45.89142" lon="6.49091">
        <ele>2349.2</ele>
        <time>2013-01-01T00:11:25Z</time>
      </trkpt>
      <trkpt lat="45.89137" lon="6.49101">
        <ele>2350.3</ele>
        <time>2013-01-01T00:11:29Z</time>
      </trkpt>
      <trkpt lat="45.89139" lon="6.49116">
        <ele>2350.6</ele>
        <time>2013-01-01T00:11:33Z</time>
      </trkpt>
      <trkpt lat="45.89139" lon="6.4913">
        <ele>2351</ele>
        <time>2013-01-01T00:11:36Z</time>
      </trkpt>
      <trkpt lat="45.8914" lon="6.49143">
        <ele>2351.5</ele>
        <time>2013-01-01T00:11:39Z</time>
      </trkpt>
      <trkpt lat="45.89146" lon="6.49153">
        <ele>2352.1</ele>
        <time>2013-01-01T00:11:43Z</time>
      </trkpt>
      <trkpt lat="45.89149" lon="6.49155">
        <ele>2353</ele>
        <time>2013-01-01T00:11:54Z</time>
      </trkpt>
      <trkpt lat="45.89155" lon="6.49159">
        <ele>2359</ele>
        <time>2013-01-01T00:13:06Z</time>
      </trkpt>
      <trkpt lat="45.89155" lon="6.49159">
        <ele>2359</ele>
        <time>2013-01-01T00:13:06Z</time>
      </trkpt>
      <trkpt lat="45.8916" lon="6.49155">
        <ele>2359</ele>
        <time>2013-01-01T00:13:35Z</time>
      </trkpt>
      <trkpt lat="45.89164" lon="6.49155">
        <ele>2357</ele>
        <time>2013-01-01T00:14:45Z</time>
      </trkpt>
      <trkpt lat="45.89164" lon="6.49155">
        <ele>2355.6</ele>
        <time>2013-01-01T00:14:45Z</time>
      </trkpt>
      <trkpt lat="45.89178" lon="6.49151">
        <ele>2353.8</ele>
        <time>2013-01-01T00:14:47Z</time>
      </trkpt>
      <trkpt lat="45.89186" lon="6.49149">
        <ele>2352.3</ele>
        <time>2013-01-01T00:14:48Z</time>
      </trkpt>
      <trkpt lat="45.89194" lon="6.49138">
        <ele>2351.2</ele>
        <time>2013-01-01T00:14:49Z</time>
      </trkpt>
      <trkpt lat="45.89201" lon="6.49131">
        <ele>2350.3</ele>
        <time>2013-01-01T00:14:50Z</time>
      </trkpt>
      <trkpt lat="45.89208" lon="6.49123">
        <ele>2346.7</ele>
        <time>2013-01-01T00:14:51Z</time>
      </trkpt>
      <trkpt lat="45.89215" lon="6.49116">
        <ele>2343.2</ele>
        <time>2013-01-01T00:14:52Z</time>
      </trkpt>
      <trkpt lat="45.89219" lon="6.49095">
        <ele>2339.6</ele>
        <time>2013-01-01T00:14:54Z</time>
      </trkpt>
      <trkpt lat="45.89228" lon="6.4908">
        <ele>2336.1</ele>
        <time>2013-01-01T00:14:56Z</time>
      </trkpt>
      <trkpt lat="45.89236" lon="6.49065">
        <ele>2332.5</ele>
        <time>2013-01-01T00:14:58Z</time>
      </trkpt>
      <trkpt lat="45.89246" lon="6.4905">
        <ele>2330.1</ele>
        <time>2013-01-01T00:15:00Z</time>
      </trkpt>
      <trkpt lat="45.89255" lon="6.49035">
        <ele>2326.5</ele>
        <time>2013-01-01T00:15:02Z</time>
      </trkpt>
      <trkpt lat="45.89261" lon="6.4902">
        <ele>2321.5</ele>
        <time>2013-01-01T00:15:04Z</time>
      </trkpt>
      <trkpt lat="45.89273" lon="6.49014">
        <ele>2316.6</ele>
        <time>2013-01-01T00:15:06Z</time>
      </trkpt>
      <trkpt lat="45.8928" lon="6.48999">
        <ele>2311.7</ele>
        <time>2013-01-01T00:15:08Z</time>
      </trkpt>
      <trkpt lat="45.89283" lon="6.48987">
        <ele>2306.8</ele>
        <time>2013-01-01T00:15:22Z</time>
      </trkpt>
      <trkpt lat="45.89291" lon="6.48968">
        <ele>2305.5</ele>
        <time>2013-01-01T00:15:24Z</time>
      </trkpt>
      <trkpt lat="45.89297" lon="6.48948">
        <ele>2303.9</ele>
        <time>2013-01-01T00:15:26Z</time>
      </trkpt>
      <trkpt lat="45.89304" lon="6.48939">
        <ele>2301.9</ele>
        <time>2013-01-01T00:15:28Z</time>
      </trkpt>
      <trkpt lat="45.89315" lon="6.4894">
        <ele>2299.3</ele>
        <time>2013-01-01T00:15:32Z</time>
      </trkpt>
      <trkpt lat="45.89312" lon="6.4894">
        <ele>2295.8</ele>
        <time>2013-01-01T00:15:52Z</time>
      </trkpt>
      <trkpt lat="45.89325" lon="6.48939">
        <ele>2287</ele>
        <time>2013-01-01T00:16:18Z</time>
      </trkpt>
      <trkpt lat="45.89325" lon="6.48939">
        <ele>2287</ele>
        <time>2013-01-01T00:16:18Z</time>
      </trkpt>
      <trkpt lat="45.89335" lon="6.48941">
        <ele>2284.4</ele>
        <time>2013-01-01T00:16:21Z</time>
      </trkpt>
      <trkpt lat="45.8935" lon="6.48946">
        <ele>2282.3</ele>
        <time>2013-01-01T00:16:23Z</time>
      </trkpt>
      <trkpt lat="45.89359" lon="6.48945">
        <ele>2280.7</ele>
        <time>2013-01-01T00:16:24Z</time>
      </trkpt>
      <trkpt lat="45.89366" lon="6.48939">
        <ele>2279.4</ele>
        <time>2013-01-01T00:16:25Z</time>
      </trkpt>
      <trkpt lat="45.89376" lon="6.48933">
        <ele>2277.5</ele>
        <time>2013-01-01T00:16:26Z</time>
      </trkpt>
      <trkpt lat="45.89383" lon="6.48923">
        <ele>2273.1</ele>
        <time>2013-01-01T00:16:27Z</time>
      </trkpt>
      <trkpt lat="45.89392" lon="6.4892">
        <ele>2268.7</ele>
        <time>2013-01-01T00:16:28Z</time>
      </trkpt>
      <trkpt lat="45.89401" lon="6.48915">
        <ele>2264.4</ele>
        <time>2013-01-01T00:16:29Z</time>
      </trkpt>
      <trkpt lat="45.89408" lon="6.48907">
        <ele>2260</ele>
        <time>2013-01-01T00:16:30Z</time>
      </trkpt>
      <trkpt lat="45.89415" lon="6.48887">
        <ele>2255.6</ele>
        <time>2013-01-01T00:16:32Z</time>
      </trkpt>
      <trkpt lat="45.89423" lon="6.48881">
        <ele>2251.3</ele>
        <time>2013-01-01T00:16:33Z</time>
      </trkpt>
      <trkpt lat="45.8943" lon="6.48872">
        <ele>2247.1</ele>
        <time>2013-01-01T00:16:34Z</time>
      </trkpt>
      <trkpt lat="45.89439" lon="6.48861">
        <ele>2241</ele>
        <time>2013-01-01T00:16:35Z</time>
      </trkpt>
      <trkpt lat="45.89444" lon="6.4885">
        <ele>2234.9</ele>
        <time>2013-01-01T00:16:36Z</time>
      </trkpt>
      <trkpt lat="45.89446" lon="6.48837">
        <ele>2228.8</ele>
        <time>2013-01-01T00:16:37Z</time>
      </trkpt>
      <trkpt lat="45.89461" lon="6.48822">
        <ele>2222.7</ele>
        <time>2013-01-01T00:16:39Z</time>
      </trkpt>
      <trkpt lat="45.89472" lon="6.4881">
        <ele>2219.1</ele>
        <time>2013-01-01T00:16:41Z</time>
      </trkpt>
      <trkpt lat="45.8948" lon="6.48802">
        <ele>2215.5</ele>
        <time>2013-01-01T00:16:42Z</time>
      </trkpt>
      <trkpt lat="45.89488" lon="6.48795">
        <ele>2211.8</ele>
        <time>2013-01-01T00:16:43Z</time>
      </trkpt>
      <trkpt lat="45.89494" lon="6.48785">
        <ele>2208.2</ele>
        <time>2013-01-01T00:16:44Z</time>
      </trkpt>
      <trkpt lat="45.895" lon="6.48776">
        <ele>2204.5</ele>
        <time>2013-01-01T00:16:45Z</time>
      </trkpt>
      <trkpt lat="45.8951" lon="6.48768">
        <ele>2199.3</ele>
        <time>2013-01-01T00:16:46Z</time>
      </trkpt>
      <trkpt lat="45.89518" lon="6.48763">
        <ele>2197.4</ele>
        <time>2013-01-01T00:16:47Z</time>
      </trkpt>
      <trkpt lat="45.89526" lon="6.48756">
        <ele>2195.7</ele>
        <time>2013-01-01T00:16:48Z</time>
      </trkpt>
      <trkpt lat="45.89533" lon="6.4875">
        <ele>2191.7</ele>
        <time>2013-01-01T00:16:49Z</time>
      </trkpt>
      <trkpt lat="45.89541" lon="6.48742">
        <ele>2187.7</ele>
        <time>2013-01-01T00:16:50Z</time>
      </trkpt>
      <trkpt lat="45.89548" lon="6.48735">
        <ele>2183.7</ele>
        <time>2013-01-01T00:16:51Z</time>
      </trkpt>
      <trkpt lat="45.89538" lon="6.48734">
        <ele>2179.7</ele>
        <time>2013-01-01T00:16:55Z</time>
      </trkpt>
      <trkpt lat="45.89547" lon="6.48728">
        <ele>2175.7</ele>
        <time>2013-01-01T00:16:58Z</time>
      </trkpt>
      <trkpt lat="45.89556" lon="6.4872">
        <ele>2171.7</ele>
        <time>2013-01-01T00:17:00Z</time>
      </trkpt>
      <trkpt lat="45.89564" lon="6.4871">
        <ele>2167.7</ele>
        <time>2013-01-01T00:17:02Z</time>
      </trkpt>
      <trkpt lat="45.89571" lon="6.48699">
        <ele>2163.7</ele>
        <time>2013-01-01T00:17:05Z</time>
      </trkpt>
      <trkpt lat="45.89583" lon="6.48699">
        <ele>2161.4</ele>
        <time>2013-01-01T00:17:07Z</time>
      </trkpt>
      <trkpt lat="45.89597" lon="6.48705">
        <ele>2155.8</ele>
        <time>2013-01-01T00:17:10Z</time>
      </trkpt>
      <trkpt lat="45.89608" lon="6.48697">
        <ele>2151.9</ele>
        <time>2013-01-01T00:17:12Z</time>
      </trkpt>
      <trkpt lat="45.89615" lon="6.48687">
        <ele>2150.4</ele>
        <time>2013-01-01T00:17:13Z</time>
      </trkpt>
      <trkpt lat="45.89624" lon="6.4868">
        <ele>2148.8</ele>
        <time>2013-01-01T00:17:14Z</time>
      </trkpt>
      <trkpt lat="45.89627" lon="6.48668">
        <ele>2144.9</ele>
        <time>2013-01-01T00:17:15Z</time>
      </trkpt>
      <trkpt lat="45.89636" lon="6.48657">
        <ele>2143.4</ele>
        <time>2013-01-01T00:17:17Z</time>
      </trkpt>
      <trkpt lat="45.89647" lon="6.48653">
        <ele>2142.2</ele>
        <time>2013-01-01T00:17:19Z</time>
      </trkpt>
      <trkpt lat="45.89655" lon="6.48648">
        <ele>2140.8</ele>
        <time>2013-01-01T00:17:21Z</time>
      </trkpt>
      <trkpt lat="45.89644" lon="6.48636">
        <ele>2139</ele>
        <time>2013-01-01T00:17:22Z</time>
      </trkpt>
      <trkpt lat="45.89652" lon="6.48625">
        <ele>2136.7</ele>
        <time>2013-01-01T00:17:24Z</time>
      </trkpt>
      <trkpt lat="45.89653" lon="6.48629">
        <ele>2133.7</ele>
        <time>2013-01-01T00:17:52Z</time>
      </trkpt>
      <trkpt lat="45.8966" lon="6.48628">
        <ele>2120.7</ele>
        <time>2013-01-01T00:20:48Z</time>
      </trkpt>
      <trkpt lat="45.8966" lon="6.48628">
        <ele>2117.1</ele>
        <time>2013-01-01T00:20:48Z</time>
      </trkpt>
      <trkpt lat="45.8967" lon="6.48618">
        <ele>2114.5</ele>
        <time>2013-01-01T00:20:52Z</time>
      </trkpt>
      <trkpt lat="45.89677" lon="6.4861">
        <ele>2112.4</ele>
        <time>2013-01-01T00:20:53Z</time>
      </trkpt>
      <trkpt lat="45.89687" lon="6.48608">
        <ele>2110.8</ele>
        <time>2013-01-01T00:20:56Z</time>
      </trkpt>
      <trkpt lat="45.89699" lon="6.48603">
        <ele>2109.5</ele>
        <time>2013-01-01T00:20:58Z</time>
      </trkpt>
      <trkpt lat="45.8971" lon="6.48602">
        <ele>2107.1</ele>
        <time>2013-01-01T00:21:00Z</time>
      </trkpt>
      <trkpt lat="45.89721" lon="6.48603">
        <ele>2104.7</ele>
        <time>2013-01-01T00:21:02Z</time>
      </trkpt>
      <trkpt lat="45.89728" lon="6.48611">
        <ele>2104.7</ele>
        <time>2013-01-01T00:21:06Z</time>
      </trkpt>
      <trkpt lat="45.89737" lon="6.4861">
        <ele>2104.7</ele>
        <time>2013-01-01T00:21:12Z</time>
      </trkpt>
      <trkpt lat="45.89751" lon="6.48622">
        <ele>2101.3</ele>
        <time>2013-01-01T00:21:14Z</time>
      </trkpt>
      <trkpt lat="45.89758" lon="6.48634">
        <ele>2097.8</ele>
        <time>2013-01-01T00:21:15Z</time>
      </trkpt>
      <trkpt lat="45.89768" lon="6.48656">
        <ele>2095.8</ele>
        <time>2013-01-01T00:21:17Z</time>
      </trkpt>
      <trkpt lat="45.89774" lon="6.48664">
        <ele>2093.8</ele>
        <time>2013-01-01T00:21:18Z</time>
      </trkpt>
      <trkpt lat="45.89785" lon="6.48678">
        <ele>2093.5</ele>
        <time>2013-01-01T00:21:20Z</time>
      </trkpt>
      <trkpt lat="45.89794" lon="6.48687">
        <ele>2093.1</ele>
        <time>2013-01-01T00:21:21Z</time>
      </trkpt>
      <trkpt lat="45.89802" lon="6.48693">
        <ele>2092.7</ele>
        <time>2013-01-01T00:21:22Z</time>
      </trkpt>
      <trkpt lat="45.89809" lon="6.48699">
        <ele>2090.9</ele>
        <time>2013-01-01T00:21:23Z</time>
      </trkpt>
      <trkpt lat="45.89827" lon="6.4871">
        <ele>2087</ele>
        <time>2013-01-01T00:21:25Z</time>
      </trkpt>
      <trkpt lat="45.89838" lon="6.48722">
        <ele>2083.1</ele>
        <time>2013-01-01T00:21:27Z</time>
      </trkpt>
      <trkpt lat="45.8985" lon="6.48731">
        <ele>2079.2</ele>
        <time>2013-01-01T00:21:29Z</time>
      </trkpt>
      <trkpt lat="45.89863" lon="6.48741">
        <ele>2078.7</ele>
        <time>2013-01-01T00:21:31Z</time>
      </trkpt>
      <trkpt lat="45.89872" lon="6.48743">
        <ele>2078.3</ele>
        <time>2013-01-01T00:21:32Z</time>
      </trkpt>
      <trkpt lat="45.89883" lon="6.48748">
        <ele>2077.8</ele>
        <time>2013-01-01T00:21:33Z</time>
      </trkpt>
      <trkpt lat="45.89899" lon="6.48752">
        <ele>2075.5</ele>
        <time>2013-01-01T00:21:35Z</time>
      </trkpt>
      <trkpt lat="45.89914" lon="6.48757">
        <ele>2071.5</ele>
        <time>2013-01-01T00:21:37Z</time>
      </trkpt>
      <trkpt lat="45.89923" lon="6.48758">
        <ele>2067.5</ele>
        <time>2013-01-01T00:21:38Z</time>
      </trkpt>
      <trkpt lat="45.89935" lon="6.48765">
        <ele>2063.5</ele>
        <time>2013-01-01T00:21:40Z</time>
      </trkpt>
      <trkpt lat="45.89949" lon="6.48774">
        <ele>2059.5</ele>
        <time>2013-01-01T00:21:42Z</time>
      </trkpt>
      <trkpt lat="45.89964" lon="6.48781">
        <ele>2057.5</ele>
        <time>2013-01-01T00:21:44Z</time>
      </trkpt>
      <trkpt lat="45.89977" lon="6.48789">
        <ele>2055.6</ele>
        <time>2013-01-01T00:21:46Z</time>
      </trkpt>
      <trkpt lat="45.89985" lon="6.48793">
        <ele>2053.7</ele>
        <time>2013-01-01T00:21:47Z</time>
      </trkpt>
      <trkpt lat="45.89994" lon="6.48796">
        <ele>2050.3</ele>
        <time>2013-01-01T00:21:48Z</time>
      </trkpt>
      <trkpt lat="45.90006" lon="6.48797">
        <ele>2046.8</ele>
        <time>2013-01-01T00:21:49Z</time>
      </trkpt>
      <trkpt lat="45.9002" lon="6.48799">
        <ele>2043.4</ele>
        <time>2013-01-01T00:21:50Z</time>
      </trkpt>
      <trkpt lat="45.90032" lon="6.488">
        <ele>2041.8</ele>
        <time>2013-01-01T00:21:51Z</time>
      </trkpt>
      <trkpt lat="45.9004" lon="6.48799">
        <ele>2040.3</ele>
        <time>2013-01-01T00:21:52Z</time>
      </trkpt>
      <trkpt lat="45.90049" lon="6.48798">
        <ele>2038.7</ele>
        <time>2013-01-01T00:21:53Z</time>
      </trkpt>
      <trkpt lat="45.90058" lon="6.48797">
        <ele>2037.2</ele>
        <time>2013-01-01T00:21:54Z</time>
      </trkpt>
      <trkpt lat="45.90067" lon="6.48794">
        <ele>2035.7</ele>
        <time>2013-01-01T00:21:55Z</time>
      </trkpt>
      <trkpt lat="45.90083" lon="6.48792">
        <ele>2034.3</ele>
        <time>2013-01-01T00:21:57Z</time>
      </trkpt>
      <trkpt lat="45.90097" lon="6.48791">
        <ele>2032.8</ele>
        <time>2013-01-01T00:21:59Z</time>
      </trkpt>
      <trkpt lat="45.90109" lon="6.48796">
        <ele>2031.4</ele>
        <time>2013-01-01T00:22:01Z</time>
      </trkpt>
      <trkpt lat="45.9012" lon="6.48803">
        <ele>2031.5</ele>
        <time>2013-01-01T00:22:03Z</time>
      </trkpt>
      <trkpt lat="45.90132" lon="6.48809">
        <ele>2031.5</ele>
        <time>2013-01-01T00:22:05Z</time>
      </trkpt>
      <trkpt lat="45.90143" lon="6.4882">
        <ele>2031.6</ele>
        <time>2013-01-01T00:22:07Z</time>
      </trkpt>
      <trkpt lat="45.90153" lon="6.48833">
        <ele>2031.7</ele>
        <time>2013-01-01T00:22:09Z</time>
      </trkpt>
      <trkpt lat="45.90162" lon="6.48844">
        <ele>2031.8</ele>
        <time>2013-01-01T00:22:11Z</time>
      </trkpt>
      <trkpt lat="45.90174" lon="6.48846">
        <ele>2031.9</ele>
        <time>2013-01-01T00:22:13Z</time>
      </trkpt>
      <trkpt lat="45.90173" lon="6.48846">
        <ele>2032</ele>
        <time>2013-01-01T00:22:25Z</time>
      </trkpt>
      <trkpt lat="45.90186" lon="6.48848">
        <ele>2019.7</ele>
        <time>2013-01-01T00:22:41Z</time>
      </trkpt>
      <trkpt lat="45.90186" lon="6.48848">
        <ele>2014</ele>
        <time>2013-01-01T00:22:41Z</time>
      </trkpt>
      <trkpt lat="45.90195" lon="6.48843">
        <ele>2009.8</ele>
        <time>2013-01-01T00:22:42Z</time>
      </trkpt>
      <trkpt lat="45.90202" lon="6.48835">
        <ele>2006.4</ele>
        <time>2013-01-01T00:22:43Z</time>
      </trkpt>
      <trkpt lat="45.90213" lon="6.48821">
        <ele>2003.8</ele>
        <time>2013-01-01T00:22:45Z</time>
      </trkpt>
      <trkpt lat="45.90213" lon="6.48804">
        <ele>1999.1</ele>
        <time>2013-01-01T00:22:47Z</time>
      </trkpt>
      <trkpt lat="45.9022" lon="6.48793">
        <ele>1991.8</ele>
        <time>2013-01-01T00:22:48Z</time>
      </trkpt>
      <trkpt lat="45.90216" lon="6.48775">
        <ele>1987</ele>
        <time>2013-01-01T00:22:51Z</time>
      </trkpt>
      <trkpt lat="45.90216" lon="6.48755">
        <ele>1982.2</ele>
        <time>2013-01-01T00:22:53Z</time>
      </trkpt>
      <trkpt lat="45.90218" lon="6.48733">
        <ele>1977.4</ele>
        <time>2013-01-01T00:22:55Z</time>
      </trkpt>
      <trkpt lat="45.90218" lon="6.48712">
        <ele>1971.9</ele>
        <time>2013-01-01T00:22:57Z</time>
      </trkpt>
      <trkpt lat="45.90213" lon="6.48689">
        <ele>1969.2</ele>
        <time>2013-01-01T00:22:59Z</time>
      </trkpt>
      <trkpt lat="45.90206" lon="6.48676">
        <ele>1966.5</ele>
        <time>2013-01-01T00:23:01Z</time>
      </trkpt>
      <trkpt lat="45.90208" lon="6.48656">
        <ele>1963.7</ele>
        <time>2013-01-01T00:23:03Z</time>
      </trkpt>
      <trkpt lat="45.90206" lon="6.48633">
        <ele>1961</ele>
        <time>2013-01-01T00:23:05Z</time>
      </trkpt>
      <trkpt lat="45.90198" lon="6.48612">
        <ele>1958.3</ele>
        <time>2013-01-01T00:23:07Z</time>
      </trkpt>
      <trkpt lat="45.90198" lon="6.48599">
        <ele>1955.9</ele>
        <time>2013-01-01T00:23:08Z</time>
      </trkpt>
      <trkpt lat="45.90199" lon="6.48586">
        <ele>1953.5</ele>
        <time>2013-01-01T00:23:09Z</time>
      </trkpt>
      <trkpt lat="45.90193" lon="6.48576">
        <ele>1951</ele>
        <time>2013-01-01T00:23:10Z</time>
      </trkpt>
      <trkpt lat="45.90199" lon="6.48564">
        <ele>1947.9</ele>
        <time>2013-01-01T00:23:12Z</time>
      </trkpt>
      <trkpt lat="45.9019" lon="6.4855">
        <ele>1944</ele>
        <time>2013-01-01T00:23:14Z</time>
      </trkpt>
      <trkpt lat="45.9019" lon="6.48534">
        <ele>1943.1</ele>
        <time>2013-01-01T00:23:16Z</time>
      </trkpt>
      <trkpt lat="45.9019" lon="6.48536">
        <ele>1942</ele>
        <time>2013-01-01T00:23:30Z</time>
      </trkpt>
      <trkpt lat="45.90188" lon="6.48522">
        <ele>1926</ele>
        <time>2013-01-01T00:24:40Z</time>
      </trkpt>
      <trkpt lat="45.90188" lon="6.48522">
        <ele>1923.4</ele>
        <time>2013-01-01T00:24:40Z</time>
      </trkpt>
      <trkpt lat="45.90181" lon="6.48503">
        <ele>1921.5</ele>
        <time>2013-01-01T00:24:42Z</time>
      </trkpt>
      <trkpt lat="45.90175" lon="6.48493">
        <ele>1920</ele>
        <time>2013-01-01T00:24:44Z</time>
      </trkpt>
      <trkpt lat="45.90169" lon="6.48479">
        <ele>1918.8</ele>
        <time>2013-01-01T00:24:46Z</time>
      </trkpt>
      <trkpt lat="45.90165" lon="6.48468">
        <ele>1917.8</ele>
        <time>2013-01-01T00:24:47Z</time>
      </trkpt>
      <trkpt lat="45.90164" lon="6.48448">
        <ele>1913.6</ele>
        <time>2013-01-01T00:24:49Z</time>
      </trkpt>
      <trkpt lat="45.90153" lon="6.48437">
        <ele>1909.5</ele>
        <time>2013-01-01T00:24:51Z</time>
      </trkpt>
      <trkpt lat="45.90149" lon="6.48421">
        <ele>1907</ele>
        <time>2013-01-01T00:24:53Z</time>
      </trkpt>
      <trkpt lat="45.90146" lon="6.48402">
        <ele>1904.5</ele>
        <time>2013-01-01T00:24:55Z</time>
      </trkpt>
      <trkpt lat="45.90144" lon="6.48383">
        <ele>1902.1</ele>
        <time>2013-01-01T00:24:57Z</time>
      </trkpt>
      <trkpt lat="45.90147" lon="6.48372">
        <ele>1899.6</ele>
        <time>2013-01-01T00:24:59Z</time>
      </trkpt>
      <trkpt lat="45.90137" lon="6.4836">
        <ele>1898.8</ele>
        <time>2013-01-01T00:25:01Z</time>
      </trkpt>
      <trkpt lat="45.90126" lon="6.4835">
        <ele>1898</ele>
        <time>2013-01-01T00:25:03Z</time>
      </trkpt>
      <trkpt lat="45.90117" lon="6.48357">
        <ele>1897.2</ele>
        <time>2013-01-01T00:25:07Z</time>
      </trkpt>
      <trkpt lat="45.90111" lon="6.4835">
        <ele>1894.3</ele>
        <time>2013-01-01T00:25:10Z</time>
      </trkpt>
      <trkpt lat="45.90102" lon="6.4834">
        <ele>1891.4</ele>
        <time>2013-01-01T00:25:13Z</time>
      </trkpt>
      <trkpt lat="45.90094" lon="6.48332">
        <ele>1891</ele>
        <time>2013-01-01T00:25:16Z</time>
      </trkpt>
      <trkpt lat="45.90089" lon="6.48321">
        <ele>1890.6</ele>
        <time>2013-01-01T00:25:19Z</time>
      </trkpt>
      <trkpt lat="45.90084" lon="6.48311">
        <ele>1888.5</ele>
        <time>2013-01-01T00:25:23Z</time>
      </trkpt>
      <trkpt lat="45.90084" lon="6.48294">
        <ele>1886.5</ele>
        <time>2013-01-01T00:25:25Z</time>
      </trkpt>
      <trkpt lat="45.90083" lon="6.48276">
        <ele>1884.4</ele>
        <time>2013-01-01T00:25:27Z</time>
      </trkpt>
      <trkpt lat="45.90077" lon="6.48267">
        <ele>1880.7</ele>
        <time>2013-01-01T00:25:29Z</time>
      </trkpt>
      <trkpt lat="45.90068" lon="6.48259">
        <ele>1877.1</ele>
        <time>2013-01-01T00:25:32Z</time>
      </trkpt>
      <trkpt lat="45.90065" lon="6.48244">
        <ele>1873.5</ele>
        <time>2013-01-01T00:25:34Z</time>
      </trkpt>
      <trkpt lat="45.90073" lon="6.48228">
        <ele>1869.8</ele>
        <time>2013-01-01T00:25:35Z</time>
      </trkpt>
      <trkpt lat="45.90075" lon="6.48217">
        <ele>1868.3</ele>
        <time>2013-01-01T00:25:36Z</time>
      </trkpt>
      <trkpt lat="45.90076" lon="6.48194">
        <ele>1866.7</ele>
        <time>2013-01-01T00:25:38Z</time>
      </trkpt>
      <trkpt lat="45.90079" lon="6.48181">
        <ele>1865.2</ele>
        <time>2013-01-01T00:25:39Z</time>
      </trkpt>
      <trkpt lat="45.90091" lon="6.48174">
        <ele>1859.8</ele>
        <time>2013-01-01T00:25:41Z</time>
      </trkpt>
      <trkpt lat="45.90095" lon="6.48184">
        <ele>1854.5</ele>
        <time>2013-01-01T00:26:03Z</time>
      </trkpt>
      <trkpt lat="45.90111" lon="6.48198">
        <ele>1849.1</ele>
        <time>2013-01-01T00:26:05Z</time>
      </trkpt>
      <trkpt lat="45.90119" lon="6.48201">
        <ele>1843.7</ele>
        <time>2013-01-01T00:26:06Z</time>
      </trkpt>
      <trkpt lat="45.90127" lon="6.48206">
        <ele>1839.9</ele>
        <time>2013-01-01T00:26:07Z</time>
      </trkpt>
      <trkpt lat="45.90136" lon="6.48211">
        <ele>1838</ele>
        <time>2013-01-01T00:26:08Z</time>
      </trkpt>
      <trkpt lat="45.90146" lon="6.48212">
        <ele>1835.7</ele>
        <time>2013-01-01T00:26:09Z</time>
      </trkpt>
      <trkpt lat="45.90156" lon="6.48211">
        <ele>1832.8</ele>
        <time>2013-01-01T00:26:10Z</time>
      </trkpt>
      <trkpt lat="45.90167" lon="6.48212">
        <ele>1829</ele>
        <time>2013-01-01T00:26:12Z</time>
      </trkpt>
      <trkpt lat="45.90164" lon="6.48209">
        <ele>1824</ele>
        <time>2013-01-01T00:26:32Z</time>
      </trkpt>
      <trkpt lat="45.90165" lon="6.48198">
        <ele>1817</ele>
        <time>2013-01-01T00:27:07Z</time>
      </trkpt>
      <trkpt lat="45.90165" lon="6.48198">
        <ele>1817</ele>
        <time>2013-01-01T00:27:07Z</time>
      </trkpt>
      <trkpt lat="45.90161" lon="6.48188">
        <ele>1817</ele>
        <time>2013-01-01T00:27:10Z</time>
      </trkpt>
      <trkpt lat="45.90166" lon="6.48179">
        <ele>1817</ele>
        <time>2013-01-01T00:27:12Z</time>
      </trkpt>
      <trkpt lat="45.90174" lon="6.48168">
        <ele>1815</ele>
        <time>2013-01-01T00:27:14Z</time>
      </trkpt>
      <trkpt lat="45.90184" lon="6.48167">
        <ele>1810</ele>
        <time>2013-01-01T00:27:16Z</time>
      </trkpt>
      <trkpt lat="45.90191" lon="6.48174">
        <ele>1808.2</ele>
        <time>2013-01-01T00:27:19Z</time>
      </trkpt>
      <trkpt lat="45.90198" lon="6.48161">
        <ele>1803</ele>
        <time>2013-01-01T00:27:22Z</time>
      </trkpt>
      <trkpt lat="45.90202" lon="6.48146">
        <ele>1797.8</ele>
        <time>2013-01-01T00:27:24Z</time>
      </trkpt>
      <trkpt lat="45.90205" lon="6.48132">
        <ele>1792.6</ele>
        <time>2013-01-01T00:27:26Z</time>
      </trkpt>
      <trkpt lat="45.90213" lon="6.48119">
        <ele>1787.5</ele>
        <time>2013-01-01T00:27:28Z</time>
      </trkpt>
      <trkpt lat="45.90209" lon="6.48103">
        <ele>1782.3</ele>
        <time>2013-01-01T00:27:30Z</time>
      </trkpt>
      <trkpt lat="45.90221" lon="6.48103">
        <ele>1774.8</ele>
        <time>2013-01-01T00:27:32Z</time>
      </trkpt>
      <trkpt lat="45.9023" lon="6.48104">
        <ele>1767.4</ele>
        <time>2013-01-01T00:27:36Z</time>
      </trkpt>
      <trkpt lat="45.90229" lon="6.48087">
        <ele>1759.9</ele>
        <time>2013-01-01T00:27:39Z</time>
      </trkpt>
      <trkpt lat="45.90232" lon="6.48074">
        <ele>1754.3</ele>
        <time>2013-01-01T00:27:41Z</time>
      </trkpt>
      <trkpt lat="45.90237" lon="6.48058">
        <ele>1752</ele>
        <time>2013-01-01T00:27:43Z</time>
      </trkpt>
      <trkpt lat="45.90249" lon="6.48047">
        <ele>1746.4</ele>
        <time>2013-01-01T00:27:45Z</time>
      </trkpt>
      <trkpt lat="45.9025" lon="6.4803">
        <ele>1744.1</ele>
        <time>2013-01-01T00:27:47Z</time>
      </trkpt>
      <trkpt lat="45.90244" lon="6.48022">
        <ele>1741.8</ele>
        <time>2013-01-01T00:27:51Z</time>
      </trkpt>
      <trkpt lat="45.90238" lon="6.48011">
        <ele>1737.4</ele>
        <time>2013-01-01T00:27:56Z</time>
      </trkpt>
      <trkpt lat="45.90254" lon="6.48005">
        <ele>1732.9</ele>
        <time>2013-01-01T00:27:58Z</time>
      </trkpt>
      <trkpt lat="45.90256" lon="6.4799">
        <ele>1728.5</ele>
        <time>2013-01-01T00:28:00Z</time>
      </trkpt>
      <trkpt lat="45.9026" lon="6.4798">
        <ele>1726.3</ele>
        <time>2013-01-01T00:28:03Z</time>
      </trkpt>
      <trkpt lat="45.90265" lon="6.4797">
        <ele>1724.1</ele>
        <time>2013-01-01T00:28:12Z</time>
      </trkpt>
      <trkpt lat="45.90257" lon="6.47958">
        <ele>1721.9</ele>
        <time>2013-01-01T00:28:16Z</time>
      </trkpt>
      <trkpt lat="45.9025" lon="6.47952">
        <ele>1719.7</ele>
        <time>2013-01-01T00:28:18Z</time>
      </trkpt>
      <trkpt lat="45.90248" lon="6.47941">
        <ele>1717.5</ele>
        <time>2013-01-01T00:28:23Z</time>
      </trkpt>
      <trkpt lat="45.90245" lon="6.4793">
        <ele>1715.4</ele>
        <time>2013-01-01T00:28:35Z</time>
      </trkpt>
      <trkpt lat="45.90244" lon="6.47916">
        <ele>1711.6</ele>
        <time>2013-01-01T00:28:41Z</time>
      </trkpt>
      <trkpt lat="45.90249" lon="6.47901">
        <ele>1707.9</ele>
        <time>2013-01-01T00:28:43Z</time>
      </trkpt>
      <trkpt lat="45.90256" lon="6.47892">
        <ele>1706.4</ele>
        <time>2013-01-01T00:28:45Z</time>
      </trkpt>
      <trkpt lat="45.90264" lon="6.47896">
        <ele>1705.9</ele>
        <time>2013-01-01T00:28:52Z</time>
      </trkpt>
      <trkpt lat="45.90273" lon="6.47893">
        <ele>1705.3</ele>
        <time>2013-01-01T00:28:57Z</time>
      </trkpt>
      <trkpt lat="45.9028" lon="6.47879">
        <ele>1704.6</ele>
        <time>2013-01-01T00:29:01Z</time>
      </trkpt>
      <trkpt lat="45.90286" lon="6.47872">
        <ele>1703.7</ele>
        <time>2013-01-01T00:29:05Z</time>
      </trkpt>
      <trkpt lat="45.90291" lon="6.47879">
        <ele>1702.5</ele>
        <time>2013-01-01T00:29:29Z</time>
      </trkpt>
      <trkpt lat="45.90294" lon="6.47879">
        <ele>1654</ele>
        <time>2013-01-01T00:29:37Z</time>
      </trkpt>
      <trkpt lat="45.90294" lon="6.47879">
        <ele>1654</ele>
        <time>2013-01-01T00:29:37Z</time>
      </trkpt>
      <trkpt lat="45.90305" lon="6.47877">
        <ele>1654</ele>
        <time>2013-01-01T00:29:42Z</time>
      </trkpt>
      <trkpt lat="45.90304" lon="6.47857">
        <ele>1654</ele>
        <time>2013-01-01T00:29:49Z</time>
      </trkpt>
      <trkpt lat="45.90296" lon="6.47851">
        <ele>1654</ele>
        <time>2013-01-01T00:29:53Z</time>
      </trkpt>
      <trkpt lat="45.90294" lon="6.47847">
        <ele>1654</ele>
        <time>2013-01-01T00:30:08Z</time>
      </trkpt>
      <trkpt lat="45.9029" lon="6.47841">
        <ele>1676.3</ele>
        <time>2013-01-01T00:30:13Z</time>
      </trkpt>
      <trkpt lat="45.9029" lon="6.47841">
        <ele>1671.3</ele>
        <time>2013-01-01T00:30:13Z</time>
      </trkpt>
      <trkpt lat="45.90288" lon="6.47827">
        <ele>1667.5</ele>
        <time>2013-01-01T00:30:15Z</time>
      </trkpt>
      <trkpt lat="45.90292" lon="6.47807">
        <ele>1663.2</ele>
        <time>2013-01-01T00:30:17Z</time>
      </trkpt>
      <trkpt lat="45.90293" lon="6.47784">
        <ele>1661.1</ele>
        <time>2013-01-01T00:30:19Z</time>
      </trkpt>
      <trkpt lat="45.90293" lon="6.47771">
        <ele>1659.4</ele>
        <time>2013-01-01T00:30:20Z</time>
      </trkpt>
      <trkpt lat="45.90292" lon="6.47749">
        <ele>1654.6</ele>
        <time>2013-01-01T00:30:22Z</time>
      </trkpt>
      <trkpt lat="45.90299" lon="6.4774">
        <ele>1649.9</ele>
        <time>2013-01-01T00:30:23Z</time>
      </trkpt>
      <trkpt lat="45.90296" lon="6.47719">
        <ele>1645.2</ele>
        <time>2013-01-01T00:30:25Z</time>
      </trkpt>
      <trkpt lat="45.9029" lon="6.47698">
        <ele>1640.5</ele>
        <time>2013-01-01T00:30:27Z</time>
      </trkpt>
      <trkpt lat="45.90289" lon="6.47685">
        <ele>1640.5</ele>
        <time>2013-01-01T00:30:28Z</time>
      </trkpt>
      <trkpt lat="45.90283" lon="6.47676">
        <ele>1638.1</ele>
        <time>2013-01-01T00:30:29Z</time>
      </trkpt>
      <trkpt lat="45.90279" lon="6.47665">
        <ele>1635.6</ele>
        <time>2013-01-01T00:30:30Z</time>
      </trkpt>
      <trkpt lat="45.90275" lon="6.47654">
        <ele>1633.2</ele>
        <time>2013-01-01T00:30:31Z</time>
      </trkpt>
      <trkpt lat="45.9027" lon="6.47645">
        <ele>1631.8</ele>
        <time>2013-01-01T00:30:32Z</time>
      </trkpt>
      <trkpt lat="45.90267" lon="6.47632">
        <ele>1629.3</ele>
        <time>2013-01-01T00:30:33Z</time>
      </trkpt>
      <trkpt lat="45.90258" lon="6.47626">
        <ele>1626.7</ele>
        <time>2013-01-01T00:30:34Z</time>
      </trkpt>
      <trkpt lat="45.90254" lon="6.47614">
        <ele>1624.2</ele>
        <time>2013-01-01T00:30:35Z</time>
      </trkpt>
      <trkpt lat="45.9025" lon="6.47605">
        <ele>1621.6</ele>
        <time>2013-01-01T00:30:36Z</time>
      </trkpt>
      <trkpt lat="45.90241" lon="6.47596">
        <ele>1619.2</ele>
        <time>2013-01-01T00:30:37Z</time>
      </trkpt>
      <trkpt lat="45.90235" lon="6.47586">
        <ele>1616.7</ele>
        <time>2013-01-01T00:30:38Z</time>
      </trkpt>
      <trkpt lat="45.90226" lon="6.47577">
        <ele>1614.3</ele>
        <time>2013-01-01T00:30:39Z</time>
      </trkpt>
      <trkpt lat="45.90223" lon="6.47558">
        <ele>1614.3</ele>
        <time>2013-01-01T00:30:41Z</time>
      </trkpt>
      <trkpt lat="45.90212" lon="6.47544">
        <ele>1614.3</ele>
        <time>2013-01-01T00:30:43Z</time>
      </trkpt>
      <trkpt lat="45.90202" lon="6.4753">
        <ele>1614.4</ele>
        <time>2013-01-01T00:30:45Z</time>
      </trkpt>
      <trkpt lat="45.90195" lon="6.47512">
        <ele>1614.4</ele>
        <time>2013-01-01T00:30:47Z</time>
      </trkpt>
      <trkpt lat="45.90197" lon="6.47521">
        <ele>1614.5</ele>
        <time>2013-01-01T00:31:18Z</time>
      </trkpt>
      <trkpt lat="45.90203" lon="6.47513">
        <ele>1599.7</ele>
        <time>2013-01-01T00:31:23Z</time>
      </trkpt>
      <trkpt lat="45.90203" lon="6.47513">
        <ele>1598.6</ele>
        <time>2013-01-01T00:31:23Z</time>
      </trkpt>
      <trkpt lat="45.90213" lon="6.47498">
        <ele>1597.8</ele>
        <time>2013-01-01T00:31:25Z</time>
      </trkpt>
      <trkpt lat="45.90222" lon="6.47495">
        <ele>1597.1</ele>
        <time>2013-01-01T00:31:28Z</time>
      </trkpt>
      <trkpt lat="45.9023" lon="6.47502">
        <ele>1594.2</ele>
        <time>2013-01-01T00:31:32Z</time>
      </trkpt>
      <trkpt lat="45.9024" lon="6.47505">
        <ele>1591.8</ele>
        <time>2013-01-01T00:31:36Z</time>
      </trkpt>
      <trkpt lat="45.9025" lon="6.47505">
        <ele>1585.1</ele>
        <time>2013-01-01T00:31:41Z</time>
      </trkpt>
      <trkpt lat="45.9026" lon="6.47494">
        <ele>1578.4</ele>
        <time>2013-01-01T00:31:44Z</time>
      </trkpt>
      <trkpt lat="45.90264" lon="6.47478">
        <ele>1573.7</ele>
        <time>2013-01-01T00:31:45Z</time>
      </trkpt>
      <trkpt lat="45.90272" lon="6.47456">
        <ele>1569.1</ele>
        <time>2013-01-01T00:31:47Z</time>
      </trkpt>
      <trkpt lat="45.9028" lon="6.47451">
        <ele>1564.5</ele>
        <time>2013-01-01T00:31:48Z</time>
      </trkpt>
      <trkpt lat="45.90292" lon="6.47448">
        <ele>1559.8</ele>
        <time>2013-01-01T00:31:50Z</time>
      </trkpt>
      <trkpt lat="45.90302" lon="6.4745">
        <ele>1555.2</ele>
        <time>2013-01-01T00:31:51Z</time>
      </trkpt>
      <trkpt lat="45.9031" lon="6.47449">
        <ele>1551.5</ele>
        <time>2013-01-01T00:31:52Z</time>
      </trkpt>
      <trkpt lat="45.90323" lon="6.47447">
        <ele>1547</ele>
        <time>2013-01-01T00:31:54Z</time>
      </trkpt>
      <trkpt lat="45.90331" lon="6.47438">
        <ele>1544.4</ele>
        <time>2013-01-01T00:31:55Z</time>
      </trkpt>
      <trkpt lat="45.90339" lon="6.47425">
        <ele>1541</ele>
        <time>2013-01-01T00:31:57Z</time>
      </trkpt>
      <trkpt lat="45.90336" lon="6.47425">
        <ele>1541</ele>
        <time>2013-01-01T00:32:08Z</time>
      </trkpt>
      <trkpt lat="45.90348" lon="6.47429">
        <ele>1532.3</ele>
        <time>2013-01-01T00:32:36Z</time>
      </trkpt>
      <trkpt lat="45.90348" lon="6.47429">
        <ele>1529.9</ele>
        <time>2013-01-01T00:32:36Z</time>
      </trkpt>
      <trkpt lat="45.90361" lon="6.47426">
        <ele>1528</ele>
        <time>2013-01-01T00:32:38Z</time>
      </trkpt>
      <trkpt lat="45.90375" lon="6.47427">
        <ele>1526.6</ele>
        <time>2013-01-01T00:32:40Z</time>
      </trkpt>
      <trkpt lat="45.90383" lon="6.47425">
        <ele>1525.4</ele>
        <time>2013-01-01T00:32:41Z</time>
      </trkpt>
      <trkpt lat="45.90396" lon="6.47428">
        <ele>1524.5</ele>
        <time>2013-01-01T00:32:43Z</time>
      </trkpt>
      <trkpt lat="45.90407" lon="6.47429">
        <ele>1522.1</ele>
        <time>2013-01-01T00:32:45Z</time>
      </trkpt>
      <trkpt lat="45.90416" lon="6.47424">
        <ele>1517.6</ele>
        <time>2013-01-01T00:32:46Z</time>
      </trkpt>
      <trkpt lat="45.90425" lon="6.47422">
        <ele>1513.2</ele>
        <time>2013-01-01T00:32:47Z</time>
      </trkpt>
      <trkpt lat="45.90432" lon="6.47415">
        <ele>1508.7</ele>
        <time>2013-01-01T00:32:48Z</time>
      </trkpt>
      <trkpt lat="45.9044" lon="6.47397">
        <ele>1506.6</ele>
        <time>2013-01-01T00:32:50Z</time>
      </trkpt>
      <trkpt lat="45.90444" lon="6.47383">
        <ele>1504.5</ele>
        <time>2013-01-01T00:32:51Z</time>
      </trkpt>
      <trkpt lat="45.90445" lon="6.47361">
        <ele>1500.5</ele>
        <time>2013-01-01T00:32:53Z</time>
      </trkpt>
      <trkpt lat="45.90441" lon="6.47341">
        <ele>1496.4</ele>
        <time>2013-01-01T00:32:55Z</time>
      </trkpt>
      <trkpt lat="45.90437" lon="6.47324">
        <ele>1492.3</ele>
        <time>2013-01-01T00:32:56Z</time>
      </trkpt>
      <trkpt lat="45.90432" lon="6.47314">
        <ele>1488.2</ele>
        <time>2013-01-01T00:32:57Z</time>
      </trkpt>
      <trkpt lat="45.90427" lon="6.47302">
        <ele>1484.1</ele>
        <time>2013-01-01T00:32:58Z</time>
      </trkpt>
      <trkpt lat="45.90423" lon="6.47292">
        <ele>1480</ele>
        <time>2013-01-01T00:32:59Z</time>
      </trkpt>
      <trkpt lat="45.90415" lon="6.47273">
        <ele>1476.7</ele>
        <time>2013-01-01T00:33:00Z</time>
      </trkpt>
      <trkpt lat="45.90407" lon="6.47259">
        <ele>1473.5</ele>
        <time>2013-01-01T00:33:01Z</time>
      </trkpt>
      <trkpt lat="45.90401" lon="6.47244">
        <ele>1470.2</ele>
        <time>2013-01-01T00:33:02Z</time>
      </trkpt>
      <trkpt lat="45.90397" lon="6.4723">
        <ele>1466.9</ele>
        <time>2013-01-01T00:33:03Z</time>
      </trkpt>
      <trkpt lat="45.9039" lon="6.47219">
        <ele>1463.6</ele>
        <time>2013-01-01T00:33:04Z</time>
      </trkpt>
      <trkpt lat="45.90387" lon="6.47201">
        <ele>1462.4</ele>
        <time>2013-01-01T00:33:06Z</time>
      </trkpt>
      <trkpt lat="45.90388" lon="6.47188">
        <ele>1461.1</ele>
        <time>2013-01-01T00:33:08Z</time>
      </trkpt>
      <trkpt lat="45.90396" lon="6.47183">
        <ele>1459.8</ele>
        <time>2013-01-01T00:33:10Z</time>
      </trkpt>
      <trkpt lat="45.90409" lon="6.47185">
        <ele>1458.5</ele>
        <time>2013-01-01T00:33:12Z</time>
      </trkpt>
      <trkpt lat="45.90419" lon="6.47186">
        <ele>1455.1</ele>
        <time>2013-01-01T00:33:13Z</time>
      </trkpt>
      <trkpt lat="45.90428" lon="6.47183">
        <ele>1451.6</ele>
        <time>2013-01-01T00:33:14Z</time>
      </trkpt>
      <trkpt lat="45.90436" lon="6.47174">
        <ele>1449.2</ele>
        <time>2013-01-01T00:33:15Z</time>
      </trkpt>
      <trkpt lat="45.90442" lon="6.47165">
        <ele>1446.7</ele>
        <time>2013-01-01T00:33:16Z</time>
      </trkpt>
      <trkpt lat="45.90458" lon="6.47148">
        <ele>1444.3</ele>
        <time>2013-01-01T00:33:18Z</time>
      </trkpt>
      <trkpt lat="45.90471" lon="6.47142">
        <ele>1441.8</ele>
        <time>2013-01-01T00:33:19Z</time>
      </trkpt>
      <trkpt lat="45.90484" lon="6.47134">
        <ele>1437.7</ele>
        <time>2013-01-01T00:33:20Z</time>
      </trkpt>
      <trkpt lat="45.90495" lon="6.47128">
        <ele>1433.6</ele>
        <time>2013-01-01T00:33:21Z</time>
      </trkpt>
      <trkpt lat="45.90509" lon="6.47121">
        <ele>1429.5</ele>
        <time>2013-01-01T00:33:22Z</time>
      </trkpt>
      <trkpt lat="45.90523" lon="6.47113">
        <ele>1425.5</ele>
        <time>2013-01-01T00:33:23Z</time>
      </trkpt>
      <trkpt lat="45.90538" lon="6.47105">
        <ele>1421.4</ele>
        <time>2013-01-01T00:33:24Z</time>
      </trkpt>
      <trkpt lat="45.90553" lon="6.47097">
        <ele>1418.5</ele>
        <time>2013-01-01T00:33:25Z</time>
      </trkpt>
      <trkpt lat="45.90571" lon="6.47092">
        <ele>1415.7</ele>
        <time>2013-01-01T00:33:26Z</time>
      </trkpt>
      <trkpt lat="45.90588" lon="6.47085">
        <ele>1413.2</ele>
        <time>2013-01-01T00:33:27Z</time>
      </trkpt>
      <trkpt lat="45.90603" lon="6.47083">
        <ele>1410.6</ele>
        <time>2013-01-01T00:33:28Z</time>
      </trkpt>
      <trkpt lat="45.90619" lon="6.4708">
        <ele>1408.1</ele>
        <time>2013-01-01T00:33:29Z</time>
      </trkpt>
      <trkpt lat="45.90631" lon="6.47082">
        <ele>1405.5</ele>
        <time>2013-01-01T00:33:30Z</time>
      </trkpt>
      <trkpt lat="45.90646" lon="6.47082">
        <ele>1404.6</ele>
        <time>2013-01-01T00:33:31Z</time>
      </trkpt>
      <trkpt lat="45.90657" lon="6.47079">
        <ele>1403.7</ele>
        <time>2013-01-01T00:33:32Z</time>
      </trkpt>
      <trkpt lat="45.90671" lon="6.47078">
        <ele>1404.1</ele>
        <time>2013-01-01T00:33:33Z</time>
      </trkpt>
      <trkpt lat="45.90677" lon="6.47089">
        <ele>1400.8</ele>
        <time>2013-01-01T00:33:34Z</time>
      </trkpt>
      <trkpt lat="45.90686" lon="6.47104">
        <ele>1397.5</ele>
        <time>2013-01-01T00:33:35Z</time>
      </trkpt>
      <trkpt lat="45.90694" lon="6.47119">
        <ele>1395.2</ele>
        <time>2013-01-01T00:33:36Z</time>
      </trkpt>
      <trkpt lat="45.90701" lon="6.47131">
        <ele>1392.8</ele>
        <time>2013-01-01T00:33:37Z</time>
      </trkpt>
      <trkpt lat="45.90708" lon="6.47141">
        <ele>1390.5</ele>
        <time>2013-01-01T00:33:38Z</time>
      </trkpt>
      <trkpt lat="45.90713" lon="6.47154">
        <ele>1388</ele>
        <time>2013-01-01T00:33:39Z</time>
      </trkpt>
      <trkpt lat="45.90717" lon="6.47165">
        <ele>1385.5</ele>
        <time>2013-01-01T00:33:40Z</time>
      </trkpt>
      <trkpt lat="45.90723" lon="6.47187">
        <ele>1383.1</ele>
        <time>2013-01-01T00:33:42Z</time>
      </trkpt>
      <trkpt lat="45.90728" lon="6.47198">
        <ele>1380.6</ele>
        <time>2013-01-01T00:33:43Z</time>
      </trkpt>
      <trkpt lat="45.90727" lon="6.4721">
        <ele>1378.2</ele>
        <time>2013-01-01T00:33:44Z</time>
      </trkpt>
      <trkpt lat="45.90725" lon="6.47223">
        <ele>1374.5</ele>
        <time>2013-01-01T00:33:45Z</time>
      </trkpt>
      <trkpt lat="45.90727" lon="6.47237">
        <ele>1374.4</ele>
        <time>2013-01-01T00:33:46Z</time>
      </trkpt>
      <trkpt lat="45.90727" lon="6.47249">
        <ele>1371</ele>
        <time>2013-01-01T00:33:47Z</time>
      </trkpt>
      <trkpt lat="45.9074" lon="6.47243">
        <ele>1367.6</ele>
        <time>2013-01-01T00:33:50Z</time>
      </trkpt>
      <trkpt lat="45.90757" lon="6.47243">
        <ele>1364.3</ele>
        <time>2013-01-01T00:33:52Z</time>
      </trkpt>
      <trkpt lat="45.90769" lon="6.47236">
        <ele>1360.9</ele>
        <time>2013-01-01T00:33:53Z</time>
      </trkpt>
      <trkpt lat="45.90775" lon="6.47223">
        <ele>1357.6</ele>
        <time>2013-01-01T00:33:54Z</time>
      </trkpt>
      <trkpt lat="45.90793" lon="6.47214">
        <ele>1354.4</ele>
        <time>2013-01-01T00:33:55Z</time>
      </trkpt>
      <trkpt lat="45.90807" lon="6.47204">
        <ele>1351.1</ele>
        <time>2013-01-01T00:33:56Z</time>
      </trkpt>
      <trkpt lat="45.90817" lon="6.47189">
        <ele>1346.4</ele>
        <time>2013-01-01T00:33:57Z</time>
      </trkpt>
      <trkpt lat="45.90832" lon="6.47178">
        <ele>1341.6</ele>
        <time>2013-01-01T00:33:58Z</time>
      </trkpt>
      <trkpt lat="45.90845" lon="6.47165">
        <ele>1336.9</ele>
        <time>2013-01-01T00:33:59Z</time>
      </trkpt>
      <trkpt lat="45.90858" lon="6.4715">
        <ele>1332.2</ele>
        <time>2013-01-01T00:34:00Z</time>
      </trkpt>
      <trkpt lat="45.90871" lon="6.47137">
        <ele>1330.7</ele>
        <time>2013-01-01T00:34:01Z</time>
      </trkpt>
      <trkpt lat="45.90882" lon="6.47121">
        <ele>1330.1</ele>
        <time>2013-01-01T00:34:02Z</time>
      </trkpt>
      <trkpt lat="45.90894" lon="6.47101">
        <ele>1329.5</ele>
        <time>2013-01-01T00:34:03Z</time>
      </trkpt>
      <trkpt lat="45.90905" lon="6.47085">
        <ele>1328.8</ele>
        <time>2013-01-01T00:34:04Z</time>
      </trkpt>
      <trkpt lat="45.90917" lon="6.4707">
        <ele>1328.2</ele>
        <time>2013-01-01T00:34:05Z</time>
      </trkpt>
      <trkpt lat="45.90929" lon="6.47053">
        <ele>1325.6</ele>
        <time>2013-01-01T00:34:06Z</time>
      </trkpt>
      <trkpt lat="45.9094" lon="6.47036">
        <ele>1323.1</ele>
        <time>2013-01-01T00:34:07Z</time>
      </trkpt>
      <trkpt lat="45.90949" lon="6.47022">
        <ele>1321.4</ele>
        <time>2013-01-01T00:34:08Z</time>
      </trkpt>
      <trkpt lat="45.90956" lon="6.4701">
        <ele>1319.6</ele>
        <time>2013-01-01T00:34:09Z</time>
      </trkpt>
      <trkpt lat="45.9096" lon="6.46997">
        <ele>1317.9</ele>
        <time>2013-01-01T00:34:10Z</time>
      </trkpt>
      <trkpt lat="45.90968" lon="6.46986">
        <ele>1316.2</ele>
        <time>2013-01-01T00:34:11Z</time>
      </trkpt>
      <trkpt lat="45.90975" lon="6.46975">
        <ele>1314.5</ele>
        <time>2013-01-01T00:34:12Z</time>
      </trkpt>
      <trkpt lat="45.90983" lon="6.46966">
        <ele>1311.9</ele>
        <time>2013-01-01T00:34:13Z</time>
      </trkpt>
      <trkpt lat="45.9099" lon="6.46953">
        <ele>1308.9</ele>
        <time>2013-01-01T00:34:14Z</time>
      </trkpt>
      <trkpt lat="45.90995" lon="6.4694">
        <ele>1305.9</ele>
        <time>2013-01-01T00:34:15Z</time>
      </trkpt>
      <trkpt lat="45.90998" lon="6.46925">
        <ele>1302.9</ele>
        <time>2013-01-01T00:34:16Z</time>
      </trkpt>
      <trkpt lat="45.91003" lon="6.4691">
        <ele>1301.8</ele>
        <time>2013-01-01T00:34:17Z</time>
      </trkpt>
      <trkpt lat="45.91007" lon="6.46897">
        <ele>1300.7</ele>
        <time>2013-01-01T00:34:18Z</time>
      </trkpt>
      <trkpt lat="45.91015" lon="6.46883">
        <ele>1300.3</ele>
        <time>2013-01-01T00:34:19Z</time>
      </trkpt>
      <trkpt lat="45.91022" lon="6.46876">
        <ele>1299.8</ele>
        <time>2013-01-01T00:34:20Z</time>
      </trkpt>
      <trkpt lat="45.91026" lon="6.46861">
        <ele>1298.7</ele>
        <time>2013-01-01T00:34:21Z</time>
      </trkpt>
      <trkpt lat="45.9103" lon="6.46846">
        <ele>1297.6</ele>
        <time>2013-01-01T00:34:22Z</time>
      </trkpt>
      <trkpt lat="45.91029" lon="6.46829">
        <ele>1296.5</ele>
        <time>2013-01-01T00:34:23Z</time>
      </trkpt>
      <trkpt lat="45.91031" lon="6.46812">
        <ele>1295.8</ele>
        <time>2013-01-01T00:34:24Z</time>
      </trkpt>
      <trkpt lat="45.91039" lon="6.46806">
        <ele>1295.5</ele>
        <time>2013-01-01T00:34:25Z</time>
      </trkpt>
      <trkpt lat="45.91043" lon="6.46796">
        <ele>1295.3</ele>
        <time>2013-01-01T00:34:26Z</time>
      </trkpt>
      <trkpt lat="45.91041" lon="6.46785">
        <ele>1295</ele>
        <time>2013-01-01T00:34:27Z</time>
      </trkpt>
      <trkpt lat="45.91043" lon="6.46773">
        <ele>1294.7</ele>
        <time>2013-01-01T00:34:28Z</time>
      </trkpt>
      <trkpt lat="45.9105" lon="6.46759">
        <ele>1294.3</ele>
        <time>2013-01-01T00:34:30Z</time>
      </trkpt>
      <trkpt lat="45.9106" lon="6.46756">
        <ele>1293.9</ele>
        <time>2013-01-01T00:34:37Z</time>
      </trkpt>
      <trkpt lat="45.91063" lon="6.46744">
        <ele>1293.3</ele>
        <time>2013-01-01T00:34:43Z</time>
      </trkpt>
      <trkpt lat="45.9106" lon="6.46741">
        <ele>1293.7</ele>
        <time>2013-01-01T00:34:55Z</time>
      </trkpt>
      <trkpt lat="45.91058" lon="6.46734">
        <ele>1295</ele>
        <time>2013-01-01T00:35:29Z</time>
      </trkpt>
      <trkpt lat="45.91058" lon="6.46734">
        <ele>1295</ele>
        <time>2013-01-01T00:35:29Z</time>
      </trkpt>
      <trkpt lat="45.91057" lon="6.46733">
        <ele>1295</ele>
        <time>2013-01-01T00:35:40Z</time>
      </trkpt>
      <trkpt lat="45.91052" lon="6.46742">
        <ele>1295</ele>
        <time>2013-01-01T00:36:38Z</time>
      </trkpt>
      <trkpt lat="45.91052" lon="6.46742">
        <ele>1295</ele>
        <time>2013-01-01T00:36:38Z</time>
      </trkpt>
      <trkpt lat="45.91051" lon="6.46741">
        <ele>1295</ele>
        <time>2013-01-01T00:36:49Z</time>
      </trkpt>
      <trkpt lat="45.91054" lon="6.46769">
        <ele>1295</ele>
        <time>2013-01-01T00:37:31Z</time>
      </trkpt>
      <trkpt lat="45.91054" lon="6.46769">
        <ele>1295</ele>
        <time>2013-01-01T00:37:31Z</time>
      </trkpt>
      <trkpt lat="45.91058" lon="6.4676">
        <ele>1295</ele>
        <time>2013-01-01T00:37:51Z</time>
      </trkpt>
      <trkpt lat="45.91058" lon="6.46759">
        <ele>1295</ele>
        <time>2013-01-01T00:37:54Z</time>
      </trkpt>
      <trkpt lat="45.91058" lon="6.46759">
        <ele>1295</ele>
        <time>2013-01-01T00:37:54Z</time>
      </trkpt>
      <trkpt lat="45.91059" lon="6.46746">
        <ele>1295</ele>
        <time>2013-01-01T00:38:01Z</time>
      </trkpt>
      <trkpt lat="45.9106" lon="6.46734">
        <ele>1295</ele>
        <time>2013-01-01T00:38:07Z</time>
      </trkpt>
      <trkpt lat="45.91061" lon="6.46726">
        <ele>1295</ele>
        <time>2013-01-01T00:38:27Z</time>
      </trkpt>
      <trkpt lat="45.91059" lon="6.4672">
        <ele>1291</ele>
        <time>2013-01-01T00:38:44Z</time>
      </trkpt>
      <trkpt lat="45.91059" lon="6.4672">
        <ele>1291</ele>
        <time>2013-01-01T00:38:44Z</time>
      </trkpt>
      <trkpt lat="45.9106" lon="6.46718">
        <ele>1291</ele>
        <time>2013-01-01T00:38:55Z</time>
      </trkpt>
      <trkpt lat="45.91052" lon="6.46713">
        <ele>1291</ele>
        <time>2013-01-01T00:41:35Z</time>
      </trkpt>
      <trkpt lat="45.91052" lon="6.46713">
        <ele>1291</ele>
        <time>2013-01-01T00:41:35Z</time>
      </trkpt>
      <trkpt lat="45.91051" lon="6.46711">
        <ele>1291</ele>
        <time>2013-01-01T00:41:46Z</time>
      </trkpt>
      <trkpt lat="45.91044" lon="6.46689">
        <ele>1287.5</ele>
        <time>2013-01-01T00:42:30Z</time>
      </trkpt>
      <trkpt lat="45.91044" lon="6.46689">
        <ele>1287.5</ele>
        <time>2013-01-01T00:42:30Z</time>
      </trkpt>
      <trkpt lat="45.91048" lon="6.46701">
        <ele>1287.5</ele>
        <time>2013-01-01T00:42:33Z</time>
      </trkpt>
      <trkpt lat="45.91048" lon="6.46702">
        <ele>1287.5</ele>
        <time>2013-01-01T00:42:44Z</time>
      </trkpt>
      <trkpt lat="45.91042" lon="6.4671">
        <ele>1284</ele>
        <time>2013-01-01T00:45:36Z</time>
      </trkpt>
      <trkpt lat="45.91042" lon="6.4671">
        <ele>1284</ele>
        <time>2013-01-01T00:45:36Z</time>
      </trkpt>
      <trkpt lat="45.91034" lon="6.4671">
        <ele>1284</ele>
        <time>2013-01-01T00:45:51Z</time>
      </trkpt>
      <trkpt lat="45.91026" lon="6.46708">
        <ele>1284</ele>
        <time>2013-01-01T00:46:01Z</time>
      </trkpt>
      <trkpt lat="45.91017" lon="6.46704">
        <ele>1284</ele>
        <time>2013-01-01T00:46:18Z</time>
      </trkpt>
      <trkpt lat="45.91018" lon="6.46703">
        <ele>1284</ele>
        <time>2013-01-01T00:46:33Z</time>
      </trkpt>
    </trkseg>
  </trk>
</gpx>